<?xml version="1.0" encoding="UTF-8" standalone="no" ?>
<gpx xmlns="http://www.topografix.com/GPX/1/1" xmlns:xsi="http://www.w3.org/2001/XMLSchema-instance" xsi:schemaLocation="http://www.topografix.com/GPX/1/1 http://www.topografix.com/GPX/1/1/gpx.xsd" version="1.1" creator="VisuGPX - https://www.visugpx.com">
  <metadata>
    <name>Route - Châteaux et Grands crus 83-1678</name>
  </metadata>
  <trk>
    <name><![CDATA[6626260-Châteaux et Grands-crus]]></name>
    <trkseg>
      <trkpt lat="48.16627" lon="7.16607">
        <ele>558</ele>
        <time>2019-04-12T10:35:56Z</time>
      </trkpt>
      <trkpt lat="48.16634" lon="7.16614">
        <ele>559</ele>
        <time>2019-04-12T10:36:56Z</time>
      </trkpt>
      <trkpt lat="48.16637" lon="7.16618">
        <ele>559</ele>
        <time>2019-04-12T10:37:56Z</time>
      </trkpt>
      <trkpt lat="48.16639" lon="7.16621">
        <ele>559</ele>
        <time>2019-04-12T10:38:56Z</time>
      </trkpt>
      <trkpt lat="48.16642" lon="7.16625">
        <ele>559</ele>
        <time>2019-04-12T10:39:56Z</time>
      </trkpt>
      <trkpt lat="48.16645" lon="7.16631">
        <ele>559</ele>
        <time>2019-04-12T10:40:56Z</time>
      </trkpt>
      <trkpt lat="48.16651" lon="7.1664">
        <ele>560</ele>
        <time>2019-04-12T10:41:56Z</time>
      </trkpt>
      <trkpt lat="48.16654" lon="7.16645">
        <ele>559</ele>
        <time>2019-04-12T10:42:56Z</time>
      </trkpt>
      <trkpt lat="48.16657" lon="7.16649">
        <ele>560</ele>
        <time>2019-04-12T10:43:56Z</time>
      </trkpt>
      <trkpt lat="48.16661" lon="7.16653">
        <ele>560</ele>
        <time>2019-04-12T10:44:56Z</time>
      </trkpt>
      <trkpt lat="48.16666" lon="7.16658">
        <ele>560</ele>
        <time>2019-04-12T10:45:56Z</time>
      </trkpt>
      <trkpt lat="48.16672" lon="7.16663">
        <ele>560</ele>
        <time>2019-04-12T10:46:56Z</time>
      </trkpt>
      <trkpt lat="48.16688" lon="7.16673">
        <ele>562</ele>
        <time>2019-04-12T10:47:56Z</time>
      </trkpt>
      <trkpt lat="48.16696" lon="7.1668">
        <ele>563</ele>
        <time>2019-04-12T10:48:56Z</time>
      </trkpt>
      <trkpt lat="48.167" lon="7.16683">
        <ele>564</ele>
        <time>2019-04-12T10:49:56Z</time>
      </trkpt>
      <trkpt lat="48.16703" lon="7.16687">
        <ele>564</ele>
        <time>2019-04-12T10:50:56Z</time>
      </trkpt>
      <trkpt lat="48.16707" lon="7.16692">
        <ele>565</ele>
        <time>2019-04-12T10:51:56Z</time>
      </trkpt>
      <trkpt lat="48.16709" lon="7.16695">
        <ele>565</ele>
        <time>2019-04-12T10:52:56Z</time>
      </trkpt>
      <trkpt lat="48.16711" lon="7.16701">
        <ele>565</ele>
        <time>2019-04-12T10:53:56Z</time>
      </trkpt>
      <trkpt lat="48.16711" lon="7.16701">
        <ele>565</ele>
        <time>2019-04-12T10:54:56Z</time>
      </trkpt>
      <trkpt lat="48.1666" lon="7.16743">
        <ele>558</ele>
        <time>2019-04-12T10:55:56Z</time>
      </trkpt>
      <trkpt lat="48.1665" lon="7.16747">
        <ele>558</ele>
        <time>2019-04-12T10:56:56Z</time>
      </trkpt>
      <trkpt lat="48.1664" lon="7.16748">
        <ele>559</ele>
        <time>2019-04-12T10:57:56Z</time>
      </trkpt>
      <trkpt lat="48.16632" lon="7.16748">
        <ele>559</ele>
        <time>2019-04-12T10:58:56Z</time>
      </trkpt>
      <trkpt lat="48.16626" lon="7.16746">
        <ele>559</ele>
        <time>2019-04-12T10:59:56Z</time>
      </trkpt>
      <trkpt lat="48.16621" lon="7.16741">
        <ele>559</ele>
        <time>2019-04-12T11:00:56Z</time>
      </trkpt>
      <trkpt lat="48.16615" lon="7.16732">
        <ele>558</ele>
        <time>2019-04-12T11:01:56Z</time>
      </trkpt>
      <trkpt lat="48.16606" lon="7.16722">
        <ele>557</ele>
        <time>2019-04-12T11:02:56Z</time>
      </trkpt>
      <trkpt lat="48.1658" lon="7.16696">
        <ele>554</ele>
        <time>2019-04-12T11:03:56Z</time>
      </trkpt>
      <trkpt lat="48.16547" lon="7.16668">
        <ele>549</ele>
        <time>2019-04-12T11:04:56Z</time>
      </trkpt>
      <trkpt lat="48.16523" lon="7.16648">
        <ele>547</ele>
        <time>2019-04-12T11:05:56Z</time>
      </trkpt>
      <trkpt lat="48.16502" lon="7.16636">
        <ele>543</ele>
        <time>2019-04-12T11:06:56Z</time>
      </trkpt>
      <trkpt lat="48.16476" lon="7.1663">
        <ele>540</ele>
        <time>2019-04-12T11:07:56Z</time>
      </trkpt>
      <trkpt lat="48.16452" lon="7.16625">
        <ele>536</ele>
        <time>2019-04-12T11:08:56Z</time>
      </trkpt>
      <trkpt lat="48.16427" lon="7.16621">
        <ele>533</ele>
        <time>2019-04-12T11:09:56Z</time>
      </trkpt>
      <trkpt lat="48.16402" lon="7.16616">
        <ele>528</ele>
        <time>2019-04-12T11:10:56Z</time>
      </trkpt>
      <trkpt lat="48.16388" lon="7.16614">
        <ele>525</ele>
        <time>2019-04-12T11:11:56Z</time>
      </trkpt>
      <trkpt lat="48.16385" lon="7.16611">
        <ele>524</ele>
        <time>2019-04-12T11:12:56Z</time>
      </trkpt>
      <trkpt lat="48.16382" lon="7.16606">
        <ele>523</ele>
        <time>2019-04-12T11:13:56Z</time>
      </trkpt>
      <trkpt lat="48.16382" lon="7.16606">
        <ele>523</ele>
        <time>2019-04-12T11:14:56Z</time>
      </trkpt>
      <trkpt lat="48.16384" lon="7.16601">
        <ele>522</ele>
        <time>2019-04-12T11:15:56Z</time>
      </trkpt>
      <trkpt lat="48.16387" lon="7.16598">
        <ele>522</ele>
        <time>2019-04-12T11:16:56Z</time>
      </trkpt>
      <trkpt lat="48.16392" lon="7.16597">
        <ele>523</ele>
        <time>2019-04-12T11:17:56Z</time>
      </trkpt>
      <trkpt lat="48.16396" lon="7.16597">
        <ele>524</ele>
        <time>2019-04-12T11:18:56Z</time>
      </trkpt>
      <trkpt lat="48.16402" lon="7.16599">
        <ele>525</ele>
        <time>2019-04-12T11:19:56Z</time>
      </trkpt>
      <trkpt lat="48.16409" lon="7.166">
        <ele>526</ele>
        <time>2019-04-12T11:20:56Z</time>
      </trkpt>
      <trkpt lat="48.1642" lon="7.166">
        <ele>528</ele>
        <time>2019-04-12T11:21:56Z</time>
      </trkpt>
      <trkpt lat="48.16428" lon="7.16598">
        <ele>529</ele>
        <time>2019-04-12T11:22:56Z</time>
      </trkpt>
      <trkpt lat="48.16434" lon="7.16596">
        <ele>529</ele>
        <time>2019-04-12T11:23:56Z</time>
      </trkpt>
      <trkpt lat="48.16437" lon="7.16592">
        <ele>529</ele>
        <time>2019-04-12T11:24:56Z</time>
      </trkpt>
      <trkpt lat="48.1644" lon="7.16588">
        <ele>529</ele>
        <time>2019-04-12T11:25:56Z</time>
      </trkpt>
      <trkpt lat="48.16442" lon="7.16581">
        <ele>528</ele>
        <time>2019-04-12T11:26:56Z</time>
      </trkpt>
      <trkpt lat="48.16455" lon="7.16574">
        <ele>530</ele>
        <time>2019-04-12T11:27:56Z</time>
      </trkpt>
      <trkpt lat="48.1646" lon="7.16569">
        <ele>531</ele>
        <time>2019-04-12T11:28:56Z</time>
      </trkpt>
      <trkpt lat="48.16462" lon="7.16565">
        <ele>532</ele>
        <time>2019-04-12T11:29:56Z</time>
      </trkpt>
      <trkpt lat="48.16463" lon="7.16561">
        <ele>532</ele>
        <time>2019-04-12T11:30:56Z</time>
      </trkpt>
      <trkpt lat="48.16462" lon="7.16557">
        <ele>532</ele>
        <time>2019-04-12T11:31:56Z</time>
      </trkpt>
      <trkpt lat="48.1646" lon="7.16554">
        <ele>532</ele>
        <time>2019-04-12T11:32:56Z</time>
      </trkpt>
      <trkpt lat="48.1645" lon="7.16551">
        <ele>531</ele>
        <time>2019-04-12T11:33:56Z</time>
      </trkpt>
      <trkpt lat="48.16437" lon="7.1655">
        <ele>529</ele>
        <time>2019-04-12T11:34:56Z</time>
      </trkpt>
      <trkpt lat="48.1643" lon="7.16551">
        <ele>528</ele>
        <time>2019-04-12T11:35:56Z</time>
      </trkpt>
      <trkpt lat="48.16417" lon="7.16548">
        <ele>526</ele>
        <time>2019-04-12T11:36:56Z</time>
      </trkpt>
      <trkpt lat="48.16408" lon="7.16541">
        <ele>524</ele>
        <time>2019-04-12T11:37:56Z</time>
      </trkpt>
      <trkpt lat="48.16392" lon="7.16519">
        <ele>521</ele>
        <time>2019-04-12T11:38:56Z</time>
      </trkpt>
      <trkpt lat="48.16384" lon="7.16514">
        <ele>520</ele>
        <time>2019-04-12T11:39:56Z</time>
      </trkpt>
      <trkpt lat="48.16373" lon="7.16507">
        <ele>517</ele>
        <time>2019-04-12T11:40:56Z</time>
      </trkpt>
      <trkpt lat="48.16366" lon="7.16499">
        <ele>515</ele>
        <time>2019-04-12T11:41:56Z</time>
      </trkpt>
      <trkpt lat="48.16361" lon="7.16483">
        <ele>514</ele>
        <time>2019-04-12T11:42:56Z</time>
      </trkpt>
      <trkpt lat="48.16358" lon="7.16458">
        <ele>512</ele>
        <time>2019-04-12T11:43:56Z</time>
      </trkpt>
      <trkpt lat="48.16357" lon="7.1642">
        <ele>510</ele>
        <time>2019-04-12T11:44:56Z</time>
      </trkpt>
      <trkpt lat="48.16355" lon="7.16397">
        <ele>509</ele>
        <time>2019-04-12T11:45:56Z</time>
      </trkpt>
      <trkpt lat="48.16351" lon="7.16372">
        <ele>506</ele>
        <time>2019-04-12T11:46:56Z</time>
      </trkpt>
      <trkpt lat="48.16347" lon="7.16359">
        <ele>504</ele>
        <time>2019-04-12T11:47:56Z</time>
      </trkpt>
      <trkpt lat="48.16343" lon="7.16347">
        <ele>502</ele>
        <time>2019-04-12T11:48:56Z</time>
      </trkpt>
      <trkpt lat="48.16339" lon="7.16336">
        <ele>499</ele>
        <time>2019-04-12T11:49:56Z</time>
      </trkpt>
      <trkpt lat="48.16334" lon="7.16327">
        <ele>497</ele>
        <time>2019-04-12T11:50:56Z</time>
      </trkpt>
      <trkpt lat="48.16323" lon="7.16313">
        <ele>497</ele>
        <time>2019-04-12T11:51:56Z</time>
      </trkpt>
      <trkpt lat="48.16323" lon="7.16313">
        <ele>497</ele>
        <time>2019-04-12T11:52:56Z</time>
      </trkpt>
      <trkpt lat="48.16318" lon="7.16323">
        <ele>496</ele>
        <time>2019-04-12T11:53:56Z</time>
      </trkpt>
      <trkpt lat="48.16315" lon="7.16328">
        <ele>496</ele>
        <time>2019-04-12T11:54:56Z</time>
      </trkpt>
      <trkpt lat="48.16312" lon="7.16335">
        <ele>495</ele>
        <time>2019-04-12T11:55:56Z</time>
      </trkpt>
      <trkpt lat="48.16308" lon="7.16341">
        <ele>495</ele>
        <time>2019-04-12T11:56:56Z</time>
      </trkpt>
      <trkpt lat="48.16297" lon="7.16355">
        <ele>494</ele>
        <time>2019-04-12T11:57:56Z</time>
      </trkpt>
      <trkpt lat="48.16296" lon="7.16357">
        <ele>494</ele>
        <time>2019-04-12T11:58:56Z</time>
      </trkpt>
      <trkpt lat="48.16287" lon="7.16367">
        <ele>493</ele>
        <time>2019-04-12T11:59:56Z</time>
      </trkpt>
      <trkpt lat="48.16277" lon="7.16378">
        <ele>491</ele>
        <time>2019-04-12T12:00:56Z</time>
      </trkpt>
      <trkpt lat="48.16265" lon="7.16391">
        <ele>489</ele>
        <time>2019-04-12T12:01:56Z</time>
      </trkpt>
      <trkpt lat="48.1626" lon="7.16396">
        <ele>488</ele>
        <time>2019-04-12T12:02:56Z</time>
      </trkpt>
      <trkpt lat="48.16244" lon="7.16417">
        <ele>484</ele>
        <time>2019-04-12T12:03:56Z</time>
      </trkpt>
      <trkpt lat="48.16239" lon="7.16421">
        <ele>484</ele>
        <time>2019-04-12T12:04:56Z</time>
      </trkpt>
      <trkpt lat="48.16237" lon="7.16422">
        <ele>484</ele>
        <time>2019-04-12T12:05:56Z</time>
      </trkpt>
      <trkpt lat="48.16235" lon="7.16425">
        <ele>484</ele>
        <time>2019-04-12T12:06:56Z</time>
      </trkpt>
      <trkpt lat="48.16225" lon="7.16441">
        <ele>484</ele>
        <time>2019-04-12T12:07:56Z</time>
      </trkpt>
      <trkpt lat="48.1621" lon="7.16467">
        <ele>482</ele>
        <time>2019-04-12T12:08:56Z</time>
      </trkpt>
      <trkpt lat="48.16197" lon="7.1649">
        <ele>479</ele>
        <time>2019-04-12T12:09:56Z</time>
      </trkpt>
      <trkpt lat="48.16192" lon="7.16498">
        <ele>478</ele>
        <time>2019-04-12T12:10:56Z</time>
      </trkpt>
      <trkpt lat="48.16176" lon="7.16527">
        <ele>475</ele>
        <time>2019-04-12T12:11:56Z</time>
      </trkpt>
      <trkpt lat="48.16176" lon="7.16527">
        <ele>475</ele>
        <time>2019-04-12T12:12:56Z</time>
      </trkpt>
      <trkpt lat="48.16162" lon="7.16536">
        <ele>472</ele>
        <time>2019-04-12T12:13:56Z</time>
      </trkpt>
      <trkpt lat="48.16156" lon="7.16542">
        <ele>472</ele>
        <time>2019-04-12T12:14:56Z</time>
      </trkpt>
      <trkpt lat="48.16153" lon="7.16546">
        <ele>472</ele>
        <time>2019-04-12T12:15:56Z</time>
      </trkpt>
      <trkpt lat="48.16149" lon="7.16552">
        <ele>472</ele>
        <time>2019-04-12T12:16:56Z</time>
      </trkpt>
      <trkpt lat="48.16143" lon="7.16557">
        <ele>471</ele>
        <time>2019-04-12T12:17:56Z</time>
      </trkpt>
      <trkpt lat="48.16126" lon="7.16569">
        <ele>470</ele>
        <time>2019-04-12T12:18:56Z</time>
      </trkpt>
      <trkpt lat="48.1611" lon="7.16574">
        <ele>468</ele>
        <time>2019-04-12T12:19:56Z</time>
      </trkpt>
      <trkpt lat="48.16094" lon="7.16575">
        <ele>467</ele>
        <time>2019-04-12T12:20:56Z</time>
      </trkpt>
      <trkpt lat="48.16091" lon="7.16576">
        <ele>467</ele>
        <time>2019-04-12T12:21:56Z</time>
      </trkpt>
      <trkpt lat="48.16083" lon="7.16576">
        <ele>467</ele>
        <time>2019-04-12T12:22:56Z</time>
      </trkpt>
      <trkpt lat="48.16065" lon="7.16578">
        <ele>466</ele>
        <time>2019-04-12T12:23:56Z</time>
      </trkpt>
      <trkpt lat="48.16028" lon="7.1658">
        <ele>465</ele>
        <time>2019-04-12T12:24:56Z</time>
      </trkpt>
      <trkpt lat="48.16008" lon="7.16581">
        <ele>465</ele>
        <time>2019-04-12T12:25:56Z</time>
      </trkpt>
      <trkpt lat="48.15963" lon="7.16584">
        <ele>461</ele>
        <time>2019-04-12T12:26:56Z</time>
      </trkpt>
      <trkpt lat="48.15944" lon="7.16585">
        <ele>459</ele>
        <time>2019-04-12T12:27:56Z</time>
      </trkpt>
      <trkpt lat="48.15889" lon="7.16587">
        <ele>455</ele>
        <time>2019-04-12T12:28:56Z</time>
      </trkpt>
      <trkpt lat="48.15835" lon="7.1659">
        <ele>451</ele>
        <time>2019-04-12T12:29:56Z</time>
      </trkpt>
      <trkpt lat="48.15811" lon="7.16589">
        <ele>449</ele>
        <time>2019-04-12T12:30:56Z</time>
      </trkpt>
      <trkpt lat="48.15791" lon="7.16587">
        <ele>448</ele>
        <time>2019-04-12T12:31:56Z</time>
      </trkpt>
      <trkpt lat="48.15781" lon="7.16586">
        <ele>447</ele>
        <time>2019-04-12T12:32:56Z</time>
      </trkpt>
      <trkpt lat="48.15768" lon="7.16585">
        <ele>446</ele>
        <time>2019-04-12T12:33:56Z</time>
      </trkpt>
      <trkpt lat="48.15749" lon="7.16585">
        <ele>445</ele>
        <time>2019-04-12T12:34:56Z</time>
      </trkpt>
      <trkpt lat="48.15728" lon="7.16586">
        <ele>444</ele>
        <time>2019-04-12T12:35:56Z</time>
      </trkpt>
      <trkpt lat="48.15717" lon="7.16588">
        <ele>444</ele>
        <time>2019-04-12T12:36:56Z</time>
      </trkpt>
      <trkpt lat="48.157" lon="7.16592">
        <ele>443</ele>
        <time>2019-04-12T12:37:56Z</time>
      </trkpt>
      <trkpt lat="48.15685" lon="7.16598">
        <ele>442</ele>
        <time>2019-04-12T12:38:56Z</time>
      </trkpt>
      <trkpt lat="48.1567" lon="7.16608">
        <ele>441</ele>
        <time>2019-04-12T12:39:56Z</time>
      </trkpt>
      <trkpt lat="48.15663" lon="7.16614">
        <ele>441</ele>
        <time>2019-04-12T12:40:56Z</time>
      </trkpt>
      <trkpt lat="48.1565" lon="7.16626">
        <ele>440</ele>
        <time>2019-04-12T12:41:56Z</time>
      </trkpt>
      <trkpt lat="48.15635" lon="7.16639">
        <ele>438</ele>
        <time>2019-04-12T12:42:56Z</time>
      </trkpt>
      <trkpt lat="48.15623" lon="7.16646">
        <ele>438</ele>
        <time>2019-04-12T12:43:56Z</time>
      </trkpt>
      <trkpt lat="48.15613" lon="7.16651">
        <ele>437</ele>
        <time>2019-04-12T12:44:56Z</time>
      </trkpt>
      <trkpt lat="48.1559" lon="7.1666">
        <ele>436</ele>
        <time>2019-04-12T12:45:56Z</time>
      </trkpt>
      <trkpt lat="48.15576" lon="7.16666">
        <ele>435</ele>
        <time>2019-04-12T12:46:56Z</time>
      </trkpt>
      <trkpt lat="48.15562" lon="7.16671">
        <ele>434</ele>
        <time>2019-04-12T12:47:56Z</time>
      </trkpt>
      <trkpt lat="48.15556" lon="7.16674">
        <ele>434</ele>
        <time>2019-04-12T12:48:56Z</time>
      </trkpt>
      <trkpt lat="48.15546" lon="7.16679">
        <ele>433</ele>
        <time>2019-04-12T12:49:56Z</time>
      </trkpt>
      <trkpt lat="48.15524" lon="7.16696">
        <ele>432</ele>
        <time>2019-04-12T12:50:56Z</time>
      </trkpt>
      <trkpt lat="48.155" lon="7.16719">
        <ele>431</ele>
        <time>2019-04-12T12:51:56Z</time>
      </trkpt>
      <trkpt lat="48.15491" lon="7.1673">
        <ele>430</ele>
        <time>2019-04-12T12:52:56Z</time>
      </trkpt>
      <trkpt lat="48.15479" lon="7.16747">
        <ele>429</ele>
        <time>2019-04-12T12:53:56Z</time>
      </trkpt>
      <trkpt lat="48.1547" lon="7.1676">
        <ele>429</ele>
        <time>2019-04-12T12:54:56Z</time>
      </trkpt>
      <trkpt lat="48.15463" lon="7.1677">
        <ele>428</ele>
        <time>2019-04-12T12:55:56Z</time>
      </trkpt>
      <trkpt lat="48.15457" lon="7.16776">
        <ele>428</ele>
        <time>2019-04-12T12:56:56Z</time>
      </trkpt>
      <trkpt lat="48.15453" lon="7.16779">
        <ele>428</ele>
        <time>2019-04-12T12:57:56Z</time>
      </trkpt>
      <trkpt lat="48.15449" lon="7.16782">
        <ele>428</ele>
        <time>2019-04-12T12:58:56Z</time>
      </trkpt>
      <trkpt lat="48.15443" lon="7.16783">
        <ele>428</ele>
        <time>2019-04-12T12:59:56Z</time>
      </trkpt>
      <trkpt lat="48.15419" lon="7.16781">
        <ele>427</ele>
        <time>2019-04-12T13:00:56Z</time>
      </trkpt>
      <trkpt lat="48.1541" lon="7.1678">
        <ele>426</ele>
        <time>2019-04-12T13:01:56Z</time>
      </trkpt>
      <trkpt lat="48.15405" lon="7.16779">
        <ele>426</ele>
        <time>2019-04-12T13:02:56Z</time>
      </trkpt>
      <trkpt lat="48.154" lon="7.1678">
        <ele>426</ele>
        <time>2019-04-12T13:03:56Z</time>
      </trkpt>
      <trkpt lat="48.15393" lon="7.1678">
        <ele>426</ele>
        <time>2019-04-12T13:04:56Z</time>
      </trkpt>
      <trkpt lat="48.1538" lon="7.16784">
        <ele>425</ele>
        <time>2019-04-12T13:05:56Z</time>
      </trkpt>
      <trkpt lat="48.1536" lon="7.16792">
        <ele>424</ele>
        <time>2019-04-12T13:06:56Z</time>
      </trkpt>
      <trkpt lat="48.15333" lon="7.16804">
        <ele>423</ele>
        <time>2019-04-12T13:07:56Z</time>
      </trkpt>
      <trkpt lat="48.1532" lon="7.16814">
        <ele>423</ele>
        <time>2019-04-12T13:08:56Z</time>
      </trkpt>
      <trkpt lat="48.15307" lon="7.16824">
        <ele>423</ele>
        <time>2019-04-12T13:09:56Z</time>
      </trkpt>
      <trkpt lat="48.15294" lon="7.16838">
        <ele>422</ele>
        <time>2019-04-12T13:10:56Z</time>
      </trkpt>
      <trkpt lat="48.15283" lon="7.16853">
        <ele>422</ele>
        <time>2019-04-12T13:11:56Z</time>
      </trkpt>
      <trkpt lat="48.15266" lon="7.16878">
        <ele>421</ele>
        <time>2019-04-12T13:12:56Z</time>
      </trkpt>
      <trkpt lat="48.15262" lon="7.16883">
        <ele>421</ele>
        <time>2019-04-12T13:13:56Z</time>
      </trkpt>
      <trkpt lat="48.15259" lon="7.16887">
        <ele>420</ele>
        <time>2019-04-12T13:14:56Z</time>
      </trkpt>
      <trkpt lat="48.15256" lon="7.16891">
        <ele>420</ele>
        <time>2019-04-12T13:15:56Z</time>
      </trkpt>
      <trkpt lat="48.15252" lon="7.16894">
        <ele>420</ele>
        <time>2019-04-12T13:16:56Z</time>
      </trkpt>
      <trkpt lat="48.15246" lon="7.16898">
        <ele>420</ele>
        <time>2019-04-12T13:17:56Z</time>
      </trkpt>
      <trkpt lat="48.15238" lon="7.16902">
        <ele>420</ele>
        <time>2019-04-12T13:18:56Z</time>
      </trkpt>
      <trkpt lat="48.15211" lon="7.1692">
        <ele>419</ele>
        <time>2019-04-12T13:19:56Z</time>
      </trkpt>
      <trkpt lat="48.15208" lon="7.16925">
        <ele>419</ele>
        <time>2019-04-12T13:20:56Z</time>
      </trkpt>
      <trkpt lat="48.15206" lon="7.1693">
        <ele>419</ele>
        <time>2019-04-12T13:21:56Z</time>
      </trkpt>
      <trkpt lat="48.15201" lon="7.16941">
        <ele>418</ele>
        <time>2019-04-12T13:22:56Z</time>
      </trkpt>
      <trkpt lat="48.1519" lon="7.16965">
        <ele>417</ele>
        <time>2019-04-12T13:23:56Z</time>
      </trkpt>
      <trkpt lat="48.1518" lon="7.16983">
        <ele>416</ele>
        <time>2019-04-12T13:24:56Z</time>
      </trkpt>
      <trkpt lat="48.15171" lon="7.16999">
        <ele>415</ele>
        <time>2019-04-12T13:25:56Z</time>
      </trkpt>
      <trkpt lat="48.15159" lon="7.17016">
        <ele>415</ele>
        <time>2019-04-12T13:26:56Z</time>
      </trkpt>
      <trkpt lat="48.1514" lon="7.17042">
        <ele>416</ele>
        <time>2019-04-12T13:27:56Z</time>
      </trkpt>
      <trkpt lat="48.15131" lon="7.17053">
        <ele>416</ele>
        <time>2019-04-12T13:28:56Z</time>
      </trkpt>
      <trkpt lat="48.15106" lon="7.17082">
        <ele>415</ele>
        <time>2019-04-12T13:29:56Z</time>
      </trkpt>
      <trkpt lat="48.151" lon="7.17089">
        <ele>415</ele>
        <time>2019-04-12T13:30:56Z</time>
      </trkpt>
      <trkpt lat="48.15059" lon="7.17133">
        <ele>414</ele>
        <time>2019-04-12T13:31:56Z</time>
      </trkpt>
      <trkpt lat="48.15054" lon="7.17138">
        <ele>414</ele>
        <time>2019-04-12T13:32:56Z</time>
      </trkpt>
      <trkpt lat="48.1502" lon="7.1717">
        <ele>413</ele>
        <time>2019-04-12T13:33:56Z</time>
      </trkpt>
      <trkpt lat="48.15005" lon="7.17186">
        <ele>412</ele>
        <time>2019-04-12T13:34:56Z</time>
      </trkpt>
      <trkpt lat="48.14991" lon="7.17202">
        <ele>413</ele>
        <time>2019-04-12T13:35:56Z</time>
      </trkpt>
      <trkpt lat="48.14967" lon="7.17234">
        <ele>415</ele>
        <time>2019-04-12T13:36:56Z</time>
      </trkpt>
      <trkpt lat="48.14963" lon="7.17239">
        <ele>415</ele>
        <time>2019-04-12T13:37:56Z</time>
      </trkpt>
      <trkpt lat="48.14952" lon="7.17255">
        <ele>415</ele>
        <time>2019-04-12T13:38:56Z</time>
      </trkpt>
      <trkpt lat="48.14938" lon="7.17277">
        <ele>414</ele>
        <time>2019-04-12T13:39:56Z</time>
      </trkpt>
      <trkpt lat="48.14922" lon="7.17303">
        <ele>412</ele>
        <time>2019-04-12T13:40:56Z</time>
      </trkpt>
      <trkpt lat="48.14904" lon="7.17335">
        <ele>410</ele>
        <time>2019-04-12T13:41:56Z</time>
      </trkpt>
      <trkpt lat="48.14839" lon="7.17447">
        <ele>406</ele>
        <time>2019-04-12T13:42:56Z</time>
      </trkpt>
      <trkpt lat="48.14824" lon="7.17477">
        <ele>406</ele>
        <time>2019-04-12T13:43:56Z</time>
      </trkpt>
      <trkpt lat="48.14818" lon="7.17488">
        <ele>406</ele>
        <time>2019-04-12T13:44:56Z</time>
      </trkpt>
      <trkpt lat="48.1481" lon="7.17507">
        <ele>406</ele>
        <time>2019-04-12T13:45:56Z</time>
      </trkpt>
      <trkpt lat="48.14805" lon="7.17519">
        <ele>406</ele>
        <time>2019-04-12T13:46:56Z</time>
      </trkpt>
      <trkpt lat="48.14805" lon="7.17519">
        <ele>406</ele>
        <time>2019-04-12T13:47:56Z</time>
      </trkpt>
      <trkpt lat="48.14801" lon="7.17522">
        <ele>406</ele>
        <time>2019-04-12T13:48:56Z</time>
      </trkpt>
      <trkpt lat="48.14799" lon="7.17525">
        <ele>406</ele>
        <time>2019-04-12T13:49:56Z</time>
      </trkpt>
      <trkpt lat="48.14796" lon="7.17528">
        <ele>406</ele>
        <time>2019-04-12T13:50:56Z</time>
      </trkpt>
      <trkpt lat="48.14783" lon="7.17555">
        <ele>404</ele>
        <time>2019-04-12T13:51:56Z</time>
      </trkpt>
      <trkpt lat="48.14779" lon="7.17563">
        <ele>403</ele>
        <time>2019-04-12T13:52:56Z</time>
      </trkpt>
      <trkpt lat="48.14771" lon="7.17576">
        <ele>402</ele>
        <time>2019-04-12T13:53:56Z</time>
      </trkpt>
      <trkpt lat="48.14763" lon="7.17587">
        <ele>400</ele>
        <time>2019-04-12T13:54:56Z</time>
      </trkpt>
      <trkpt lat="48.14752" lon="7.17594">
        <ele>400</ele>
        <time>2019-04-12T13:55:56Z</time>
      </trkpt>
      <trkpt lat="48.14731" lon="7.17605">
        <ele>402</ele>
        <time>2019-04-12T13:56:56Z</time>
      </trkpt>
      <trkpt lat="48.14708" lon="7.17615">
        <ele>404</ele>
        <time>2019-04-12T13:57:56Z</time>
      </trkpt>
      <trkpt lat="48.14682" lon="7.17627">
        <ele>405</ele>
        <time>2019-04-12T13:58:56Z</time>
      </trkpt>
      <trkpt lat="48.14667" lon="7.17634">
        <ele>405</ele>
        <time>2019-04-12T13:59:56Z</time>
      </trkpt>
      <trkpt lat="48.14647" lon="7.17649">
        <ele>408</ele>
        <time>2019-04-12T14:00:56Z</time>
      </trkpt>
      <trkpt lat="48.14633" lon="7.17663">
        <ele>409</ele>
        <time>2019-04-12T14:01:56Z</time>
      </trkpt>
      <trkpt lat="48.14624" lon="7.17676">
        <ele>410</ele>
        <time>2019-04-12T14:02:56Z</time>
      </trkpt>
      <trkpt lat="48.14609" lon="7.17698">
        <ele>410</ele>
        <time>2019-04-12T14:03:56Z</time>
      </trkpt>
      <trkpt lat="48.14596" lon="7.17718">
        <ele>409</ele>
        <time>2019-04-12T14:04:56Z</time>
      </trkpt>
      <trkpt lat="48.1458" lon="7.17738">
        <ele>406</ele>
        <time>2019-04-12T14:05:56Z</time>
      </trkpt>
      <trkpt lat="48.1458" lon="7.17738">
        <ele>406</ele>
        <time>2019-04-12T14:06:56Z</time>
      </trkpt>
      <trkpt lat="48.14578" lon="7.17745">
        <ele>405</ele>
        <time>2019-04-12T14:07:56Z</time>
      </trkpt>
      <trkpt lat="48.14578" lon="7.17758">
        <ele>403</ele>
        <time>2019-04-12T14:08:56Z</time>
      </trkpt>
      <trkpt lat="48.14579" lon="7.1779">
        <ele>399</ele>
        <time>2019-04-12T14:09:56Z</time>
      </trkpt>
      <trkpt lat="48.14578" lon="7.17808">
        <ele>397</ele>
        <time>2019-04-12T14:10:56Z</time>
      </trkpt>
      <trkpt lat="48.14575" lon="7.17827">
        <ele>396</ele>
        <time>2019-04-12T14:11:56Z</time>
      </trkpt>
      <trkpt lat="48.1457" lon="7.17851">
        <ele>396</ele>
        <time>2019-04-12T14:12:56Z</time>
      </trkpt>
      <trkpt lat="48.14568" lon="7.17867">
        <ele>397</ele>
        <time>2019-04-12T14:13:56Z</time>
      </trkpt>
      <trkpt lat="48.14568" lon="7.17878">
        <ele>397</ele>
        <time>2019-04-12T14:14:56Z</time>
      </trkpt>
      <trkpt lat="48.14572" lon="7.17888">
        <ele>396</ele>
        <time>2019-04-12T14:15:56Z</time>
      </trkpt>
      <trkpt lat="48.14577" lon="7.17895">
        <ele>394</ele>
        <time>2019-04-12T14:16:56Z</time>
      </trkpt>
      <trkpt lat="48.14581" lon="7.17897">
        <ele>393</ele>
        <time>2019-04-12T14:17:56Z</time>
      </trkpt>
      <trkpt lat="48.14586" lon="7.17907">
        <ele>392</ele>
        <time>2019-04-12T14:18:56Z</time>
      </trkpt>
      <trkpt lat="48.14589" lon="7.17921">
        <ele>392</ele>
        <time>2019-04-12T14:19:56Z</time>
      </trkpt>
      <trkpt lat="48.14589" lon="7.17934">
        <ele>392</ele>
        <time>2019-04-12T14:20:56Z</time>
      </trkpt>
      <trkpt lat="48.14587" lon="7.1795">
        <ele>392</ele>
        <time>2019-04-12T14:21:56Z</time>
      </trkpt>
      <trkpt lat="48.14587" lon="7.17965">
        <ele>391</ele>
        <time>2019-04-12T14:22:56Z</time>
      </trkpt>
      <trkpt lat="48.14586" lon="7.17972">
        <ele>391</ele>
        <time>2019-04-12T14:23:56Z</time>
      </trkpt>
      <trkpt lat="48.1458" lon="7.17999">
        <ele>392</ele>
        <time>2019-04-12T14:24:56Z</time>
      </trkpt>
      <trkpt lat="48.14573" lon="7.18032">
        <ele>395</ele>
        <time>2019-04-12T14:25:56Z</time>
      </trkpt>
      <trkpt lat="48.14562" lon="7.18077">
        <ele>398</ele>
        <time>2019-04-12T14:26:56Z</time>
      </trkpt>
      <trkpt lat="48.14556" lon="7.18106">
        <ele>397</ele>
        <time>2019-04-12T14:27:56Z</time>
      </trkpt>
      <trkpt lat="48.14553" lon="7.18136">
        <ele>395</ele>
        <time>2019-04-12T14:28:56Z</time>
      </trkpt>
      <trkpt lat="48.14549" lon="7.18163">
        <ele>392</ele>
        <time>2019-04-12T14:29:56Z</time>
      </trkpt>
      <trkpt lat="48.14542" lon="7.18181">
        <ele>391</ele>
        <time>2019-04-12T14:30:56Z</time>
      </trkpt>
      <trkpt lat="48.14532" lon="7.18203">
        <ele>389</ele>
        <time>2019-04-12T14:31:56Z</time>
      </trkpt>
      <trkpt lat="48.14526" lon="7.18213">
        <ele>388</ele>
        <time>2019-04-12T14:32:56Z</time>
      </trkpt>
      <trkpt lat="48.14518" lon="7.18218">
        <ele>388</ele>
        <time>2019-04-12T14:33:56Z</time>
      </trkpt>
      <trkpt lat="48.14505" lon="7.18225">
        <ele>387</ele>
        <time>2019-04-12T14:34:56Z</time>
      </trkpt>
      <trkpt lat="48.14492" lon="7.18232">
        <ele>386</ele>
        <time>2019-04-12T14:35:56Z</time>
      </trkpt>
      <trkpt lat="48.14482" lon="7.18241">
        <ele>385</ele>
        <time>2019-04-12T14:36:56Z</time>
      </trkpt>
      <trkpt lat="48.14475" lon="7.1825">
        <ele>384</ele>
        <time>2019-04-12T14:37:56Z</time>
      </trkpt>
      <trkpt lat="48.14474" lon="7.18258">
        <ele>383</ele>
        <time>2019-04-12T14:38:56Z</time>
      </trkpt>
      <trkpt lat="48.14474" lon="7.18258">
        <ele>383</ele>
        <time>2019-04-12T14:39:56Z</time>
      </trkpt>
      <trkpt lat="48.14453" lon="7.18257">
        <ele>384</ele>
        <time>2019-04-12T14:40:56Z</time>
      </trkpt>
      <trkpt lat="48.14449" lon="7.18256">
        <ele>384</ele>
        <time>2019-04-12T14:41:56Z</time>
      </trkpt>
      <trkpt lat="48.14422" lon="7.1825">
        <ele>385</ele>
        <time>2019-04-12T14:42:56Z</time>
      </trkpt>
      <trkpt lat="48.14415" lon="7.18249">
        <ele>385</ele>
        <time>2019-04-12T14:43:56Z</time>
      </trkpt>
      <trkpt lat="48.14392" lon="7.18245">
        <ele>386</ele>
        <time>2019-04-12T14:44:56Z</time>
      </trkpt>
      <trkpt lat="48.14392" lon="7.18245">
        <ele>386</ele>
        <time>2019-04-12T14:45:56Z</time>
      </trkpt>
      <trkpt lat="48.14393" lon="7.182">
        <ele>388</ele>
        <time>2019-04-12T14:46:56Z</time>
      </trkpt>
      <trkpt lat="48.14393" lon="7.182">
        <ele>388</ele>
        <time>2019-04-12T14:47:56Z</time>
      </trkpt>
      <trkpt lat="48.14392" lon="7.18245">
        <ele>386</ele>
        <time>2019-04-12T14:48:56Z</time>
      </trkpt>
      <trkpt lat="48.14391" lon="7.18255">
        <ele>385</ele>
        <time>2019-04-12T14:49:56Z</time>
      </trkpt>
      <trkpt lat="48.14391" lon="7.18255">
        <ele>385</ele>
        <time>2019-04-12T14:50:56Z</time>
      </trkpt>
      <trkpt lat="48.14412" lon="7.18261">
        <ele>385</ele>
        <time>2019-04-12T14:51:56Z</time>
      </trkpt>
      <trkpt lat="48.14422" lon="7.18264">
        <ele>384</ele>
        <time>2019-04-12T14:52:56Z</time>
      </trkpt>
      <trkpt lat="48.14438" lon="7.18264">
        <ele>384</ele>
        <time>2019-04-12T14:53:56Z</time>
      </trkpt>
      <trkpt lat="48.14446" lon="7.18266">
        <ele>384</ele>
        <time>2019-04-12T14:54:56Z</time>
      </trkpt>
      <trkpt lat="48.14473" lon="7.18271">
        <ele>383</ele>
        <time>2019-04-12T14:55:56Z</time>
      </trkpt>
      <trkpt lat="48.14473" lon="7.18271">
        <ele>383</ele>
        <time>2019-04-12T14:56:56Z</time>
      </trkpt>
      <trkpt lat="48.14471" lon="7.18284">
        <ele>383</ele>
        <time>2019-04-12T14:57:56Z</time>
      </trkpt>
      <trkpt lat="48.14472" lon="7.18289">
        <ele>383</ele>
        <time>2019-04-12T14:58:56Z</time>
      </trkpt>
      <trkpt lat="48.14478" lon="7.18293">
        <ele>382</ele>
        <time>2019-04-12T14:59:56Z</time>
      </trkpt>
      <trkpt lat="48.14483" lon="7.18297">
        <ele>382</ele>
        <time>2019-04-12T15:00:56Z</time>
      </trkpt>
      <trkpt lat="48.14488" lon="7.18301">
        <ele>382</ele>
        <time>2019-04-12T15:01:56Z</time>
      </trkpt>
      <trkpt lat="48.14492" lon="7.18304">
        <ele>382</ele>
        <time>2019-04-12T15:02:56Z</time>
      </trkpt>
      <trkpt lat="48.14499" lon="7.18309">
        <ele>382</ele>
        <time>2019-04-12T15:03:56Z</time>
      </trkpt>
      <trkpt lat="48.14506" lon="7.18316">
        <ele>382</ele>
        <time>2019-04-12T15:04:56Z</time>
      </trkpt>
      <trkpt lat="48.1451" lon="7.1832">
        <ele>382</ele>
        <time>2019-04-12T15:05:56Z</time>
      </trkpt>
      <trkpt lat="48.14515" lon="7.18324">
        <ele>382</ele>
        <time>2019-04-12T15:06:56Z</time>
      </trkpt>
      <trkpt lat="48.1452" lon="7.18329">
        <ele>382</ele>
        <time>2019-04-12T15:07:56Z</time>
      </trkpt>
      <trkpt lat="48.14525" lon="7.18335">
        <ele>382</ele>
        <time>2019-04-12T15:08:56Z</time>
      </trkpt>
      <trkpt lat="48.14531" lon="7.18341">
        <ele>382</ele>
        <time>2019-04-12T15:09:56Z</time>
      </trkpt>
      <trkpt lat="48.14537" lon="7.18348">
        <ele>382</ele>
        <time>2019-04-12T15:10:56Z</time>
      </trkpt>
      <trkpt lat="48.14541" lon="7.18356">
        <ele>382</ele>
        <time>2019-04-12T15:11:56Z</time>
      </trkpt>
      <trkpt lat="48.14546" lon="7.18365">
        <ele>382</ele>
        <time>2019-04-12T15:12:56Z</time>
      </trkpt>
      <trkpt lat="48.14551" lon="7.18374">
        <ele>382</ele>
        <time>2019-04-12T15:13:56Z</time>
      </trkpt>
      <trkpt lat="48.14556" lon="7.18382">
        <ele>382</ele>
        <time>2019-04-12T15:14:56Z</time>
      </trkpt>
      <trkpt lat="48.14561" lon="7.1839">
        <ele>381</ele>
        <time>2019-04-12T15:15:56Z</time>
      </trkpt>
      <trkpt lat="48.14566" lon="7.18399">
        <ele>381</ele>
        <time>2019-04-12T15:16:56Z</time>
      </trkpt>
      <trkpt lat="48.14569" lon="7.18408">
        <ele>381</ele>
        <time>2019-04-12T15:17:56Z</time>
      </trkpt>
      <trkpt lat="48.14573" lon="7.18418">
        <ele>381</ele>
        <time>2019-04-12T15:18:56Z</time>
      </trkpt>
      <trkpt lat="48.14576" lon="7.18429">
        <ele>381</ele>
        <time>2019-04-12T15:19:56Z</time>
      </trkpt>
      <trkpt lat="48.1458" lon="7.1844">
        <ele>381</ele>
        <time>2019-04-12T15:20:56Z</time>
      </trkpt>
      <trkpt lat="48.14581" lon="7.18452">
        <ele>381</ele>
        <time>2019-04-12T15:21:56Z</time>
      </trkpt>
      <trkpt lat="48.14584" lon="7.18464">
        <ele>381</ele>
        <time>2019-04-12T15:22:56Z</time>
      </trkpt>
      <trkpt lat="48.14587" lon="7.18476">
        <ele>381</ele>
        <time>2019-04-12T15:23:56Z</time>
      </trkpt>
      <trkpt lat="48.1459" lon="7.18488">
        <ele>381</ele>
        <time>2019-04-12T15:24:56Z</time>
      </trkpt>
      <trkpt lat="48.14594" lon="7.185">
        <ele>381</ele>
        <time>2019-04-12T15:25:56Z</time>
      </trkpt>
      <trkpt lat="48.14597" lon="7.18512">
        <ele>381</ele>
        <time>2019-04-12T15:26:56Z</time>
      </trkpt>
      <trkpt lat="48.146" lon="7.18523">
        <ele>381</ele>
        <time>2019-04-12T15:27:56Z</time>
      </trkpt>
      <trkpt lat="48.14603" lon="7.18533">
        <ele>381</ele>
        <time>2019-04-12T15:28:56Z</time>
      </trkpt>
      <trkpt lat="48.14606" lon="7.18544">
        <ele>381</ele>
        <time>2019-04-12T15:29:56Z</time>
      </trkpt>
      <trkpt lat="48.14608" lon="7.18554">
        <ele>381</ele>
        <time>2019-04-12T15:30:56Z</time>
      </trkpt>
      <trkpt lat="48.14611" lon="7.18565">
        <ele>381</ele>
        <time>2019-04-12T15:31:56Z</time>
      </trkpt>
      <trkpt lat="48.14614" lon="7.18575">
        <ele>381</ele>
        <time>2019-04-12T15:32:56Z</time>
      </trkpt>
      <trkpt lat="48.14617" lon="7.18584">
        <ele>380</ele>
        <time>2019-04-12T15:33:56Z</time>
      </trkpt>
      <trkpt lat="48.14619" lon="7.18594">
        <ele>380</ele>
        <time>2019-04-12T15:34:56Z</time>
      </trkpt>
      <trkpt lat="48.14621" lon="7.18603">
        <ele>380</ele>
        <time>2019-04-12T15:35:56Z</time>
      </trkpt>
      <trkpt lat="48.14624" lon="7.18612">
        <ele>380</ele>
        <time>2019-04-12T15:36:56Z</time>
      </trkpt>
      <trkpt lat="48.14625" lon="7.18619">
        <ele>379</ele>
        <time>2019-04-12T15:37:56Z</time>
      </trkpt>
      <trkpt lat="48.14629" lon="7.18629">
        <ele>379</ele>
        <time>2019-04-12T15:38:56Z</time>
      </trkpt>
      <trkpt lat="48.14632" lon="7.18633">
        <ele>379</ele>
        <time>2019-04-12T15:39:56Z</time>
      </trkpt>
      <trkpt lat="48.14636" lon="7.18634">
        <ele>378</ele>
        <time>2019-04-12T15:40:56Z</time>
      </trkpt>
      <trkpt lat="48.14636" lon="7.18634">
        <ele>378</ele>
        <time>2019-04-12T15:41:56Z</time>
      </trkpt>
      <trkpt lat="48.14649" lon="7.18683">
        <ele>377</ele>
        <time>2019-04-12T15:42:56Z</time>
      </trkpt>
      <trkpt lat="48.1466" lon="7.18724">
        <ele>376</ele>
        <time>2019-04-12T15:43:56Z</time>
      </trkpt>
      <trkpt lat="48.14665" lon="7.18742">
        <ele>376</ele>
        <time>2019-04-12T15:44:56Z</time>
      </trkpt>
      <trkpt lat="48.1467" lon="7.18757">
        <ele>376</ele>
        <time>2019-04-12T15:45:56Z</time>
      </trkpt>
      <trkpt lat="48.14674" lon="7.18769">
        <ele>376</ele>
        <time>2019-04-12T15:46:56Z</time>
      </trkpt>
      <trkpt lat="48.14678" lon="7.18778">
        <ele>376</ele>
        <time>2019-04-12T15:47:56Z</time>
      </trkpt>
      <trkpt lat="48.14682" lon="7.18788">
        <ele>376</ele>
        <time>2019-04-12T15:48:56Z</time>
      </trkpt>
      <trkpt lat="48.14687" lon="7.18796">
        <ele>376</ele>
        <time>2019-04-12T15:49:56Z</time>
      </trkpt>
      <trkpt lat="48.14691" lon="7.18803">
        <ele>376</ele>
        <time>2019-04-12T15:50:56Z</time>
      </trkpt>
      <trkpt lat="48.14701" lon="7.18817">
        <ele>376</ele>
        <time>2019-04-12T15:51:56Z</time>
      </trkpt>
      <trkpt lat="48.14711" lon="7.18831">
        <ele>375</ele>
        <time>2019-04-12T15:52:56Z</time>
      </trkpt>
      <trkpt lat="48.1472" lon="7.18841">
        <ele>376</ele>
        <time>2019-04-12T15:53:56Z</time>
      </trkpt>
      <trkpt lat="48.14729" lon="7.18851">
        <ele>376</ele>
        <time>2019-04-12T15:54:56Z</time>
      </trkpt>
      <trkpt lat="48.1474" lon="7.18859">
        <ele>376</ele>
        <time>2019-04-12T15:55:56Z</time>
      </trkpt>
      <trkpt lat="48.14747" lon="7.18864">
        <ele>376</ele>
        <time>2019-04-12T15:56:56Z</time>
      </trkpt>
      <trkpt lat="48.14751" lon="7.18868">
        <ele>376</ele>
        <time>2019-04-12T15:57:56Z</time>
      </trkpt>
      <trkpt lat="48.14756" lon="7.18874">
        <ele>376</ele>
        <time>2019-04-12T15:58:56Z</time>
      </trkpt>
      <trkpt lat="48.14762" lon="7.18881">
        <ele>375</ele>
        <time>2019-04-12T15:59:56Z</time>
      </trkpt>
      <trkpt lat="48.14765" lon="7.18887">
        <ele>375</ele>
        <time>2019-04-12T16:00:56Z</time>
      </trkpt>
      <trkpt lat="48.14769" lon="7.18893">
        <ele>375</ele>
        <time>2019-04-12T16:01:56Z</time>
      </trkpt>
      <trkpt lat="48.14771" lon="7.18899">
        <ele>375</ele>
        <time>2019-04-12T16:02:56Z</time>
      </trkpt>
      <trkpt lat="48.14774" lon="7.18906">
        <ele>375</ele>
        <time>2019-04-12T16:03:56Z</time>
      </trkpt>
      <trkpt lat="48.14776" lon="7.18912">
        <ele>375</ele>
        <time>2019-04-12T16:04:56Z</time>
      </trkpt>
      <trkpt lat="48.14779" lon="7.1892">
        <ele>375</ele>
        <time>2019-04-12T16:05:56Z</time>
      </trkpt>
      <trkpt lat="48.14784" lon="7.1894">
        <ele>376</ele>
        <time>2019-04-12T16:06:56Z</time>
      </trkpt>
      <trkpt lat="48.14791" lon="7.18969">
        <ele>376</ele>
        <time>2019-04-12T16:07:56Z</time>
      </trkpt>
      <trkpt lat="48.14794" lon="7.18981">
        <ele>377</ele>
        <time>2019-04-12T16:08:56Z</time>
      </trkpt>
      <trkpt lat="48.14798" lon="7.18998">
        <ele>377</ele>
        <time>2019-04-12T16:09:56Z</time>
      </trkpt>
      <trkpt lat="48.14801" lon="7.19008">
        <ele>377</ele>
        <time>2019-04-12T16:10:56Z</time>
      </trkpt>
      <trkpt lat="48.14813" lon="7.19049">
        <ele>377</ele>
        <time>2019-04-12T16:11:56Z</time>
      </trkpt>
      <trkpt lat="48.14825" lon="7.19091">
        <ele>375</ele>
        <time>2019-04-12T16:12:56Z</time>
      </trkpt>
      <trkpt lat="48.14825" lon="7.19091">
        <ele>375</ele>
        <time>2019-04-12T16:13:56Z</time>
      </trkpt>
      <trkpt lat="48.14842" lon="7.19086">
        <ele>371</ele>
        <time>2019-04-12T16:14:56Z</time>
      </trkpt>
      <trkpt lat="48.14853" lon="7.19083">
        <ele>370</ele>
        <time>2019-04-12T16:15:56Z</time>
      </trkpt>
      <trkpt lat="48.14869" lon="7.19076">
        <ele>368</ele>
        <time>2019-04-12T16:16:56Z</time>
      </trkpt>
      <trkpt lat="48.14882" lon="7.19072">
        <ele>367</ele>
        <time>2019-04-12T16:17:56Z</time>
      </trkpt>
      <trkpt lat="48.14894" lon="7.19069">
        <ele>366</ele>
        <time>2019-04-12T16:18:56Z</time>
      </trkpt>
      <trkpt lat="48.149" lon="7.19068">
        <ele>365</ele>
        <time>2019-04-12T16:19:56Z</time>
      </trkpt>
      <trkpt lat="48.14903" lon="7.19069">
        <ele>365</ele>
        <time>2019-04-12T16:20:56Z</time>
      </trkpt>
      <trkpt lat="48.14908" lon="7.19071">
        <ele>365</ele>
        <time>2019-04-12T16:21:56Z</time>
      </trkpt>
      <trkpt lat="48.14911" lon="7.19075">
        <ele>364</ele>
        <time>2019-04-12T16:22:56Z</time>
      </trkpt>
      <trkpt lat="48.14913" lon="7.19079">
        <ele>364</ele>
        <time>2019-04-12T16:23:56Z</time>
      </trkpt>
      <trkpt lat="48.14915" lon="7.19083">
        <ele>364</ele>
        <time>2019-04-12T16:24:56Z</time>
      </trkpt>
      <trkpt lat="48.14916" lon="7.19089">
        <ele>364</ele>
        <time>2019-04-12T16:25:56Z</time>
      </trkpt>
      <trkpt lat="48.14917" lon="7.19096">
        <ele>364</ele>
        <time>2019-04-12T16:26:56Z</time>
      </trkpt>
      <trkpt lat="48.14918" lon="7.19113">
        <ele>364</ele>
        <time>2019-04-12T16:27:56Z</time>
      </trkpt>
      <trkpt lat="48.14919" lon="7.19131">
        <ele>365</ele>
        <time>2019-04-12T16:28:56Z</time>
      </trkpt>
      <trkpt lat="48.14919" lon="7.19149">
        <ele>365</ele>
        <time>2019-04-12T16:29:56Z</time>
      </trkpt>
      <trkpt lat="48.14922" lon="7.1917">
        <ele>365</ele>
        <time>2019-04-12T16:30:56Z</time>
      </trkpt>
      <trkpt lat="48.14925" lon="7.19185">
        <ele>364</ele>
        <time>2019-04-12T16:31:56Z</time>
      </trkpt>
      <trkpt lat="48.14927" lon="7.19201">
        <ele>364</ele>
        <time>2019-04-12T16:32:56Z</time>
      </trkpt>
      <trkpt lat="48.1493" lon="7.19208">
        <ele>364</ele>
        <time>2019-04-12T16:33:56Z</time>
      </trkpt>
      <trkpt lat="48.14935" lon="7.19228">
        <ele>363</ele>
        <time>2019-04-12T16:34:56Z</time>
      </trkpt>
      <trkpt lat="48.14937" lon="7.19234">
        <ele>363</ele>
        <time>2019-04-12T16:35:56Z</time>
      </trkpt>
      <trkpt lat="48.1494" lon="7.19239">
        <ele>363</ele>
        <time>2019-04-12T16:36:56Z</time>
      </trkpt>
      <trkpt lat="48.14942" lon="7.19243">
        <ele>362</ele>
        <time>2019-04-12T16:37:56Z</time>
      </trkpt>
      <trkpt lat="48.14946" lon="7.19248">
        <ele>362</ele>
        <time>2019-04-12T16:38:56Z</time>
      </trkpt>
      <trkpt lat="48.1495" lon="7.19253">
        <ele>362</ele>
        <time>2019-04-12T16:39:56Z</time>
      </trkpt>
      <trkpt lat="48.14954" lon="7.19256">
        <ele>361</ele>
        <time>2019-04-12T16:40:56Z</time>
      </trkpt>
      <trkpt lat="48.14961" lon="7.19259">
        <ele>361</ele>
        <time>2019-04-12T16:41:56Z</time>
      </trkpt>
      <trkpt lat="48.14965" lon="7.19261">
        <ele>361</ele>
        <time>2019-04-12T16:42:56Z</time>
      </trkpt>
      <trkpt lat="48.14972" lon="7.19259">
        <ele>360</ele>
        <time>2019-04-12T16:43:56Z</time>
      </trkpt>
      <trkpt lat="48.14994" lon="7.19252">
        <ele>358</ele>
        <time>2019-04-12T16:44:56Z</time>
      </trkpt>
      <trkpt lat="48.15001" lon="7.19249">
        <ele>358</ele>
        <time>2019-04-12T16:45:56Z</time>
      </trkpt>
      <trkpt lat="48.15013" lon="7.19246">
        <ele>360</ele>
        <time>2019-04-12T16:46:56Z</time>
      </trkpt>
      <trkpt lat="48.15021" lon="7.19244">
        <ele>361</ele>
        <time>2019-04-12T16:47:56Z</time>
      </trkpt>
      <trkpt lat="48.15023" lon="7.19244">
        <ele>362</ele>
        <time>2019-04-12T16:48:56Z</time>
      </trkpt>
      <trkpt lat="48.15025" lon="7.19244">
        <ele>362</ele>
        <time>2019-04-12T16:49:56Z</time>
      </trkpt>
      <trkpt lat="48.15026" lon="7.19244">
        <ele>362</ele>
        <time>2019-04-12T16:50:56Z</time>
      </trkpt>
      <trkpt lat="48.15027" lon="7.19245">
        <ele>362</ele>
        <time>2019-04-12T16:51:56Z</time>
      </trkpt>
      <trkpt lat="48.15029" lon="7.19246">
        <ele>362</ele>
        <time>2019-04-12T16:52:56Z</time>
      </trkpt>
      <trkpt lat="48.15031" lon="7.19247">
        <ele>363</ele>
        <time>2019-04-12T16:53:56Z</time>
      </trkpt>
      <trkpt lat="48.15032" lon="7.19249">
        <ele>363</ele>
        <time>2019-04-12T16:54:56Z</time>
      </trkpt>
      <trkpt lat="48.15037" lon="7.19253">
        <ele>363</ele>
        <time>2019-04-12T16:55:56Z</time>
      </trkpt>
      <trkpt lat="48.1504" lon="7.19259">
        <ele>364</ele>
        <time>2019-04-12T16:56:56Z</time>
      </trkpt>
      <trkpt lat="48.15044" lon="7.19266">
        <ele>364</ele>
        <time>2019-04-12T16:57:56Z</time>
      </trkpt>
      <trkpt lat="48.15049" lon="7.19279">
        <ele>364</ele>
        <time>2019-04-12T16:58:56Z</time>
      </trkpt>
      <trkpt lat="48.15061" lon="7.19306">
        <ele>365</ele>
        <time>2019-04-12T16:59:56Z</time>
      </trkpt>
      <trkpt lat="48.15085" lon="7.19356">
        <ele>364</ele>
        <time>2019-04-12T17:00:56Z</time>
      </trkpt>
      <trkpt lat="48.15104" lon="7.1939">
        <ele>368</ele>
        <time>2019-04-12T17:01:56Z</time>
      </trkpt>
      <trkpt lat="48.1512" lon="7.19418">
        <ele>371</ele>
        <time>2019-04-12T17:02:56Z</time>
      </trkpt>
      <trkpt lat="48.15146" lon="7.19462">
        <ele>373</ele>
        <time>2019-04-12T17:03:56Z</time>
      </trkpt>
      <trkpt lat="48.15174" lon="7.19506">
        <ele>373</ele>
        <time>2019-04-12T17:04:56Z</time>
      </trkpt>
      <trkpt lat="48.15208" lon="7.19557">
        <ele>371</ele>
        <time>2019-04-12T17:05:56Z</time>
      </trkpt>
      <trkpt lat="48.15245" lon="7.19616">
        <ele>366</ele>
        <time>2019-04-12T17:06:56Z</time>
      </trkpt>
      <trkpt lat="48.15268" lon="7.19652">
        <ele>363</ele>
        <time>2019-04-12T17:07:56Z</time>
      </trkpt>
      <trkpt lat="48.15291" lon="7.19685">
        <ele>362</ele>
        <time>2019-04-12T17:08:56Z</time>
      </trkpt>
      <trkpt lat="48.15304" lon="7.19703">
        <ele>362</ele>
        <time>2019-04-12T17:09:56Z</time>
      </trkpt>
      <trkpt lat="48.15339" lon="7.1975">
        <ele>360</ele>
        <time>2019-04-12T17:10:56Z</time>
      </trkpt>
      <trkpt lat="48.15346" lon="7.19758">
        <ele>361</ele>
        <time>2019-04-12T17:11:56Z</time>
      </trkpt>
      <trkpt lat="48.15353" lon="7.19764">
        <ele>361</ele>
        <time>2019-04-12T17:12:56Z</time>
      </trkpt>
      <trkpt lat="48.1536" lon="7.1977">
        <ele>362</ele>
        <time>2019-04-12T17:13:56Z</time>
      </trkpt>
      <trkpt lat="48.15383" lon="7.19789">
        <ele>364</ele>
        <time>2019-04-12T17:14:56Z</time>
      </trkpt>
      <trkpt lat="48.1541" lon="7.19813">
        <ele>366</ele>
        <time>2019-04-12T17:15:56Z</time>
      </trkpt>
      <trkpt lat="48.15431" lon="7.19836">
        <ele>370</ele>
        <time>2019-04-12T17:16:56Z</time>
      </trkpt>
      <trkpt lat="48.15449" lon="7.19858">
        <ele>373</ele>
        <time>2019-04-12T17:17:56Z</time>
      </trkpt>
      <trkpt lat="48.15463" lon="7.19879">
        <ele>374</ele>
        <time>2019-04-12T17:18:56Z</time>
      </trkpt>
      <trkpt lat="48.15475" lon="7.19898">
        <ele>374</ele>
        <time>2019-04-12T17:19:56Z</time>
      </trkpt>
      <trkpt lat="48.15476" lon="7.199">
        <ele>374</ele>
        <time>2019-04-12T17:20:56Z</time>
      </trkpt>
      <trkpt lat="48.1548" lon="7.19907">
        <ele>374</ele>
        <time>2019-04-12T17:21:56Z</time>
      </trkpt>
      <trkpt lat="48.15494" lon="7.19935">
        <ele>374</ele>
        <time>2019-04-12T17:22:56Z</time>
      </trkpt>
      <trkpt lat="48.15509" lon="7.19971">
        <ele>376</ele>
        <time>2019-04-12T17:23:56Z</time>
      </trkpt>
      <trkpt lat="48.15523" lon="7.20012">
        <ele>377</ele>
        <time>2019-04-12T17:24:56Z</time>
      </trkpt>
      <trkpt lat="48.15534" lon="7.20051">
        <ele>377</ele>
        <time>2019-04-12T17:25:56Z</time>
      </trkpt>
      <trkpt lat="48.15542" lon="7.20082">
        <ele>376</ele>
        <time>2019-04-12T17:26:56Z</time>
      </trkpt>
      <trkpt lat="48.15546" lon="7.20099">
        <ele>377</ele>
        <time>2019-04-12T17:27:56Z</time>
      </trkpt>
      <trkpt lat="48.15551" lon="7.20131">
        <ele>376</ele>
        <time>2019-04-12T17:28:56Z</time>
      </trkpt>
      <trkpt lat="48.15554" lon="7.20154">
        <ele>375</ele>
        <time>2019-04-12T17:29:56Z</time>
      </trkpt>
      <trkpt lat="48.15555" lon="7.20177">
        <ele>373</ele>
        <time>2019-04-12T17:30:56Z</time>
      </trkpt>
      <trkpt lat="48.15557" lon="7.20192">
        <ele>373</ele>
        <time>2019-04-12T17:31:56Z</time>
      </trkpt>
      <trkpt lat="48.15558" lon="7.20201">
        <ele>373</ele>
        <time>2019-04-12T17:32:56Z</time>
      </trkpt>
      <trkpt lat="48.15562" lon="7.20219">
        <ele>373</ele>
        <time>2019-04-12T17:33:56Z</time>
      </trkpt>
      <trkpt lat="48.15568" lon="7.20238">
        <ele>373</ele>
        <time>2019-04-12T17:34:56Z</time>
      </trkpt>
      <trkpt lat="48.15575" lon="7.20256">
        <ele>373</ele>
        <time>2019-04-12T17:35:56Z</time>
      </trkpt>
      <trkpt lat="48.15581" lon="7.20272">
        <ele>372</ele>
        <time>2019-04-12T17:36:56Z</time>
      </trkpt>
      <trkpt lat="48.15592" lon="7.203">
        <ele>367</ele>
        <time>2019-04-12T17:37:56Z</time>
      </trkpt>
      <trkpt lat="48.15596" lon="7.20308">
        <ele>366</ele>
        <time>2019-04-12T17:38:56Z</time>
      </trkpt>
      <trkpt lat="48.15602" lon="7.20316">
        <ele>364</ele>
        <time>2019-04-12T17:39:56Z</time>
      </trkpt>
      <trkpt lat="48.15609" lon="7.20323">
        <ele>362</ele>
        <time>2019-04-12T17:40:56Z</time>
      </trkpt>
      <trkpt lat="48.15616" lon="7.20327">
        <ele>361</ele>
        <time>2019-04-12T17:41:56Z</time>
      </trkpt>
      <trkpt lat="48.15621" lon="7.20327">
        <ele>361</ele>
        <time>2019-04-12T17:42:56Z</time>
      </trkpt>
      <trkpt lat="48.15626" lon="7.20326">
        <ele>361</ele>
        <time>2019-04-12T17:43:56Z</time>
      </trkpt>
      <trkpt lat="48.15635" lon="7.20323">
        <ele>362</ele>
        <time>2019-04-12T17:44:56Z</time>
      </trkpt>
      <trkpt lat="48.15647" lon="7.20316">
        <ele>364</ele>
        <time>2019-04-12T17:45:56Z</time>
      </trkpt>
      <trkpt lat="48.15661" lon="7.20304">
        <ele>367</ele>
        <time>2019-04-12T17:46:56Z</time>
      </trkpt>
      <trkpt lat="48.15663" lon="7.20302">
        <ele>368</ele>
        <time>2019-04-12T17:47:56Z</time>
      </trkpt>
      <trkpt lat="48.15681" lon="7.20286">
        <ele>371</ele>
        <time>2019-04-12T17:48:56Z</time>
      </trkpt>
      <trkpt lat="48.15698" lon="7.20271">
        <ele>374</ele>
        <time>2019-04-12T17:49:56Z</time>
      </trkpt>
      <trkpt lat="48.15712" lon="7.20262">
        <ele>374</ele>
        <time>2019-04-12T17:50:56Z</time>
      </trkpt>
      <trkpt lat="48.15743" lon="7.20246">
        <ele>375</ele>
        <time>2019-04-12T17:51:56Z</time>
      </trkpt>
      <trkpt lat="48.15757" lon="7.20239">
        <ele>375</ele>
        <time>2019-04-12T17:52:56Z</time>
      </trkpt>
      <trkpt lat="48.15772" lon="7.2023">
        <ele>375</ele>
        <time>2019-04-12T17:53:56Z</time>
      </trkpt>
      <trkpt lat="48.15786" lon="7.20223">
        <ele>374</ele>
        <time>2019-04-12T17:54:56Z</time>
      </trkpt>
      <trkpt lat="48.15798" lon="7.20216">
        <ele>373</ele>
        <time>2019-04-12T17:55:56Z</time>
      </trkpt>
      <trkpt lat="48.15813" lon="7.20209">
        <ele>372</ele>
        <time>2019-04-12T17:56:56Z</time>
      </trkpt>
      <trkpt lat="48.15828" lon="7.202">
        <ele>370</ele>
        <time>2019-04-12T17:57:56Z</time>
      </trkpt>
      <trkpt lat="48.1584" lon="7.20193">
        <ele>370</ele>
        <time>2019-04-12T17:58:56Z</time>
      </trkpt>
      <trkpt lat="48.15849" lon="7.20188">
        <ele>370</ele>
        <time>2019-04-12T17:59:56Z</time>
      </trkpt>
      <trkpt lat="48.1586" lon="7.20181">
        <ele>371</ele>
        <time>2019-04-12T18:00:56Z</time>
      </trkpt>
      <trkpt lat="48.1587" lon="7.20174">
        <ele>371</ele>
        <time>2019-04-12T18:01:56Z</time>
      </trkpt>
      <trkpt lat="48.15879" lon="7.20166">
        <ele>371</ele>
        <time>2019-04-12T18:02:56Z</time>
      </trkpt>
      <trkpt lat="48.15891" lon="7.20154">
        <ele>372</ele>
        <time>2019-04-12T18:03:56Z</time>
      </trkpt>
      <trkpt lat="48.15902" lon="7.20143">
        <ele>373</ele>
        <time>2019-04-12T18:04:56Z</time>
      </trkpt>
      <trkpt lat="48.15906" lon="7.20139">
        <ele>373</ele>
        <time>2019-04-12T18:05:56Z</time>
      </trkpt>
      <trkpt lat="48.1591" lon="7.20135">
        <ele>373</ele>
        <time>2019-04-12T18:06:56Z</time>
      </trkpt>
      <trkpt lat="48.15931" lon="7.20114">
        <ele>376</ele>
        <time>2019-04-12T18:07:56Z</time>
      </trkpt>
      <trkpt lat="48.15946" lon="7.20101">
        <ele>378</ele>
        <time>2019-04-12T18:08:56Z</time>
      </trkpt>
      <trkpt lat="48.15963" lon="7.2009">
        <ele>378</ele>
        <time>2019-04-12T18:09:56Z</time>
      </trkpt>
      <trkpt lat="48.15979" lon="7.20082">
        <ele>378</ele>
        <time>2019-04-12T18:10:56Z</time>
      </trkpt>
      <trkpt lat="48.16001" lon="7.20074">
        <ele>379</ele>
        <time>2019-04-12T18:11:56Z</time>
      </trkpt>
      <trkpt lat="48.16017" lon="7.20067">
        <ele>383</ele>
        <time>2019-04-12T18:12:56Z</time>
      </trkpt>
      <trkpt lat="48.16032" lon="7.20058">
        <ele>386</ele>
        <time>2019-04-12T18:13:56Z</time>
      </trkpt>
      <trkpt lat="48.16044" lon="7.20051">
        <ele>388</ele>
        <time>2019-04-12T18:14:56Z</time>
      </trkpt>
      <trkpt lat="48.16053" lon="7.20046">
        <ele>389</ele>
        <time>2019-04-12T18:15:56Z</time>
      </trkpt>
      <trkpt lat="48.16053" lon="7.20046">
        <ele>389</ele>
        <time>2019-04-12T18:16:56Z</time>
      </trkpt>
      <trkpt lat="48.16059" lon="7.20049">
        <ele>390</ele>
        <time>2019-04-12T18:17:56Z</time>
      </trkpt>
      <trkpt lat="48.16064" lon="7.20051">
        <ele>390</ele>
        <time>2019-04-12T18:18:56Z</time>
      </trkpt>
      <trkpt lat="48.16067" lon="7.20056">
        <ele>391</ele>
        <time>2019-04-12T18:19:56Z</time>
      </trkpt>
      <trkpt lat="48.16068" lon="7.20064">
        <ele>392</ele>
        <time>2019-04-12T18:20:56Z</time>
      </trkpt>
      <trkpt lat="48.16069" lon="7.20073">
        <ele>393</ele>
        <time>2019-04-12T18:21:56Z</time>
      </trkpt>
      <trkpt lat="48.16069" lon="7.20073">
        <ele>393</ele>
        <time>2019-04-12T18:22:56Z</time>
      </trkpt>
      <trkpt lat="48.1608" lon="7.20064">
        <ele>394</ele>
        <time>2019-04-12T18:23:56Z</time>
      </trkpt>
      <trkpt lat="48.16088" lon="7.20056">
        <ele>394</ele>
        <time>2019-04-12T18:24:56Z</time>
      </trkpt>
      <trkpt lat="48.16107" lon="7.20034">
        <ele>395</ele>
        <time>2019-04-12T18:25:56Z</time>
      </trkpt>
      <trkpt lat="48.1611" lon="7.20031">
        <ele>395</ele>
        <time>2019-04-12T18:26:56Z</time>
      </trkpt>
      <trkpt lat="48.16145" lon="7.19995">
        <ele>392</ele>
        <time>2019-04-12T18:27:56Z</time>
      </trkpt>
      <trkpt lat="48.16183" lon="7.19956">
        <ele>392</ele>
        <time>2019-04-12T18:28:56Z</time>
      </trkpt>
      <trkpt lat="48.16202" lon="7.19938">
        <ele>394</ele>
        <time>2019-04-12T18:29:56Z</time>
      </trkpt>
      <trkpt lat="48.16207" lon="7.19933">
        <ele>394</ele>
        <time>2019-04-12T18:30:56Z</time>
      </trkpt>
      <trkpt lat="48.16218" lon="7.19924">
        <ele>394</ele>
        <time>2019-04-12T18:31:56Z</time>
      </trkpt>
      <trkpt lat="48.16237" lon="7.19907">
        <ele>395</ele>
        <time>2019-04-12T18:32:56Z</time>
      </trkpt>
      <trkpt lat="48.16245" lon="7.19901">
        <ele>395</ele>
        <time>2019-04-12T18:33:56Z</time>
      </trkpt>
      <trkpt lat="48.16253" lon="7.19897">
        <ele>396</ele>
        <time>2019-04-12T18:34:56Z</time>
      </trkpt>
      <trkpt lat="48.16259" lon="7.19894">
        <ele>396</ele>
        <time>2019-04-12T18:35:56Z</time>
      </trkpt>
      <trkpt lat="48.16267" lon="7.19891">
        <ele>396</ele>
        <time>2019-04-12T18:36:56Z</time>
      </trkpt>
      <trkpt lat="48.1628" lon="7.19889">
        <ele>398</ele>
        <time>2019-04-12T18:37:56Z</time>
      </trkpt>
      <trkpt lat="48.16294" lon="7.19888">
        <ele>399</ele>
        <time>2019-04-12T18:38:56Z</time>
      </trkpt>
      <trkpt lat="48.16306" lon="7.19888">
        <ele>400</ele>
        <time>2019-04-12T18:39:56Z</time>
      </trkpt>
      <trkpt lat="48.16327" lon="7.19887">
        <ele>402</ele>
        <time>2019-04-12T18:40:56Z</time>
      </trkpt>
      <trkpt lat="48.1635" lon="7.19885">
        <ele>404</ele>
        <time>2019-04-12T18:41:56Z</time>
      </trkpt>
      <trkpt lat="48.16362" lon="7.19884">
        <ele>406</ele>
        <time>2019-04-12T18:42:56Z</time>
      </trkpt>
      <trkpt lat="48.16376" lon="7.19881">
        <ele>407</ele>
        <time>2019-04-12T18:43:56Z</time>
      </trkpt>
      <trkpt lat="48.16386" lon="7.19879">
        <ele>407</ele>
        <time>2019-04-12T18:44:56Z</time>
      </trkpt>
      <trkpt lat="48.16392" lon="7.19876">
        <ele>407</ele>
        <time>2019-04-12T18:45:56Z</time>
      </trkpt>
      <trkpt lat="48.16399" lon="7.19873">
        <ele>407</ele>
        <time>2019-04-12T18:46:56Z</time>
      </trkpt>
      <trkpt lat="48.16407" lon="7.19869">
        <ele>407</ele>
        <time>2019-04-12T18:47:56Z</time>
      </trkpt>
      <trkpt lat="48.16417" lon="7.19864">
        <ele>407</ele>
        <time>2019-04-12T18:48:56Z</time>
      </trkpt>
      <trkpt lat="48.16425" lon="7.1986">
        <ele>407</ele>
        <time>2019-04-12T18:49:56Z</time>
      </trkpt>
      <trkpt lat="48.16433" lon="7.19855">
        <ele>406</ele>
        <time>2019-04-12T18:50:56Z</time>
      </trkpt>
      <trkpt lat="48.16447" lon="7.19847">
        <ele>406</ele>
        <time>2019-04-12T18:51:56Z</time>
      </trkpt>
      <trkpt lat="48.16465" lon="7.19836">
        <ele>405</ele>
        <time>2019-04-12T18:52:56Z</time>
      </trkpt>
      <trkpt lat="48.16523" lon="7.19805">
        <ele>408</ele>
        <time>2019-04-12T18:53:56Z</time>
      </trkpt>
      <trkpt lat="48.16551" lon="7.19789">
        <ele>408</ele>
        <time>2019-04-12T18:54:56Z</time>
      </trkpt>
      <trkpt lat="48.16631" lon="7.19745">
        <ele>410</ele>
        <time>2019-04-12T18:55:56Z</time>
      </trkpt>
      <trkpt lat="48.1665" lon="7.19734">
        <ele>411</ele>
        <time>2019-04-12T18:56:56Z</time>
      </trkpt>
      <trkpt lat="48.16659" lon="7.19729">
        <ele>411</ele>
        <time>2019-04-12T18:57:56Z</time>
      </trkpt>
      <trkpt lat="48.16666" lon="7.19724">
        <ele>411</ele>
        <time>2019-04-12T18:58:56Z</time>
      </trkpt>
      <trkpt lat="48.16673" lon="7.19718">
        <ele>411</ele>
        <time>2019-04-12T18:59:56Z</time>
      </trkpt>
      <trkpt lat="48.16679" lon="7.19712">
        <ele>410</ele>
        <time>2019-04-12T19:00:56Z</time>
      </trkpt>
      <trkpt lat="48.16686" lon="7.19705">
        <ele>410</ele>
        <time>2019-04-12T19:01:56Z</time>
      </trkpt>
      <trkpt lat="48.16693" lon="7.19697">
        <ele>409</ele>
        <time>2019-04-12T19:02:56Z</time>
      </trkpt>
      <trkpt lat="48.16713" lon="7.19674">
        <ele>407</ele>
        <time>2019-04-12T19:03:56Z</time>
      </trkpt>
      <trkpt lat="48.16717" lon="7.19669">
        <ele>407</ele>
        <time>2019-04-12T19:04:56Z</time>
      </trkpt>
      <trkpt lat="48.16739" lon="7.19647">
        <ele>409</ele>
        <time>2019-04-12T19:05:56Z</time>
      </trkpt>
      <trkpt lat="48.16767" lon="7.19618">
        <ele>411</ele>
        <time>2019-04-12T19:06:56Z</time>
      </trkpt>
      <trkpt lat="48.16797" lon="7.19585">
        <ele>412</ele>
        <time>2019-04-12T19:07:56Z</time>
      </trkpt>
      <trkpt lat="48.16814" lon="7.19568">
        <ele>413</ele>
        <time>2019-04-12T19:08:56Z</time>
      </trkpt>
      <trkpt lat="48.16823" lon="7.19561">
        <ele>413</ele>
        <time>2019-04-12T19:09:56Z</time>
      </trkpt>
      <trkpt lat="48.16837" lon="7.1955">
        <ele>413</ele>
        <time>2019-04-12T19:10:56Z</time>
      </trkpt>
      <trkpt lat="48.16849" lon="7.19542">
        <ele>414</ele>
        <time>2019-04-12T19:11:56Z</time>
      </trkpt>
      <trkpt lat="48.16863" lon="7.19534">
        <ele>414</ele>
        <time>2019-04-12T19:12:56Z</time>
      </trkpt>
      <trkpt lat="48.16867" lon="7.19532">
        <ele>414</ele>
        <time>2019-04-12T19:13:56Z</time>
      </trkpt>
      <trkpt lat="48.16882" lon="7.19521">
        <ele>415</ele>
        <time>2019-04-12T19:14:56Z</time>
      </trkpt>
      <trkpt lat="48.16886" lon="7.19517">
        <ele>415</ele>
        <time>2019-04-12T19:15:56Z</time>
      </trkpt>
      <trkpt lat="48.1689" lon="7.19513">
        <ele>415</ele>
        <time>2019-04-12T19:16:56Z</time>
      </trkpt>
      <trkpt lat="48.16895" lon="7.19507">
        <ele>415</ele>
        <time>2019-04-12T19:17:56Z</time>
      </trkpt>
      <trkpt lat="48.16897" lon="7.19505">
        <ele>415</ele>
        <time>2019-04-12T19:18:56Z</time>
      </trkpt>
      <trkpt lat="48.16906" lon="7.19492">
        <ele>416</ele>
        <time>2019-04-12T19:19:56Z</time>
      </trkpt>
      <trkpt lat="48.1691" lon="7.19486">
        <ele>416</ele>
        <time>2019-04-12T19:20:56Z</time>
      </trkpt>
      <trkpt lat="48.16916" lon="7.19475">
        <ele>416</ele>
        <time>2019-04-12T19:21:56Z</time>
      </trkpt>
      <trkpt lat="48.16923" lon="7.19465">
        <ele>417</ele>
        <time>2019-04-12T19:22:56Z</time>
      </trkpt>
      <trkpt lat="48.16932" lon="7.19451">
        <ele>418</ele>
        <time>2019-04-12T19:23:56Z</time>
      </trkpt>
      <trkpt lat="48.16941" lon="7.1944">
        <ele>418</ele>
        <time>2019-04-12T19:24:56Z</time>
      </trkpt>
      <trkpt lat="48.1695" lon="7.19427">
        <ele>419</ele>
        <time>2019-04-12T19:25:56Z</time>
      </trkpt>
      <trkpt lat="48.16953" lon="7.19423">
        <ele>419</ele>
        <time>2019-04-12T19:26:56Z</time>
      </trkpt>
      <trkpt lat="48.16958" lon="7.19417">
        <ele>419</ele>
        <time>2019-04-12T19:27:56Z</time>
      </trkpt>
      <trkpt lat="48.16961" lon="7.19414">
        <ele>420</ele>
        <time>2019-04-12T19:28:56Z</time>
      </trkpt>
      <trkpt lat="48.16965" lon="7.19411">
        <ele>420</ele>
        <time>2019-04-12T19:29:56Z</time>
      </trkpt>
      <trkpt lat="48.16975" lon="7.194">
        <ele>421</ele>
        <time>2019-04-12T19:30:56Z</time>
      </trkpt>
      <trkpt lat="48.16986" lon="7.19391">
        <ele>421</ele>
        <time>2019-04-12T19:31:56Z</time>
      </trkpt>
      <trkpt lat="48.16999" lon="7.1938">
        <ele>422</ele>
        <time>2019-04-12T19:32:56Z</time>
      </trkpt>
      <trkpt lat="48.17008" lon="7.19372">
        <ele>422</ele>
        <time>2019-04-12T19:33:56Z</time>
      </trkpt>
      <trkpt lat="48.1702" lon="7.19362">
        <ele>423</ele>
        <time>2019-04-12T19:34:56Z</time>
      </trkpt>
      <trkpt lat="48.17031" lon="7.19352">
        <ele>424</ele>
        <time>2019-04-12T19:35:56Z</time>
      </trkpt>
      <trkpt lat="48.1704" lon="7.19345">
        <ele>424</ele>
        <time>2019-04-12T19:36:56Z</time>
      </trkpt>
      <trkpt lat="48.17048" lon="7.19339">
        <ele>424</ele>
        <time>2019-04-12T19:37:56Z</time>
      </trkpt>
      <trkpt lat="48.17063" lon="7.19328">
        <ele>425</ele>
        <time>2019-04-12T19:38:56Z</time>
      </trkpt>
      <trkpt lat="48.1707" lon="7.19323">
        <ele>426</ele>
        <time>2019-04-12T19:39:56Z</time>
      </trkpt>
      <trkpt lat="48.17073" lon="7.19322">
        <ele>426</ele>
        <time>2019-04-12T19:40:56Z</time>
      </trkpt>
      <trkpt lat="48.17077" lon="7.19319">
        <ele>426</ele>
        <time>2019-04-12T19:41:56Z</time>
      </trkpt>
      <trkpt lat="48.1708" lon="7.19316">
        <ele>426</ele>
        <time>2019-04-12T19:42:56Z</time>
      </trkpt>
      <trkpt lat="48.17084" lon="7.19312">
        <ele>427</ele>
        <time>2019-04-12T19:43:56Z</time>
      </trkpt>
      <trkpt lat="48.17089" lon="7.19307">
        <ele>427</ele>
        <time>2019-04-12T19:44:56Z</time>
      </trkpt>
      <trkpt lat="48.17097" lon="7.193">
        <ele>428</ele>
        <time>2019-04-12T19:45:56Z</time>
      </trkpt>
      <trkpt lat="48.17101" lon="7.19295">
        <ele>428</ele>
        <time>2019-04-12T19:46:56Z</time>
      </trkpt>
      <trkpt lat="48.17105" lon="7.19291">
        <ele>428</ele>
        <time>2019-04-12T19:47:56Z</time>
      </trkpt>
      <trkpt lat="48.17109" lon="7.19286">
        <ele>429</ele>
        <time>2019-04-12T19:48:56Z</time>
      </trkpt>
      <trkpt lat="48.17113" lon="7.19281">
        <ele>429</ele>
        <time>2019-04-12T19:49:56Z</time>
      </trkpt>
      <trkpt lat="48.17125" lon="7.19263">
        <ele>429</ele>
        <time>2019-04-12T19:50:56Z</time>
      </trkpt>
      <trkpt lat="48.1713" lon="7.19257">
        <ele>429</ele>
        <time>2019-04-12T19:51:56Z</time>
      </trkpt>
      <trkpt lat="48.17153" lon="7.19221">
        <ele>432</ele>
        <time>2019-04-12T19:52:56Z</time>
      </trkpt>
      <trkpt lat="48.17155" lon="7.19218">
        <ele>432</ele>
        <time>2019-04-12T19:53:56Z</time>
      </trkpt>
      <trkpt lat="48.17181" lon="7.19182">
        <ele>434</ele>
        <time>2019-04-12T19:54:56Z</time>
      </trkpt>
      <trkpt lat="48.17205" lon="7.19151">
        <ele>437</ele>
        <time>2019-04-12T19:55:56Z</time>
      </trkpt>
      <trkpt lat="48.17215" lon="7.19141">
        <ele>438</ele>
        <time>2019-04-12T19:56:56Z</time>
      </trkpt>
      <trkpt lat="48.17223" lon="7.19132">
        <ele>439</ele>
        <time>2019-04-12T19:57:56Z</time>
      </trkpt>
      <trkpt lat="48.17228" lon="7.19128">
        <ele>439</ele>
        <time>2019-04-12T19:58:56Z</time>
      </trkpt>
      <trkpt lat="48.17233" lon="7.19125">
        <ele>439</ele>
        <time>2019-04-12T19:59:56Z</time>
      </trkpt>
      <trkpt lat="48.17244" lon="7.19118">
        <ele>438</ele>
        <time>2019-04-12T20:00:56Z</time>
      </trkpt>
      <trkpt lat="48.17254" lon="7.19113">
        <ele>438</ele>
        <time>2019-04-12T20:01:56Z</time>
      </trkpt>
      <trkpt lat="48.17265" lon="7.19109">
        <ele>440</ele>
        <time>2019-04-12T20:02:56Z</time>
      </trkpt>
      <trkpt lat="48.17272" lon="7.19106">
        <ele>441</ele>
        <time>2019-04-12T20:03:56Z</time>
      </trkpt>
      <trkpt lat="48.17282" lon="7.19104">
        <ele>442</ele>
        <time>2019-04-12T20:04:56Z</time>
      </trkpt>
      <trkpt lat="48.17292" lon="7.19102">
        <ele>443</ele>
        <time>2019-04-12T20:05:56Z</time>
      </trkpt>
      <trkpt lat="48.17302" lon="7.19101">
        <ele>444</ele>
        <time>2019-04-12T20:06:56Z</time>
      </trkpt>
      <trkpt lat="48.17309" lon="7.19101">
        <ele>445</ele>
        <time>2019-04-12T20:07:56Z</time>
      </trkpt>
      <trkpt lat="48.17318" lon="7.19101">
        <ele>446</ele>
        <time>2019-04-12T20:08:56Z</time>
      </trkpt>
      <trkpt lat="48.17326" lon="7.19103">
        <ele>446</ele>
        <time>2019-04-12T20:09:56Z</time>
      </trkpt>
      <trkpt lat="48.17331" lon="7.19105">
        <ele>447</ele>
        <time>2019-04-12T20:10:56Z</time>
      </trkpt>
      <trkpt lat="48.17337" lon="7.19107">
        <ele>447</ele>
        <time>2019-04-12T20:11:56Z</time>
      </trkpt>
      <trkpt lat="48.17342" lon="7.19109">
        <ele>447</ele>
        <time>2019-04-12T20:12:56Z</time>
      </trkpt>
      <trkpt lat="48.17352" lon="7.19114">
        <ele>448</ele>
        <time>2019-04-12T20:13:56Z</time>
      </trkpt>
      <trkpt lat="48.17367" lon="7.19122">
        <ele>449</ele>
        <time>2019-04-12T20:14:56Z</time>
      </trkpt>
      <trkpt lat="48.17386" lon="7.19131">
        <ele>449</ele>
        <time>2019-04-12T20:15:56Z</time>
      </trkpt>
      <trkpt lat="48.17415" lon="7.19145">
        <ele>451</ele>
        <time>2019-04-12T20:16:56Z</time>
      </trkpt>
      <trkpt lat="48.17433" lon="7.1915">
        <ele>451</ele>
        <time>2019-04-12T20:17:56Z</time>
      </trkpt>
      <trkpt lat="48.17449" lon="7.19152">
        <ele>452</ele>
        <time>2019-04-12T20:18:56Z</time>
      </trkpt>
      <trkpt lat="48.17452" lon="7.19152">
        <ele>452</ele>
        <time>2019-04-12T20:19:56Z</time>
      </trkpt>
      <trkpt lat="48.17474" lon="7.19153">
        <ele>453</ele>
        <time>2019-04-12T20:20:56Z</time>
      </trkpt>
      <trkpt lat="48.17496" lon="7.19152">
        <ele>454</ele>
        <time>2019-04-12T20:21:56Z</time>
      </trkpt>
      <trkpt lat="48.1753" lon="7.19149">
        <ele>458</ele>
        <time>2019-04-12T20:22:56Z</time>
      </trkpt>
      <trkpt lat="48.17545" lon="7.19144">
        <ele>460</ele>
        <time>2019-04-12T20:23:56Z</time>
      </trkpt>
      <trkpt lat="48.1755" lon="7.19142">
        <ele>461</ele>
        <time>2019-04-12T20:24:56Z</time>
      </trkpt>
      <trkpt lat="48.17562" lon="7.19138">
        <ele>462</ele>
        <time>2019-04-12T20:25:56Z</time>
      </trkpt>
      <trkpt lat="48.17582" lon="7.19128">
        <ele>463</ele>
        <time>2019-04-12T20:26:56Z</time>
      </trkpt>
      <trkpt lat="48.17594" lon="7.19124">
        <ele>464</ele>
        <time>2019-04-12T20:27:56Z</time>
      </trkpt>
      <trkpt lat="48.17627" lon="7.19111">
        <ele>466</ele>
        <time>2019-04-12T20:28:56Z</time>
      </trkpt>
      <trkpt lat="48.17651" lon="7.19103">
        <ele>466</ele>
        <time>2019-04-12T20:29:56Z</time>
      </trkpt>
      <trkpt lat="48.17662" lon="7.19097">
        <ele>465</ele>
        <time>2019-04-12T20:30:56Z</time>
      </trkpt>
      <trkpt lat="48.17687" lon="7.19086">
        <ele>469</ele>
        <time>2019-04-12T20:31:56Z</time>
      </trkpt>
      <trkpt lat="48.17706" lon="7.19075">
        <ele>474</ele>
        <time>2019-04-12T20:32:56Z</time>
      </trkpt>
      <trkpt lat="48.17725" lon="7.19057">
        <ele>477</ele>
        <time>2019-04-12T20:33:56Z</time>
      </trkpt>
      <trkpt lat="48.17739" lon="7.19041">
        <ele>477</ele>
        <time>2019-04-12T20:34:56Z</time>
      </trkpt>
      <trkpt lat="48.17751" lon="7.19026">
        <ele>477</ele>
        <time>2019-04-12T20:35:56Z</time>
      </trkpt>
      <trkpt lat="48.17764" lon="7.19">
        <ele>477</ele>
        <time>2019-04-12T20:36:56Z</time>
      </trkpt>
      <trkpt lat="48.1778" lon="7.18966">
        <ele>480</ele>
        <time>2019-04-12T20:37:56Z</time>
      </trkpt>
      <trkpt lat="48.17794" lon="7.18931">
        <ele>479</ele>
        <time>2019-04-12T20:38:56Z</time>
      </trkpt>
      <trkpt lat="48.17805" lon="7.18907">
        <ele>477</ele>
        <time>2019-04-12T20:39:56Z</time>
      </trkpt>
      <trkpt lat="48.17812" lon="7.18888">
        <ele>478</ele>
        <time>2019-04-12T20:40:56Z</time>
      </trkpt>
      <trkpt lat="48.17815" lon="7.18877">
        <ele>478</ele>
        <time>2019-04-12T20:41:56Z</time>
      </trkpt>
      <trkpt lat="48.17817" lon="7.18869">
        <ele>477</ele>
        <time>2019-04-12T20:42:56Z</time>
      </trkpt>
      <trkpt lat="48.17821" lon="7.18844">
        <ele>477</ele>
        <time>2019-04-12T20:43:56Z</time>
      </trkpt>
      <trkpt lat="48.17822" lon="7.18812">
        <ele>480</ele>
        <time>2019-04-12T20:44:56Z</time>
      </trkpt>
      <trkpt lat="48.17825" lon="7.18792">
        <ele>482</ele>
        <time>2019-04-12T20:45:56Z</time>
      </trkpt>
      <trkpt lat="48.1783" lon="7.18773">
        <ele>484</ele>
        <time>2019-04-12T20:46:56Z</time>
      </trkpt>
      <trkpt lat="48.17833" lon="7.18764">
        <ele>485</ele>
        <time>2019-04-12T20:47:56Z</time>
      </trkpt>
      <trkpt lat="48.17843" lon="7.18745">
        <ele>489</ele>
        <time>2019-04-12T20:48:56Z</time>
      </trkpt>
      <trkpt lat="48.17858" lon="7.18728">
        <ele>493</ele>
        <time>2019-04-12T20:49:56Z</time>
      </trkpt>
      <trkpt lat="48.17877" lon="7.18703">
        <ele>495</ele>
        <time>2019-04-12T20:50:56Z</time>
      </trkpt>
      <trkpt lat="48.17904" lon="7.18672">
        <ele>493</ele>
        <time>2019-04-12T20:51:56Z</time>
      </trkpt>
      <trkpt lat="48.17916" lon="7.18657">
        <ele>493</ele>
        <time>2019-04-12T20:52:56Z</time>
      </trkpt>
      <trkpt lat="48.1794" lon="7.18625">
        <ele>501</ele>
        <time>2019-04-12T20:53:56Z</time>
      </trkpt>
      <trkpt lat="48.17946" lon="7.18617">
        <ele>502</ele>
        <time>2019-04-12T20:54:56Z</time>
      </trkpt>
      <trkpt lat="48.17954" lon="7.18616">
        <ele>503</ele>
        <time>2019-04-12T20:55:56Z</time>
      </trkpt>
      <trkpt lat="48.17958" lon="7.18619">
        <ele>504</ele>
        <time>2019-04-12T20:56:56Z</time>
      </trkpt>
      <trkpt lat="48.17962" lon="7.18629">
        <ele>504</ele>
        <time>2019-04-12T20:57:56Z</time>
      </trkpt>
      <trkpt lat="48.17962" lon="7.18629">
        <ele>504</ele>
        <time>2019-04-12T20:58:56Z</time>
      </trkpt>
      <trkpt lat="48.17962" lon="7.18637">
        <ele>505</ele>
        <time>2019-04-12T20:59:56Z</time>
      </trkpt>
      <trkpt lat="48.17959" lon="7.18648">
        <ele>504</ele>
        <time>2019-04-12T21:00:56Z</time>
      </trkpt>
      <trkpt lat="48.17952" lon="7.18663">
        <ele>502</ele>
        <time>2019-04-12T21:01:56Z</time>
      </trkpt>
      <trkpt lat="48.17932" lon="7.18688">
        <ele>499</ele>
        <time>2019-04-12T21:02:56Z</time>
      </trkpt>
      <trkpt lat="48.17931" lon="7.1869">
        <ele>499</ele>
        <time>2019-04-12T21:03:56Z</time>
      </trkpt>
      <trkpt lat="48.17914" lon="7.18713">
        <ele>497</ele>
        <time>2019-04-12T21:04:56Z</time>
      </trkpt>
      <trkpt lat="48.17906" lon="7.18731">
        <ele>498</ele>
        <time>2019-04-12T21:05:56Z</time>
      </trkpt>
      <trkpt lat="48.17903" lon="7.18744">
        <ele>499</ele>
        <time>2019-04-12T21:06:56Z</time>
      </trkpt>
      <trkpt lat="48.17903" lon="7.18756">
        <ele>499</ele>
        <time>2019-04-12T21:07:56Z</time>
      </trkpt>
      <trkpt lat="48.17905" lon="7.18766">
        <ele>497</ele>
        <time>2019-04-12T21:08:56Z</time>
      </trkpt>
      <trkpt lat="48.17908" lon="7.18773">
        <ele>497</ele>
        <time>2019-04-12T21:09:56Z</time>
      </trkpt>
      <trkpt lat="48.17911" lon="7.18777">
        <ele>497</ele>
        <time>2019-04-12T21:10:56Z</time>
      </trkpt>
      <trkpt lat="48.17915" lon="7.18781">
        <ele>497</ele>
        <time>2019-04-12T21:11:56Z</time>
      </trkpt>
      <trkpt lat="48.17919" lon="7.18783">
        <ele>498</ele>
        <time>2019-04-12T21:12:56Z</time>
      </trkpt>
      <trkpt lat="48.17936" lon="7.18793">
        <ele>503</ele>
        <time>2019-04-12T21:13:56Z</time>
      </trkpt>
      <trkpt lat="48.17969" lon="7.18812">
        <ele>513</ele>
        <time>2019-04-12T21:14:56Z</time>
      </trkpt>
      <trkpt lat="48.17983" lon="7.18824">
        <ele>516</ele>
        <time>2019-04-12T21:15:56Z</time>
      </trkpt>
      <trkpt lat="48.17993" lon="7.18834">
        <ele>518</ele>
        <time>2019-04-12T21:16:56Z</time>
      </trkpt>
      <trkpt lat="48.18034" lon="7.18872">
        <ele>524</ele>
        <time>2019-04-12T21:17:56Z</time>
      </trkpt>
      <trkpt lat="48.1804" lon="7.18875">
        <ele>525</ele>
        <time>2019-04-12T21:18:56Z</time>
      </trkpt>
      <trkpt lat="48.18059" lon="7.18893">
        <ele>526</ele>
        <time>2019-04-12T21:19:56Z</time>
      </trkpt>
      <trkpt lat="48.18073" lon="7.18908">
        <ele>524</ele>
        <time>2019-04-12T21:20:56Z</time>
      </trkpt>
      <trkpt lat="48.18086" lon="7.18924">
        <ele>524</ele>
        <time>2019-04-12T21:21:56Z</time>
      </trkpt>
      <trkpt lat="48.18102" lon="7.1895">
        <ele>528</ele>
        <time>2019-04-12T21:22:56Z</time>
      </trkpt>
      <trkpt lat="48.18133" lon="7.19008">
        <ele>532</ele>
        <time>2019-04-12T21:23:56Z</time>
      </trkpt>
      <trkpt lat="48.18139" lon="7.1902">
        <ele>534</ele>
        <time>2019-04-12T21:24:56Z</time>
      </trkpt>
      <trkpt lat="48.18142" lon="7.19027">
        <ele>535</ele>
        <time>2019-04-12T21:25:56Z</time>
      </trkpt>
      <trkpt lat="48.18146" lon="7.19039">
        <ele>535</ele>
        <time>2019-04-12T21:26:56Z</time>
      </trkpt>
      <trkpt lat="48.18148" lon="7.19047">
        <ele>535</ele>
        <time>2019-04-12T21:27:56Z</time>
      </trkpt>
      <trkpt lat="48.18151" lon="7.19055">
        <ele>535</ele>
        <time>2019-04-12T21:28:56Z</time>
      </trkpt>
      <trkpt lat="48.18154" lon="7.19068">
        <ele>534</ele>
        <time>2019-04-12T21:29:56Z</time>
      </trkpt>
      <trkpt lat="48.18157" lon="7.1908">
        <ele>533</ele>
        <time>2019-04-12T21:30:56Z</time>
      </trkpt>
      <trkpt lat="48.18158" lon="7.19083">
        <ele>533</ele>
        <time>2019-04-12T21:31:56Z</time>
      </trkpt>
      <trkpt lat="48.1816" lon="7.1909">
        <ele>533</ele>
        <time>2019-04-12T21:32:56Z</time>
      </trkpt>
      <trkpt lat="48.18161" lon="7.19094">
        <ele>533</ele>
        <time>2019-04-12T21:33:56Z</time>
      </trkpt>
      <trkpt lat="48.18163" lon="7.19104">
        <ele>533</ele>
        <time>2019-04-12T21:34:56Z</time>
      </trkpt>
      <trkpt lat="48.18168" lon="7.19116">
        <ele>533</ele>
        <time>2019-04-12T21:35:56Z</time>
      </trkpt>
      <trkpt lat="48.1819" lon="7.19149">
        <ele>539</ele>
        <time>2019-04-12T21:36:56Z</time>
      </trkpt>
      <trkpt lat="48.18233" lon="7.19202">
        <ele>547</ele>
        <time>2019-04-12T21:37:56Z</time>
      </trkpt>
      <trkpt lat="48.18237" lon="7.19206">
        <ele>547</ele>
        <time>2019-04-12T21:38:56Z</time>
      </trkpt>
      <trkpt lat="48.18241" lon="7.19211">
        <ele>546</ele>
        <time>2019-04-12T21:39:56Z</time>
      </trkpt>
      <trkpt lat="48.18243" lon="7.19217">
        <ele>545</ele>
        <time>2019-04-12T21:40:56Z</time>
      </trkpt>
      <trkpt lat="48.18244" lon="7.19224">
        <ele>544</ele>
        <time>2019-04-12T21:41:56Z</time>
      </trkpt>
      <trkpt lat="48.18244" lon="7.19236">
        <ele>541</ele>
        <time>2019-04-12T21:42:56Z</time>
      </trkpt>
      <trkpt lat="48.18243" lon="7.19242">
        <ele>540</ele>
        <time>2019-04-12T21:43:56Z</time>
      </trkpt>
      <trkpt lat="48.18238" lon="7.19248">
        <ele>539</ele>
        <time>2019-04-12T21:44:56Z</time>
      </trkpt>
      <trkpt lat="48.18234" lon="7.19249">
        <ele>540</ele>
        <time>2019-04-12T21:45:56Z</time>
      </trkpt>
      <trkpt lat="48.18228" lon="7.19249">
        <ele>540</ele>
        <time>2019-04-12T21:46:56Z</time>
      </trkpt>
      <trkpt lat="48.18208" lon="7.1924">
        <ele>542</ele>
        <time>2019-04-12T21:47:56Z</time>
      </trkpt>
      <trkpt lat="48.1815" lon="7.19204">
        <ele>540</ele>
        <time>2019-04-12T21:48:56Z</time>
      </trkpt>
      <trkpt lat="48.18135" lon="7.19197">
        <ele>541</ele>
        <time>2019-04-12T21:49:56Z</time>
      </trkpt>
      <trkpt lat="48.18121" lon="7.19189">
        <ele>542</ele>
        <time>2019-04-12T21:50:56Z</time>
      </trkpt>
      <trkpt lat="48.18106" lon="7.19177">
        <ele>542</ele>
        <time>2019-04-12T21:51:56Z</time>
      </trkpt>
      <trkpt lat="48.18058" lon="7.19126">
        <ele>542</ele>
        <time>2019-04-12T21:52:56Z</time>
      </trkpt>
      <trkpt lat="48.18043" lon="7.19111">
        <ele>542</ele>
        <time>2019-04-12T21:53:56Z</time>
      </trkpt>
      <trkpt lat="48.18031" lon="7.19098">
        <ele>542</ele>
        <time>2019-04-12T21:54:56Z</time>
      </trkpt>
      <trkpt lat="48.18022" lon="7.19088">
        <ele>542</ele>
        <time>2019-04-12T21:55:56Z</time>
      </trkpt>
      <trkpt lat="48.18011" lon="7.1908">
        <ele>543</ele>
        <time>2019-04-12T21:56:56Z</time>
      </trkpt>
      <trkpt lat="48.17992" lon="7.1907">
        <ele>543</ele>
        <time>2019-04-12T21:57:56Z</time>
      </trkpt>
      <trkpt lat="48.17983" lon="7.19067">
        <ele>543</ele>
        <time>2019-04-12T21:58:56Z</time>
      </trkpt>
      <trkpt lat="48.17972" lon="7.19065">
        <ele>543</ele>
        <time>2019-04-12T21:59:56Z</time>
      </trkpt>
      <trkpt lat="48.1795" lon="7.19065">
        <ele>544</ele>
        <time>2019-04-12T22:00:56Z</time>
      </trkpt>
      <trkpt lat="48.17892" lon="7.19089">
        <ele>550</ele>
        <time>2019-04-12T22:01:56Z</time>
      </trkpt>
      <trkpt lat="48.17875" lon="7.19099">
        <ele>549</ele>
        <time>2019-04-12T22:02:56Z</time>
      </trkpt>
      <trkpt lat="48.17866" lon="7.19107">
        <ele>549</ele>
        <time>2019-04-12T22:03:56Z</time>
      </trkpt>
      <trkpt lat="48.17858" lon="7.19115">
        <ele>549</ele>
        <time>2019-04-12T22:04:56Z</time>
      </trkpt>
      <trkpt lat="48.17853" lon="7.19124">
        <ele>550</ele>
        <time>2019-04-12T22:05:56Z</time>
      </trkpt>
      <trkpt lat="48.17849" lon="7.19132">
        <ele>552</ele>
        <time>2019-04-12T22:06:56Z</time>
      </trkpt>
      <trkpt lat="48.17847" lon="7.19141">
        <ele>554</ele>
        <time>2019-04-12T22:07:56Z</time>
      </trkpt>
      <trkpt lat="48.17845" lon="7.19148">
        <ele>555</ele>
        <time>2019-04-12T22:08:56Z</time>
      </trkpt>
      <trkpt lat="48.17843" lon="7.19156">
        <ele>557</ele>
        <time>2019-04-12T22:09:56Z</time>
      </trkpt>
      <trkpt lat="48.17842" lon="7.19164">
        <ele>559</ele>
        <time>2019-04-12T22:10:56Z</time>
      </trkpt>
      <trkpt lat="48.17841" lon="7.19172">
        <ele>561</ele>
        <time>2019-04-12T22:11:56Z</time>
      </trkpt>
      <trkpt lat="48.17841" lon="7.19184">
        <ele>562</ele>
        <time>2019-04-12T22:12:56Z</time>
      </trkpt>
      <trkpt lat="48.17843" lon="7.192">
        <ele>565</ele>
        <time>2019-04-12T22:13:56Z</time>
      </trkpt>
      <trkpt lat="48.17843" lon="7.19212">
        <ele>567</ele>
        <time>2019-04-12T22:14:56Z</time>
      </trkpt>
      <trkpt lat="48.17843" lon="7.19219">
        <ele>568</ele>
        <time>2019-04-12T22:15:56Z</time>
      </trkpt>
      <trkpt lat="48.17842" lon="7.19224">
        <ele>568</ele>
        <time>2019-04-12T22:16:56Z</time>
      </trkpt>
      <trkpt lat="48.1784" lon="7.19232">
        <ele>568</ele>
        <time>2019-04-12T22:17:56Z</time>
      </trkpt>
      <trkpt lat="48.17838" lon="7.19236">
        <ele>568</ele>
        <time>2019-04-12T22:18:56Z</time>
      </trkpt>
      <trkpt lat="48.17837" lon="7.19238">
        <ele>568</ele>
        <time>2019-04-12T22:19:56Z</time>
      </trkpt>
      <trkpt lat="48.17834" lon="7.19242">
        <ele>568</ele>
        <time>2019-04-12T22:20:56Z</time>
      </trkpt>
      <trkpt lat="48.1783" lon="7.19247">
        <ele>567</ele>
        <time>2019-04-12T22:21:56Z</time>
      </trkpt>
      <trkpt lat="48.17824" lon="7.19253">
        <ele>566</ele>
        <time>2019-04-12T22:22:56Z</time>
      </trkpt>
      <trkpt lat="48.17818" lon="7.19261">
        <ele>563</ele>
        <time>2019-04-12T22:23:56Z</time>
      </trkpt>
      <trkpt lat="48.17814" lon="7.1927">
        <ele>562</ele>
        <time>2019-04-12T22:24:56Z</time>
      </trkpt>
      <trkpt lat="48.17811" lon="7.19276">
        <ele>561</ele>
        <time>2019-04-12T22:25:56Z</time>
      </trkpt>
      <trkpt lat="48.1781" lon="7.19286">
        <ele>560</ele>
        <time>2019-04-12T22:26:56Z</time>
      </trkpt>
      <trkpt lat="48.17809" lon="7.19297">
        <ele>560</ele>
        <time>2019-04-12T22:27:56Z</time>
      </trkpt>
      <trkpt lat="48.1781" lon="7.19304">
        <ele>560</ele>
        <time>2019-04-12T22:28:56Z</time>
      </trkpt>
      <trkpt lat="48.1781" lon="7.19309">
        <ele>560</ele>
        <time>2019-04-12T22:29:56Z</time>
      </trkpt>
      <trkpt lat="48.17812" lon="7.1932">
        <ele>561</ele>
        <time>2019-04-12T22:30:56Z</time>
      </trkpt>
      <trkpt lat="48.17821" lon="7.19344">
        <ele>563</ele>
        <time>2019-04-12T22:31:56Z</time>
      </trkpt>
      <trkpt lat="48.1784" lon="7.1937">
        <ele>567</ele>
        <time>2019-04-12T22:32:56Z</time>
      </trkpt>
      <trkpt lat="48.17861" lon="7.19404">
        <ele>572</ele>
        <time>2019-04-12T22:33:56Z</time>
      </trkpt>
      <trkpt lat="48.1787" lon="7.19423">
        <ele>574</ele>
        <time>2019-04-12T22:34:56Z</time>
      </trkpt>
      <trkpt lat="48.17879" lon="7.19444">
        <ele>576</ele>
        <time>2019-04-12T22:35:56Z</time>
      </trkpt>
      <trkpt lat="48.17887" lon="7.19468">
        <ele>577</ele>
        <time>2019-04-12T22:36:56Z</time>
      </trkpt>
      <trkpt lat="48.17898" lon="7.19502">
        <ele>580</ele>
        <time>2019-04-12T22:37:56Z</time>
      </trkpt>
      <trkpt lat="48.17904" lon="7.19521">
        <ele>581</ele>
        <time>2019-04-12T22:38:56Z</time>
      </trkpt>
      <trkpt lat="48.17923" lon="7.19595">
        <ele>584</ele>
        <time>2019-04-12T22:39:56Z</time>
      </trkpt>
      <trkpt lat="48.17947" lon="7.19691">
        <ele>589</ele>
        <time>2019-04-12T22:40:56Z</time>
      </trkpt>
      <trkpt lat="48.17953" lon="7.19717">
        <ele>590</ele>
        <time>2019-04-12T22:41:56Z</time>
      </trkpt>
      <trkpt lat="48.17956" lon="7.19726">
        <ele>591</ele>
        <time>2019-04-12T22:42:56Z</time>
      </trkpt>
      <trkpt lat="48.17959" lon="7.19738">
        <ele>591</ele>
        <time>2019-04-12T22:43:56Z</time>
      </trkpt>
      <trkpt lat="48.17964" lon="7.19746">
        <ele>593</ele>
        <time>2019-04-12T22:44:56Z</time>
      </trkpt>
      <trkpt lat="48.17973" lon="7.19762">
        <ele>595</ele>
        <time>2019-04-12T22:45:56Z</time>
      </trkpt>
      <trkpt lat="48.18005" lon="7.19808">
        <ele>604</ele>
        <time>2019-04-12T22:46:56Z</time>
      </trkpt>
      <trkpt lat="48.18012" lon="7.19818">
        <ele>606</ele>
        <time>2019-04-12T22:47:56Z</time>
      </trkpt>
      <trkpt lat="48.1802" lon="7.19826">
        <ele>609</ele>
        <time>2019-04-12T22:48:56Z</time>
      </trkpt>
      <trkpt lat="48.18025" lon="7.19832">
        <ele>610</ele>
        <time>2019-04-12T22:49:56Z</time>
      </trkpt>
      <trkpt lat="48.18027" lon="7.19838">
        <ele>610</ele>
        <time>2019-04-12T22:50:56Z</time>
      </trkpt>
      <trkpt lat="48.1803" lon="7.19844">
        <ele>611</ele>
        <time>2019-04-12T22:51:56Z</time>
      </trkpt>
      <trkpt lat="48.18031" lon="7.19853">
        <ele>611</ele>
        <time>2019-04-12T22:52:56Z</time>
      </trkpt>
      <trkpt lat="48.18032" lon="7.19861">
        <ele>612</ele>
        <time>2019-04-12T22:53:56Z</time>
      </trkpt>
      <trkpt lat="48.18031" lon="7.19868">
        <ele>611</ele>
        <time>2019-04-12T22:54:56Z</time>
      </trkpt>
      <trkpt lat="48.18031" lon="7.19878">
        <ele>610</ele>
        <time>2019-04-12T22:55:56Z</time>
      </trkpt>
      <trkpt lat="48.1803" lon="7.19886">
        <ele>610</ele>
        <time>2019-04-12T22:56:56Z</time>
      </trkpt>
      <trkpt lat="48.18028" lon="7.19896">
        <ele>608</ele>
        <time>2019-04-12T22:57:56Z</time>
      </trkpt>
      <trkpt lat="48.18026" lon="7.19904">
        <ele>607</ele>
        <time>2019-04-12T22:58:56Z</time>
      </trkpt>
      <trkpt lat="48.18024" lon="7.19914">
        <ele>606</ele>
        <time>2019-04-12T22:59:56Z</time>
      </trkpt>
      <trkpt lat="48.18024" lon="7.19921">
        <ele>605</ele>
        <time>2019-04-12T23:00:56Z</time>
      </trkpt>
      <trkpt lat="48.18024" lon="7.19929">
        <ele>604</ele>
        <time>2019-04-12T23:01:56Z</time>
      </trkpt>
      <trkpt lat="48.18025" lon="7.19936">
        <ele>603</ele>
        <time>2019-04-12T23:02:56Z</time>
      </trkpt>
      <trkpt lat="48.18041" lon="7.19965">
        <ele>608</ele>
        <time>2019-04-12T23:03:56Z</time>
      </trkpt>
      <trkpt lat="48.18077" lon="7.20027">
        <ele>620</ele>
        <time>2019-04-12T23:04:56Z</time>
      </trkpt>
      <trkpt lat="48.18105" lon="7.20082">
        <ele>624</ele>
        <time>2019-04-12T23:05:56Z</time>
      </trkpt>
      <trkpt lat="48.18106" lon="7.20084">
        <ele>625</ele>
        <time>2019-04-12T23:06:56Z</time>
      </trkpt>
      <trkpt lat="48.18122" lon="7.20128">
        <ele>630</ele>
        <time>2019-04-12T23:07:56Z</time>
      </trkpt>
      <trkpt lat="48.18125" lon="7.20139">
        <ele>630</ele>
        <time>2019-04-12T23:08:56Z</time>
      </trkpt>
      <trkpt lat="48.18127" lon="7.20151">
        <ele>630</ele>
        <time>2019-04-12T23:09:56Z</time>
      </trkpt>
      <trkpt lat="48.18132" lon="7.20174">
        <ele>632</ele>
        <time>2019-04-12T23:10:56Z</time>
      </trkpt>
      <trkpt lat="48.18133" lon="7.20186">
        <ele>632</ele>
        <time>2019-04-12T23:11:56Z</time>
      </trkpt>
      <trkpt lat="48.18136" lon="7.20215">
        <ele>632</ele>
        <time>2019-04-12T23:12:56Z</time>
      </trkpt>
      <trkpt lat="48.18137" lon="7.20227">
        <ele>632</ele>
        <time>2019-04-12T23:13:56Z</time>
      </trkpt>
      <trkpt lat="48.18137" lon="7.20241">
        <ele>631</ele>
        <time>2019-04-12T23:14:56Z</time>
      </trkpt>
      <trkpt lat="48.18138" lon="7.20259">
        <ele>630</ele>
        <time>2019-04-12T23:15:56Z</time>
      </trkpt>
      <trkpt lat="48.18138" lon="7.20272">
        <ele>629</ele>
        <time>2019-04-12T23:16:56Z</time>
      </trkpt>
      <trkpt lat="48.18138" lon="7.20283">
        <ele>629</ele>
        <time>2019-04-12T23:17:56Z</time>
      </trkpt>
      <trkpt lat="48.18138" lon="7.20292">
        <ele>628</ele>
        <time>2019-04-12T23:18:56Z</time>
      </trkpt>
      <trkpt lat="48.18138" lon="7.20294">
        <ele>628</ele>
        <time>2019-04-12T23:19:56Z</time>
      </trkpt>
      <trkpt lat="48.18139" lon="7.20316">
        <ele>627</ele>
        <time>2019-04-12T23:20:56Z</time>
      </trkpt>
      <trkpt lat="48.18141" lon="7.20332">
        <ele>627</ele>
        <time>2019-04-12T23:21:56Z</time>
      </trkpt>
      <trkpt lat="48.18161" lon="7.20388">
        <ele>632</ele>
        <time>2019-04-12T23:22:56Z</time>
      </trkpt>
      <trkpt lat="48.18184" lon="7.20465">
        <ele>633</ele>
        <time>2019-04-12T23:23:56Z</time>
      </trkpt>
      <trkpt lat="48.18189" lon="7.20477">
        <ele>634</ele>
        <time>2019-04-12T23:24:56Z</time>
      </trkpt>
      <trkpt lat="48.18193" lon="7.20488">
        <ele>634</ele>
        <time>2019-04-12T23:25:56Z</time>
      </trkpt>
      <trkpt lat="48.18199" lon="7.20502">
        <ele>634</ele>
        <time>2019-04-12T23:26:56Z</time>
      </trkpt>
      <trkpt lat="48.18206" lon="7.20516">
        <ele>635</ele>
        <time>2019-04-12T23:27:56Z</time>
      </trkpt>
      <trkpt lat="48.18214" lon="7.20526">
        <ele>636</ele>
        <time>2019-04-12T23:28:56Z</time>
      </trkpt>
      <trkpt lat="48.18218" lon="7.20529">
        <ele>637</ele>
        <time>2019-04-12T23:29:56Z</time>
      </trkpt>
      <trkpt lat="48.1822" lon="7.20531">
        <ele>638</ele>
        <time>2019-04-12T23:30:56Z</time>
      </trkpt>
      <trkpt lat="48.18225" lon="7.20535">
        <ele>639</ele>
        <time>2019-04-12T23:31:56Z</time>
      </trkpt>
      <trkpt lat="48.18231" lon="7.20538">
        <ele>640</ele>
        <time>2019-04-12T23:32:56Z</time>
      </trkpt>
      <trkpt lat="48.18246" lon="7.20541">
        <ele>645</ele>
        <time>2019-04-12T23:33:56Z</time>
      </trkpt>
      <trkpt lat="48.18268" lon="7.20542">
        <ele>652</ele>
        <time>2019-04-12T23:34:56Z</time>
      </trkpt>
      <trkpt lat="48.18279" lon="7.20546">
        <ele>654</ele>
        <time>2019-04-12T23:35:56Z</time>
      </trkpt>
      <trkpt lat="48.18289" lon="7.2055">
        <ele>656</ele>
        <time>2019-04-12T23:36:56Z</time>
      </trkpt>
      <trkpt lat="48.18303" lon="7.20562">
        <ele>656</ele>
        <time>2019-04-12T23:37:56Z</time>
      </trkpt>
      <trkpt lat="48.18325" lon="7.20587">
        <ele>655</ele>
        <time>2019-04-12T23:38:56Z</time>
      </trkpt>
      <trkpt lat="48.18335" lon="7.20601">
        <ele>657</ele>
        <time>2019-04-12T23:39:56Z</time>
      </trkpt>
      <trkpt lat="48.18343" lon="7.20618">
        <ele>659</ele>
        <time>2019-04-12T23:40:56Z</time>
      </trkpt>
      <trkpt lat="48.18349" lon="7.20639">
        <ele>660</ele>
        <time>2019-04-12T23:41:56Z</time>
      </trkpt>
      <trkpt lat="48.18356" lon="7.20655">
        <ele>661</ele>
        <time>2019-04-12T23:42:56Z</time>
      </trkpt>
      <trkpt lat="48.1838" lon="7.20698">
        <ele>667</ele>
        <time>2019-04-12T23:43:56Z</time>
      </trkpt>
      <trkpt lat="48.18403" lon="7.2074">
        <ele>670</ele>
        <time>2019-04-12T23:44:56Z</time>
      </trkpt>
      <trkpt lat="48.18409" lon="7.20753">
        <ele>670</ele>
        <time>2019-04-12T23:45:56Z</time>
      </trkpt>
      <trkpt lat="48.1841" lon="7.2076">
        <ele>671</ele>
        <time>2019-04-12T23:46:56Z</time>
      </trkpt>
      <trkpt lat="48.18411" lon="7.20764">
        <ele>672</ele>
        <time>2019-04-12T23:47:56Z</time>
      </trkpt>
      <trkpt lat="48.18411" lon="7.20771">
        <ele>673</ele>
        <time>2019-04-12T23:48:56Z</time>
      </trkpt>
      <trkpt lat="48.18408" lon="7.20781">
        <ele>673</ele>
        <time>2019-04-12T23:49:56Z</time>
      </trkpt>
      <trkpt lat="48.18403" lon="7.2079">
        <ele>674</ele>
        <time>2019-04-12T23:50:56Z</time>
      </trkpt>
      <trkpt lat="48.18398" lon="7.20794">
        <ele>674</ele>
        <time>2019-04-12T23:51:56Z</time>
      </trkpt>
      <trkpt lat="48.18392" lon="7.20798">
        <ele>674</ele>
        <time>2019-04-12T23:52:56Z</time>
      </trkpt>
      <trkpt lat="48.18381" lon="7.20797">
        <ele>674</ele>
        <time>2019-04-12T23:53:56Z</time>
      </trkpt>
      <trkpt lat="48.18354" lon="7.20787">
        <ele>670</ele>
        <time>2019-04-12T23:54:56Z</time>
      </trkpt>
      <trkpt lat="48.18323" lon="7.2077">
        <ele>664</ele>
        <time>2019-04-12T23:55:56Z</time>
      </trkpt>
      <trkpt lat="48.18316" lon="7.20768">
        <ele>662</ele>
        <time>2019-04-12T23:56:56Z</time>
      </trkpt>
      <trkpt lat="48.1831" lon="7.20769">
        <ele>661</ele>
        <time>2019-04-12T23:57:56Z</time>
      </trkpt>
      <trkpt lat="48.18304" lon="7.20773">
        <ele>661</ele>
        <time>2019-04-12T23:58:56Z</time>
      </trkpt>
      <trkpt lat="48.18302" lon="7.20778">
        <ele>662</ele>
        <time>2019-04-12T23:59:56Z</time>
      </trkpt>
      <trkpt lat="48.18301" lon="7.20784">
        <ele>663</ele>
        <time>2019-04-13T00:00:56Z</time>
      </trkpt>
      <trkpt lat="48.18302" lon="7.20797">
        <ele>666</ele>
        <time>2019-04-13T00:01:56Z</time>
      </trkpt>
      <trkpt lat="48.18304" lon="7.20812">
        <ele>670</ele>
        <time>2019-04-13T00:02:56Z</time>
      </trkpt>
      <trkpt lat="48.18305" lon="7.2083">
        <ele>674</ele>
        <time>2019-04-13T00:03:56Z</time>
      </trkpt>
      <trkpt lat="48.18305" lon="7.20843">
        <ele>678</ele>
        <time>2019-04-13T00:04:56Z</time>
      </trkpt>
      <trkpt lat="48.18302" lon="7.20857">
        <ele>681</ele>
        <time>2019-04-13T00:05:56Z</time>
      </trkpt>
      <trkpt lat="48.18297" lon="7.20871">
        <ele>685</ele>
        <time>2019-04-13T00:06:56Z</time>
      </trkpt>
      <trkpt lat="48.18289" lon="7.20883">
        <ele>687</ele>
        <time>2019-04-13T00:07:56Z</time>
      </trkpt>
      <trkpt lat="48.18279" lon="7.20893">
        <ele>689</ele>
        <time>2019-04-13T00:08:56Z</time>
      </trkpt>
      <trkpt lat="48.18269" lon="7.20899">
        <ele>690</ele>
        <time>2019-04-13T00:09:56Z</time>
      </trkpt>
      <trkpt lat="48.18254" lon="7.20902">
        <ele>689</ele>
        <time>2019-04-13T00:10:56Z</time>
      </trkpt>
      <trkpt lat="48.18234" lon="7.20902">
        <ele>688</ele>
        <time>2019-04-13T00:11:56Z</time>
      </trkpt>
      <trkpt lat="48.18215" lon="7.20899">
        <ele>686</ele>
        <time>2019-04-13T00:12:56Z</time>
      </trkpt>
      <trkpt lat="48.18206" lon="7.20898">
        <ele>685</ele>
        <time>2019-04-13T00:13:56Z</time>
      </trkpt>
      <trkpt lat="48.18201" lon="7.20901">
        <ele>686</ele>
        <time>2019-04-13T00:14:56Z</time>
      </trkpt>
      <trkpt lat="48.18193" lon="7.20906">
        <ele>688</ele>
        <time>2019-04-13T00:15:56Z</time>
      </trkpt>
      <trkpt lat="48.18187" lon="7.20915">
        <ele>690</ele>
        <time>2019-04-13T00:16:56Z</time>
      </trkpt>
      <trkpt lat="48.18176" lon="7.20932">
        <ele>695</ele>
        <time>2019-04-13T00:17:56Z</time>
      </trkpt>
      <trkpt lat="48.18162" lon="7.20953">
        <ele>701</ele>
        <time>2019-04-13T00:18:56Z</time>
      </trkpt>
      <trkpt lat="48.18157" lon="7.20961">
        <ele>703</ele>
        <time>2019-04-13T00:19:56Z</time>
      </trkpt>
      <trkpt lat="48.18152" lon="7.20966">
        <ele>705</ele>
        <time>2019-04-13T00:20:56Z</time>
      </trkpt>
      <trkpt lat="48.18146" lon="7.2097">
        <ele>707</ele>
        <time>2019-04-13T00:21:56Z</time>
      </trkpt>
      <trkpt lat="48.18139" lon="7.20972">
        <ele>709</ele>
        <time>2019-04-13T00:22:56Z</time>
      </trkpt>
      <trkpt lat="48.18132" lon="7.2097">
        <ele>709</ele>
        <time>2019-04-13T00:23:56Z</time>
      </trkpt>
      <trkpt lat="48.18124" lon="7.20966">
        <ele>709</ele>
        <time>2019-04-13T00:24:56Z</time>
      </trkpt>
      <trkpt lat="48.18107" lon="7.20944">
        <ele>705</ele>
        <time>2019-04-13T00:25:56Z</time>
      </trkpt>
      <trkpt lat="48.18066" lon="7.20883">
        <ele>700</ele>
        <time>2019-04-13T00:26:56Z</time>
      </trkpt>
      <trkpt lat="48.18059" lon="7.20873">
        <ele>700</ele>
        <time>2019-04-13T00:27:56Z</time>
      </trkpt>
      <trkpt lat="48.18052" lon="7.20861">
        <ele>699</ele>
        <time>2019-04-13T00:28:56Z</time>
      </trkpt>
      <trkpt lat="48.18043" lon="7.20852">
        <ele>700</ele>
        <time>2019-04-13T00:29:56Z</time>
      </trkpt>
      <trkpt lat="48.18038" lon="7.20848">
        <ele>701</ele>
        <time>2019-04-13T00:30:56Z</time>
      </trkpt>
      <trkpt lat="48.18033" lon="7.20844">
        <ele>701</ele>
        <time>2019-04-13T00:31:56Z</time>
      </trkpt>
      <trkpt lat="48.18025" lon="7.20838">
        <ele>702</ele>
        <time>2019-04-13T00:32:56Z</time>
      </trkpt>
      <trkpt lat="48.18018" lon="7.20836">
        <ele>704</ele>
        <time>2019-04-13T00:33:56Z</time>
      </trkpt>
      <trkpt lat="48.17997" lon="7.20835">
        <ele>710</ele>
        <time>2019-04-13T00:34:56Z</time>
      </trkpt>
      <trkpt lat="48.17943" lon="7.20836">
        <ele>718</ele>
        <time>2019-04-13T00:35:56Z</time>
      </trkpt>
      <trkpt lat="48.17939" lon="7.20837">
        <ele>719</ele>
        <time>2019-04-13T00:36:56Z</time>
      </trkpt>
      <trkpt lat="48.17887" lon="7.20843">
        <ele>727</ele>
        <time>2019-04-13T00:37:56Z</time>
      </trkpt>
      <trkpt lat="48.17852" lon="7.20839">
        <ele>729</ele>
        <time>2019-04-13T00:38:56Z</time>
      </trkpt>
      <trkpt lat="48.1782" lon="7.20832">
        <ele>731</ele>
        <time>2019-04-13T00:39:56Z</time>
      </trkpt>
      <trkpt lat="48.17806" lon="7.20827">
        <ele>731</ele>
        <time>2019-04-13T00:40:56Z</time>
      </trkpt>
      <trkpt lat="48.17792" lon="7.20819">
        <ele>730</ele>
        <time>2019-04-13T00:41:56Z</time>
      </trkpt>
      <trkpt lat="48.17784" lon="7.20807">
        <ele>727</ele>
        <time>2019-04-13T00:42:56Z</time>
      </trkpt>
      <trkpt lat="48.17777" lon="7.20799">
        <ele>726</ele>
        <time>2019-04-13T00:43:56Z</time>
      </trkpt>
      <trkpt lat="48.17774" lon="7.20794">
        <ele>724</ele>
        <time>2019-04-13T00:44:56Z</time>
      </trkpt>
      <trkpt lat="48.17768" lon="7.20789">
        <ele>724</ele>
        <time>2019-04-13T00:45:56Z</time>
      </trkpt>
      <trkpt lat="48.17766" lon="7.20787">
        <ele>724</ele>
        <time>2019-04-13T00:46:56Z</time>
      </trkpt>
      <trkpt lat="48.17764" lon="7.20786">
        <ele>724</ele>
        <time>2019-04-13T00:47:56Z</time>
      </trkpt>
      <trkpt lat="48.17761" lon="7.20785">
        <ele>724</ele>
        <time>2019-04-13T00:48:56Z</time>
      </trkpt>
      <trkpt lat="48.17759" lon="7.20786">
        <ele>724</ele>
        <time>2019-04-13T00:49:56Z</time>
      </trkpt>
      <trkpt lat="48.17757" lon="7.20787">
        <ele>725</ele>
        <time>2019-04-13T00:50:56Z</time>
      </trkpt>
      <trkpt lat="48.17755" lon="7.20788">
        <ele>725</ele>
        <time>2019-04-13T00:51:56Z</time>
      </trkpt>
      <trkpt lat="48.17753" lon="7.2079">
        <ele>726</ele>
        <time>2019-04-13T00:52:56Z</time>
      </trkpt>
      <trkpt lat="48.17752" lon="7.20792">
        <ele>727</ele>
        <time>2019-04-13T00:53:56Z</time>
      </trkpt>
      <trkpt lat="48.1775" lon="7.20795">
        <ele>728</ele>
        <time>2019-04-13T00:54:56Z</time>
      </trkpt>
      <trkpt lat="48.17748" lon="7.208">
        <ele>729</ele>
        <time>2019-04-13T00:55:56Z</time>
      </trkpt>
      <trkpt lat="48.17749" lon="7.2081">
        <ele>732</ele>
        <time>2019-04-13T00:56:56Z</time>
      </trkpt>
      <trkpt lat="48.17751" lon="7.20818">
        <ele>734</ele>
        <time>2019-04-13T00:57:56Z</time>
      </trkpt>
      <trkpt lat="48.17757" lon="7.20826">
        <ele>735</ele>
        <time>2019-04-13T00:58:56Z</time>
      </trkpt>
      <trkpt lat="48.17775" lon="7.20842">
        <ele>737</ele>
        <time>2019-04-13T00:59:56Z</time>
      </trkpt>
      <trkpt lat="48.17795" lon="7.20856">
        <ele>739</ele>
        <time>2019-04-13T01:00:56Z</time>
      </trkpt>
      <trkpt lat="48.17831" lon="7.20877">
        <ele>741</ele>
        <time>2019-04-13T01:01:56Z</time>
      </trkpt>
      <trkpt lat="48.17903" lon="7.20924">
        <ele>746</ele>
        <time>2019-04-13T01:02:56Z</time>
      </trkpt>
      <trkpt lat="48.17934" lon="7.20946">
        <ele>747</ele>
        <time>2019-04-13T01:03:56Z</time>
      </trkpt>
      <trkpt lat="48.17949" lon="7.20958">
        <ele>747</ele>
        <time>2019-04-13T01:04:56Z</time>
      </trkpt>
      <trkpt lat="48.17961" lon="7.20971">
        <ele>748</ele>
        <time>2019-04-13T01:05:56Z</time>
      </trkpt>
      <trkpt lat="48.17998" lon="7.21016">
        <ele>751</ele>
        <time>2019-04-13T01:06:56Z</time>
      </trkpt>
      <trkpt lat="48.18023" lon="7.21048">
        <ele>751</ele>
        <time>2019-04-13T01:07:56Z</time>
      </trkpt>
      <trkpt lat="48.1804" lon="7.21071">
        <ele>751</ele>
        <time>2019-04-13T01:08:56Z</time>
      </trkpt>
      <trkpt lat="48.18061" lon="7.21104">
        <ele>754</ele>
        <time>2019-04-13T01:09:56Z</time>
      </trkpt>
      <trkpt lat="48.18069" lon="7.21115">
        <ele>755</ele>
        <time>2019-04-13T01:10:56Z</time>
      </trkpt>
      <trkpt lat="48.18076" lon="7.21129">
        <ele>757</ele>
        <time>2019-04-13T01:11:56Z</time>
      </trkpt>
      <trkpt lat="48.18088" lon="7.21145">
        <ele>760</ele>
        <time>2019-04-13T01:12:56Z</time>
      </trkpt>
      <trkpt lat="48.181" lon="7.21159">
        <ele>764</ele>
        <time>2019-04-13T01:13:56Z</time>
      </trkpt>
      <trkpt lat="48.1811" lon="7.21167">
        <ele>766</ele>
        <time>2019-04-13T01:14:56Z</time>
      </trkpt>
      <trkpt lat="48.1812" lon="7.21175">
        <ele>768</ele>
        <time>2019-04-13T01:15:56Z</time>
      </trkpt>
      <trkpt lat="48.18133" lon="7.21179">
        <ele>769</ele>
        <time>2019-04-13T01:16:56Z</time>
      </trkpt>
      <trkpt lat="48.18141" lon="7.2118">
        <ele>769</ele>
        <time>2019-04-13T01:17:56Z</time>
      </trkpt>
      <trkpt lat="48.18151" lon="7.2118">
        <ele>769</ele>
        <time>2019-04-13T01:18:56Z</time>
      </trkpt>
      <trkpt lat="48.18189" lon="7.21166">
        <ele>769</ele>
        <time>2019-04-13T01:19:56Z</time>
      </trkpt>
      <trkpt lat="48.18215" lon="7.21154">
        <ele>770</ele>
        <time>2019-04-13T01:20:56Z</time>
      </trkpt>
      <trkpt lat="48.18227" lon="7.2115">
        <ele>770</ele>
        <time>2019-04-13T01:21:56Z</time>
      </trkpt>
      <trkpt lat="48.18241" lon="7.21147">
        <ele>772</ele>
        <time>2019-04-13T01:22:56Z</time>
      </trkpt>
      <trkpt lat="48.1827" lon="7.21146">
        <ele>773</ele>
        <time>2019-04-13T01:23:56Z</time>
      </trkpt>
      <trkpt lat="48.18316" lon="7.21145">
        <ele>774</ele>
        <time>2019-04-13T01:24:56Z</time>
      </trkpt>
      <trkpt lat="48.18363" lon="7.21148">
        <ele>777</ele>
        <time>2019-04-13T01:25:56Z</time>
      </trkpt>
      <trkpt lat="48.18413" lon="7.21151">
        <ele>780</ele>
        <time>2019-04-13T01:26:56Z</time>
      </trkpt>
      <trkpt lat="48.18436" lon="7.21153">
        <ele>781</ele>
        <time>2019-04-13T01:27:56Z</time>
      </trkpt>
      <trkpt lat="48.18458" lon="7.21154">
        <ele>780</ele>
        <time>2019-04-13T01:28:56Z</time>
      </trkpt>
      <trkpt lat="48.18491" lon="7.2116">
        <ele>782</ele>
        <time>2019-04-13T01:29:56Z</time>
      </trkpt>
      <trkpt lat="48.18528" lon="7.21168">
        <ele>786</ele>
        <time>2019-04-13T01:30:56Z</time>
      </trkpt>
      <trkpt lat="48.18545" lon="7.2117">
        <ele>788</ele>
        <time>2019-04-13T01:31:56Z</time>
      </trkpt>
      <trkpt lat="48.18558" lon="7.21168">
        <ele>789</ele>
        <time>2019-04-13T01:32:56Z</time>
      </trkpt>
      <trkpt lat="48.18575" lon="7.21156">
        <ele>787</ele>
        <time>2019-04-13T01:33:56Z</time>
      </trkpt>
      <trkpt lat="48.18588" lon="7.21144">
        <ele>787</ele>
        <time>2019-04-13T01:34:56Z</time>
      </trkpt>
      <trkpt lat="48.18595" lon="7.21132">
        <ele>786</ele>
        <time>2019-04-13T01:35:56Z</time>
      </trkpt>
      <trkpt lat="48.18604" lon="7.21109">
        <ele>784</ele>
        <time>2019-04-13T01:36:56Z</time>
      </trkpt>
      <trkpt lat="48.18609" lon="7.21098">
        <ele>782</ele>
        <time>2019-04-13T01:37:56Z</time>
      </trkpt>
      <trkpt lat="48.18614" lon="7.21093">
        <ele>783</ele>
        <time>2019-04-13T01:38:56Z</time>
      </trkpt>
      <trkpt lat="48.18621" lon="7.21091">
        <ele>784</ele>
        <time>2019-04-13T01:39:56Z</time>
      </trkpt>
      <trkpt lat="48.18628" lon="7.21091">
        <ele>785</ele>
        <time>2019-04-13T01:40:56Z</time>
      </trkpt>
      <trkpt lat="48.18636" lon="7.21094">
        <ele>788</ele>
        <time>2019-04-13T01:41:56Z</time>
      </trkpt>
      <trkpt lat="48.18645" lon="7.21098">
        <ele>790</ele>
        <time>2019-04-13T01:42:56Z</time>
      </trkpt>
      <trkpt lat="48.18653" lon="7.21098">
        <ele>792</ele>
        <time>2019-04-13T01:43:56Z</time>
      </trkpt>
      <trkpt lat="48.18664" lon="7.21097">
        <ele>794</ele>
        <time>2019-04-13T01:44:56Z</time>
      </trkpt>
      <trkpt lat="48.18682" lon="7.21094">
        <ele>795</ele>
        <time>2019-04-13T01:45:56Z</time>
      </trkpt>
      <trkpt lat="48.18718" lon="7.21087">
        <ele>796</ele>
        <time>2019-04-13T01:46:56Z</time>
      </trkpt>
      <trkpt lat="48.18737" lon="7.21084">
        <ele>797</ele>
        <time>2019-04-13T01:47:56Z</time>
      </trkpt>
      <trkpt lat="48.1874" lon="7.21083">
        <ele>797</ele>
        <time>2019-04-13T01:48:56Z</time>
      </trkpt>
      <trkpt lat="48.18754" lon="7.21083">
        <ele>797</ele>
        <time>2019-04-13T01:49:56Z</time>
      </trkpt>
      <trkpt lat="48.18764" lon="7.21084">
        <ele>796</ele>
        <time>2019-04-13T01:50:56Z</time>
      </trkpt>
      <trkpt lat="48.18768" lon="7.21086">
        <ele>796</ele>
        <time>2019-04-13T01:51:56Z</time>
      </trkpt>
      <trkpt lat="48.18775" lon="7.2109">
        <ele>796</ele>
        <time>2019-04-13T01:52:56Z</time>
      </trkpt>
      <trkpt lat="48.18788" lon="7.21102">
        <ele>797</ele>
        <time>2019-04-13T01:53:56Z</time>
      </trkpt>
      <trkpt lat="48.18793" lon="7.21108">
        <ele>797</ele>
        <time>2019-04-13T01:54:56Z</time>
      </trkpt>
      <trkpt lat="48.18815" lon="7.21144">
        <ele>802</ele>
        <time>2019-04-13T01:55:56Z</time>
      </trkpt>
      <trkpt lat="48.18852" lon="7.21196">
        <ele>809</ele>
        <time>2019-04-13T01:56:56Z</time>
      </trkpt>
      <trkpt lat="48.1889" lon="7.21254">
        <ele>812</ele>
        <time>2019-04-13T01:57:56Z</time>
      </trkpt>
      <trkpt lat="48.18925" lon="7.21316">
        <ele>817</ele>
        <time>2019-04-13T01:58:56Z</time>
      </trkpt>
      <trkpt lat="48.18969" lon="7.21395">
        <ele>826</ele>
        <time>2019-04-13T01:59:56Z</time>
      </trkpt>
      <trkpt lat="48.18989" lon="7.21424">
        <ele>826</ele>
        <time>2019-04-13T02:00:56Z</time>
      </trkpt>
      <trkpt lat="48.19006" lon="7.21439">
        <ele>826</ele>
        <time>2019-04-13T02:01:56Z</time>
      </trkpt>
      <trkpt lat="48.19026" lon="7.21451">
        <ele>827</ele>
        <time>2019-04-13T02:02:56Z</time>
      </trkpt>
      <trkpt lat="48.19044" lon="7.21455">
        <ele>827</ele>
        <time>2019-04-13T02:03:56Z</time>
      </trkpt>
      <trkpt lat="48.19066" lon="7.21458">
        <ele>826</ele>
        <time>2019-04-13T02:04:56Z</time>
      </trkpt>
      <trkpt lat="48.19082" lon="7.21458">
        <ele>825</ele>
        <time>2019-04-13T02:05:56Z</time>
      </trkpt>
      <trkpt lat="48.19109" lon="7.2145">
        <ele>825</ele>
        <time>2019-04-13T02:06:56Z</time>
      </trkpt>
      <trkpt lat="48.19134" lon="7.21439">
        <ele>825</ele>
        <time>2019-04-13T02:07:56Z</time>
      </trkpt>
      <trkpt lat="48.19149" lon="7.21432">
        <ele>825</ele>
        <time>2019-04-13T02:08:56Z</time>
      </trkpt>
      <trkpt lat="48.19163" lon="7.21428">
        <ele>826</ele>
        <time>2019-04-13T02:09:56Z</time>
      </trkpt>
      <trkpt lat="48.19177" lon="7.21425">
        <ele>825</ele>
        <time>2019-04-13T02:10:56Z</time>
      </trkpt>
      <trkpt lat="48.19191" lon="7.21426">
        <ele>825</ele>
        <time>2019-04-13T02:11:56Z</time>
      </trkpt>
      <trkpt lat="48.19203" lon="7.21428">
        <ele>825</ele>
        <time>2019-04-13T02:12:56Z</time>
      </trkpt>
      <trkpt lat="48.19214" lon="7.21432">
        <ele>826</ele>
        <time>2019-04-13T02:13:56Z</time>
      </trkpt>
      <trkpt lat="48.19223" lon="7.21437">
        <ele>827</ele>
        <time>2019-04-13T02:14:56Z</time>
      </trkpt>
      <trkpt lat="48.19233" lon="7.21446">
        <ele>828</ele>
        <time>2019-04-13T02:15:56Z</time>
      </trkpt>
      <trkpt lat="48.19246" lon="7.21462">
        <ele>830</ele>
        <time>2019-04-13T02:16:56Z</time>
      </trkpt>
      <trkpt lat="48.19256" lon="7.21477">
        <ele>833</ele>
        <time>2019-04-13T02:17:56Z</time>
      </trkpt>
      <trkpt lat="48.19267" lon="7.2149">
        <ele>834</ele>
        <time>2019-04-13T02:18:56Z</time>
      </trkpt>
      <trkpt lat="48.19276" lon="7.21502">
        <ele>836</ele>
        <time>2019-04-13T02:19:56Z</time>
      </trkpt>
      <trkpt lat="48.19276" lon="7.21502">
        <ele>836</ele>
        <time>2019-04-13T02:20:56Z</time>
      </trkpt>
      <trkpt lat="48.19279" lon="7.21506">
        <ele>836</ele>
        <time>2019-04-13T02:21:56Z</time>
      </trkpt>
      <trkpt lat="48.19285" lon="7.21513">
        <ele>836</ele>
        <time>2019-04-13T02:22:56Z</time>
      </trkpt>
      <trkpt lat="48.19289" lon="7.21524">
        <ele>837</ele>
        <time>2019-04-13T02:23:56Z</time>
      </trkpt>
      <trkpt lat="48.19292" lon="7.21532">
        <ele>837</ele>
        <time>2019-04-13T02:24:56Z</time>
      </trkpt>
      <trkpt lat="48.19297" lon="7.21541">
        <ele>837</ele>
        <time>2019-04-13T02:25:56Z</time>
      </trkpt>
      <trkpt lat="48.19299" lon="7.21546">
        <ele>837</ele>
        <time>2019-04-13T02:26:56Z</time>
      </trkpt>
      <trkpt lat="48.1931" lon="7.21572">
        <ele>837</ele>
        <time>2019-04-13T02:27:56Z</time>
      </trkpt>
      <trkpt lat="48.19327" lon="7.21615">
        <ele>834</ele>
        <time>2019-04-13T02:28:56Z</time>
      </trkpt>
      <trkpt lat="48.19341" lon="7.21648">
        <ele>832</ele>
        <time>2019-04-13T02:29:56Z</time>
      </trkpt>
      <trkpt lat="48.19356" lon="7.21685">
        <ele>829</ele>
        <time>2019-04-13T02:30:56Z</time>
      </trkpt>
      <trkpt lat="48.19362" lon="7.21703">
        <ele>827</ele>
        <time>2019-04-13T02:31:56Z</time>
      </trkpt>
      <trkpt lat="48.19369" lon="7.2172">
        <ele>825</ele>
        <time>2019-04-13T02:32:56Z</time>
      </trkpt>
      <trkpt lat="48.19377" lon="7.21734">
        <ele>823</ele>
        <time>2019-04-13T02:33:56Z</time>
      </trkpt>
      <trkpt lat="48.19383" lon="7.21744">
        <ele>822</ele>
        <time>2019-04-13T02:34:56Z</time>
      </trkpt>
      <trkpt lat="48.19386" lon="7.21746">
        <ele>821</ele>
        <time>2019-04-13T02:35:56Z</time>
      </trkpt>
      <trkpt lat="48.19416" lon="7.21783">
        <ele>815</ele>
        <time>2019-04-13T02:36:56Z</time>
      </trkpt>
      <trkpt lat="48.19448" lon="7.21824">
        <ele>812</ele>
        <time>2019-04-13T02:37:56Z</time>
      </trkpt>
      <trkpt lat="48.19493" lon="7.21876">
        <ele>809</ele>
        <time>2019-04-13T02:38:56Z</time>
      </trkpt>
      <trkpt lat="48.19535" lon="7.21925">
        <ele>809</ele>
        <time>2019-04-13T02:39:56Z</time>
      </trkpt>
      <trkpt lat="48.19567" lon="7.21964">
        <ele>809</ele>
        <time>2019-04-13T02:40:56Z</time>
      </trkpt>
      <trkpt lat="48.196" lon="7.21998">
        <ele>809</ele>
        <time>2019-04-13T02:41:56Z</time>
      </trkpt>
      <trkpt lat="48.19617" lon="7.22011">
        <ele>808</ele>
        <time>2019-04-13T02:42:56Z</time>
      </trkpt>
      <trkpt lat="48.19629" lon="7.22019">
        <ele>808</ele>
        <time>2019-04-13T02:43:56Z</time>
      </trkpt>
      <trkpt lat="48.19634" lon="7.22022">
        <ele>807</ele>
        <time>2019-04-13T02:44:56Z</time>
      </trkpt>
      <trkpt lat="48.19637" lon="7.22024">
        <ele>807</ele>
        <time>2019-04-13T02:45:56Z</time>
      </trkpt>
      <trkpt lat="48.19637" lon="7.22025">
        <ele>807</ele>
        <time>2019-04-13T02:46:56Z</time>
      </trkpt>
      <trkpt lat="48.19646" lon="7.22036">
        <ele>807</ele>
        <time>2019-04-13T02:47:56Z</time>
      </trkpt>
      <trkpt lat="48.19672" lon="7.22079">
        <ele>805</ele>
        <time>2019-04-13T02:48:56Z</time>
      </trkpt>
      <trkpt lat="48.19692" lon="7.22104">
        <ele>803</ele>
        <time>2019-04-13T02:49:56Z</time>
      </trkpt>
      <trkpt lat="48.19698" lon="7.22111">
        <ele>802</ele>
        <time>2019-04-13T02:50:56Z</time>
      </trkpt>
      <trkpt lat="48.19706" lon="7.22118">
        <ele>801</ele>
        <time>2019-04-13T02:51:56Z</time>
      </trkpt>
      <trkpt lat="48.19729" lon="7.22133">
        <ele>800</ele>
        <time>2019-04-13T02:52:56Z</time>
      </trkpt>
      <trkpt lat="48.19737" lon="7.22143">
        <ele>800</ele>
        <time>2019-04-13T02:53:56Z</time>
      </trkpt>
      <trkpt lat="48.19743" lon="7.22151">
        <ele>799</ele>
        <time>2019-04-13T02:54:56Z</time>
      </trkpt>
      <trkpt lat="48.19743" lon="7.22151">
        <ele>799</ele>
        <time>2019-04-13T02:55:56Z</time>
      </trkpt>
      <trkpt lat="48.19742" lon="7.22151">
        <ele>799</ele>
        <time>2019-04-13T02:56:56Z</time>
      </trkpt>
      <trkpt lat="48.19741" lon="7.22153">
        <ele>799</ele>
        <time>2019-04-13T02:57:56Z</time>
      </trkpt>
      <trkpt lat="48.19741" lon="7.22154">
        <ele>799</ele>
        <time>2019-04-13T02:58:56Z</time>
      </trkpt>
      <trkpt lat="48.1974" lon="7.22156">
        <ele>799</ele>
        <time>2019-04-13T02:59:56Z</time>
      </trkpt>
      <trkpt lat="48.1974" lon="7.22158">
        <ele>799</ele>
        <time>2019-04-13T03:00:56Z</time>
      </trkpt>
      <trkpt lat="48.1974" lon="7.2216">
        <ele>799</ele>
        <time>2019-04-13T03:01:56Z</time>
      </trkpt>
      <trkpt lat="48.1974" lon="7.22162">
        <ele>799</ele>
        <time>2019-04-13T03:02:56Z</time>
      </trkpt>
      <trkpt lat="48.19741" lon="7.22162">
        <ele>799</ele>
        <time>2019-04-13T03:03:56Z</time>
      </trkpt>
      <trkpt lat="48.19742" lon="7.22164">
        <ele>799</ele>
        <time>2019-04-13T03:04:56Z</time>
      </trkpt>
      <trkpt lat="48.19742" lon="7.22165">
        <ele>799</ele>
        <time>2019-04-13T03:05:56Z</time>
      </trkpt>
      <trkpt lat="48.19743" lon="7.22166">
        <ele>799</ele>
        <time>2019-04-13T03:06:56Z</time>
      </trkpt>
      <trkpt lat="48.19745" lon="7.22167">
        <ele>799</ele>
        <time>2019-04-13T03:07:56Z</time>
      </trkpt>
      <trkpt lat="48.19746" lon="7.22167">
        <ele>799</ele>
        <time>2019-04-13T03:08:56Z</time>
      </trkpt>
      <trkpt lat="48.19748" lon="7.22167">
        <ele>799</ele>
        <time>2019-04-13T03:09:56Z</time>
      </trkpt>
      <trkpt lat="48.19747" lon="7.22197">
        <ele>798</ele>
        <time>2019-04-13T03:10:56Z</time>
      </trkpt>
      <trkpt lat="48.19734" lon="7.22288">
        <ele>795</ele>
        <time>2019-04-13T03:11:56Z</time>
      </trkpt>
      <trkpt lat="48.19726" lon="7.2234">
        <ele>794</ele>
        <time>2019-04-13T03:12:56Z</time>
      </trkpt>
      <trkpt lat="48.19712" lon="7.22408">
        <ele>794</ele>
        <time>2019-04-13T03:13:56Z</time>
      </trkpt>
      <trkpt lat="48.19706" lon="7.22424">
        <ele>794</ele>
        <time>2019-04-13T03:14:56Z</time>
      </trkpt>
      <trkpt lat="48.19702" lon="7.22429">
        <ele>793</ele>
        <time>2019-04-13T03:15:56Z</time>
      </trkpt>
      <trkpt lat="48.19699" lon="7.22433">
        <ele>793</ele>
        <time>2019-04-13T03:16:56Z</time>
      </trkpt>
      <trkpt lat="48.19688" lon="7.22444">
        <ele>792</ele>
        <time>2019-04-13T03:17:56Z</time>
      </trkpt>
      <trkpt lat="48.19674" lon="7.22451">
        <ele>791</ele>
        <time>2019-04-13T03:18:56Z</time>
      </trkpt>
      <trkpt lat="48.19664" lon="7.22453">
        <ele>790</ele>
        <time>2019-04-13T03:19:56Z</time>
      </trkpt>
      <trkpt lat="48.19661" lon="7.22452">
        <ele>790</ele>
        <time>2019-04-13T03:20:56Z</time>
      </trkpt>
      <trkpt lat="48.1965" lon="7.2245">
        <ele>789</ele>
        <time>2019-04-13T03:21:56Z</time>
      </trkpt>
      <trkpt lat="48.19639" lon="7.22443">
        <ele>788</ele>
        <time>2019-04-13T03:22:56Z</time>
      </trkpt>
      <trkpt lat="48.1963" lon="7.22436">
        <ele>787</ele>
        <time>2019-04-13T03:23:56Z</time>
      </trkpt>
      <trkpt lat="48.19612" lon="7.22423">
        <ele>787</ele>
        <time>2019-04-13T03:24:56Z</time>
      </trkpt>
      <trkpt lat="48.19608" lon="7.2242">
        <ele>787</ele>
        <time>2019-04-13T03:25:56Z</time>
      </trkpt>
      <trkpt lat="48.19552" lon="7.22372">
        <ele>785</ele>
        <time>2019-04-13T03:26:56Z</time>
      </trkpt>
      <trkpt lat="48.19488" lon="7.22322">
        <ele>781</ele>
        <time>2019-04-13T03:27:56Z</time>
      </trkpt>
      <trkpt lat="48.19483" lon="7.22318">
        <ele>780</ele>
        <time>2019-04-13T03:28:56Z</time>
      </trkpt>
      <trkpt lat="48.19468" lon="7.22307">
        <ele>778</ele>
        <time>2019-04-13T03:29:56Z</time>
      </trkpt>
      <trkpt lat="48.1945" lon="7.2229">
        <ele>777</ele>
        <time>2019-04-13T03:30:56Z</time>
      </trkpt>
      <trkpt lat="48.19436" lon="7.22276">
        <ele>777</ele>
        <time>2019-04-13T03:31:56Z</time>
      </trkpt>
      <trkpt lat="48.19389" lon="7.22236">
        <ele>781</ele>
        <time>2019-04-13T03:32:56Z</time>
      </trkpt>
      <trkpt lat="48.19378" lon="7.22228">
        <ele>783</ele>
        <time>2019-04-13T03:33:56Z</time>
      </trkpt>
      <trkpt lat="48.19371" lon="7.22227">
        <ele>784</ele>
        <time>2019-04-13T03:34:56Z</time>
      </trkpt>
      <trkpt lat="48.19366" lon="7.22228">
        <ele>784</ele>
        <time>2019-04-13T03:35:56Z</time>
      </trkpt>
      <trkpt lat="48.19361" lon="7.22231">
        <ele>784</ele>
        <time>2019-04-13T03:36:56Z</time>
      </trkpt>
      <trkpt lat="48.19356" lon="7.22235">
        <ele>784</ele>
        <time>2019-04-13T03:37:56Z</time>
      </trkpt>
      <trkpt lat="48.19352" lon="7.22241">
        <ele>784</ele>
        <time>2019-04-13T03:38:56Z</time>
      </trkpt>
      <trkpt lat="48.1935" lon="7.22247">
        <ele>784</ele>
        <time>2019-04-13T03:39:56Z</time>
      </trkpt>
      <trkpt lat="48.19347" lon="7.22255">
        <ele>783</ele>
        <time>2019-04-13T03:40:56Z</time>
      </trkpt>
      <trkpt lat="48.19344" lon="7.22269">
        <ele>782</ele>
        <time>2019-04-13T03:41:56Z</time>
      </trkpt>
      <trkpt lat="48.19339" lon="7.2231">
        <ele>778</ele>
        <time>2019-04-13T03:42:56Z</time>
      </trkpt>
      <trkpt lat="48.19335" lon="7.22347">
        <ele>773</ele>
        <time>2019-04-13T03:43:56Z</time>
      </trkpt>
      <trkpt lat="48.19332" lon="7.22365">
        <ele>770</ele>
        <time>2019-04-13T03:44:56Z</time>
      </trkpt>
      <trkpt lat="48.19325" lon="7.22397">
        <ele>764</ele>
        <time>2019-04-13T03:45:56Z</time>
      </trkpt>
      <trkpt lat="48.19317" lon="7.22422">
        <ele>759</ele>
        <time>2019-04-13T03:46:56Z</time>
      </trkpt>
      <trkpt lat="48.19309" lon="7.22435">
        <ele>756</ele>
        <time>2019-04-13T03:47:56Z</time>
      </trkpt>
      <trkpt lat="48.19303" lon="7.22441">
        <ele>754</ele>
        <time>2019-04-13T03:48:56Z</time>
      </trkpt>
      <trkpt lat="48.19296" lon="7.22444">
        <ele>754</ele>
        <time>2019-04-13T03:49:56Z</time>
      </trkpt>
      <trkpt lat="48.19288" lon="7.22446">
        <ele>753</ele>
        <time>2019-04-13T03:50:56Z</time>
      </trkpt>
      <trkpt lat="48.19279" lon="7.22447">
        <ele>752</ele>
        <time>2019-04-13T03:51:56Z</time>
      </trkpt>
      <trkpt lat="48.1927" lon="7.22446">
        <ele>752</ele>
        <time>2019-04-13T03:52:56Z</time>
      </trkpt>
      <trkpt lat="48.19261" lon="7.22444">
        <ele>753</ele>
        <time>2019-04-13T03:53:56Z</time>
      </trkpt>
      <trkpt lat="48.1925" lon="7.22435">
        <ele>754</ele>
        <time>2019-04-13T03:54:56Z</time>
      </trkpt>
      <trkpt lat="48.19246" lon="7.22431">
        <ele>755</ele>
        <time>2019-04-13T03:55:56Z</time>
      </trkpt>
      <trkpt lat="48.19218" lon="7.22399">
        <ele>758</ele>
        <time>2019-04-13T03:56:56Z</time>
      </trkpt>
      <trkpt lat="48.19198" lon="7.22371">
        <ele>760</ele>
        <time>2019-04-13T03:57:56Z</time>
      </trkpt>
      <trkpt lat="48.1917" lon="7.22342">
        <ele>759</ele>
        <time>2019-04-13T03:58:56Z</time>
      </trkpt>
      <trkpt lat="48.1914" lon="7.22316">
        <ele>761</ele>
        <time>2019-04-13T03:59:56Z</time>
      </trkpt>
      <trkpt lat="48.1913" lon="7.2231">
        <ele>762</ele>
        <time>2019-04-13T04:00:56Z</time>
      </trkpt>
      <trkpt lat="48.19123" lon="7.22308">
        <ele>762</ele>
        <time>2019-04-13T04:01:56Z</time>
      </trkpt>
      <trkpt lat="48.19117" lon="7.22308">
        <ele>761</ele>
        <time>2019-04-13T04:02:56Z</time>
      </trkpt>
      <trkpt lat="48.19112" lon="7.22308">
        <ele>761</ele>
        <time>2019-04-13T04:03:56Z</time>
      </trkpt>
      <trkpt lat="48.19109" lon="7.22309">
        <ele>760</ele>
        <time>2019-04-13T04:04:56Z</time>
      </trkpt>
      <trkpt lat="48.19105" lon="7.22313">
        <ele>759</ele>
        <time>2019-04-13T04:05:56Z</time>
      </trkpt>
      <trkpt lat="48.19099" lon="7.22323">
        <ele>757</ele>
        <time>2019-04-13T04:06:56Z</time>
      </trkpt>
      <trkpt lat="48.19096" lon="7.22332">
        <ele>755</ele>
        <time>2019-04-13T04:07:56Z</time>
      </trkpt>
      <trkpt lat="48.19095" lon="7.22338">
        <ele>755</ele>
        <time>2019-04-13T04:08:56Z</time>
      </trkpt>
      <trkpt lat="48.19094" lon="7.22345">
        <ele>756</ele>
        <time>2019-04-13T04:09:56Z</time>
      </trkpt>
      <trkpt lat="48.19095" lon="7.22353">
        <ele>756</ele>
        <time>2019-04-13T04:10:56Z</time>
      </trkpt>
      <trkpt lat="48.19096" lon="7.22358">
        <ele>757</ele>
        <time>2019-04-13T04:11:56Z</time>
      </trkpt>
      <trkpt lat="48.19103" lon="7.22368">
        <ele>757</ele>
        <time>2019-04-13T04:12:56Z</time>
      </trkpt>
      <trkpt lat="48.19107" lon="7.22373">
        <ele>757</ele>
        <time>2019-04-13T04:13:56Z</time>
      </trkpt>
      <trkpt lat="48.19112" lon="7.22375">
        <ele>757</ele>
        <time>2019-04-13T04:14:56Z</time>
      </trkpt>
      <trkpt lat="48.19116" lon="7.22377">
        <ele>757</ele>
        <time>2019-04-13T04:15:56Z</time>
      </trkpt>
      <trkpt lat="48.19122" lon="7.22377">
        <ele>756</ele>
        <time>2019-04-13T04:16:56Z</time>
      </trkpt>
      <trkpt lat="48.19128" lon="7.22376">
        <ele>756</ele>
        <time>2019-04-13T04:17:56Z</time>
      </trkpt>
      <trkpt lat="48.19135" lon="7.22376">
        <ele>755</ele>
        <time>2019-04-13T04:18:56Z</time>
      </trkpt>
      <trkpt lat="48.19138" lon="7.22375">
        <ele>755</ele>
        <time>2019-04-13T04:19:56Z</time>
      </trkpt>
      <trkpt lat="48.19146" lon="7.22375">
        <ele>755</ele>
        <time>2019-04-13T04:20:56Z</time>
      </trkpt>
      <trkpt lat="48.19152" lon="7.22376">
        <ele>754</ele>
        <time>2019-04-13T04:21:56Z</time>
      </trkpt>
      <trkpt lat="48.19157" lon="7.22377">
        <ele>754</ele>
        <time>2019-04-13T04:22:56Z</time>
      </trkpt>
      <trkpt lat="48.19163" lon="7.2238">
        <ele>753</ele>
        <time>2019-04-13T04:23:56Z</time>
      </trkpt>
      <trkpt lat="48.19166" lon="7.22383">
        <ele>752</ele>
        <time>2019-04-13T04:24:56Z</time>
      </trkpt>
      <trkpt lat="48.19171" lon="7.22389">
        <ele>752</ele>
        <time>2019-04-13T04:25:56Z</time>
      </trkpt>
      <trkpt lat="48.19178" lon="7.22397">
        <ele>752</ele>
        <time>2019-04-13T04:26:56Z</time>
      </trkpt>
      <trkpt lat="48.1921" lon="7.2245">
        <ele>750</ele>
        <time>2019-04-13T04:27:56Z</time>
      </trkpt>
      <trkpt lat="48.19242" lon="7.22499">
        <ele>742</ele>
        <time>2019-04-13T04:28:56Z</time>
      </trkpt>
      <trkpt lat="48.19243" lon="7.22499">
        <ele>742</ele>
        <time>2019-04-13T04:29:56Z</time>
      </trkpt>
      <trkpt lat="48.19259" lon="7.22522">
        <ele>738</ele>
        <time>2019-04-13T04:30:56Z</time>
      </trkpt>
      <trkpt lat="48.19269" lon="7.22527">
        <ele>737</ele>
        <time>2019-04-13T04:31:56Z</time>
      </trkpt>
      <trkpt lat="48.19278" lon="7.22531">
        <ele>736</ele>
        <time>2019-04-13T04:32:56Z</time>
      </trkpt>
      <trkpt lat="48.19284" lon="7.22533">
        <ele>735</ele>
        <time>2019-04-13T04:33:56Z</time>
      </trkpt>
      <trkpt lat="48.19292" lon="7.22533">
        <ele>734</ele>
        <time>2019-04-13T04:34:56Z</time>
      </trkpt>
      <trkpt lat="48.193" lon="7.22532">
        <ele>734</ele>
        <time>2019-04-13T04:35:56Z</time>
      </trkpt>
      <trkpt lat="48.19306" lon="7.22531">
        <ele>734</ele>
        <time>2019-04-13T04:36:56Z</time>
      </trkpt>
      <trkpt lat="48.19313" lon="7.22527">
        <ele>734</ele>
        <time>2019-04-13T04:37:56Z</time>
      </trkpt>
      <trkpt lat="48.1932" lon="7.22524">
        <ele>735</ele>
        <time>2019-04-13T04:38:56Z</time>
      </trkpt>
      <trkpt lat="48.19363" lon="7.225">
        <ele>740</ele>
        <time>2019-04-13T04:39:56Z</time>
      </trkpt>
      <trkpt lat="48.19386" lon="7.22488">
        <ele>741</ele>
        <time>2019-04-13T04:40:56Z</time>
      </trkpt>
      <trkpt lat="48.19392" lon="7.22488">
        <ele>741</ele>
        <time>2019-04-13T04:41:56Z</time>
      </trkpt>
      <trkpt lat="48.19399" lon="7.22491">
        <ele>740</ele>
        <time>2019-04-13T04:42:56Z</time>
      </trkpt>
      <trkpt lat="48.19406" lon="7.22493">
        <ele>740</ele>
        <time>2019-04-13T04:43:56Z</time>
      </trkpt>
      <trkpt lat="48.19412" lon="7.22496">
        <ele>739</ele>
        <time>2019-04-13T04:44:56Z</time>
      </trkpt>
      <trkpt lat="48.19419" lon="7.225">
        <ele>739</ele>
        <time>2019-04-13T04:45:56Z</time>
      </trkpt>
      <trkpt lat="48.19426" lon="7.22506">
        <ele>739</ele>
        <time>2019-04-13T04:46:56Z</time>
      </trkpt>
      <trkpt lat="48.19429" lon="7.22512">
        <ele>739</ele>
        <time>2019-04-13T04:47:56Z</time>
      </trkpt>
      <trkpt lat="48.19435" lon="7.22519">
        <ele>739</ele>
        <time>2019-04-13T04:48:56Z</time>
      </trkpt>
      <trkpt lat="48.1944" lon="7.22529">
        <ele>739</ele>
        <time>2019-04-13T04:49:56Z</time>
      </trkpt>
      <trkpt lat="48.19449" lon="7.22547">
        <ele>738</ele>
        <time>2019-04-13T04:50:56Z</time>
      </trkpt>
      <trkpt lat="48.19489" lon="7.2262">
        <ele>735</ele>
        <time>2019-04-13T04:51:56Z</time>
      </trkpt>
      <trkpt lat="48.19531" lon="7.22688">
        <ele>728</ele>
        <time>2019-04-13T04:52:56Z</time>
      </trkpt>
      <trkpt lat="48.19558" lon="7.22743">
        <ele>720</ele>
        <time>2019-04-13T04:53:56Z</time>
      </trkpt>
      <trkpt lat="48.19585" lon="7.22818">
        <ele>718</ele>
        <time>2019-04-13T04:54:56Z</time>
      </trkpt>
      <trkpt lat="48.19614" lon="7.2292">
        <ele>715</ele>
        <time>2019-04-13T04:55:56Z</time>
      </trkpt>
      <trkpt lat="48.19639" lon="7.23024">
        <ele>713</ele>
        <time>2019-04-13T04:56:56Z</time>
      </trkpt>
      <trkpt lat="48.19652" lon="7.23108">
        <ele>705</ele>
        <time>2019-04-13T04:57:56Z</time>
      </trkpt>
      <trkpt lat="48.19658" lon="7.23137">
        <ele>704</ele>
        <time>2019-04-13T04:58:56Z</time>
      </trkpt>
      <trkpt lat="48.19662" lon="7.23159">
        <ele>702</ele>
        <time>2019-04-13T04:59:56Z</time>
      </trkpt>
      <trkpt lat="48.19666" lon="7.23174">
        <ele>701</ele>
        <time>2019-04-13T05:00:56Z</time>
      </trkpt>
      <trkpt lat="48.19669" lon="7.23185">
        <ele>700</ele>
        <time>2019-04-13T05:01:56Z</time>
      </trkpt>
      <trkpt lat="48.19674" lon="7.23202">
        <ele>699</ele>
        <time>2019-04-13T05:02:56Z</time>
      </trkpt>
      <trkpt lat="48.19682" lon="7.23222">
        <ele>698</ele>
        <time>2019-04-13T05:03:56Z</time>
      </trkpt>
      <trkpt lat="48.19685" lon="7.2323">
        <ele>698</ele>
        <time>2019-04-13T05:04:56Z</time>
      </trkpt>
      <trkpt lat="48.19716" lon="7.23311">
        <ele>693</ele>
        <time>2019-04-13T05:05:56Z</time>
      </trkpt>
      <trkpt lat="48.19745" lon="7.23368">
        <ele>690</ele>
        <time>2019-04-13T05:06:56Z</time>
      </trkpt>
      <trkpt lat="48.19762" lon="7.23394">
        <ele>690</ele>
        <time>2019-04-13T05:07:56Z</time>
      </trkpt>
      <trkpt lat="48.19771" lon="7.23412">
        <ele>688</ele>
        <time>2019-04-13T05:08:56Z</time>
      </trkpt>
      <trkpt lat="48.19778" lon="7.23428">
        <ele>687</ele>
        <time>2019-04-13T05:09:56Z</time>
      </trkpt>
      <trkpt lat="48.19797" lon="7.23471">
        <ele>685</ele>
        <time>2019-04-13T05:10:56Z</time>
      </trkpt>
      <trkpt lat="48.19826" lon="7.23546">
        <ele>681</ele>
        <time>2019-04-13T05:11:56Z</time>
      </trkpt>
      <trkpt lat="48.19846" lon="7.23616">
        <ele>676</ele>
        <time>2019-04-13T05:12:56Z</time>
      </trkpt>
      <trkpt lat="48.19872" lon="7.23706">
        <ele>670</ele>
        <time>2019-04-13T05:13:56Z</time>
      </trkpt>
      <trkpt lat="48.19904" lon="7.23812">
        <ele>667</ele>
        <time>2019-04-13T05:14:56Z</time>
      </trkpt>
      <trkpt lat="48.19933" lon="7.23936">
        <ele>659</ele>
        <time>2019-04-13T05:15:56Z</time>
      </trkpt>
      <trkpt lat="48.19957" lon="7.24046">
        <ele>652</ele>
        <time>2019-04-13T05:16:56Z</time>
      </trkpt>
      <trkpt lat="48.1996" lon="7.24058">
        <ele>652</ele>
        <time>2019-04-13T05:17:56Z</time>
      </trkpt>
      <trkpt lat="48.19989" lon="7.24134">
        <ele>648</ele>
        <time>2019-04-13T05:18:56Z</time>
      </trkpt>
      <trkpt lat="48.19998" lon="7.24165">
        <ele>645</ele>
        <time>2019-04-13T05:19:56Z</time>
      </trkpt>
      <trkpt lat="48.20009" lon="7.24191">
        <ele>645</ele>
        <time>2019-04-13T05:20:56Z</time>
      </trkpt>
      <trkpt lat="48.2001" lon="7.24194">
        <ele>644</ele>
        <time>2019-04-13T05:21:56Z</time>
      </trkpt>
      <trkpt lat="48.20018" lon="7.24211">
        <ele>644</ele>
        <time>2019-04-13T05:22:56Z</time>
      </trkpt>
      <trkpt lat="48.20026" lon="7.24229">
        <ele>644</ele>
        <time>2019-04-13T05:23:56Z</time>
      </trkpt>
      <trkpt lat="48.20035" lon="7.24249">
        <ele>643</ele>
        <time>2019-04-13T05:24:56Z</time>
      </trkpt>
      <trkpt lat="48.20046" lon="7.24272">
        <ele>642</ele>
        <time>2019-04-13T05:25:56Z</time>
      </trkpt>
      <trkpt lat="48.20054" lon="7.24285">
        <ele>642</ele>
        <time>2019-04-13T05:26:56Z</time>
      </trkpt>
      <trkpt lat="48.20063" lon="7.24299">
        <ele>642</ele>
        <time>2019-04-13T05:27:56Z</time>
      </trkpt>
      <trkpt lat="48.20073" lon="7.24317">
        <ele>641</ele>
        <time>2019-04-13T05:28:56Z</time>
      </trkpt>
      <trkpt lat="48.20083" lon="7.24333">
        <ele>641</ele>
        <time>2019-04-13T05:29:56Z</time>
      </trkpt>
      <trkpt lat="48.20093" lon="7.24352">
        <ele>638</ele>
        <time>2019-04-13T05:30:56Z</time>
      </trkpt>
      <trkpt lat="48.20106" lon="7.24369">
        <ele>636</ele>
        <time>2019-04-13T05:31:56Z</time>
      </trkpt>
      <trkpt lat="48.20121" lon="7.24391">
        <ele>634</ele>
        <time>2019-04-13T05:32:56Z</time>
      </trkpt>
      <trkpt lat="48.20133" lon="7.24403">
        <ele>635</ele>
        <time>2019-04-13T05:33:56Z</time>
      </trkpt>
      <trkpt lat="48.20143" lon="7.24417">
        <ele>634</ele>
        <time>2019-04-13T05:34:56Z</time>
      </trkpt>
      <trkpt lat="48.20158" lon="7.24436">
        <ele>632</ele>
        <time>2019-04-13T05:35:56Z</time>
      </trkpt>
      <trkpt lat="48.20177" lon="7.24459">
        <ele>631</ele>
        <time>2019-04-13T05:36:56Z</time>
      </trkpt>
      <trkpt lat="48.2019" lon="7.24472">
        <ele>632</ele>
        <time>2019-04-13T05:37:56Z</time>
      </trkpt>
      <trkpt lat="48.20211" lon="7.2449">
        <ele>634</ele>
        <time>2019-04-13T05:38:56Z</time>
      </trkpt>
      <trkpt lat="48.20226" lon="7.24504">
        <ele>635</ele>
        <time>2019-04-13T05:39:56Z</time>
      </trkpt>
      <trkpt lat="48.20236" lon="7.24516">
        <ele>635</ele>
        <time>2019-04-13T05:40:56Z</time>
      </trkpt>
      <trkpt lat="48.20246" lon="7.2453">
        <ele>635</ele>
        <time>2019-04-13T05:41:56Z</time>
      </trkpt>
      <trkpt lat="48.20254" lon="7.24543">
        <ele>633</ele>
        <time>2019-04-13T05:42:56Z</time>
      </trkpt>
      <trkpt lat="48.20262" lon="7.24558">
        <ele>632</ele>
        <time>2019-04-13T05:43:56Z</time>
      </trkpt>
      <trkpt lat="48.20272" lon="7.24576">
        <ele>630</ele>
        <time>2019-04-13T05:44:56Z</time>
      </trkpt>
      <trkpt lat="48.20285" lon="7.24601">
        <ele>627</ele>
        <time>2019-04-13T05:45:56Z</time>
      </trkpt>
      <trkpt lat="48.20297" lon="7.24626">
        <ele>623</ele>
        <time>2019-04-13T05:46:56Z</time>
      </trkpt>
      <trkpt lat="48.20308" lon="7.24647">
        <ele>620</ele>
        <time>2019-04-13T05:47:56Z</time>
      </trkpt>
      <trkpt lat="48.20319" lon="7.24667">
        <ele>617</ele>
        <time>2019-04-13T05:48:56Z</time>
      </trkpt>
      <trkpt lat="48.20328" lon="7.24681">
        <ele>615</ele>
        <time>2019-04-13T05:49:56Z</time>
      </trkpt>
      <trkpt lat="48.20338" lon="7.24693">
        <ele>614</ele>
        <time>2019-04-13T05:50:56Z</time>
      </trkpt>
      <trkpt lat="48.20347" lon="7.24703">
        <ele>612</ele>
        <time>2019-04-13T05:51:56Z</time>
      </trkpt>
      <trkpt lat="48.20362" lon="7.2471">
        <ele>614</ele>
        <time>2019-04-13T05:52:56Z</time>
      </trkpt>
      <trkpt lat="48.20377" lon="7.24716">
        <ele>617</ele>
        <time>2019-04-13T05:53:56Z</time>
      </trkpt>
      <trkpt lat="48.20388" lon="7.24721">
        <ele>618</ele>
        <time>2019-04-13T05:54:56Z</time>
      </trkpt>
      <trkpt lat="48.20404" lon="7.24734">
        <ele>618</ele>
        <time>2019-04-13T05:55:56Z</time>
      </trkpt>
      <trkpt lat="48.2042" lon="7.24744">
        <ele>619</ele>
        <time>2019-04-13T05:56:56Z</time>
      </trkpt>
      <trkpt lat="48.20435" lon="7.24755">
        <ele>618</ele>
        <time>2019-04-13T05:57:56Z</time>
      </trkpt>
      <trkpt lat="48.2045" lon="7.24764">
        <ele>617</ele>
        <time>2019-04-13T05:58:56Z</time>
      </trkpt>
      <trkpt lat="48.20465" lon="7.24776">
        <ele>617</ele>
        <time>2019-04-13T05:59:56Z</time>
      </trkpt>
      <trkpt lat="48.20473" lon="7.24789">
        <ele>614</ele>
        <time>2019-04-13T06:00:56Z</time>
      </trkpt>
      <trkpt lat="48.20474" lon="7.248">
        <ele>611</ele>
        <time>2019-04-13T06:01:56Z</time>
      </trkpt>
      <trkpt lat="48.20479" lon="7.24813">
        <ele>608</ele>
        <time>2019-04-13T06:02:56Z</time>
      </trkpt>
      <trkpt lat="48.20481" lon="7.24827">
        <ele>605</ele>
        <time>2019-04-13T06:03:56Z</time>
      </trkpt>
      <trkpt lat="48.20482" lon="7.24838">
        <ele>602</ele>
        <time>2019-04-13T06:04:56Z</time>
      </trkpt>
      <trkpt lat="48.2048" lon="7.24855">
        <ele>600</ele>
        <time>2019-04-13T06:05:56Z</time>
      </trkpt>
      <trkpt lat="48.20474" lon="7.24875">
        <ele>595</ele>
        <time>2019-04-13T06:06:56Z</time>
      </trkpt>
      <trkpt lat="48.20469" lon="7.2489">
        <ele>591</ele>
        <time>2019-04-13T06:07:56Z</time>
      </trkpt>
      <trkpt lat="48.20467" lon="7.24901">
        <ele>589</ele>
        <time>2019-04-13T06:08:56Z</time>
      </trkpt>
      <trkpt lat="48.20467" lon="7.24908">
        <ele>588</ele>
        <time>2019-04-13T06:09:56Z</time>
      </trkpt>
      <trkpt lat="48.20469" lon="7.24918">
        <ele>587</ele>
        <time>2019-04-13T06:10:56Z</time>
      </trkpt>
      <trkpt lat="48.20478" lon="7.24946">
        <ele>586</ele>
        <time>2019-04-13T06:11:56Z</time>
      </trkpt>
      <trkpt lat="48.20501" lon="7.25009">
        <ele>584</ele>
        <time>2019-04-13T06:12:56Z</time>
      </trkpt>
      <trkpt lat="48.20516" lon="7.25058">
        <ele>577</ele>
        <time>2019-04-13T06:13:56Z</time>
      </trkpt>
      <trkpt lat="48.20529" lon="7.25083">
        <ele>578</ele>
        <time>2019-04-13T06:14:56Z</time>
      </trkpt>
      <trkpt lat="48.20545" lon="7.25103">
        <ele>579</ele>
        <time>2019-04-13T06:15:56Z</time>
      </trkpt>
      <trkpt lat="48.20563" lon="7.25119">
        <ele>583</ele>
        <time>2019-04-13T06:16:56Z</time>
      </trkpt>
      <trkpt lat="48.20571" lon="7.2513">
        <ele>583</ele>
        <time>2019-04-13T06:17:56Z</time>
      </trkpt>
      <trkpt lat="48.20579" lon="7.25151">
        <ele>578</ele>
        <time>2019-04-13T06:18:56Z</time>
      </trkpt>
      <trkpt lat="48.20585" lon="7.25173">
        <ele>573</ele>
        <time>2019-04-13T06:19:56Z</time>
      </trkpt>
      <trkpt lat="48.20594" lon="7.25206">
        <ele>565</ele>
        <time>2019-04-13T06:20:56Z</time>
      </trkpt>
      <trkpt lat="48.20608" lon="7.25242">
        <ele>557</ele>
        <time>2019-04-13T06:21:56Z</time>
      </trkpt>
      <trkpt lat="48.20622" lon="7.25269">
        <ele>551</ele>
        <time>2019-04-13T06:22:56Z</time>
      </trkpt>
      <trkpt lat="48.20627" lon="7.25275">
        <ele>550</ele>
        <time>2019-04-13T06:23:56Z</time>
      </trkpt>
      <trkpt lat="48.20631" lon="7.2528">
        <ele>550</ele>
        <time>2019-04-13T06:24:56Z</time>
      </trkpt>
      <trkpt lat="48.20636" lon="7.25281">
        <ele>550</ele>
        <time>2019-04-13T06:25:56Z</time>
      </trkpt>
      <trkpt lat="48.20644" lon="7.25278">
        <ele>553</ele>
        <time>2019-04-13T06:26:56Z</time>
      </trkpt>
      <trkpt lat="48.20664" lon="7.2527">
        <ele>560</ele>
        <time>2019-04-13T06:27:56Z</time>
      </trkpt>
      <trkpt lat="48.2069" lon="7.25256">
        <ele>559</ele>
        <time>2019-04-13T06:28:56Z</time>
      </trkpt>
      <trkpt lat="48.20724" lon="7.25242">
        <ele>556</ele>
        <time>2019-04-13T06:29:56Z</time>
      </trkpt>
      <trkpt lat="48.20744" lon="7.25231">
        <ele>555</ele>
        <time>2019-04-13T06:30:56Z</time>
      </trkpt>
      <trkpt lat="48.20757" lon="7.25222">
        <ele>554</ele>
        <time>2019-04-13T06:31:56Z</time>
      </trkpt>
      <trkpt lat="48.20779" lon="7.252">
        <ele>553</ele>
        <time>2019-04-13T06:32:56Z</time>
      </trkpt>
      <trkpt lat="48.20809" lon="7.25154">
        <ele>554</ele>
        <time>2019-04-13T06:33:56Z</time>
      </trkpt>
      <trkpt lat="48.20842" lon="7.2509">
        <ele>552</ele>
        <time>2019-04-13T06:34:56Z</time>
      </trkpt>
      <trkpt lat="48.20858" lon="7.25054">
        <ele>546</ele>
        <time>2019-04-13T06:35:56Z</time>
      </trkpt>
      <trkpt lat="48.20867" lon="7.25025">
        <ele>542</ele>
        <time>2019-04-13T06:36:56Z</time>
      </trkpt>
      <trkpt lat="48.20871" lon="7.25003">
        <ele>540</ele>
        <time>2019-04-13T06:37:56Z</time>
      </trkpt>
      <trkpt lat="48.20872" lon="7.24983">
        <ele>537</ele>
        <time>2019-04-13T06:38:56Z</time>
      </trkpt>
      <trkpt lat="48.20867" lon="7.24956">
        <ele>536</ele>
        <time>2019-04-13T06:39:56Z</time>
      </trkpt>
      <trkpt lat="48.2084" lon="7.24882">
        <ele>545</ele>
        <time>2019-04-13T06:40:56Z</time>
      </trkpt>
      <trkpt lat="48.20829" lon="7.24852">
        <ele>550</ele>
        <time>2019-04-13T06:41:56Z</time>
      </trkpt>
      <trkpt lat="48.20826" lon="7.24832">
        <ele>551</ele>
        <time>2019-04-13T06:42:56Z</time>
      </trkpt>
      <trkpt lat="48.20826" lon="7.24819">
        <ele>552</ele>
        <time>2019-04-13T06:43:56Z</time>
      </trkpt>
      <trkpt lat="48.20828" lon="7.24802">
        <ele>551</ele>
        <time>2019-04-13T06:44:56Z</time>
      </trkpt>
      <trkpt lat="48.20844" lon="7.24751">
        <ele>544</ele>
        <time>2019-04-13T06:45:56Z</time>
      </trkpt>
      <trkpt lat="48.20863" lon="7.24672">
        <ele>536</ele>
        <time>2019-04-13T06:46:56Z</time>
      </trkpt>
      <trkpt lat="48.20876" lon="7.24617">
        <ele>537</ele>
        <time>2019-04-13T06:47:56Z</time>
      </trkpt>
      <trkpt lat="48.20882" lon="7.24589">
        <ele>538</ele>
        <time>2019-04-13T06:48:56Z</time>
      </trkpt>
      <trkpt lat="48.20891" lon="7.24568">
        <ele>537</ele>
        <time>2019-04-13T06:49:56Z</time>
      </trkpt>
      <trkpt lat="48.20902" lon="7.24548">
        <ele>534</ele>
        <time>2019-04-13T06:50:56Z</time>
      </trkpt>
      <trkpt lat="48.20941" lon="7.24495">
        <ele>530</ele>
        <time>2019-04-13T06:51:56Z</time>
      </trkpt>
      <trkpt lat="48.20972" lon="7.24451">
        <ele>528</ele>
        <time>2019-04-13T06:52:56Z</time>
      </trkpt>
      <trkpt lat="48.20993" lon="7.24417">
        <ele>522</ele>
        <time>2019-04-13T06:53:56Z</time>
      </trkpt>
      <trkpt lat="48.21009" lon="7.24389">
        <ele>525</ele>
        <time>2019-04-13T06:54:56Z</time>
      </trkpt>
      <trkpt lat="48.21016" lon="7.24377">
        <ele>527</ele>
        <time>2019-04-13T06:55:56Z</time>
      </trkpt>
      <trkpt lat="48.21032" lon="7.24344">
        <ele>530</ele>
        <time>2019-04-13T06:56:56Z</time>
      </trkpt>
      <trkpt lat="48.21042" lon="7.24328">
        <ele>529</ele>
        <time>2019-04-13T06:57:56Z</time>
      </trkpt>
      <trkpt lat="48.21049" lon="7.24321">
        <ele>528</ele>
        <time>2019-04-13T06:58:56Z</time>
      </trkpt>
      <trkpt lat="48.21055" lon="7.24319">
        <ele>527</ele>
        <time>2019-04-13T06:59:56Z</time>
      </trkpt>
      <trkpt lat="48.2106" lon="7.24319">
        <ele>526</ele>
        <time>2019-04-13T07:00:56Z</time>
      </trkpt>
      <trkpt lat="48.21063" lon="7.2432">
        <ele>526</ele>
        <time>2019-04-13T07:01:56Z</time>
      </trkpt>
      <trkpt lat="48.21067" lon="7.24321">
        <ele>525</ele>
        <time>2019-04-13T07:02:56Z</time>
      </trkpt>
      <trkpt lat="48.21081" lon="7.2433">
        <ele>522</ele>
        <time>2019-04-13T07:03:56Z</time>
      </trkpt>
      <trkpt lat="48.21081" lon="7.2433">
        <ele>522</ele>
        <time>2019-04-13T07:04:56Z</time>
      </trkpt>
      <trkpt lat="48.21074" lon="7.24362">
        <ele>524</ele>
        <time>2019-04-13T07:05:56Z</time>
      </trkpt>
      <trkpt lat="48.21071" lon="7.24376">
        <ele>524</ele>
        <time>2019-04-13T07:06:56Z</time>
      </trkpt>
      <trkpt lat="48.21068" lon="7.24387">
        <ele>524</ele>
        <time>2019-04-13T07:07:56Z</time>
      </trkpt>
      <trkpt lat="48.21057" lon="7.2442">
        <ele>524</ele>
        <time>2019-04-13T07:08:56Z</time>
      </trkpt>
      <trkpt lat="48.21035" lon="7.2447">
        <ele>523</ele>
        <time>2019-04-13T07:09:56Z</time>
      </trkpt>
      <trkpt lat="48.21015" lon="7.24515">
        <ele>517</ele>
        <time>2019-04-13T07:10:56Z</time>
      </trkpt>
      <trkpt lat="48.21007" lon="7.24539">
        <ele>513</ele>
        <time>2019-04-13T07:11:56Z</time>
      </trkpt>
      <trkpt lat="48.20992" lon="7.24596">
        <ele>509</ele>
        <time>2019-04-13T07:12:56Z</time>
      </trkpt>
      <trkpt lat="48.20977" lon="7.24653">
        <ele>510</ele>
        <time>2019-04-13T07:13:56Z</time>
      </trkpt>
      <trkpt lat="48.20974" lon="7.24666">
        <ele>509</ele>
        <time>2019-04-13T07:14:56Z</time>
      </trkpt>
      <trkpt lat="48.20973" lon="7.24677">
        <ele>508</ele>
        <time>2019-04-13T07:15:56Z</time>
      </trkpt>
      <trkpt lat="48.20974" lon="7.24705">
        <ele>505</ele>
        <time>2019-04-13T07:16:56Z</time>
      </trkpt>
      <trkpt lat="48.20985" lon="7.24779">
        <ele>498</ele>
        <time>2019-04-13T07:17:56Z</time>
      </trkpt>
      <trkpt lat="48.20986" lon="7.24797">
        <ele>497</ele>
        <time>2019-04-13T07:18:56Z</time>
      </trkpt>
      <trkpt lat="48.20985" lon="7.248">
        <ele>497</ele>
        <time>2019-04-13T07:19:56Z</time>
      </trkpt>
      <trkpt lat="48.20984" lon="7.24802">
        <ele>496</ele>
        <time>2019-04-13T07:20:56Z</time>
      </trkpt>
      <trkpt lat="48.20983" lon="7.24803">
        <ele>496</ele>
        <time>2019-04-13T07:21:56Z</time>
      </trkpt>
      <trkpt lat="48.20978" lon="7.2481">
        <ele>496</ele>
        <time>2019-04-13T07:22:56Z</time>
      </trkpt>
      <trkpt lat="48.20973" lon="7.24812">
        <ele>496</ele>
        <time>2019-04-13T07:23:56Z</time>
      </trkpt>
      <trkpt lat="48.20968" lon="7.24812">
        <ele>496</ele>
        <time>2019-04-13T07:24:56Z</time>
      </trkpt>
      <trkpt lat="48.20965" lon="7.2481">
        <ele>496</ele>
        <time>2019-04-13T07:25:56Z</time>
      </trkpt>
      <trkpt lat="48.20964" lon="7.24808">
        <ele>496</ele>
        <time>2019-04-13T07:26:56Z</time>
      </trkpt>
      <trkpt lat="48.20961" lon="7.248">
        <ele>496</ele>
        <time>2019-04-13T07:27:56Z</time>
      </trkpt>
      <trkpt lat="48.20961" lon="7.2479">
        <ele>497</ele>
        <time>2019-04-13T07:28:56Z</time>
      </trkpt>
      <trkpt lat="48.20964" lon="7.24748">
        <ele>499</ele>
        <time>2019-04-13T07:29:56Z</time>
      </trkpt>
      <trkpt lat="48.20964" lon="7.2474">
        <ele>500</ele>
        <time>2019-04-13T07:30:56Z</time>
      </trkpt>
      <trkpt lat="48.20962" lon="7.24732">
        <ele>501</ele>
        <time>2019-04-13T07:31:56Z</time>
      </trkpt>
      <trkpt lat="48.2096" lon="7.24728">
        <ele>501</ele>
        <time>2019-04-13T07:32:56Z</time>
      </trkpt>
      <trkpt lat="48.20959" lon="7.24727">
        <ele>501</ele>
        <time>2019-04-13T07:33:56Z</time>
      </trkpt>
      <trkpt lat="48.20953" lon="7.24724">
        <ele>501</ele>
        <time>2019-04-13T07:34:56Z</time>
      </trkpt>
      <trkpt lat="48.20946" lon="7.24722">
        <ele>501</ele>
        <time>2019-04-13T07:35:56Z</time>
      </trkpt>
      <trkpt lat="48.20941" lon="7.24724">
        <ele>500</ele>
        <time>2019-04-13T07:36:56Z</time>
      </trkpt>
      <trkpt lat="48.20941" lon="7.24725">
        <ele>500</ele>
        <time>2019-04-13T07:37:56Z</time>
      </trkpt>
      <trkpt lat="48.20939" lon="7.2473">
        <ele>500</ele>
        <time>2019-04-13T07:38:56Z</time>
      </trkpt>
      <trkpt lat="48.20938" lon="7.24741">
        <ele>498</ele>
        <time>2019-04-13T07:39:56Z</time>
      </trkpt>
      <trkpt lat="48.20938" lon="7.24753">
        <ele>497</ele>
        <time>2019-04-13T07:40:56Z</time>
      </trkpt>
      <trkpt lat="48.20942" lon="7.24775">
        <ele>497</ele>
        <time>2019-04-13T07:41:56Z</time>
      </trkpt>
      <trkpt lat="48.20948" lon="7.24798">
        <ele>496</ele>
        <time>2019-04-13T07:42:56Z</time>
      </trkpt>
      <trkpt lat="48.20975" lon="7.2486">
        <ele>492</ele>
        <time>2019-04-13T07:43:56Z</time>
      </trkpt>
      <trkpt lat="48.20999" lon="7.24909">
        <ele>483</ele>
        <time>2019-04-13T07:44:56Z</time>
      </trkpt>
      <trkpt lat="48.21021" lon="7.24977">
        <ele>483</ele>
        <time>2019-04-13T07:45:56Z</time>
      </trkpt>
      <trkpt lat="48.21032" lon="7.25021">
        <ele>485</ele>
        <time>2019-04-13T07:46:56Z</time>
      </trkpt>
      <trkpt lat="48.21035" lon="7.25048">
        <ele>486</ele>
        <time>2019-04-13T07:47:56Z</time>
      </trkpt>
      <trkpt lat="48.21035" lon="7.25068">
        <ele>487</ele>
        <time>2019-04-13T07:48:56Z</time>
      </trkpt>
      <trkpt lat="48.21032" lon="7.25092">
        <ele>486</ele>
        <time>2019-04-13T07:49:56Z</time>
      </trkpt>
      <trkpt lat="48.21022" lon="7.25124">
        <ele>482</ele>
        <time>2019-04-13T07:50:56Z</time>
      </trkpt>
      <trkpt lat="48.21004" lon="7.25172">
        <ele>472</ele>
        <time>2019-04-13T07:51:56Z</time>
      </trkpt>
      <trkpt lat="48.20987" lon="7.2522">
        <ele>470</ele>
        <time>2019-04-13T07:52:56Z</time>
      </trkpt>
      <trkpt lat="48.20972" lon="7.25254">
        <ele>470</ele>
        <time>2019-04-13T07:53:56Z</time>
      </trkpt>
      <trkpt lat="48.20959" lon="7.25286">
        <ele>470</ele>
        <time>2019-04-13T07:54:56Z</time>
      </trkpt>
      <trkpt lat="48.20956" lon="7.25294">
        <ele>469</ele>
        <time>2019-04-13T07:55:56Z</time>
      </trkpt>
      <trkpt lat="48.20934" lon="7.25346">
        <ele>461</ele>
        <time>2019-04-13T07:56:56Z</time>
      </trkpt>
      <trkpt lat="48.20924" lon="7.25376">
        <ele>457</ele>
        <time>2019-04-13T07:57:56Z</time>
      </trkpt>
      <trkpt lat="48.20902" lon="7.25425">
        <ele>454</ele>
        <time>2019-04-13T07:58:56Z</time>
      </trkpt>
      <trkpt lat="48.20893" lon="7.25437">
        <ele>456</ele>
        <time>2019-04-13T07:59:56Z</time>
      </trkpt>
      <trkpt lat="48.20888" lon="7.25443">
        <ele>457</ele>
        <time>2019-04-13T08:00:56Z</time>
      </trkpt>
      <trkpt lat="48.20882" lon="7.25448">
        <ele>458</ele>
        <time>2019-04-13T08:01:56Z</time>
      </trkpt>
      <trkpt lat="48.20876" lon="7.25451">
        <ele>458</ele>
        <time>2019-04-13T08:02:56Z</time>
      </trkpt>
      <trkpt lat="48.2087" lon="7.25453">
        <ele>458</ele>
        <time>2019-04-13T08:03:56Z</time>
      </trkpt>
      <trkpt lat="48.20863" lon="7.25456">
        <ele>458</ele>
        <time>2019-04-13T08:04:56Z</time>
      </trkpt>
      <trkpt lat="48.2085" lon="7.25458">
        <ele>458</ele>
        <time>2019-04-13T08:05:56Z</time>
      </trkpt>
      <trkpt lat="48.20836" lon="7.25459">
        <ele>458</ele>
        <time>2019-04-13T08:06:56Z</time>
      </trkpt>
      <trkpt lat="48.20824" lon="7.25462">
        <ele>458</ele>
        <time>2019-04-13T08:07:56Z</time>
      </trkpt>
      <trkpt lat="48.20812" lon="7.25469">
        <ele>458</ele>
        <time>2019-04-13T08:08:56Z</time>
      </trkpt>
      <trkpt lat="48.208" lon="7.25477">
        <ele>457</ele>
        <time>2019-04-13T08:09:56Z</time>
      </trkpt>
      <trkpt lat="48.20788" lon="7.25489">
        <ele>456</ele>
        <time>2019-04-13T08:10:56Z</time>
      </trkpt>
      <trkpt lat="48.20749" lon="7.25529">
        <ele>455</ele>
        <time>2019-04-13T08:11:56Z</time>
      </trkpt>
      <trkpt lat="48.2073" lon="7.25544">
        <ele>456</ele>
        <time>2019-04-13T08:12:56Z</time>
      </trkpt>
      <trkpt lat="48.20705" lon="7.25562">
        <ele>453</ele>
        <time>2019-04-13T08:13:56Z</time>
      </trkpt>
      <trkpt lat="48.20686" lon="7.25576">
        <ele>448</ele>
        <time>2019-04-13T08:14:56Z</time>
      </trkpt>
      <trkpt lat="48.2067" lon="7.25592">
        <ele>444</ele>
        <time>2019-04-13T08:15:56Z</time>
      </trkpt>
      <trkpt lat="48.20658" lon="7.25604">
        <ele>445</ele>
        <time>2019-04-13T08:16:56Z</time>
      </trkpt>
      <trkpt lat="48.20633" lon="7.25636">
        <ele>445</ele>
        <time>2019-04-13T08:17:56Z</time>
      </trkpt>
      <trkpt lat="48.20614" lon="7.2566">
        <ele>440</ele>
        <time>2019-04-13T08:18:56Z</time>
      </trkpt>
      <trkpt lat="48.20597" lon="7.25684">
        <ele>435</ele>
        <time>2019-04-13T08:19:56Z</time>
      </trkpt>
      <trkpt lat="48.2059" lon="7.25697">
        <ele>433</ele>
        <time>2019-04-13T08:20:56Z</time>
      </trkpt>
      <trkpt lat="48.20586" lon="7.25707">
        <ele>431</ele>
        <time>2019-04-13T08:21:56Z</time>
      </trkpt>
      <trkpt lat="48.20583" lon="7.25715">
        <ele>429</ele>
        <time>2019-04-13T08:22:56Z</time>
      </trkpt>
      <trkpt lat="48.20581" lon="7.25724">
        <ele>429</ele>
        <time>2019-04-13T08:23:56Z</time>
      </trkpt>
      <trkpt lat="48.20579" lon="7.25745">
        <ele>429</ele>
        <time>2019-04-13T08:24:56Z</time>
      </trkpt>
      <trkpt lat="48.20576" lon="7.25784">
        <ele>432</ele>
        <time>2019-04-13T08:25:56Z</time>
      </trkpt>
      <trkpt lat="48.20574" lon="7.25826">
        <ele>435</ele>
        <time>2019-04-13T08:26:56Z</time>
      </trkpt>
      <trkpt lat="48.2057" lon="7.25854">
        <ele>436</ele>
        <time>2019-04-13T08:27:56Z</time>
      </trkpt>
      <trkpt lat="48.20569" lon="7.2586">
        <ele>436</ele>
        <time>2019-04-13T08:28:56Z</time>
      </trkpt>
      <trkpt lat="48.20565" lon="7.25881">
        <ele>436</ele>
        <time>2019-04-13T08:29:56Z</time>
      </trkpt>
      <trkpt lat="48.20558" lon="7.25903">
        <ele>436</ele>
        <time>2019-04-13T08:30:56Z</time>
      </trkpt>
      <trkpt lat="48.20549" lon="7.25923">
        <ele>435</ele>
        <time>2019-04-13T08:31:56Z</time>
      </trkpt>
      <trkpt lat="48.20544" lon="7.25939">
        <ele>434</ele>
        <time>2019-04-13T08:32:56Z</time>
      </trkpt>
      <trkpt lat="48.20519" lon="7.26048">
        <ele>428</ele>
        <time>2019-04-13T08:33:56Z</time>
      </trkpt>
      <trkpt lat="48.20512" lon="7.2607">
        <ele>425</ele>
        <time>2019-04-13T08:34:56Z</time>
      </trkpt>
      <trkpt lat="48.20504" lon="7.26087">
        <ele>421</ele>
        <time>2019-04-13T08:35:56Z</time>
      </trkpt>
      <trkpt lat="48.20494" lon="7.26105">
        <ele>420</ele>
        <time>2019-04-13T08:36:56Z</time>
      </trkpt>
      <trkpt lat="48.20481" lon="7.26133">
        <ele>422</ele>
        <time>2019-04-13T08:37:56Z</time>
      </trkpt>
      <trkpt lat="48.20476" lon="7.26153">
        <ele>422</ele>
        <time>2019-04-13T08:38:56Z</time>
      </trkpt>
      <trkpt lat="48.20472" lon="7.26171">
        <ele>421</ele>
        <time>2019-04-13T08:39:56Z</time>
      </trkpt>
      <trkpt lat="48.20471" lon="7.26194">
        <ele>421</ele>
        <time>2019-04-13T08:40:56Z</time>
      </trkpt>
      <trkpt lat="48.2047" lon="7.26222">
        <ele>420</ele>
        <time>2019-04-13T08:41:56Z</time>
      </trkpt>
      <trkpt lat="48.20471" lon="7.26248">
        <ele>420</ele>
        <time>2019-04-13T08:42:56Z</time>
      </trkpt>
      <trkpt lat="48.20474" lon="7.26271">
        <ele>419</ele>
        <time>2019-04-13T08:43:56Z</time>
      </trkpt>
      <trkpt lat="48.20476" lon="7.26287">
        <ele>419</ele>
        <time>2019-04-13T08:44:56Z</time>
      </trkpt>
      <trkpt lat="48.20478" lon="7.26302">
        <ele>419</ele>
        <time>2019-04-13T08:45:56Z</time>
      </trkpt>
      <trkpt lat="48.20479" lon="7.26324">
        <ele>419</ele>
        <time>2019-04-13T08:46:56Z</time>
      </trkpt>
      <trkpt lat="48.20479" lon="7.26347">
        <ele>420</ele>
        <time>2019-04-13T08:47:56Z</time>
      </trkpt>
      <trkpt lat="48.20478" lon="7.26361">
        <ele>421</ele>
        <time>2019-04-13T08:48:56Z</time>
      </trkpt>
      <trkpt lat="48.20476" lon="7.26376">
        <ele>421</ele>
        <time>2019-04-13T08:49:56Z</time>
      </trkpt>
      <trkpt lat="48.20474" lon="7.26396">
        <ele>423</ele>
        <time>2019-04-13T08:50:56Z</time>
      </trkpt>
      <trkpt lat="48.2047" lon="7.26415">
        <ele>423</ele>
        <time>2019-04-13T08:51:56Z</time>
      </trkpt>
      <trkpt lat="48.20467" lon="7.26429">
        <ele>424</ele>
        <time>2019-04-13T08:52:56Z</time>
      </trkpt>
      <trkpt lat="48.20462" lon="7.26447">
        <ele>423</ele>
        <time>2019-04-13T08:53:56Z</time>
      </trkpt>
      <trkpt lat="48.20456" lon="7.26462">
        <ele>422</ele>
        <time>2019-04-13T08:54:56Z</time>
      </trkpt>
      <trkpt lat="48.20445" lon="7.2649">
        <ele>420</ele>
        <time>2019-04-13T08:55:56Z</time>
      </trkpt>
      <trkpt lat="48.20415" lon="7.26561">
        <ele>412</ele>
        <time>2019-04-13T08:56:56Z</time>
      </trkpt>
      <trkpt lat="48.20403" lon="7.26593">
        <ele>417</ele>
        <time>2019-04-13T08:57:56Z</time>
      </trkpt>
      <trkpt lat="48.20396" lon="7.26623">
        <ele>419</ele>
        <time>2019-04-13T08:58:56Z</time>
      </trkpt>
      <trkpt lat="48.20393" lon="7.26636">
        <ele>419</ele>
        <time>2019-04-13T08:59:56Z</time>
      </trkpt>
      <trkpt lat="48.20391" lon="7.2666">
        <ele>420</ele>
        <time>2019-04-13T09:00:56Z</time>
      </trkpt>
      <trkpt lat="48.20389" lon="7.26684">
        <ele>419</ele>
        <time>2019-04-13T09:01:56Z</time>
      </trkpt>
      <trkpt lat="48.20386" lon="7.26724">
        <ele>417</ele>
        <time>2019-04-13T09:02:56Z</time>
      </trkpt>
      <trkpt lat="48.20382" lon="7.26757">
        <ele>416</ele>
        <time>2019-04-13T09:03:56Z</time>
      </trkpt>
      <trkpt lat="48.2038" lon="7.26771">
        <ele>416</ele>
        <time>2019-04-13T09:04:56Z</time>
      </trkpt>
      <trkpt lat="48.20376" lon="7.26786">
        <ele>416</ele>
        <time>2019-04-13T09:05:56Z</time>
      </trkpt>
      <trkpt lat="48.20369" lon="7.26807">
        <ele>416</ele>
        <time>2019-04-13T09:06:56Z</time>
      </trkpt>
      <trkpt lat="48.20363" lon="7.2682">
        <ele>415</ele>
        <time>2019-04-13T09:07:56Z</time>
      </trkpt>
      <trkpt lat="48.20353" lon="7.26837">
        <ele>413</ele>
        <time>2019-04-13T09:08:56Z</time>
      </trkpt>
      <trkpt lat="48.20347" lon="7.26851">
        <ele>413</ele>
        <time>2019-04-13T09:09:56Z</time>
      </trkpt>
      <trkpt lat="48.20343" lon="7.26861">
        <ele>412</ele>
        <time>2019-04-13T09:10:56Z</time>
      </trkpt>
      <trkpt lat="48.20335" lon="7.26884">
        <ele>410</ele>
        <time>2019-04-13T09:11:56Z</time>
      </trkpt>
      <trkpt lat="48.20324" lon="7.26915">
        <ele>412</ele>
        <time>2019-04-13T09:12:56Z</time>
      </trkpt>
      <trkpt lat="48.20313" lon="7.26949">
        <ele>412</ele>
        <time>2019-04-13T09:13:56Z</time>
      </trkpt>
      <trkpt lat="48.20305" lon="7.26969">
        <ele>412</ele>
        <time>2019-04-13T09:14:56Z</time>
      </trkpt>
      <trkpt lat="48.20304" lon="7.26978">
        <ele>412</ele>
        <time>2019-04-13T09:15:56Z</time>
      </trkpt>
      <trkpt lat="48.20303" lon="7.2699">
        <ele>411</ele>
        <time>2019-04-13T09:16:56Z</time>
      </trkpt>
      <trkpt lat="48.20303" lon="7.27002">
        <ele>409</ele>
        <time>2019-04-13T09:17:56Z</time>
      </trkpt>
      <trkpt lat="48.20305" lon="7.27014">
        <ele>408</ele>
        <time>2019-04-13T09:18:56Z</time>
      </trkpt>
      <trkpt lat="48.20309" lon="7.27028">
        <ele>406</ele>
        <time>2019-04-13T09:19:56Z</time>
      </trkpt>
      <trkpt lat="48.20317" lon="7.27052">
        <ele>402</ele>
        <time>2019-04-13T09:20:56Z</time>
      </trkpt>
      <trkpt lat="48.20325" lon="7.27079">
        <ele>398</ele>
        <time>2019-04-13T09:21:56Z</time>
      </trkpt>
      <trkpt lat="48.2033" lon="7.27096">
        <ele>396</ele>
        <time>2019-04-13T09:22:56Z</time>
      </trkpt>
      <trkpt lat="48.20334" lon="7.27117">
        <ele>397</ele>
        <time>2019-04-13T09:23:56Z</time>
      </trkpt>
      <trkpt lat="48.20335" lon="7.27134">
        <ele>398</ele>
        <time>2019-04-13T09:24:56Z</time>
      </trkpt>
      <trkpt lat="48.20335" lon="7.27151">
        <ele>399</ele>
        <time>2019-04-13T09:25:56Z</time>
      </trkpt>
      <trkpt lat="48.20334" lon="7.27167">
        <ele>399</ele>
        <time>2019-04-13T09:26:56Z</time>
      </trkpt>
      <trkpt lat="48.20329" lon="7.27188">
        <ele>400</ele>
        <time>2019-04-13T09:27:56Z</time>
      </trkpt>
      <trkpt lat="48.20322" lon="7.27225">
        <ele>401</ele>
        <time>2019-04-13T09:28:56Z</time>
      </trkpt>
      <trkpt lat="48.20317" lon="7.27251">
        <ele>401</ele>
        <time>2019-04-13T09:29:56Z</time>
      </trkpt>
      <trkpt lat="48.20314" lon="7.27266">
        <ele>398</ele>
        <time>2019-04-13T09:30:56Z</time>
      </trkpt>
      <trkpt lat="48.20312" lon="7.27295">
        <ele>393</ele>
        <time>2019-04-13T09:31:56Z</time>
      </trkpt>
      <trkpt lat="48.2031" lon="7.27314">
        <ele>389</ele>
        <time>2019-04-13T09:32:56Z</time>
      </trkpt>
      <trkpt lat="48.2031" lon="7.27336">
        <ele>385</ele>
        <time>2019-04-13T09:33:56Z</time>
      </trkpt>
      <trkpt lat="48.2031" lon="7.27346">
        <ele>383</ele>
        <time>2019-04-13T09:34:56Z</time>
      </trkpt>
      <trkpt lat="48.20311" lon="7.27367">
        <ele>378</ele>
        <time>2019-04-13T09:35:56Z</time>
      </trkpt>
      <trkpt lat="48.20312" lon="7.27377">
        <ele>376</ele>
        <time>2019-04-13T09:36:56Z</time>
      </trkpt>
      <trkpt lat="48.20314" lon="7.27389">
        <ele>373</ele>
        <time>2019-04-13T09:37:56Z</time>
      </trkpt>
      <trkpt lat="48.20318" lon="7.27408">
        <ele>368</ele>
        <time>2019-04-13T09:38:56Z</time>
      </trkpt>
      <trkpt lat="48.20323" lon="7.27436">
        <ele>365</ele>
        <time>2019-04-13T09:39:56Z</time>
      </trkpt>
      <trkpt lat="48.20325" lon="7.27452">
        <ele>364</ele>
        <time>2019-04-13T09:40:56Z</time>
      </trkpt>
      <trkpt lat="48.20326" lon="7.27473">
        <ele>364</ele>
        <time>2019-04-13T09:41:56Z</time>
      </trkpt>
      <trkpt lat="48.20327" lon="7.27491">
        <ele>364</ele>
        <time>2019-04-13T09:42:56Z</time>
      </trkpt>
      <trkpt lat="48.20327" lon="7.27518">
        <ele>366</ele>
        <time>2019-04-13T09:43:56Z</time>
      </trkpt>
      <trkpt lat="48.20326" lon="7.27531">
        <ele>367</ele>
        <time>2019-04-13T09:44:56Z</time>
      </trkpt>
      <trkpt lat="48.20325" lon="7.27544">
        <ele>368</ele>
        <time>2019-04-13T09:45:56Z</time>
      </trkpt>
      <trkpt lat="48.20322" lon="7.27557">
        <ele>369</ele>
        <time>2019-04-13T09:46:56Z</time>
      </trkpt>
      <trkpt lat="48.20319" lon="7.27572">
        <ele>369</ele>
        <time>2019-04-13T09:47:56Z</time>
      </trkpt>
      <trkpt lat="48.20316" lon="7.27583">
        <ele>370</ele>
        <time>2019-04-13T09:48:56Z</time>
      </trkpt>
      <trkpt lat="48.20313" lon="7.27591">
        <ele>371</ele>
        <time>2019-04-13T09:49:56Z</time>
      </trkpt>
      <trkpt lat="48.2031" lon="7.27598">
        <ele>372</ele>
        <time>2019-04-13T09:50:56Z</time>
      </trkpt>
      <trkpt lat="48.20283" lon="7.27652">
        <ele>375</ele>
        <time>2019-04-13T09:51:56Z</time>
      </trkpt>
      <trkpt lat="48.20277" lon="7.27666">
        <ele>375</ele>
        <time>2019-04-13T09:52:56Z</time>
      </trkpt>
      <trkpt lat="48.20262" lon="7.27701">
        <ele>372</ele>
        <time>2019-04-13T09:53:56Z</time>
      </trkpt>
      <trkpt lat="48.20249" lon="7.27731">
        <ele>369</ele>
        <time>2019-04-13T09:54:56Z</time>
      </trkpt>
      <trkpt lat="48.20242" lon="7.27749">
        <ele>369</ele>
        <time>2019-04-13T09:55:56Z</time>
      </trkpt>
      <trkpt lat="48.20239" lon="7.27758">
        <ele>369</ele>
        <time>2019-04-13T09:56:56Z</time>
      </trkpt>
      <trkpt lat="48.20236" lon="7.27771">
        <ele>369</ele>
        <time>2019-04-13T09:57:56Z</time>
      </trkpt>
      <trkpt lat="48.20235" lon="7.2778">
        <ele>369</ele>
        <time>2019-04-13T09:58:56Z</time>
      </trkpt>
      <trkpt lat="48.20234" lon="7.27793">
        <ele>370</ele>
        <time>2019-04-13T09:59:56Z</time>
      </trkpt>
      <trkpt lat="48.20234" lon="7.27799">
        <ele>370</ele>
        <time>2019-04-13T10:00:56Z</time>
      </trkpt>
      <trkpt lat="48.20237" lon="7.27836">
        <ele>370</ele>
        <time>2019-04-13T10:01:56Z</time>
      </trkpt>
      <trkpt lat="48.20247" lon="7.27915">
        <ele>367</ele>
        <time>2019-04-13T10:02:56Z</time>
      </trkpt>
      <trkpt lat="48.2026" lon="7.28012">
        <ele>363</ele>
        <time>2019-04-13T10:03:56Z</time>
      </trkpt>
      <trkpt lat="48.20261" lon="7.28025">
        <ele>363</ele>
        <time>2019-04-13T10:04:56Z</time>
      </trkpt>
      <trkpt lat="48.20261" lon="7.28035">
        <ele>363</ele>
        <time>2019-04-13T10:05:56Z</time>
      </trkpt>
      <trkpt lat="48.20262" lon="7.28046">
        <ele>364</ele>
        <time>2019-04-13T10:06:56Z</time>
      </trkpt>
      <trkpt lat="48.20261" lon="7.28059">
        <ele>363</ele>
        <time>2019-04-13T10:07:56Z</time>
      </trkpt>
      <trkpt lat="48.2026" lon="7.28076">
        <ele>363</ele>
        <time>2019-04-13T10:08:56Z</time>
      </trkpt>
      <trkpt lat="48.2026" lon="7.28087">
        <ele>363</ele>
        <time>2019-04-13T10:09:56Z</time>
      </trkpt>
      <trkpt lat="48.20259" lon="7.28103">
        <ele>362</ele>
        <time>2019-04-13T10:10:56Z</time>
      </trkpt>
      <trkpt lat="48.20257" lon="7.28119">
        <ele>361</ele>
        <time>2019-04-13T10:11:56Z</time>
      </trkpt>
      <trkpt lat="48.20255" lon="7.28137">
        <ele>360</ele>
        <time>2019-04-13T10:12:56Z</time>
      </trkpt>
      <trkpt lat="48.20251" lon="7.28158">
        <ele>358</ele>
        <time>2019-04-13T10:13:56Z</time>
      </trkpt>
      <trkpt lat="48.20249" lon="7.28171">
        <ele>357</ele>
        <time>2019-04-13T10:14:56Z</time>
      </trkpt>
      <trkpt lat="48.20244" lon="7.28195">
        <ele>356</ele>
        <time>2019-04-13T10:15:56Z</time>
      </trkpt>
      <trkpt lat="48.20239" lon="7.28216">
        <ele>356</ele>
        <time>2019-04-13T10:16:56Z</time>
      </trkpt>
      <trkpt lat="48.20233" lon="7.28248">
        <ele>355</ele>
        <time>2019-04-13T10:17:56Z</time>
      </trkpt>
      <trkpt lat="48.2023" lon="7.28261">
        <ele>355</ele>
        <time>2019-04-13T10:18:56Z</time>
      </trkpt>
      <trkpt lat="48.20228" lon="7.2828">
        <ele>356</ele>
        <time>2019-04-13T10:19:56Z</time>
      </trkpt>
      <trkpt lat="48.20226" lon="7.28311">
        <ele>357</ele>
        <time>2019-04-13T10:20:56Z</time>
      </trkpt>
      <trkpt lat="48.20225" lon="7.28333">
        <ele>357</ele>
        <time>2019-04-13T10:21:56Z</time>
      </trkpt>
      <trkpt lat="48.20224" lon="7.28364">
        <ele>358</ele>
        <time>2019-04-13T10:22:56Z</time>
      </trkpt>
      <trkpt lat="48.20224" lon="7.28384">
        <ele>359</ele>
        <time>2019-04-13T10:23:56Z</time>
      </trkpt>
      <trkpt lat="48.20223" lon="7.284">
        <ele>359</ele>
        <time>2019-04-13T10:24:56Z</time>
      </trkpt>
      <trkpt lat="48.20221" lon="7.28411">
        <ele>359</ele>
        <time>2019-04-13T10:25:56Z</time>
      </trkpt>
      <trkpt lat="48.20219" lon="7.28426">
        <ele>360</ele>
        <time>2019-04-13T10:26:56Z</time>
      </trkpt>
      <trkpt lat="48.20217" lon="7.28436">
        <ele>360</ele>
        <time>2019-04-13T10:27:56Z</time>
      </trkpt>
      <trkpt lat="48.20213" lon="7.2845">
        <ele>360</ele>
        <time>2019-04-13T10:28:56Z</time>
      </trkpt>
      <trkpt lat="48.20205" lon="7.28471">
        <ele>359</ele>
        <time>2019-04-13T10:29:56Z</time>
      </trkpt>
      <trkpt lat="48.20196" lon="7.28501">
        <ele>357</ele>
        <time>2019-04-13T10:30:56Z</time>
      </trkpt>
      <trkpt lat="48.2019" lon="7.28519">
        <ele>356</ele>
        <time>2019-04-13T10:31:56Z</time>
      </trkpt>
      <trkpt lat="48.20184" lon="7.28547">
        <ele>354</ele>
        <time>2019-04-13T10:32:56Z</time>
      </trkpt>
      <trkpt lat="48.20179" lon="7.2857">
        <ele>352</ele>
        <time>2019-04-13T10:33:56Z</time>
      </trkpt>
      <trkpt lat="48.20177" lon="7.28586">
        <ele>352</ele>
        <time>2019-04-13T10:34:56Z</time>
      </trkpt>
      <trkpt lat="48.20174" lon="7.28602">
        <ele>350</ele>
        <time>2019-04-13T10:35:56Z</time>
      </trkpt>
      <trkpt lat="48.20173" lon="7.28617">
        <ele>350</ele>
        <time>2019-04-13T10:36:56Z</time>
      </trkpt>
      <trkpt lat="48.20172" lon="7.2863">
        <ele>349</ele>
        <time>2019-04-13T10:37:56Z</time>
      </trkpt>
      <trkpt lat="48.20172" lon="7.28641">
        <ele>350</ele>
        <time>2019-04-13T10:38:56Z</time>
      </trkpt>
      <trkpt lat="48.20172" lon="7.2866">
        <ele>350</ele>
        <time>2019-04-13T10:39:56Z</time>
      </trkpt>
      <trkpt lat="48.20174" lon="7.28697">
        <ele>349</ele>
        <time>2019-04-13T10:40:56Z</time>
      </trkpt>
      <trkpt lat="48.20178" lon="7.28766">
        <ele>348</ele>
        <time>2019-04-13T10:41:56Z</time>
      </trkpt>
      <trkpt lat="48.20181" lon="7.28846">
        <ele>351</ele>
        <time>2019-04-13T10:42:56Z</time>
      </trkpt>
      <trkpt lat="48.20185" lon="7.28914">
        <ele>348</ele>
        <time>2019-04-13T10:43:56Z</time>
      </trkpt>
      <trkpt lat="48.20187" lon="7.28956">
        <ele>349</ele>
        <time>2019-04-13T10:44:56Z</time>
      </trkpt>
      <trkpt lat="48.20187" lon="7.28968">
        <ele>349</ele>
        <time>2019-04-13T10:45:56Z</time>
      </trkpt>
      <trkpt lat="48.20187" lon="7.28977">
        <ele>349</ele>
        <time>2019-04-13T10:46:56Z</time>
      </trkpt>
      <trkpt lat="48.20186" lon="7.28989">
        <ele>348</ele>
        <time>2019-04-13T10:47:56Z</time>
      </trkpt>
      <trkpt lat="48.20184" lon="7.29003">
        <ele>347</ele>
        <time>2019-04-13T10:48:56Z</time>
      </trkpt>
      <trkpt lat="48.20181" lon="7.2902">
        <ele>345</ele>
        <time>2019-04-13T10:49:56Z</time>
      </trkpt>
      <trkpt lat="48.20173" lon="7.29059">
        <ele>340</ele>
        <time>2019-04-13T10:50:56Z</time>
      </trkpt>
      <trkpt lat="48.20169" lon="7.29075">
        <ele>338</ele>
        <time>2019-04-13T10:51:56Z</time>
      </trkpt>
      <trkpt lat="48.20166" lon="7.29086">
        <ele>337</ele>
        <time>2019-04-13T10:52:56Z</time>
      </trkpt>
      <trkpt lat="48.20159" lon="7.29107">
        <ele>341</ele>
        <time>2019-04-13T10:53:56Z</time>
      </trkpt>
      <trkpt lat="48.20153" lon="7.29119">
        <ele>344</ele>
        <time>2019-04-13T10:54:56Z</time>
      </trkpt>
      <trkpt lat="48.20145" lon="7.29136">
        <ele>346</ele>
        <time>2019-04-13T10:55:56Z</time>
      </trkpt>
      <trkpt lat="48.20133" lon="7.29161">
        <ele>347</ele>
        <time>2019-04-13T10:56:56Z</time>
      </trkpt>
      <trkpt lat="48.20125" lon="7.29177">
        <ele>348</ele>
        <time>2019-04-13T10:57:56Z</time>
      </trkpt>
      <trkpt lat="48.20119" lon="7.2919">
        <ele>348</ele>
        <time>2019-04-13T10:58:56Z</time>
      </trkpt>
      <trkpt lat="48.20116" lon="7.29202">
        <ele>348</ele>
        <time>2019-04-13T10:59:56Z</time>
      </trkpt>
      <trkpt lat="48.20113" lon="7.29214">
        <ele>348</ele>
        <time>2019-04-13T11:00:56Z</time>
      </trkpt>
      <trkpt lat="48.20111" lon="7.29224">
        <ele>348</ele>
        <time>2019-04-13T11:01:56Z</time>
      </trkpt>
      <trkpt lat="48.20111" lon="7.29238">
        <ele>348</ele>
        <time>2019-04-13T11:02:56Z</time>
      </trkpt>
      <trkpt lat="48.2011" lon="7.29251">
        <ele>347</ele>
        <time>2019-04-13T11:03:56Z</time>
      </trkpt>
      <trkpt lat="48.20111" lon="7.29267">
        <ele>347</ele>
        <time>2019-04-13T11:04:56Z</time>
      </trkpt>
      <trkpt lat="48.20113" lon="7.29289">
        <ele>346</ele>
        <time>2019-04-13T11:05:56Z</time>
      </trkpt>
      <trkpt lat="48.20114" lon="7.29299">
        <ele>345</ele>
        <time>2019-04-13T11:06:56Z</time>
      </trkpt>
      <trkpt lat="48.20117" lon="7.29322">
        <ele>345</ele>
        <time>2019-04-13T11:07:56Z</time>
      </trkpt>
      <trkpt lat="48.20126" lon="7.29379">
        <ele>338</ele>
        <time>2019-04-13T11:08:56Z</time>
      </trkpt>
      <trkpt lat="48.20132" lon="7.29425">
        <ele>331</ele>
        <time>2019-04-13T11:09:56Z</time>
      </trkpt>
      <trkpt lat="48.20135" lon="7.29446">
        <ele>331</ele>
        <time>2019-04-13T11:10:56Z</time>
      </trkpt>
      <trkpt lat="48.20135" lon="7.29458">
        <ele>330</ele>
        <time>2019-04-13T11:11:56Z</time>
      </trkpt>
      <trkpt lat="48.20134" lon="7.29472">
        <ele>330</ele>
        <time>2019-04-13T11:12:56Z</time>
      </trkpt>
      <trkpt lat="48.20134" lon="7.29474">
        <ele>330</ele>
        <time>2019-04-13T11:13:56Z</time>
      </trkpt>
      <trkpt lat="48.20133" lon="7.29482">
        <ele>330</ele>
        <time>2019-04-13T11:14:56Z</time>
      </trkpt>
      <trkpt lat="48.2013" lon="7.29495">
        <ele>329</ele>
        <time>2019-04-13T11:15:56Z</time>
      </trkpt>
      <trkpt lat="48.20125" lon="7.29507">
        <ele>329</ele>
        <time>2019-04-13T11:16:56Z</time>
      </trkpt>
      <trkpt lat="48.20119" lon="7.29518">
        <ele>329</ele>
        <time>2019-04-13T11:17:56Z</time>
      </trkpt>
      <trkpt lat="48.20112" lon="7.29525">
        <ele>328</ele>
        <time>2019-04-13T11:18:56Z</time>
      </trkpt>
      <trkpt lat="48.20103" lon="7.2953">
        <ele>327</ele>
        <time>2019-04-13T11:19:56Z</time>
      </trkpt>
      <trkpt lat="48.20092" lon="7.29536">
        <ele>324</ele>
        <time>2019-04-13T11:20:56Z</time>
      </trkpt>
      <trkpt lat="48.20079" lon="7.29542">
        <ele>323</ele>
        <time>2019-04-13T11:21:56Z</time>
      </trkpt>
      <trkpt lat="48.20072" lon="7.29547">
        <ele>325</ele>
        <time>2019-04-13T11:22:56Z</time>
      </trkpt>
      <trkpt lat="48.20068" lon="7.29552">
        <ele>326</ele>
        <time>2019-04-13T11:23:56Z</time>
      </trkpt>
      <trkpt lat="48.20063" lon="7.2956">
        <ele>327</ele>
        <time>2019-04-13T11:24:56Z</time>
      </trkpt>
      <trkpt lat="48.20059" lon="7.29568">
        <ele>327</ele>
        <time>2019-04-13T11:25:56Z</time>
      </trkpt>
      <trkpt lat="48.20056" lon="7.29577">
        <ele>327</ele>
        <time>2019-04-13T11:26:56Z</time>
      </trkpt>
      <trkpt lat="48.20054" lon="7.29587">
        <ele>327</ele>
        <time>2019-04-13T11:27:56Z</time>
      </trkpt>
      <trkpt lat="48.20053" lon="7.29596">
        <ele>327</ele>
        <time>2019-04-13T11:28:56Z</time>
      </trkpt>
      <trkpt lat="48.20053" lon="7.29607">
        <ele>326</ele>
        <time>2019-04-13T11:29:56Z</time>
      </trkpt>
      <trkpt lat="48.20054" lon="7.2962">
        <ele>325</ele>
        <time>2019-04-13T11:30:56Z</time>
      </trkpt>
      <trkpt lat="48.20058" lon="7.29638">
        <ele>324</ele>
        <time>2019-04-13T11:31:56Z</time>
      </trkpt>
      <trkpt lat="48.20063" lon="7.29656">
        <ele>323</ele>
        <time>2019-04-13T11:32:56Z</time>
      </trkpt>
      <trkpt lat="48.20068" lon="7.29673">
        <ele>321</ele>
        <time>2019-04-13T11:33:56Z</time>
      </trkpt>
      <trkpt lat="48.20071" lon="7.29681">
        <ele>319</ele>
        <time>2019-04-13T11:34:56Z</time>
      </trkpt>
      <trkpt lat="48.20082" lon="7.29713">
        <ele>313</ele>
        <time>2019-04-13T11:35:56Z</time>
      </trkpt>
      <trkpt lat="48.20089" lon="7.29735">
        <ele>312</ele>
        <time>2019-04-13T11:36:56Z</time>
      </trkpt>
      <trkpt lat="48.20098" lon="7.29768">
        <ele>313</ele>
        <time>2019-04-13T11:37:56Z</time>
      </trkpt>
      <trkpt lat="48.20106" lon="7.29801">
        <ele>314</ele>
        <time>2019-04-13T11:38:56Z</time>
      </trkpt>
      <trkpt lat="48.2011" lon="7.29829">
        <ele>313</ele>
        <time>2019-04-13T11:39:56Z</time>
      </trkpt>
      <trkpt lat="48.20116" lon="7.29862">
        <ele>315</ele>
        <time>2019-04-13T11:40:56Z</time>
      </trkpt>
      <trkpt lat="48.20122" lon="7.29895">
        <ele>317</ele>
        <time>2019-04-13T11:41:56Z</time>
      </trkpt>
      <trkpt lat="48.20125" lon="7.29915">
        <ele>318</ele>
        <time>2019-04-13T11:42:56Z</time>
      </trkpt>
      <trkpt lat="48.20126" lon="7.2993">
        <ele>318</ele>
        <time>2019-04-13T11:43:56Z</time>
      </trkpt>
      <trkpt lat="48.20128" lon="7.29945">
        <ele>319</ele>
        <time>2019-04-13T11:44:56Z</time>
      </trkpt>
      <trkpt lat="48.20128" lon="7.29957">
        <ele>319</ele>
        <time>2019-04-13T11:45:56Z</time>
      </trkpt>
      <trkpt lat="48.20128" lon="7.29968">
        <ele>319</ele>
        <time>2019-04-13T11:46:56Z</time>
      </trkpt>
      <trkpt lat="48.20126" lon="7.29985">
        <ele>318</ele>
        <time>2019-04-13T11:47:56Z</time>
      </trkpt>
      <trkpt lat="48.20124" lon="7.30001">
        <ele>317</ele>
        <time>2019-04-13T11:48:56Z</time>
      </trkpt>
      <trkpt lat="48.20119" lon="7.30018">
        <ele>317</ele>
        <time>2019-04-13T11:49:56Z</time>
      </trkpt>
      <trkpt lat="48.20114" lon="7.30037">
        <ele>317</ele>
        <time>2019-04-13T11:50:56Z</time>
      </trkpt>
      <trkpt lat="48.20113" lon="7.30039">
        <ele>317</ele>
        <time>2019-04-13T11:51:56Z</time>
      </trkpt>
      <trkpt lat="48.20108" lon="7.30052">
        <ele>317</ele>
        <time>2019-04-13T11:52:56Z</time>
      </trkpt>
      <trkpt lat="48.201" lon="7.30067">
        <ele>315</ele>
        <time>2019-04-13T11:53:56Z</time>
      </trkpt>
      <trkpt lat="48.20089" lon="7.30084">
        <ele>313</ele>
        <time>2019-04-13T11:54:56Z</time>
      </trkpt>
      <trkpt lat="48.20082" lon="7.30093">
        <ele>314</ele>
        <time>2019-04-13T11:55:56Z</time>
      </trkpt>
      <trkpt lat="48.20072" lon="7.30104">
        <ele>317</ele>
        <time>2019-04-13T11:56:56Z</time>
      </trkpt>
      <trkpt lat="48.20055" lon="7.30118">
        <ele>319</ele>
        <time>2019-04-13T11:57:56Z</time>
      </trkpt>
      <trkpt lat="48.20035" lon="7.3013">
        <ele>318</ele>
        <time>2019-04-13T11:58:56Z</time>
      </trkpt>
      <trkpt lat="48.20019" lon="7.30138">
        <ele>316</ele>
        <time>2019-04-13T11:59:56Z</time>
      </trkpt>
      <trkpt lat="48.20012" lon="7.30142">
        <ele>314</ele>
        <time>2019-04-13T12:00:56Z</time>
      </trkpt>
      <trkpt lat="48.20006" lon="7.30145">
        <ele>313</ele>
        <time>2019-04-13T12:01:56Z</time>
      </trkpt>
      <trkpt lat="48.19993" lon="7.30152">
        <ele>311</ele>
        <time>2019-04-13T12:02:56Z</time>
      </trkpt>
      <trkpt lat="48.19984" lon="7.30157">
        <ele>310</ele>
        <time>2019-04-13T12:03:56Z</time>
      </trkpt>
      <trkpt lat="48.19973" lon="7.30167">
        <ele>307</ele>
        <time>2019-04-13T12:04:56Z</time>
      </trkpt>
      <trkpt lat="48.19954" lon="7.30188">
        <ele>307</ele>
        <time>2019-04-13T12:05:56Z</time>
      </trkpt>
      <trkpt lat="48.19945" lon="7.30199">
        <ele>306</ele>
        <time>2019-04-13T12:06:56Z</time>
      </trkpt>
      <trkpt lat="48.19936" lon="7.30212">
        <ele>305</ele>
        <time>2019-04-13T12:07:56Z</time>
      </trkpt>
      <trkpt lat="48.19929" lon="7.3022">
        <ele>304</ele>
        <time>2019-04-13T12:08:56Z</time>
      </trkpt>
      <trkpt lat="48.19921" lon="7.30227">
        <ele>302</ele>
        <time>2019-04-13T12:09:56Z</time>
      </trkpt>
      <trkpt lat="48.19911" lon="7.30232">
        <ele>301</ele>
        <time>2019-04-13T12:10:56Z</time>
      </trkpt>
      <trkpt lat="48.19901" lon="7.30238">
        <ele>300</ele>
        <time>2019-04-13T12:11:56Z</time>
      </trkpt>
      <trkpt lat="48.1985" lon="7.30262">
        <ele>294</ele>
        <time>2019-04-13T12:12:56Z</time>
      </trkpt>
      <trkpt lat="48.19841" lon="7.30267">
        <ele>294</ele>
        <time>2019-04-13T12:13:56Z</time>
      </trkpt>
      <trkpt lat="48.19835" lon="7.30273">
        <ele>293</ele>
        <time>2019-04-13T12:14:56Z</time>
      </trkpt>
      <trkpt lat="48.19828" lon="7.30283">
        <ele>295</ele>
        <time>2019-04-13T12:15:56Z</time>
      </trkpt>
      <trkpt lat="48.19819" lon="7.30304">
        <ele>298</ele>
        <time>2019-04-13T12:16:56Z</time>
      </trkpt>
      <trkpt lat="48.19816" lon="7.30311">
        <ele>298</ele>
        <time>2019-04-13T12:17:56Z</time>
      </trkpt>
      <trkpt lat="48.19806" lon="7.30333">
        <ele>299</ele>
        <time>2019-04-13T12:18:56Z</time>
      </trkpt>
      <trkpt lat="48.19801" lon="7.30351">
        <ele>298</ele>
        <time>2019-04-13T12:19:56Z</time>
      </trkpt>
      <trkpt lat="48.19797" lon="7.30366">
        <ele>298</ele>
        <time>2019-04-13T12:20:56Z</time>
      </trkpt>
      <trkpt lat="48.19796" lon="7.30382">
        <ele>297</ele>
        <time>2019-04-13T12:21:56Z</time>
      </trkpt>
      <trkpt lat="48.19795" lon="7.30397">
        <ele>296</ele>
        <time>2019-04-13T12:22:56Z</time>
      </trkpt>
      <trkpt lat="48.19795" lon="7.30411">
        <ele>295</ele>
        <time>2019-04-13T12:23:56Z</time>
      </trkpt>
      <trkpt lat="48.19797" lon="7.30427">
        <ele>294</ele>
        <time>2019-04-13T12:24:56Z</time>
      </trkpt>
      <trkpt lat="48.19801" lon="7.3045">
        <ele>292</ele>
        <time>2019-04-13T12:25:56Z</time>
      </trkpt>
      <trkpt lat="48.19808" lon="7.30476">
        <ele>291</ele>
        <time>2019-04-13T12:26:56Z</time>
      </trkpt>
      <trkpt lat="48.19809" lon="7.3048">
        <ele>291</ele>
        <time>2019-04-13T12:27:56Z</time>
      </trkpt>
      <trkpt lat="48.19811" lon="7.30494">
        <ele>289</ele>
        <time>2019-04-13T12:28:56Z</time>
      </trkpt>
      <trkpt lat="48.19815" lon="7.30522">
        <ele>288</ele>
        <time>2019-04-13T12:29:56Z</time>
      </trkpt>
      <trkpt lat="48.19819" lon="7.30563">
        <ele>286</ele>
        <time>2019-04-13T12:30:56Z</time>
      </trkpt>
      <trkpt lat="48.19824" lon="7.30613">
        <ele>285</ele>
        <time>2019-04-13T12:31:56Z</time>
      </trkpt>
      <trkpt lat="48.19828" lon="7.30677">
        <ele>285</ele>
        <time>2019-04-13T12:32:56Z</time>
      </trkpt>
      <trkpt lat="48.19831" lon="7.3072">
        <ele>283</ele>
        <time>2019-04-13T12:33:56Z</time>
      </trkpt>
      <trkpt lat="48.19832" lon="7.30744">
        <ele>282</ele>
        <time>2019-04-13T12:34:56Z</time>
      </trkpt>
      <trkpt lat="48.19836" lon="7.3077">
        <ele>283</ele>
        <time>2019-04-13T12:35:56Z</time>
      </trkpt>
      <trkpt lat="48.19838" lon="7.30787">
        <ele>283</ele>
        <time>2019-04-13T12:36:56Z</time>
      </trkpt>
      <trkpt lat="48.1984" lon="7.30797">
        <ele>283</ele>
        <time>2019-04-13T12:37:56Z</time>
      </trkpt>
      <trkpt lat="48.1984" lon="7.30807">
        <ele>283</ele>
        <time>2019-04-13T12:38:56Z</time>
      </trkpt>
      <trkpt lat="48.1984" lon="7.30812">
        <ele>283</ele>
        <time>2019-04-13T12:39:56Z</time>
      </trkpt>
      <trkpt lat="48.19839" lon="7.30818">
        <ele>283</ele>
        <time>2019-04-13T12:40:56Z</time>
      </trkpt>
      <trkpt lat="48.19835" lon="7.30847">
        <ele>281</ele>
        <time>2019-04-13T12:41:56Z</time>
      </trkpt>
      <trkpt lat="48.19829" lon="7.30873">
        <ele>280</ele>
        <time>2019-04-13T12:42:56Z</time>
      </trkpt>
      <trkpt lat="48.19825" lon="7.30886">
        <ele>279</ele>
        <time>2019-04-13T12:43:56Z</time>
      </trkpt>
      <trkpt lat="48.19817" lon="7.30903">
        <ele>278</ele>
        <time>2019-04-13T12:44:56Z</time>
      </trkpt>
      <trkpt lat="48.19812" lon="7.30912">
        <ele>277</ele>
        <time>2019-04-13T12:45:56Z</time>
      </trkpt>
      <trkpt lat="48.19799" lon="7.30934">
        <ele>276</ele>
        <time>2019-04-13T12:46:56Z</time>
      </trkpt>
      <trkpt lat="48.19776" lon="7.30972">
        <ele>273</ele>
        <time>2019-04-13T12:47:56Z</time>
      </trkpt>
      <trkpt lat="48.19758" lon="7.31">
        <ele>268</ele>
        <time>2019-04-13T12:48:56Z</time>
      </trkpt>
      <trkpt lat="48.19745" lon="7.31023">
        <ele>268</ele>
        <time>2019-04-13T12:49:56Z</time>
      </trkpt>
      <trkpt lat="48.1973" lon="7.31037">
        <ele>269</ele>
        <time>2019-04-13T12:50:56Z</time>
      </trkpt>
      <trkpt lat="48.19728" lon="7.3104">
        <ele>269</ele>
        <time>2019-04-13T12:51:56Z</time>
      </trkpt>
      <trkpt lat="48.19721" lon="7.31045">
        <ele>269</ele>
        <time>2019-04-13T12:52:56Z</time>
      </trkpt>
      <trkpt lat="48.19713" lon="7.31049">
        <ele>269</ele>
        <time>2019-04-13T12:53:56Z</time>
      </trkpt>
      <trkpt lat="48.197" lon="7.31051">
        <ele>268</ele>
        <time>2019-04-13T12:54:56Z</time>
      </trkpt>
      <trkpt lat="48.19684" lon="7.3105">
        <ele>268</ele>
        <time>2019-04-13T12:55:56Z</time>
      </trkpt>
      <trkpt lat="48.19675" lon="7.31049">
        <ele>268</ele>
        <time>2019-04-13T12:56:56Z</time>
      </trkpt>
      <trkpt lat="48.19664" lon="7.31046">
        <ele>268</ele>
        <time>2019-04-13T12:57:56Z</time>
      </trkpt>
      <trkpt lat="48.19662" lon="7.31046">
        <ele>268</ele>
        <time>2019-04-13T12:58:56Z</time>
      </trkpt>
      <trkpt lat="48.19654" lon="7.31045">
        <ele>269</ele>
        <time>2019-04-13T12:59:56Z</time>
      </trkpt>
      <trkpt lat="48.19647" lon="7.31045">
        <ele>270</ele>
        <time>2019-04-13T13:00:56Z</time>
      </trkpt>
      <trkpt lat="48.19641" lon="7.31045">
        <ele>271</ele>
        <time>2019-04-13T13:01:56Z</time>
      </trkpt>
      <trkpt lat="48.19636" lon="7.31046">
        <ele>271</ele>
        <time>2019-04-13T13:02:56Z</time>
      </trkpt>
      <trkpt lat="48.19631" lon="7.31049">
        <ele>272</ele>
        <time>2019-04-13T13:03:56Z</time>
      </trkpt>
      <trkpt lat="48.19624" lon="7.31052">
        <ele>272</ele>
        <time>2019-04-13T13:04:56Z</time>
      </trkpt>
      <trkpt lat="48.19616" lon="7.31057">
        <ele>273</ele>
        <time>2019-04-13T13:05:56Z</time>
      </trkpt>
      <trkpt lat="48.19606" lon="7.31064">
        <ele>273</ele>
        <time>2019-04-13T13:06:56Z</time>
      </trkpt>
      <trkpt lat="48.19579" lon="7.31085">
        <ele>274</ele>
        <time>2019-04-13T13:07:56Z</time>
      </trkpt>
      <trkpt lat="48.19556" lon="7.31105">
        <ele>275</ele>
        <time>2019-04-13T13:08:56Z</time>
      </trkpt>
      <trkpt lat="48.19551" lon="7.31108">
        <ele>275</ele>
        <time>2019-04-13T13:09:56Z</time>
      </trkpt>
      <trkpt lat="48.19537" lon="7.31117">
        <ele>276</ele>
        <time>2019-04-13T13:10:56Z</time>
      </trkpt>
      <trkpt lat="48.19524" lon="7.31126">
        <ele>276</ele>
        <time>2019-04-13T13:11:56Z</time>
      </trkpt>
      <trkpt lat="48.19513" lon="7.31136">
        <ele>275</ele>
        <time>2019-04-13T13:12:56Z</time>
      </trkpt>
      <trkpt lat="48.19499" lon="7.3115">
        <ele>275</ele>
        <time>2019-04-13T13:13:56Z</time>
      </trkpt>
      <trkpt lat="48.19496" lon="7.31154">
        <ele>275</ele>
        <time>2019-04-13T13:14:56Z</time>
      </trkpt>
      <trkpt lat="48.19489" lon="7.31161">
        <ele>274</ele>
        <time>2019-04-13T13:15:56Z</time>
      </trkpt>
      <trkpt lat="48.19485" lon="7.31166">
        <ele>274</ele>
        <time>2019-04-13T13:16:56Z</time>
      </trkpt>
      <trkpt lat="48.19476" lon="7.31178">
        <ele>274</ele>
        <time>2019-04-13T13:17:56Z</time>
      </trkpt>
      <trkpt lat="48.1946" lon="7.31203">
        <ele>274</ele>
        <time>2019-04-13T13:18:56Z</time>
      </trkpt>
      <trkpt lat="48.19451" lon="7.3122">
        <ele>274</ele>
        <time>2019-04-13T13:19:56Z</time>
      </trkpt>
      <trkpt lat="48.19447" lon="7.31229">
        <ele>274</ele>
        <time>2019-04-13T13:20:56Z</time>
      </trkpt>
      <trkpt lat="48.19443" lon="7.31236">
        <ele>274</ele>
        <time>2019-04-13T13:21:56Z</time>
      </trkpt>
      <trkpt lat="48.19437" lon="7.31255">
        <ele>273</ele>
        <time>2019-04-13T13:22:56Z</time>
      </trkpt>
      <trkpt lat="48.19435" lon="7.31263">
        <ele>273</ele>
        <time>2019-04-13T13:23:56Z</time>
      </trkpt>
      <trkpt lat="48.19434" lon="7.31266">
        <ele>273</ele>
        <time>2019-04-13T13:24:56Z</time>
      </trkpt>
      <trkpt lat="48.19433" lon="7.3127">
        <ele>272</ele>
        <time>2019-04-13T13:25:56Z</time>
      </trkpt>
      <trkpt lat="48.19429" lon="7.31282">
        <ele>272</ele>
        <time>2019-04-13T13:26:56Z</time>
      </trkpt>
      <trkpt lat="48.19422" lon="7.31307">
        <ele>271</ele>
        <time>2019-04-13T13:27:56Z</time>
      </trkpt>
      <trkpt lat="48.1942" lon="7.31315">
        <ele>271</ele>
        <time>2019-04-13T13:28:56Z</time>
      </trkpt>
      <trkpt lat="48.19417" lon="7.31329">
        <ele>270</ele>
        <time>2019-04-13T13:29:56Z</time>
      </trkpt>
      <trkpt lat="48.19415" lon="7.31335">
        <ele>270</ele>
        <time>2019-04-13T13:30:56Z</time>
      </trkpt>
      <trkpt lat="48.19408" lon="7.31359">
        <ele>270</ele>
        <time>2019-04-13T13:31:56Z</time>
      </trkpt>
      <trkpt lat="48.19403" lon="7.31374">
        <ele>269</ele>
        <time>2019-04-13T13:32:56Z</time>
      </trkpt>
      <trkpt lat="48.194" lon="7.31386">
        <ele>269</ele>
        <time>2019-04-13T13:33:56Z</time>
      </trkpt>
      <trkpt lat="48.19398" lon="7.3139">
        <ele>269</ele>
        <time>2019-04-13T13:34:56Z</time>
      </trkpt>
      <trkpt lat="48.19395" lon="7.31394">
        <ele>269</ele>
        <time>2019-04-13T13:35:56Z</time>
      </trkpt>
      <trkpt lat="48.19388" lon="7.31409">
        <ele>269</ele>
        <time>2019-04-13T13:36:56Z</time>
      </trkpt>
      <trkpt lat="48.19376" lon="7.31432">
        <ele>269</ele>
        <time>2019-04-13T13:37:56Z</time>
      </trkpt>
      <trkpt lat="48.19355" lon="7.31472">
        <ele>270</ele>
        <time>2019-04-13T13:38:56Z</time>
      </trkpt>
      <trkpt lat="48.19346" lon="7.31492">
        <ele>270</ele>
        <time>2019-04-13T13:39:56Z</time>
      </trkpt>
      <trkpt lat="48.1934" lon="7.31507">
        <ele>270</ele>
        <time>2019-04-13T13:40:56Z</time>
      </trkpt>
      <trkpt lat="48.19333" lon="7.31531">
        <ele>271</ele>
        <time>2019-04-13T13:41:56Z</time>
      </trkpt>
      <trkpt lat="48.19329" lon="7.31551">
        <ele>271</ele>
        <time>2019-04-13T13:42:56Z</time>
      </trkpt>
      <trkpt lat="48.19327" lon="7.31561">
        <ele>271</ele>
        <time>2019-04-13T13:43:56Z</time>
      </trkpt>
      <trkpt lat="48.19324" lon="7.3158">
        <ele>271</ele>
        <time>2019-04-13T13:44:56Z</time>
      </trkpt>
      <trkpt lat="48.1932" lon="7.31623">
        <ele>270</ele>
        <time>2019-04-13T13:45:56Z</time>
      </trkpt>
      <trkpt lat="48.19318" lon="7.31649">
        <ele>270</ele>
        <time>2019-04-13T13:46:56Z</time>
      </trkpt>
      <trkpt lat="48.19316" lon="7.31674">
        <ele>270</ele>
        <time>2019-04-13T13:47:56Z</time>
      </trkpt>
      <trkpt lat="48.19309" lon="7.31715">
        <ele>268</ele>
        <time>2019-04-13T13:48:56Z</time>
      </trkpt>
      <trkpt lat="48.19299" lon="7.31763">
        <ele>267</ele>
        <time>2019-04-13T13:49:56Z</time>
      </trkpt>
      <trkpt lat="48.19278" lon="7.3186">
        <ele>265</ele>
        <time>2019-04-13T13:50:56Z</time>
      </trkpt>
      <trkpt lat="48.19263" lon="7.31929">
        <ele>262</ele>
        <time>2019-04-13T13:51:56Z</time>
      </trkpt>
      <trkpt lat="48.19255" lon="7.31963">
        <ele>262</ele>
        <time>2019-04-13T13:52:56Z</time>
      </trkpt>
      <trkpt lat="48.19235" lon="7.32055">
        <ele>258</ele>
        <time>2019-04-13T13:53:56Z</time>
      </trkpt>
      <trkpt lat="48.19218" lon="7.32135">
        <ele>254</ele>
        <time>2019-04-13T13:54:56Z</time>
      </trkpt>
      <trkpt lat="48.19211" lon="7.32168">
        <ele>252</ele>
        <time>2019-04-13T13:55:56Z</time>
      </trkpt>
      <trkpt lat="48.1921" lon="7.32176">
        <ele>252</ele>
        <time>2019-04-13T13:56:56Z</time>
      </trkpt>
      <trkpt lat="48.19205" lon="7.32201">
        <ele>251</ele>
        <time>2019-04-13T13:57:56Z</time>
      </trkpt>
      <trkpt lat="48.19204" lon="7.32206">
        <ele>251</ele>
        <time>2019-04-13T13:58:56Z</time>
      </trkpt>
      <trkpt lat="48.19188" lon="7.32283">
        <ele>248</ele>
        <time>2019-04-13T13:59:56Z</time>
      </trkpt>
      <trkpt lat="48.19177" lon="7.32341">
        <ele>245</ele>
        <time>2019-04-13T14:00:56Z</time>
      </trkpt>
      <trkpt lat="48.19168" lon="7.32384">
        <ele>244</ele>
        <time>2019-04-13T14:01:56Z</time>
      </trkpt>
      <trkpt lat="48.19164" lon="7.32421">
        <ele>242</ele>
        <time>2019-04-13T14:02:56Z</time>
      </trkpt>
      <trkpt lat="48.19162" lon="7.32426">
        <ele>242</ele>
        <time>2019-04-13T14:03:56Z</time>
      </trkpt>
      <trkpt lat="48.19159" lon="7.32442">
        <ele>241</ele>
        <time>2019-04-13T14:04:56Z</time>
      </trkpt>
      <trkpt lat="48.19157" lon="7.32449">
        <ele>241</ele>
        <time>2019-04-13T14:05:56Z</time>
      </trkpt>
      <trkpt lat="48.19157" lon="7.32454">
        <ele>240</ele>
        <time>2019-04-13T14:06:56Z</time>
      </trkpt>
      <trkpt lat="48.19157" lon="7.32457">
        <ele>240</ele>
        <time>2019-04-13T14:07:56Z</time>
      </trkpt>
      <trkpt lat="48.19157" lon="7.32462">
        <ele>240</ele>
        <time>2019-04-13T14:08:56Z</time>
      </trkpt>
      <trkpt lat="48.19157" lon="7.32462">
        <ele>240</ele>
        <time>2019-04-13T14:09:56Z</time>
      </trkpt>
      <trkpt lat="48.19157" lon="7.32463">
        <ele>240</ele>
        <time>2019-04-13T14:10:56Z</time>
      </trkpt>
      <trkpt lat="48.19156" lon="7.32464">
        <ele>240</ele>
        <time>2019-04-13T14:11:56Z</time>
      </trkpt>
      <trkpt lat="48.19156" lon="7.32465">
        <ele>239</ele>
        <time>2019-04-13T14:12:56Z</time>
      </trkpt>
      <trkpt lat="48.19155" lon="7.32466">
        <ele>240</ele>
        <time>2019-04-13T14:13:56Z</time>
      </trkpt>
      <trkpt lat="48.19155" lon="7.32467">
        <ele>239</ele>
        <time>2019-04-13T14:14:56Z</time>
      </trkpt>
      <trkpt lat="48.19155" lon="7.32468">
        <ele>239</ele>
        <time>2019-04-13T14:15:56Z</time>
      </trkpt>
      <trkpt lat="48.19155" lon="7.32469">
        <ele>239</ele>
        <time>2019-04-13T14:16:56Z</time>
      </trkpt>
      <trkpt lat="48.19155" lon="7.3247">
        <ele>239</ele>
        <time>2019-04-13T14:17:56Z</time>
      </trkpt>
      <trkpt lat="48.19155" lon="7.32471">
        <ele>239</ele>
        <time>2019-04-13T14:18:56Z</time>
      </trkpt>
      <trkpt lat="48.19155" lon="7.32472">
        <ele>239</ele>
        <time>2019-04-13T14:19:56Z</time>
      </trkpt>
      <trkpt lat="48.19155" lon="7.32473">
        <ele>239</ele>
        <time>2019-04-13T14:20:56Z</time>
      </trkpt>
      <trkpt lat="48.19155" lon="7.32474">
        <ele>239</ele>
        <time>2019-04-13T14:21:56Z</time>
      </trkpt>
      <trkpt lat="48.19156" lon="7.32475">
        <ele>239</ele>
        <time>2019-04-13T14:22:56Z</time>
      </trkpt>
      <trkpt lat="48.19156" lon="7.32476">
        <ele>239</ele>
        <time>2019-04-13T14:23:56Z</time>
      </trkpt>
      <trkpt lat="48.19157" lon="7.32477">
        <ele>239</ele>
        <time>2019-04-13T14:24:56Z</time>
      </trkpt>
      <trkpt lat="48.19157" lon="7.32478">
        <ele>238</ele>
        <time>2019-04-13T14:25:56Z</time>
      </trkpt>
      <trkpt lat="48.19158" lon="7.32478">
        <ele>238</ele>
        <time>2019-04-13T14:26:56Z</time>
      </trkpt>
      <trkpt lat="48.19158" lon="7.32479">
        <ele>238</ele>
        <time>2019-04-13T14:27:56Z</time>
      </trkpt>
      <trkpt lat="48.19159" lon="7.32479">
        <ele>238</ele>
        <time>2019-04-13T14:28:56Z</time>
      </trkpt>
      <trkpt lat="48.1916" lon="7.32479">
        <ele>238</ele>
        <time>2019-04-13T14:29:56Z</time>
      </trkpt>
      <trkpt lat="48.1916" lon="7.3248">
        <ele>238</ele>
        <time>2019-04-13T14:30:56Z</time>
      </trkpt>
      <trkpt lat="48.19161" lon="7.3248">
        <ele>238</ele>
        <time>2019-04-13T14:31:56Z</time>
      </trkpt>
      <trkpt lat="48.19162" lon="7.3248">
        <ele>238</ele>
        <time>2019-04-13T14:32:56Z</time>
      </trkpt>
      <trkpt lat="48.19162" lon="7.32479">
        <ele>238</ele>
        <time>2019-04-13T14:33:56Z</time>
      </trkpt>
      <trkpt lat="48.19163" lon="7.32479">
        <ele>238</ele>
        <time>2019-04-13T14:34:56Z</time>
      </trkpt>
      <trkpt lat="48.19164" lon="7.32479">
        <ele>238</ele>
        <time>2019-04-13T14:35:56Z</time>
      </trkpt>
      <trkpt lat="48.19164" lon="7.32478">
        <ele>238</ele>
        <time>2019-04-13T14:36:56Z</time>
      </trkpt>
      <trkpt lat="48.19169" lon="7.32477">
        <ele>238</ele>
        <time>2019-04-13T14:37:56Z</time>
      </trkpt>
      <trkpt lat="48.19174" lon="7.32476">
        <ele>238</ele>
        <time>2019-04-13T14:38:56Z</time>
      </trkpt>
      <trkpt lat="48.19183" lon="7.32474">
        <ele>238</ele>
        <time>2019-04-13T14:39:56Z</time>
      </trkpt>
      <trkpt lat="48.19195" lon="7.32471">
        <ele>238</ele>
        <time>2019-04-13T14:40:56Z</time>
      </trkpt>
      <trkpt lat="48.19203" lon="7.32471">
        <ele>238</ele>
        <time>2019-04-13T14:41:56Z</time>
      </trkpt>
      <trkpt lat="48.19211" lon="7.3247">
        <ele>238</ele>
        <time>2019-04-13T14:42:56Z</time>
      </trkpt>
      <trkpt lat="48.19218" lon="7.3247">
        <ele>239</ele>
        <time>2019-04-13T14:43:56Z</time>
      </trkpt>
      <trkpt lat="48.19222" lon="7.32471">
        <ele>238</ele>
        <time>2019-04-13T14:44:56Z</time>
      </trkpt>
      <trkpt lat="48.19228" lon="7.32475">
        <ele>238</ele>
        <time>2019-04-13T14:45:56Z</time>
      </trkpt>
      <trkpt lat="48.19233" lon="7.32482">
        <ele>238</ele>
        <time>2019-04-13T14:46:56Z</time>
      </trkpt>
      <trkpt lat="48.19235" lon="7.32485">
        <ele>238</ele>
        <time>2019-04-13T14:47:56Z</time>
      </trkpt>
      <trkpt lat="48.19235" lon="7.32485">
        <ele>238</ele>
        <time>2019-04-13T14:48:56Z</time>
      </trkpt>
      <trkpt lat="48.19235" lon="7.32487">
        <ele>238</ele>
        <time>2019-04-13T14:49:56Z</time>
      </trkpt>
      <trkpt lat="48.19235" lon="7.32488">
        <ele>238</ele>
        <time>2019-04-13T14:50:56Z</time>
      </trkpt>
      <trkpt lat="48.19235" lon="7.32489">
        <ele>238</ele>
        <time>2019-04-13T14:51:56Z</time>
      </trkpt>
      <trkpt lat="48.19235" lon="7.3249">
        <ele>238</ele>
        <time>2019-04-13T14:52:56Z</time>
      </trkpt>
      <trkpt lat="48.19235" lon="7.32491">
        <ele>238</ele>
        <time>2019-04-13T14:53:56Z</time>
      </trkpt>
      <trkpt lat="48.19235" lon="7.32492">
        <ele>238</ele>
        <time>2019-04-13T14:54:56Z</time>
      </trkpt>
      <trkpt lat="48.19236" lon="7.32493">
        <ele>238</ele>
        <time>2019-04-13T14:55:56Z</time>
      </trkpt>
      <trkpt lat="48.19236" lon="7.32494">
        <ele>238</ele>
        <time>2019-04-13T14:56:56Z</time>
      </trkpt>
      <trkpt lat="48.19236" lon="7.32495">
        <ele>238</ele>
        <time>2019-04-13T14:57:56Z</time>
      </trkpt>
      <trkpt lat="48.19236" lon="7.32496">
        <ele>238</ele>
        <time>2019-04-13T14:58:56Z</time>
      </trkpt>
      <trkpt lat="48.19237" lon="7.32496">
        <ele>238</ele>
        <time>2019-04-13T14:59:56Z</time>
      </trkpt>
      <trkpt lat="48.19237" lon="7.32497">
        <ele>238</ele>
        <time>2019-04-13T15:00:56Z</time>
      </trkpt>
      <trkpt lat="48.19237" lon="7.32498">
        <ele>238</ele>
        <time>2019-04-13T15:01:56Z</time>
      </trkpt>
      <trkpt lat="48.19238" lon="7.32499">
        <ele>238</ele>
        <time>2019-04-13T15:02:56Z</time>
      </trkpt>
      <trkpt lat="48.1924" lon="7.32513">
        <ele>238</ele>
        <time>2019-04-13T15:03:56Z</time>
      </trkpt>
      <trkpt lat="48.19241" lon="7.32517">
        <ele>238</ele>
        <time>2019-04-13T15:04:56Z</time>
      </trkpt>
      <trkpt lat="48.19241" lon="7.32522">
        <ele>238</ele>
        <time>2019-04-13T15:05:56Z</time>
      </trkpt>
      <trkpt lat="48.19241" lon="7.32525">
        <ele>237</ele>
        <time>2019-04-13T15:06:56Z</time>
      </trkpt>
      <trkpt lat="48.1924" lon="7.32532">
        <ele>237</ele>
        <time>2019-04-13T15:07:56Z</time>
      </trkpt>
      <trkpt lat="48.19238" lon="7.32538">
        <ele>237</ele>
        <time>2019-04-13T15:08:56Z</time>
      </trkpt>
      <trkpt lat="48.19234" lon="7.32548">
        <ele>237</ele>
        <time>2019-04-13T15:09:56Z</time>
      </trkpt>
      <trkpt lat="48.1923" lon="7.32557">
        <ele>237</ele>
        <time>2019-04-13T15:10:56Z</time>
      </trkpt>
      <trkpt lat="48.19223" lon="7.32569">
        <ele>237</ele>
        <time>2019-04-13T15:11:56Z</time>
      </trkpt>
      <trkpt lat="48.19219" lon="7.32579">
        <ele>236</ele>
        <time>2019-04-13T15:12:56Z</time>
      </trkpt>
      <trkpt lat="48.19218" lon="7.3258">
        <ele>236</ele>
        <time>2019-04-13T15:13:56Z</time>
      </trkpt>
      <trkpt lat="48.19217" lon="7.3258">
        <ele>236</ele>
        <time>2019-04-13T15:14:56Z</time>
      </trkpt>
      <trkpt lat="48.19217" lon="7.32581">
        <ele>236</ele>
        <time>2019-04-13T15:15:56Z</time>
      </trkpt>
      <trkpt lat="48.19216" lon="7.32581">
        <ele>236</ele>
        <time>2019-04-13T15:16:56Z</time>
      </trkpt>
      <trkpt lat="48.19215" lon="7.32582">
        <ele>236</ele>
        <time>2019-04-13T15:17:56Z</time>
      </trkpt>
      <trkpt lat="48.19215" lon="7.32583">
        <ele>236</ele>
        <time>2019-04-13T15:18:56Z</time>
      </trkpt>
      <trkpt lat="48.19214" lon="7.32583">
        <ele>236</ele>
        <time>2019-04-13T15:19:56Z</time>
      </trkpt>
      <trkpt lat="48.19214" lon="7.32584">
        <ele>236</ele>
        <time>2019-04-13T15:20:56Z</time>
      </trkpt>
      <trkpt lat="48.19213" lon="7.32584">
        <ele>236</ele>
        <time>2019-04-13T15:21:56Z</time>
      </trkpt>
      <trkpt lat="48.19213" lon="7.32585">
        <ele>236</ele>
        <time>2019-04-13T15:22:56Z</time>
      </trkpt>
      <trkpt lat="48.19212" lon="7.32586">
        <ele>236</ele>
        <time>2019-04-13T15:23:56Z</time>
      </trkpt>
      <trkpt lat="48.19212" lon="7.32587">
        <ele>236</ele>
        <time>2019-04-13T15:24:56Z</time>
      </trkpt>
      <trkpt lat="48.19211" lon="7.32588">
        <ele>236</ele>
        <time>2019-04-13T15:25:56Z</time>
      </trkpt>
      <trkpt lat="48.19211" lon="7.32589">
        <ele>236</ele>
        <time>2019-04-13T15:26:56Z</time>
      </trkpt>
      <trkpt lat="48.19211" lon="7.3259">
        <ele>236</ele>
        <time>2019-04-13T15:27:56Z</time>
      </trkpt>
      <trkpt lat="48.19211" lon="7.32591">
        <ele>236</ele>
        <time>2019-04-13T15:28:56Z</time>
      </trkpt>
      <trkpt lat="48.1921" lon="7.32592">
        <ele>236</ele>
        <time>2019-04-13T15:29:56Z</time>
      </trkpt>
      <trkpt lat="48.1921" lon="7.32593">
        <ele>236</ele>
        <time>2019-04-13T15:30:56Z</time>
      </trkpt>
      <trkpt lat="48.1921" lon="7.32594">
        <ele>236</ele>
        <time>2019-04-13T15:31:56Z</time>
      </trkpt>
      <trkpt lat="48.1921" lon="7.32595">
        <ele>236</ele>
        <time>2019-04-13T15:32:56Z</time>
      </trkpt>
      <trkpt lat="48.1921" lon="7.32596">
        <ele>236</ele>
        <time>2019-04-13T15:33:56Z</time>
      </trkpt>
      <trkpt lat="48.1921" lon="7.32597">
        <ele>236</ele>
        <time>2019-04-13T15:34:56Z</time>
      </trkpt>
      <trkpt lat="48.1921" lon="7.32598">
        <ele>236</ele>
        <time>2019-04-13T15:35:56Z</time>
      </trkpt>
      <trkpt lat="48.1921" lon="7.32599">
        <ele>236</ele>
        <time>2019-04-13T15:36:56Z</time>
      </trkpt>
      <trkpt lat="48.1921" lon="7.326">
        <ele>236</ele>
        <time>2019-04-13T15:37:56Z</time>
      </trkpt>
      <trkpt lat="48.1921" lon="7.32601">
        <ele>236</ele>
        <time>2019-04-13T15:38:56Z</time>
      </trkpt>
      <trkpt lat="48.19211" lon="7.32602">
        <ele>236</ele>
        <time>2019-04-13T15:39:56Z</time>
      </trkpt>
      <trkpt lat="48.19211" lon="7.32603">
        <ele>236</ele>
        <time>2019-04-13T15:40:56Z</time>
      </trkpt>
      <trkpt lat="48.19211" lon="7.32604">
        <ele>236</ele>
        <time>2019-04-13T15:41:56Z</time>
      </trkpt>
      <trkpt lat="48.19211" lon="7.32605">
        <ele>236</ele>
        <time>2019-04-13T15:42:56Z</time>
      </trkpt>
      <trkpt lat="48.19212" lon="7.32605">
        <ele>236</ele>
        <time>2019-04-13T15:43:56Z</time>
      </trkpt>
      <trkpt lat="48.19212" lon="7.32606">
        <ele>236</ele>
        <time>2019-04-13T15:44:56Z</time>
      </trkpt>
      <trkpt lat="48.19212" lon="7.32607">
        <ele>236</ele>
        <time>2019-04-13T15:45:56Z</time>
      </trkpt>
      <trkpt lat="48.19213" lon="7.32608">
        <ele>236</ele>
        <time>2019-04-13T15:46:56Z</time>
      </trkpt>
      <trkpt lat="48.19214" lon="7.32609">
        <ele>236</ele>
        <time>2019-04-13T15:47:56Z</time>
      </trkpt>
      <trkpt lat="48.19214" lon="7.3261">
        <ele>236</ele>
        <time>2019-04-13T15:48:56Z</time>
      </trkpt>
      <trkpt lat="48.19215" lon="7.3261">
        <ele>236</ele>
        <time>2019-04-13T15:49:56Z</time>
      </trkpt>
      <trkpt lat="48.19215" lon="7.32611">
        <ele>236</ele>
        <time>2019-04-13T15:50:56Z</time>
      </trkpt>
      <trkpt lat="48.19216" lon="7.32611">
        <ele>237</ele>
        <time>2019-04-13T15:51:56Z</time>
      </trkpt>
      <trkpt lat="48.19216" lon="7.32612">
        <ele>237</ele>
        <time>2019-04-13T15:52:56Z</time>
      </trkpt>
      <trkpt lat="48.19217" lon="7.32612">
        <ele>237</ele>
        <time>2019-04-13T15:53:56Z</time>
      </trkpt>
      <trkpt lat="48.19218" lon="7.32612">
        <ele>237</ele>
        <time>2019-04-13T15:54:56Z</time>
      </trkpt>
      <trkpt lat="48.19218" lon="7.32613">
        <ele>237</ele>
        <time>2019-04-13T15:55:56Z</time>
      </trkpt>
      <trkpt lat="48.19219" lon="7.32613">
        <ele>237</ele>
        <time>2019-04-13T15:56:56Z</time>
      </trkpt>
      <trkpt lat="48.1922" lon="7.32613">
        <ele>237</ele>
        <time>2019-04-13T15:57:56Z</time>
      </trkpt>
      <trkpt lat="48.19221" lon="7.32613">
        <ele>237</ele>
        <time>2019-04-13T15:58:56Z</time>
      </trkpt>
      <trkpt lat="48.19223" lon="7.3263">
        <ele>237</ele>
        <time>2019-04-13T15:59:56Z</time>
      </trkpt>
      <trkpt lat="48.19225" lon="7.3264">
        <ele>237</ele>
        <time>2019-04-13T16:00:56Z</time>
      </trkpt>
      <trkpt lat="48.19225" lon="7.3264">
        <ele>237</ele>
        <time>2019-04-13T16:01:56Z</time>
      </trkpt>
      <trkpt lat="48.19226" lon="7.32643">
        <ele>237</ele>
        <time>2019-04-13T16:02:56Z</time>
      </trkpt>
      <trkpt lat="48.19228" lon="7.32662">
        <ele>237</ele>
        <time>2019-04-13T16:03:56Z</time>
      </trkpt>
      <trkpt lat="48.1923" lon="7.32755">
        <ele>235</ele>
        <time>2019-04-13T16:04:56Z</time>
      </trkpt>
      <trkpt lat="48.19231" lon="7.32783">
        <ele>234</ele>
        <time>2019-04-13T16:05:56Z</time>
      </trkpt>
      <trkpt lat="48.19234" lon="7.32822">
        <ele>233</ele>
        <time>2019-04-13T16:06:56Z</time>
      </trkpt>
      <trkpt lat="48.19235" lon="7.32858">
        <ele>232</ele>
        <time>2019-04-13T16:07:56Z</time>
      </trkpt>
      <trkpt lat="48.19236" lon="7.32871">
        <ele>232</ele>
        <time>2019-04-13T16:08:56Z</time>
      </trkpt>
      <trkpt lat="48.19239" lon="7.32935">
        <ele>231</ele>
        <time>2019-04-13T16:09:56Z</time>
      </trkpt>
      <trkpt lat="48.19239" lon="7.32939">
        <ele>231</ele>
        <time>2019-04-13T16:10:56Z</time>
      </trkpt>
      <trkpt lat="48.1924" lon="7.32961">
        <ele>230</ele>
        <time>2019-04-13T16:11:56Z</time>
      </trkpt>
      <trkpt lat="48.19242" lon="7.32974">
        <ele>230</ele>
        <time>2019-04-13T16:12:56Z</time>
      </trkpt>
      <trkpt lat="48.19241" lon="7.3298">
        <ele>230</ele>
        <time>2019-04-13T16:13:56Z</time>
      </trkpt>
      <trkpt lat="48.19242" lon="7.33003">
        <ele>230</ele>
        <time>2019-04-13T16:14:56Z</time>
      </trkpt>
      <trkpt lat="48.19242" lon="7.33003">
        <ele>230</ele>
        <time>2019-04-13T16:15:56Z</time>
      </trkpt>
      <trkpt lat="48.19246" lon="7.33">
        <ele>230</ele>
        <time>2019-04-13T16:16:56Z</time>
      </trkpt>
      <trkpt lat="48.19267" lon="7.32994">
        <ele>230</ele>
        <time>2019-04-13T16:17:56Z</time>
      </trkpt>
      <trkpt lat="48.19267" lon="7.32994">
        <ele>230</ele>
        <time>2019-04-13T16:18:56Z</time>
      </trkpt>
      <trkpt lat="48.19274" lon="7.33034">
        <ele>230</ele>
        <time>2019-04-13T16:19:56Z</time>
      </trkpt>
      <trkpt lat="48.19285" lon="7.33086">
        <ele>229</ele>
        <time>2019-04-13T16:20:56Z</time>
      </trkpt>
      <trkpt lat="48.19296" lon="7.33125">
        <ele>228</ele>
        <time>2019-04-13T16:21:56Z</time>
      </trkpt>
      <trkpt lat="48.19299" lon="7.3314">
        <ele>228</ele>
        <time>2019-04-13T16:22:56Z</time>
      </trkpt>
      <trkpt lat="48.19309" lon="7.33177">
        <ele>228</ele>
        <time>2019-04-13T16:23:56Z</time>
      </trkpt>
      <trkpt lat="48.19317" lon="7.33196">
        <ele>228</ele>
        <time>2019-04-13T16:24:56Z</time>
      </trkpt>
      <trkpt lat="48.19319" lon="7.33198">
        <ele>228</ele>
        <time>2019-04-13T16:25:56Z</time>
      </trkpt>
      <trkpt lat="48.19324" lon="7.33205">
        <ele>228</ele>
        <time>2019-04-13T16:26:56Z</time>
      </trkpt>
      <trkpt lat="48.19331" lon="7.33211">
        <ele>228</ele>
        <time>2019-04-13T16:27:56Z</time>
      </trkpt>
      <trkpt lat="48.19344" lon="7.33221">
        <ele>228</ele>
        <time>2019-04-13T16:28:56Z</time>
      </trkpt>
      <trkpt lat="48.19356" lon="7.33229">
        <ele>228</ele>
        <time>2019-04-13T16:29:56Z</time>
      </trkpt>
      <trkpt lat="48.19369" lon="7.33244">
        <ele>228</ele>
        <time>2019-04-13T16:30:56Z</time>
      </trkpt>
      <trkpt lat="48.19384" lon="7.33263">
        <ele>228</ele>
        <time>2019-04-13T16:31:56Z</time>
      </trkpt>
      <trkpt lat="48.19402" lon="7.33284">
        <ele>227</ele>
        <time>2019-04-13T16:32:56Z</time>
      </trkpt>
      <trkpt lat="48.19432" lon="7.33325">
        <ele>225</ele>
        <time>2019-04-13T16:33:56Z</time>
      </trkpt>
      <trkpt lat="48.19448" lon="7.33354">
        <ele>225</ele>
        <time>2019-04-13T16:34:56Z</time>
      </trkpt>
      <trkpt lat="48.19464" lon="7.33381">
        <ele>225</ele>
        <time>2019-04-13T16:35:56Z</time>
      </trkpt>
      <trkpt lat="48.19475" lon="7.33398">
        <ele>225</ele>
        <time>2019-04-13T16:36:56Z</time>
      </trkpt>
      <trkpt lat="48.19494" lon="7.3343">
        <ele>225</ele>
        <time>2019-04-13T16:37:56Z</time>
      </trkpt>
      <trkpt lat="48.19501" lon="7.33442">
        <ele>224</ele>
        <time>2019-04-13T16:38:56Z</time>
      </trkpt>
      <trkpt lat="48.19506" lon="7.33456">
        <ele>224</ele>
        <time>2019-04-13T16:39:56Z</time>
      </trkpt>
      <trkpt lat="48.19508" lon="7.33471">
        <ele>223</ele>
        <time>2019-04-13T16:40:56Z</time>
      </trkpt>
      <trkpt lat="48.19509" lon="7.33488">
        <ele>223</ele>
        <time>2019-04-13T16:41:56Z</time>
      </trkpt>
      <trkpt lat="48.1951" lon="7.33496">
        <ele>222</ele>
        <time>2019-04-13T16:42:56Z</time>
      </trkpt>
      <trkpt lat="48.1951" lon="7.3351">
        <ele>222</ele>
        <time>2019-04-13T16:43:56Z</time>
      </trkpt>
      <trkpt lat="48.19508" lon="7.33533">
        <ele>221</ele>
        <time>2019-04-13T16:44:56Z</time>
      </trkpt>
      <trkpt lat="48.19498" lon="7.33606">
        <ele>220</ele>
        <time>2019-04-13T16:45:56Z</time>
      </trkpt>
      <trkpt lat="48.19495" lon="7.33647">
        <ele>219</ele>
        <time>2019-04-13T16:46:56Z</time>
      </trkpt>
      <trkpt lat="48.19484" lon="7.33763">
        <ele>218</ele>
        <time>2019-04-13T16:47:56Z</time>
      </trkpt>
      <trkpt lat="48.19478" lon="7.33821">
        <ele>218</ele>
        <time>2019-04-13T16:48:56Z</time>
      </trkpt>
      <trkpt lat="48.19475" lon="7.33846">
        <ele>217</ele>
        <time>2019-04-13T16:49:56Z</time>
      </trkpt>
      <trkpt lat="48.19469" lon="7.33878">
        <ele>217</ele>
        <time>2019-04-13T16:50:56Z</time>
      </trkpt>
      <trkpt lat="48.19458" lon="7.3394">
        <ele>216</ele>
        <time>2019-04-13T16:51:56Z</time>
      </trkpt>
      <trkpt lat="48.19449" lon="7.33997">
        <ele>215</ele>
        <time>2019-04-13T16:52:56Z</time>
      </trkpt>
      <trkpt lat="48.19446" lon="7.34016">
        <ele>215</ele>
        <time>2019-04-13T16:53:56Z</time>
      </trkpt>
      <trkpt lat="48.19446" lon="7.34027">
        <ele>215</ele>
        <time>2019-04-13T16:54:56Z</time>
      </trkpt>
      <trkpt lat="48.19445" lon="7.34039">
        <ele>215</ele>
        <time>2019-04-13T16:55:56Z</time>
      </trkpt>
      <trkpt lat="48.19446" lon="7.34049">
        <ele>215</ele>
        <time>2019-04-13T16:56:56Z</time>
      </trkpt>
      <trkpt lat="48.19447" lon="7.34066">
        <ele>215</ele>
        <time>2019-04-13T16:57:56Z</time>
      </trkpt>
      <trkpt lat="48.19452" lon="7.34095">
        <ele>215</ele>
        <time>2019-04-13T16:58:56Z</time>
      </trkpt>
      <trkpt lat="48.19456" lon="7.34116">
        <ele>215</ele>
        <time>2019-04-13T16:59:56Z</time>
      </trkpt>
      <trkpt lat="48.19456" lon="7.34116">
        <ele>215</ele>
        <time>2019-04-13T17:00:56Z</time>
      </trkpt>
      <trkpt lat="48.1946" lon="7.34138">
        <ele>215</ele>
        <time>2019-04-13T17:01:56Z</time>
      </trkpt>
      <trkpt lat="48.19466" lon="7.34171">
        <ele>214</ele>
        <time>2019-04-13T17:02:56Z</time>
      </trkpt>
      <trkpt lat="48.19474" lon="7.34199">
        <ele>214</ele>
        <time>2019-04-13T17:03:56Z</time>
      </trkpt>
      <trkpt lat="48.1948" lon="7.34214">
        <ele>213</ele>
        <time>2019-04-13T17:04:56Z</time>
      </trkpt>
      <trkpt lat="48.19486" lon="7.34227">
        <ele>213</ele>
        <time>2019-04-13T17:05:56Z</time>
      </trkpt>
      <trkpt lat="48.19503" lon="7.34259">
        <ele>213</ele>
        <time>2019-04-13T17:06:56Z</time>
      </trkpt>
      <trkpt lat="48.19522" lon="7.34293">
        <ele>214</ele>
        <time>2019-04-13T17:07:56Z</time>
      </trkpt>
      <trkpt lat="48.1954" lon="7.34326">
        <ele>214</ele>
        <time>2019-04-13T17:08:56Z</time>
      </trkpt>
      <trkpt lat="48.19545" lon="7.34343">
        <ele>215</ele>
        <time>2019-04-13T17:09:56Z</time>
      </trkpt>
      <trkpt lat="48.1955" lon="7.34371">
        <ele>215</ele>
        <time>2019-04-13T17:10:56Z</time>
      </trkpt>
      <trkpt lat="48.19554" lon="7.34391">
        <ele>215</ele>
        <time>2019-04-13T17:11:56Z</time>
      </trkpt>
      <trkpt lat="48.19555" lon="7.34399">
        <ele>215</ele>
        <time>2019-04-13T17:12:56Z</time>
      </trkpt>
      <trkpt lat="48.19555" lon="7.34411">
        <ele>215</ele>
        <time>2019-04-13T17:13:56Z</time>
      </trkpt>
      <trkpt lat="48.19555" lon="7.34418">
        <ele>215</ele>
        <time>2019-04-13T17:14:56Z</time>
      </trkpt>
      <trkpt lat="48.19554" lon="7.34427">
        <ele>215</ele>
        <time>2019-04-13T17:15:56Z</time>
      </trkpt>
      <trkpt lat="48.19554" lon="7.34438">
        <ele>215</ele>
        <time>2019-04-13T17:16:56Z</time>
      </trkpt>
      <trkpt lat="48.19552" lon="7.34465">
        <ele>215</ele>
        <time>2019-04-13T17:17:56Z</time>
      </trkpt>
      <trkpt lat="48.1955" lon="7.34503">
        <ele>215</ele>
        <time>2019-04-13T17:18:56Z</time>
      </trkpt>
      <trkpt lat="48.19547" lon="7.34541">
        <ele>214</ele>
        <time>2019-04-13T17:19:56Z</time>
      </trkpt>
      <trkpt lat="48.19545" lon="7.34567">
        <ele>214</ele>
        <time>2019-04-13T17:20:56Z</time>
      </trkpt>
      <trkpt lat="48.19543" lon="7.34595">
        <ele>213</ele>
        <time>2019-04-13T17:21:56Z</time>
      </trkpt>
      <trkpt lat="48.1954" lon="7.3464">
        <ele>212</ele>
        <time>2019-04-13T17:22:56Z</time>
      </trkpt>
      <trkpt lat="48.19535" lon="7.3468">
        <ele>211</ele>
        <time>2019-04-13T17:23:56Z</time>
      </trkpt>
      <trkpt lat="48.19532" lon="7.34699">
        <ele>211</ele>
        <time>2019-04-13T17:24:56Z</time>
      </trkpt>
      <trkpt lat="48.19527" lon="7.34727">
        <ele>210</ele>
        <time>2019-04-13T17:25:56Z</time>
      </trkpt>
      <trkpt lat="48.19518" lon="7.34768">
        <ele>209</ele>
        <time>2019-04-13T17:26:56Z</time>
      </trkpt>
      <trkpt lat="48.19512" lon="7.34791">
        <ele>208</ele>
        <time>2019-04-13T17:27:56Z</time>
      </trkpt>
      <trkpt lat="48.19511" lon="7.34798">
        <ele>208</ele>
        <time>2019-04-13T17:28:56Z</time>
      </trkpt>
      <trkpt lat="48.19496" lon="7.34852">
        <ele>207</ele>
        <time>2019-04-13T17:29:56Z</time>
      </trkpt>
      <trkpt lat="48.19477" lon="7.34929">
        <ele>205</ele>
        <time>2019-04-13T17:30:56Z</time>
      </trkpt>
      <trkpt lat="48.19456" lon="7.35018">
        <ele>204</ele>
        <time>2019-04-13T17:31:56Z</time>
      </trkpt>
      <trkpt lat="48.19446" lon="7.35057">
        <ele>203</ele>
        <time>2019-04-13T17:32:56Z</time>
      </trkpt>
      <trkpt lat="48.19444" lon="7.35068">
        <ele>203</ele>
        <time>2019-04-13T17:33:56Z</time>
      </trkpt>
      <trkpt lat="48.19444" lon="7.35068">
        <ele>203</ele>
        <time>2019-04-13T17:34:56Z</time>
      </trkpt>
      <trkpt lat="48.19433" lon="7.35111">
        <ele>202</ele>
        <time>2019-04-13T17:35:56Z</time>
      </trkpt>
      <trkpt lat="48.19419" lon="7.35167">
        <ele>200</ele>
        <time>2019-04-13T17:36:56Z</time>
      </trkpt>
      <trkpt lat="48.19409" lon="7.35214">
        <ele>199</ele>
        <time>2019-04-13T17:37:56Z</time>
      </trkpt>
      <trkpt lat="48.19405" lon="7.3523">
        <ele>199</ele>
        <time>2019-04-13T17:38:56Z</time>
      </trkpt>
      <trkpt lat="48.19399" lon="7.35261">
        <ele>199</ele>
        <time>2019-04-13T17:39:56Z</time>
      </trkpt>
      <trkpt lat="48.19383" lon="7.35362">
        <ele>198</ele>
        <time>2019-04-13T17:40:56Z</time>
      </trkpt>
      <trkpt lat="48.19369" lon="7.35448">
        <ele>197</ele>
        <time>2019-04-13T17:41:56Z</time>
      </trkpt>
      <trkpt lat="48.19363" lon="7.35477">
        <ele>197</ele>
        <time>2019-04-13T17:42:56Z</time>
      </trkpt>
      <trkpt lat="48.19353" lon="7.35525">
        <ele>196</ele>
        <time>2019-04-13T17:43:56Z</time>
      </trkpt>
      <trkpt lat="48.19338" lon="7.35587">
        <ele>195</ele>
        <time>2019-04-13T17:44:56Z</time>
      </trkpt>
      <trkpt lat="48.19328" lon="7.35624">
        <ele>195</ele>
        <time>2019-04-13T17:45:56Z</time>
      </trkpt>
      <trkpt lat="48.19327" lon="7.35634">
        <ele>194</ele>
        <time>2019-04-13T17:46:56Z</time>
      </trkpt>
      <trkpt lat="48.19326" lon="7.35641">
        <ele>194</ele>
        <time>2019-04-13T17:47:56Z</time>
      </trkpt>
      <trkpt lat="48.19326" lon="7.35654">
        <ele>194</ele>
        <time>2019-04-13T17:48:56Z</time>
      </trkpt>
      <trkpt lat="48.19327" lon="7.35665">
        <ele>194</ele>
        <time>2019-04-13T17:49:56Z</time>
      </trkpt>
      <trkpt lat="48.19329" lon="7.35712">
        <ele>194</ele>
        <time>2019-04-13T17:50:56Z</time>
      </trkpt>
      <trkpt lat="48.19333" lon="7.358">
        <ele>194</ele>
        <time>2019-04-13T17:51:56Z</time>
      </trkpt>
      <trkpt lat="48.19335" lon="7.35858">
        <ele>194</ele>
        <time>2019-04-13T17:52:56Z</time>
      </trkpt>
      <trkpt lat="48.19336" lon="7.3587">
        <ele>194</ele>
        <time>2019-04-13T17:53:56Z</time>
      </trkpt>
      <trkpt lat="48.19336" lon="7.35901">
        <ele>193</ele>
        <time>2019-04-13T17:54:56Z</time>
      </trkpt>
      <trkpt lat="48.19336" lon="7.35932">
        <ele>193</ele>
        <time>2019-04-13T17:55:56Z</time>
      </trkpt>
      <trkpt lat="48.19335" lon="7.35942">
        <ele>193</ele>
        <time>2019-04-13T17:56:56Z</time>
      </trkpt>
      <trkpt lat="48.19335" lon="7.35952">
        <ele>193</ele>
        <time>2019-04-13T17:57:56Z</time>
      </trkpt>
      <trkpt lat="48.19334" lon="7.35991">
        <ele>193</ele>
        <time>2019-04-13T17:58:56Z</time>
      </trkpt>
      <trkpt lat="48.19331" lon="7.36102">
        <ele>193</ele>
        <time>2019-04-13T17:59:56Z</time>
      </trkpt>
      <trkpt lat="48.1933" lon="7.36126">
        <ele>193</ele>
        <time>2019-04-13T18:00:56Z</time>
      </trkpt>
      <trkpt lat="48.1933" lon="7.3614">
        <ele>194</ele>
        <time>2019-04-13T18:01:56Z</time>
      </trkpt>
      <trkpt lat="48.19331" lon="7.3615">
        <ele>194</ele>
        <time>2019-04-13T18:02:56Z</time>
      </trkpt>
      <trkpt lat="48.19335" lon="7.36166">
        <ele>194</ele>
        <time>2019-04-13T18:03:56Z</time>
      </trkpt>
      <trkpt lat="48.1934" lon="7.36187">
        <ele>193</ele>
        <time>2019-04-13T18:04:56Z</time>
      </trkpt>
      <trkpt lat="48.19345" lon="7.36205">
        <ele>192</ele>
        <time>2019-04-13T18:05:56Z</time>
      </trkpt>
      <trkpt lat="48.19353" lon="7.36222">
        <ele>192</ele>
        <time>2019-04-13T18:06:56Z</time>
      </trkpt>
      <trkpt lat="48.19359" lon="7.36234">
        <ele>191</ele>
        <time>2019-04-13T18:07:56Z</time>
      </trkpt>
      <trkpt lat="48.19362" lon="7.36239">
        <ele>191</ele>
        <time>2019-04-13T18:08:56Z</time>
      </trkpt>
      <trkpt lat="48.19368" lon="7.36243">
        <ele>191</ele>
        <time>2019-04-13T18:09:56Z</time>
      </trkpt>
      <trkpt lat="48.19392" lon="7.36258">
        <ele>190</ele>
        <time>2019-04-13T18:10:56Z</time>
      </trkpt>
      <trkpt lat="48.19429" lon="7.36276">
        <ele>190</ele>
        <time>2019-04-13T18:11:56Z</time>
      </trkpt>
      <trkpt lat="48.19444" lon="7.36283">
        <ele>190</ele>
        <time>2019-04-13T18:12:56Z</time>
      </trkpt>
      <trkpt lat="48.19449" lon="7.36288">
        <ele>190</ele>
        <time>2019-04-13T18:13:56Z</time>
      </trkpt>
      <trkpt lat="48.19451" lon="7.36292">
        <ele>190</ele>
        <time>2019-04-13T18:14:56Z</time>
      </trkpt>
      <trkpt lat="48.19453" lon="7.36296">
        <ele>190</ele>
        <time>2019-04-13T18:15:56Z</time>
      </trkpt>
      <trkpt lat="48.19453" lon="7.363">
        <ele>190</ele>
        <time>2019-04-13T18:16:56Z</time>
      </trkpt>
      <trkpt lat="48.19452" lon="7.36309">
        <ele>190</ele>
        <time>2019-04-13T18:17:56Z</time>
      </trkpt>
      <trkpt lat="48.19446" lon="7.3635">
        <ele>190</ele>
        <time>2019-04-13T18:18:56Z</time>
      </trkpt>
      <trkpt lat="48.19439" lon="7.36399">
        <ele>188</ele>
        <time>2019-04-13T18:19:56Z</time>
      </trkpt>
      <trkpt lat="48.19439" lon="7.36399">
        <ele>188</ele>
        <time>2019-04-13T18:20:56Z</time>
      </trkpt>
      <trkpt lat="48.19521" lon="7.36434">
        <ele>189</ele>
        <time>2019-04-13T18:21:56Z</time>
      </trkpt>
      <trkpt lat="48.1955" lon="7.36447">
        <ele>189</ele>
        <time>2019-04-13T18:22:56Z</time>
      </trkpt>
      <trkpt lat="48.19683" lon="7.36509">
        <ele>191</ele>
        <time>2019-04-13T18:23:56Z</time>
      </trkpt>
      <trkpt lat="48.19723" lon="7.36526">
        <ele>191</ele>
        <time>2019-04-13T18:24:56Z</time>
      </trkpt>
      <trkpt lat="48.19731" lon="7.36532">
        <ele>191</ele>
        <time>2019-04-13T18:25:56Z</time>
      </trkpt>
      <trkpt lat="48.1976" lon="7.36545">
        <ele>191</ele>
        <time>2019-04-13T18:26:56Z</time>
      </trkpt>
      <trkpt lat="48.19772" lon="7.36551">
        <ele>191</ele>
        <time>2019-04-13T18:27:56Z</time>
      </trkpt>
      <trkpt lat="48.19779" lon="7.36556">
        <ele>191</ele>
        <time>2019-04-13T18:28:56Z</time>
      </trkpt>
      <trkpt lat="48.19811" lon="7.36585">
        <ele>191</ele>
        <time>2019-04-13T18:29:56Z</time>
      </trkpt>
      <trkpt lat="48.19838" lon="7.36611">
        <ele>191</ele>
        <time>2019-04-13T18:30:56Z</time>
      </trkpt>
      <trkpt lat="48.19855" lon="7.3663">
        <ele>192</ele>
        <time>2019-04-13T18:31:56Z</time>
      </trkpt>
      <trkpt lat="48.19866" lon="7.36644">
        <ele>192</ele>
        <time>2019-04-13T18:32:56Z</time>
      </trkpt>
      <trkpt lat="48.19876" lon="7.36657">
        <ele>193</ele>
        <time>2019-04-13T18:33:56Z</time>
      </trkpt>
      <trkpt lat="48.19886" lon="7.36672">
        <ele>193</ele>
        <time>2019-04-13T18:34:56Z</time>
      </trkpt>
      <trkpt lat="48.19941" lon="7.36753">
        <ele>195</ele>
        <time>2019-04-13T18:35:56Z</time>
      </trkpt>
      <trkpt lat="48.19942" lon="7.36756">
        <ele>195</ele>
        <time>2019-04-13T18:36:56Z</time>
      </trkpt>
      <trkpt lat="48.19943" lon="7.36758">
        <ele>195</ele>
        <time>2019-04-13T18:37:56Z</time>
      </trkpt>
      <trkpt lat="48.19944" lon="7.36761">
        <ele>195</ele>
        <time>2019-04-13T18:38:56Z</time>
      </trkpt>
      <trkpt lat="48.19944" lon="7.36766">
        <ele>195</ele>
        <time>2019-04-13T18:39:56Z</time>
      </trkpt>
      <trkpt lat="48.19942" lon="7.3679">
        <ele>194</ele>
        <time>2019-04-13T18:40:56Z</time>
      </trkpt>
      <trkpt lat="48.19942" lon="7.36791">
        <ele>194</ele>
        <time>2019-04-13T18:41:56Z</time>
      </trkpt>
      <trkpt lat="48.19942" lon="7.36793">
        <ele>194</ele>
        <time>2019-04-13T18:42:56Z</time>
      </trkpt>
      <trkpt lat="48.19943" lon="7.36794">
        <ele>194</ele>
        <time>2019-04-13T18:43:56Z</time>
      </trkpt>
      <trkpt lat="48.19943" lon="7.36795">
        <ele>194</ele>
        <time>2019-04-13T18:44:56Z</time>
      </trkpt>
      <trkpt lat="48.19944" lon="7.36796">
        <ele>194</ele>
        <time>2019-04-13T18:45:56Z</time>
      </trkpt>
      <trkpt lat="48.19961" lon="7.3681">
        <ele>195</ele>
        <time>2019-04-13T18:46:56Z</time>
      </trkpt>
      <trkpt lat="48.19999" lon="7.36844">
        <ele>195</ele>
        <time>2019-04-13T18:47:56Z</time>
      </trkpt>
      <trkpt lat="48.2004" lon="7.36882">
        <ele>195</ele>
        <time>2019-04-13T18:48:56Z</time>
      </trkpt>
      <trkpt lat="48.2005" lon="7.3689">
        <ele>195</ele>
        <time>2019-04-13T18:49:56Z</time>
      </trkpt>
      <trkpt lat="48.20096" lon="7.36928">
        <ele>195</ele>
        <time>2019-04-13T18:50:56Z</time>
      </trkpt>
      <trkpt lat="48.20165" lon="7.36982">
        <ele>197</ele>
        <time>2019-04-13T18:51:56Z</time>
      </trkpt>
      <trkpt lat="48.20189" lon="7.36995">
        <ele>197</ele>
        <time>2019-04-13T18:52:56Z</time>
      </trkpt>
      <trkpt lat="48.20189" lon="7.36995">
        <ele>197</ele>
        <time>2019-04-13T18:53:56Z</time>
      </trkpt>
      <trkpt lat="48.2019" lon="7.3701">
        <ele>196</ele>
        <time>2019-04-13T18:54:56Z</time>
      </trkpt>
      <trkpt lat="48.20191" lon="7.37025">
        <ele>196</ele>
        <time>2019-04-13T18:55:56Z</time>
      </trkpt>
      <trkpt lat="48.20192" lon="7.37031">
        <ele>196</ele>
        <time>2019-04-13T18:56:56Z</time>
      </trkpt>
      <trkpt lat="48.20193" lon="7.37036">
        <ele>196</ele>
        <time>2019-04-13T18:57:56Z</time>
      </trkpt>
      <trkpt lat="48.20195" lon="7.37039">
        <ele>196</ele>
        <time>2019-04-13T18:58:56Z</time>
      </trkpt>
      <trkpt lat="48.20203" lon="7.37044">
        <ele>195</ele>
        <time>2019-04-13T18:59:56Z</time>
      </trkpt>
      <trkpt lat="48.20338" lon="7.37106">
        <ele>196</ele>
        <time>2019-04-13T19:00:56Z</time>
      </trkpt>
      <trkpt lat="48.2036" lon="7.37115">
        <ele>196</ele>
        <time>2019-04-13T19:01:56Z</time>
      </trkpt>
      <trkpt lat="48.20387" lon="7.37126">
        <ele>196</ele>
        <time>2019-04-13T19:02:56Z</time>
      </trkpt>
      <trkpt lat="48.20405" lon="7.37134">
        <ele>196</ele>
        <time>2019-04-13T19:03:56Z</time>
      </trkpt>
      <trkpt lat="48.20414" lon="7.37138">
        <ele>196</ele>
        <time>2019-04-13T19:04:56Z</time>
      </trkpt>
      <trkpt lat="48.20423" lon="7.37142">
        <ele>196</ele>
        <time>2019-04-13T19:05:56Z</time>
      </trkpt>
      <trkpt lat="48.20429" lon="7.37145">
        <ele>196</ele>
        <time>2019-04-13T19:06:56Z</time>
      </trkpt>
      <trkpt lat="48.20462" lon="7.37159">
        <ele>196</ele>
        <time>2019-04-13T19:07:56Z</time>
      </trkpt>
      <trkpt lat="48.20472" lon="7.37164">
        <ele>196</ele>
        <time>2019-04-13T19:08:56Z</time>
      </trkpt>
      <trkpt lat="48.205" lon="7.37176">
        <ele>196</ele>
        <time>2019-04-13T19:09:56Z</time>
      </trkpt>
      <trkpt lat="48.20524" lon="7.37186">
        <ele>196</ele>
        <time>2019-04-13T19:10:56Z</time>
      </trkpt>
      <trkpt lat="48.20537" lon="7.3719">
        <ele>195</ele>
        <time>2019-04-13T19:11:56Z</time>
      </trkpt>
      <trkpt lat="48.20541" lon="7.3719">
        <ele>195</ele>
        <time>2019-04-13T19:12:56Z</time>
      </trkpt>
      <trkpt lat="48.20541" lon="7.3719">
        <ele>195</ele>
        <time>2019-04-13T19:13:56Z</time>
      </trkpt>
      <trkpt lat="48.2055" lon="7.37262">
        <ele>195</ele>
        <time>2019-04-13T19:14:56Z</time>
      </trkpt>
      <trkpt lat="48.2056" lon="7.3734">
        <ele>195</ele>
        <time>2019-04-13T19:15:56Z</time>
      </trkpt>
      <trkpt lat="48.20564" lon="7.37361">
        <ele>195</ele>
        <time>2019-04-13T19:16:56Z</time>
      </trkpt>
      <trkpt lat="48.20566" lon="7.37368">
        <ele>195</ele>
        <time>2019-04-13T19:17:56Z</time>
      </trkpt>
      <trkpt lat="48.20567" lon="7.37373">
        <ele>195</ele>
        <time>2019-04-13T19:18:56Z</time>
      </trkpt>
      <trkpt lat="48.20568" lon="7.37376">
        <ele>195</ele>
        <time>2019-04-13T19:19:56Z</time>
      </trkpt>
      <trkpt lat="48.20571" lon="7.37382">
        <ele>195</ele>
        <time>2019-04-13T19:20:56Z</time>
      </trkpt>
      <trkpt lat="48.20579" lon="7.37395">
        <ele>194</ele>
        <time>2019-04-13T19:21:56Z</time>
      </trkpt>
      <trkpt lat="48.20593" lon="7.37416">
        <ele>194</ele>
        <time>2019-04-13T19:22:56Z</time>
      </trkpt>
      <trkpt lat="48.2061" lon="7.37442">
        <ele>193</ele>
        <time>2019-04-13T19:23:56Z</time>
      </trkpt>
      <trkpt lat="48.2061" lon="7.37442">
        <ele>193</ele>
        <time>2019-04-13T19:24:56Z</time>
      </trkpt>
      <trkpt lat="48.20618" lon="7.37444">
        <ele>193</ele>
        <time>2019-04-13T19:25:56Z</time>
      </trkpt>
      <trkpt lat="48.20632" lon="7.37448">
        <ele>193</ele>
        <time>2019-04-13T19:26:56Z</time>
      </trkpt>
      <trkpt lat="48.20646" lon="7.37454">
        <ele>193</ele>
        <time>2019-04-13T19:27:56Z</time>
      </trkpt>
      <trkpt lat="48.20662" lon="7.37461">
        <ele>193</ele>
        <time>2019-04-13T19:28:56Z</time>
      </trkpt>
      <trkpt lat="48.20668" lon="7.37465">
        <ele>193</ele>
        <time>2019-04-13T19:29:56Z</time>
      </trkpt>
      <trkpt lat="48.20673" lon="7.37468">
        <ele>193</ele>
        <time>2019-04-13T19:30:56Z</time>
      </trkpt>
      <trkpt lat="48.20689" lon="7.37481">
        <ele>192</ele>
        <time>2019-04-13T19:31:56Z</time>
      </trkpt>
      <trkpt lat="48.20711" lon="7.37501">
        <ele>192</ele>
        <time>2019-04-13T19:32:56Z</time>
      </trkpt>
      <trkpt lat="48.20722" lon="7.37509">
        <ele>192</ele>
        <time>2019-04-13T19:33:56Z</time>
      </trkpt>
      <trkpt lat="48.20765" lon="7.37546">
        <ele>190</ele>
        <time>2019-04-13T19:34:56Z</time>
      </trkpt>
      <trkpt lat="48.20782" lon="7.37564">
        <ele>190</ele>
        <time>2019-04-13T19:35:56Z</time>
      </trkpt>
      <trkpt lat="48.20816" lon="7.37599">
        <ele>189</ele>
        <time>2019-04-13T19:36:56Z</time>
      </trkpt>
      <trkpt lat="48.20845" lon="7.37632">
        <ele>189</ele>
        <time>2019-04-13T19:37:56Z</time>
      </trkpt>
      <trkpt lat="48.2089" lon="7.37679">
        <ele>189</ele>
        <time>2019-04-13T19:38:56Z</time>
      </trkpt>
      <trkpt lat="48.20914" lon="7.37702">
        <ele>189</ele>
        <time>2019-04-13T19:39:56Z</time>
      </trkpt>
      <trkpt lat="48.20919" lon="7.37706">
        <ele>189</ele>
        <time>2019-04-13T19:40:56Z</time>
      </trkpt>
      <trkpt lat="48.20926" lon="7.37711">
        <ele>188</ele>
        <time>2019-04-13T19:41:56Z</time>
      </trkpt>
      <trkpt lat="48.20934" lon="7.37717">
        <ele>188</ele>
        <time>2019-04-13T19:42:56Z</time>
      </trkpt>
      <trkpt lat="48.2095" lon="7.37727">
        <ele>188</ele>
        <time>2019-04-13T19:43:56Z</time>
      </trkpt>
      <trkpt lat="48.20964" lon="7.37733">
        <ele>189</ele>
        <time>2019-04-13T19:44:56Z</time>
      </trkpt>
      <trkpt lat="48.2099" lon="7.37748">
        <ele>189</ele>
        <time>2019-04-13T19:45:56Z</time>
      </trkpt>
      <trkpt lat="48.21008" lon="7.37757">
        <ele>189</ele>
        <time>2019-04-13T19:46:56Z</time>
      </trkpt>
      <trkpt lat="48.21053" lon="7.37783">
        <ele>187</ele>
        <time>2019-04-13T19:47:56Z</time>
      </trkpt>
      <trkpt lat="48.21071" lon="7.37792">
        <ele>186</ele>
        <time>2019-04-13T19:48:56Z</time>
      </trkpt>
      <trkpt lat="48.21077" lon="7.37797">
        <ele>186</ele>
        <time>2019-04-13T19:49:56Z</time>
      </trkpt>
      <trkpt lat="48.21082" lon="7.378">
        <ele>186</ele>
        <time>2019-04-13T19:50:56Z</time>
      </trkpt>
      <trkpt lat="48.21098" lon="7.37812">
        <ele>186</ele>
        <time>2019-04-13T19:51:56Z</time>
      </trkpt>
      <trkpt lat="48.21123" lon="7.37823">
        <ele>186</ele>
        <time>2019-04-13T19:52:56Z</time>
      </trkpt>
      <trkpt lat="48.21175" lon="7.37845">
        <ele>185</ele>
        <time>2019-04-13T19:53:56Z</time>
      </trkpt>
      <trkpt lat="48.21198" lon="7.37855">
        <ele>185</ele>
        <time>2019-04-13T19:54:56Z</time>
      </trkpt>
      <trkpt lat="48.21204" lon="7.37858">
        <ele>185</ele>
        <time>2019-04-13T19:55:56Z</time>
      </trkpt>
      <trkpt lat="48.21209" lon="7.37862">
        <ele>185</ele>
        <time>2019-04-13T19:56:56Z</time>
      </trkpt>
      <trkpt lat="48.21216" lon="7.37867">
        <ele>185</ele>
        <time>2019-04-13T19:57:56Z</time>
      </trkpt>
      <trkpt lat="48.21224" lon="7.37873">
        <ele>185</ele>
        <time>2019-04-13T19:58:56Z</time>
      </trkpt>
      <trkpt lat="48.21234" lon="7.37881">
        <ele>185</ele>
        <time>2019-04-13T19:59:56Z</time>
      </trkpt>
      <trkpt lat="48.21258" lon="7.37906">
        <ele>184</ele>
        <time>2019-04-13T20:00:56Z</time>
      </trkpt>
      <trkpt lat="48.21304" lon="7.37958">
        <ele>184</ele>
        <time>2019-04-13T20:01:56Z</time>
      </trkpt>
      <trkpt lat="48.21354" lon="7.38018">
        <ele>184</ele>
        <time>2019-04-13T20:02:56Z</time>
      </trkpt>
      <trkpt lat="48.21436" lon="7.38115">
        <ele>184</ele>
        <time>2019-04-13T20:03:56Z</time>
      </trkpt>
      <trkpt lat="48.21445" lon="7.38125">
        <ele>184</ele>
        <time>2019-04-13T20:04:56Z</time>
      </trkpt>
      <trkpt lat="48.21477" lon="7.38163">
        <ele>185</ele>
        <time>2019-04-13T20:05:56Z</time>
      </trkpt>
      <trkpt lat="48.21482" lon="7.38167">
        <ele>185</ele>
        <time>2019-04-13T20:06:56Z</time>
      </trkpt>
      <trkpt lat="48.21484" lon="7.38169">
        <ele>185</ele>
        <time>2019-04-13T20:07:56Z</time>
      </trkpt>
      <trkpt lat="48.21492" lon="7.38173">
        <ele>185</ele>
        <time>2019-04-13T20:08:56Z</time>
      </trkpt>
      <trkpt lat="48.21507" lon="7.38177">
        <ele>185</ele>
        <time>2019-04-13T20:09:56Z</time>
      </trkpt>
      <trkpt lat="48.21528" lon="7.38181">
        <ele>186</ele>
        <time>2019-04-13T20:10:56Z</time>
      </trkpt>
      <trkpt lat="48.21578" lon="7.38186">
        <ele>187</ele>
        <time>2019-04-13T20:11:56Z</time>
      </trkpt>
      <trkpt lat="48.21624" lon="7.38189">
        <ele>188</ele>
        <time>2019-04-13T20:12:56Z</time>
      </trkpt>
      <trkpt lat="48.21635" lon="7.38191">
        <ele>188</ele>
        <time>2019-04-13T20:13:56Z</time>
      </trkpt>
      <trkpt lat="48.21661" lon="7.38195">
        <ele>189</ele>
        <time>2019-04-13T20:14:56Z</time>
      </trkpt>
      <trkpt lat="48.21692" lon="7.38202">
        <ele>190</ele>
        <time>2019-04-13T20:15:56Z</time>
      </trkpt>
      <trkpt lat="48.2173" lon="7.38212">
        <ele>191</ele>
        <time>2019-04-13T20:16:56Z</time>
      </trkpt>
      <trkpt lat="48.21748" lon="7.38221">
        <ele>192</ele>
        <time>2019-04-13T20:17:56Z</time>
      </trkpt>
      <trkpt lat="48.2175" lon="7.38222">
        <ele>192</ele>
        <time>2019-04-13T20:18:56Z</time>
      </trkpt>
      <trkpt lat="48.21769" lon="7.38228">
        <ele>192</ele>
        <time>2019-04-13T20:19:56Z</time>
      </trkpt>
      <trkpt lat="48.2181" lon="7.38237">
        <ele>191</ele>
        <time>2019-04-13T20:20:56Z</time>
      </trkpt>
      <trkpt lat="48.21854" lon="7.38246">
        <ele>191</ele>
        <time>2019-04-13T20:21:56Z</time>
      </trkpt>
      <trkpt lat="48.21895" lon="7.38255">
        <ele>191</ele>
        <time>2019-04-13T20:22:56Z</time>
      </trkpt>
      <trkpt lat="48.21915" lon="7.38262">
        <ele>191</ele>
        <time>2019-04-13T20:23:56Z</time>
      </trkpt>
      <trkpt lat="48.2192" lon="7.38265">
        <ele>191</ele>
        <time>2019-04-13T20:24:56Z</time>
      </trkpt>
      <trkpt lat="48.2193" lon="7.38271">
        <ele>191</ele>
        <time>2019-04-13T20:25:56Z</time>
      </trkpt>
      <trkpt lat="48.21949" lon="7.38285">
        <ele>190</ele>
        <time>2019-04-13T20:26:56Z</time>
      </trkpt>
      <trkpt lat="48.21963" lon="7.38297">
        <ele>190</ele>
        <time>2019-04-13T20:27:56Z</time>
      </trkpt>
      <trkpt lat="48.21988" lon="7.38321">
        <ele>189</ele>
        <time>2019-04-13T20:28:56Z</time>
      </trkpt>
      <trkpt lat="48.22018" lon="7.38346">
        <ele>189</ele>
        <time>2019-04-13T20:29:56Z</time>
      </trkpt>
      <trkpt lat="48.22073" lon="7.38394">
        <ele>189</ele>
        <time>2019-04-13T20:30:56Z</time>
      </trkpt>
      <trkpt lat="48.22095" lon="7.38413">
        <ele>189</ele>
        <time>2019-04-13T20:31:56Z</time>
      </trkpt>
      <trkpt lat="48.22099" lon="7.38416">
        <ele>189</ele>
        <time>2019-04-13T20:32:56Z</time>
      </trkpt>
      <trkpt lat="48.22101" lon="7.38418">
        <ele>189</ele>
        <time>2019-04-13T20:33:56Z</time>
      </trkpt>
      <trkpt lat="48.22103" lon="7.38422">
        <ele>189</ele>
        <time>2019-04-13T20:34:56Z</time>
      </trkpt>
      <trkpt lat="48.22111" lon="7.38423">
        <ele>189</ele>
        <time>2019-04-13T20:35:56Z</time>
      </trkpt>
      <trkpt lat="48.22116" lon="7.38424">
        <ele>189</ele>
        <time>2019-04-13T20:36:56Z</time>
      </trkpt>
      <trkpt lat="48.2213" lon="7.38429">
        <ele>189</ele>
        <time>2019-04-13T20:37:56Z</time>
      </trkpt>
      <trkpt lat="48.22152" lon="7.38437">
        <ele>190</ele>
        <time>2019-04-13T20:38:56Z</time>
      </trkpt>
      <trkpt lat="48.22205" lon="7.38458">
        <ele>190</ele>
        <time>2019-04-13T20:39:56Z</time>
      </trkpt>
      <trkpt lat="48.22231" lon="7.38468">
        <ele>191</ele>
        <time>2019-04-13T20:40:56Z</time>
      </trkpt>
      <trkpt lat="48.2227" lon="7.38482">
        <ele>192</ele>
        <time>2019-04-13T20:41:56Z</time>
      </trkpt>
      <trkpt lat="48.22286" lon="7.38488">
        <ele>192</ele>
        <time>2019-04-13T20:42:56Z</time>
      </trkpt>
      <trkpt lat="48.22296" lon="7.38494">
        <ele>192</ele>
        <time>2019-04-13T20:43:56Z</time>
      </trkpt>
      <trkpt lat="48.22306" lon="7.385">
        <ele>192</ele>
        <time>2019-04-13T20:44:56Z</time>
      </trkpt>
      <trkpt lat="48.22316" lon="7.38506">
        <ele>193</ele>
        <time>2019-04-13T20:45:56Z</time>
      </trkpt>
      <trkpt lat="48.22327" lon="7.38514">
        <ele>193</ele>
        <time>2019-04-13T20:46:56Z</time>
      </trkpt>
      <trkpt lat="48.22342" lon="7.38524">
        <ele>193</ele>
        <time>2019-04-13T20:47:56Z</time>
      </trkpt>
      <trkpt lat="48.22355" lon="7.38534">
        <ele>193</ele>
        <time>2019-04-13T20:48:56Z</time>
      </trkpt>
      <trkpt lat="48.22391" lon="7.38561">
        <ele>192</ele>
        <time>2019-04-13T20:49:56Z</time>
      </trkpt>
      <trkpt lat="48.22413" lon="7.38578">
        <ele>191</ele>
        <time>2019-04-13T20:50:56Z</time>
      </trkpt>
      <trkpt lat="48.22435" lon="7.38595">
        <ele>191</ele>
        <time>2019-04-13T20:51:56Z</time>
      </trkpt>
      <trkpt lat="48.22471" lon="7.38621">
        <ele>192</ele>
        <time>2019-04-13T20:52:56Z</time>
      </trkpt>
      <trkpt lat="48.22485" lon="7.38633">
        <ele>192</ele>
        <time>2019-04-13T20:53:56Z</time>
      </trkpt>
      <trkpt lat="48.22521" lon="7.3866">
        <ele>192</ele>
        <time>2019-04-13T20:54:56Z</time>
      </trkpt>
      <trkpt lat="48.22551" lon="7.38683">
        <ele>192</ele>
        <time>2019-04-13T20:55:56Z</time>
      </trkpt>
      <trkpt lat="48.22556" lon="7.38688">
        <ele>192</ele>
        <time>2019-04-13T20:56:56Z</time>
      </trkpt>
      <trkpt lat="48.22562" lon="7.38692">
        <ele>192</ele>
        <time>2019-04-13T20:57:56Z</time>
      </trkpt>
      <trkpt lat="48.22573" lon="7.38698">
        <ele>193</ele>
        <time>2019-04-13T20:58:56Z</time>
      </trkpt>
      <trkpt lat="48.22573" lon="7.38698">
        <ele>193</ele>
        <time>2019-04-13T20:59:56Z</time>
      </trkpt>
      <trkpt lat="48.22578" lon="7.38701">
        <ele>193</ele>
        <time>2019-04-13T21:00:56Z</time>
      </trkpt>
      <trkpt lat="48.2258" lon="7.38702">
        <ele>193</ele>
        <time>2019-04-13T21:01:56Z</time>
      </trkpt>
      <trkpt lat="48.22582" lon="7.38704">
        <ele>193</ele>
        <time>2019-04-13T21:02:56Z</time>
      </trkpt>
      <trkpt lat="48.22586" lon="7.38705">
        <ele>193</ele>
        <time>2019-04-13T21:03:56Z</time>
      </trkpt>
      <trkpt lat="48.22587" lon="7.38705">
        <ele>193</ele>
        <time>2019-04-13T21:04:56Z</time>
      </trkpt>
      <trkpt lat="48.22589" lon="7.38705">
        <ele>193</ele>
        <time>2019-04-13T21:05:56Z</time>
      </trkpt>
      <trkpt lat="48.22592" lon="7.38705">
        <ele>193</ele>
        <time>2019-04-13T21:06:56Z</time>
      </trkpt>
      <trkpt lat="48.22592" lon="7.38705">
        <ele>193</ele>
        <time>2019-04-13T21:07:56Z</time>
      </trkpt>
      <trkpt lat="48.22601" lon="7.38661">
        <ele>194</ele>
        <time>2019-04-13T21:08:56Z</time>
      </trkpt>
      <trkpt lat="48.22609" lon="7.38622">
        <ele>196</ele>
        <time>2019-04-13T21:09:56Z</time>
      </trkpt>
      <trkpt lat="48.22619" lon="7.38574">
        <ele>198</ele>
        <time>2019-04-13T21:10:56Z</time>
      </trkpt>
      <trkpt lat="48.22629" lon="7.38526">
        <ele>198</ele>
        <time>2019-04-13T21:11:56Z</time>
      </trkpt>
      <trkpt lat="48.22663" lon="7.38373">
        <ele>200</ele>
        <time>2019-04-13T21:12:56Z</time>
      </trkpt>
      <trkpt lat="48.2267" lon="7.38341">
        <ele>201</ele>
        <time>2019-04-13T21:13:56Z</time>
      </trkpt>
      <trkpt lat="48.22678" lon="7.38304">
        <ele>202</ele>
        <time>2019-04-13T21:14:56Z</time>
      </trkpt>
      <trkpt lat="48.2269" lon="7.38249">
        <ele>205</ele>
        <time>2019-04-13T21:15:56Z</time>
      </trkpt>
      <trkpt lat="48.22692" lon="7.3824">
        <ele>205</ele>
        <time>2019-04-13T21:16:56Z</time>
      </trkpt>
      <trkpt lat="48.22704" lon="7.38199">
        <ele>206</ele>
        <time>2019-04-13T21:17:56Z</time>
      </trkpt>
      <trkpt lat="48.2271" lon="7.38176">
        <ele>207</ele>
        <time>2019-04-13T21:18:56Z</time>
      </trkpt>
      <trkpt lat="48.22723" lon="7.38134">
        <ele>208</ele>
        <time>2019-04-13T21:19:56Z</time>
      </trkpt>
      <trkpt lat="48.22733" lon="7.38103">
        <ele>209</ele>
        <time>2019-04-13T21:20:56Z</time>
      </trkpt>
      <trkpt lat="48.22745" lon="7.3807">
        <ele>210</ele>
        <time>2019-04-13T21:21:56Z</time>
      </trkpt>
      <trkpt lat="48.22747" lon="7.38062">
        <ele>210</ele>
        <time>2019-04-13T21:22:56Z</time>
      </trkpt>
      <trkpt lat="48.22756" lon="7.38039">
        <ele>211</ele>
        <time>2019-04-13T21:23:56Z</time>
      </trkpt>
      <trkpt lat="48.22784" lon="7.37964">
        <ele>213</ele>
        <time>2019-04-13T21:24:56Z</time>
      </trkpt>
      <trkpt lat="48.22809" lon="7.37901">
        <ele>215</ele>
        <time>2019-04-13T21:25:56Z</time>
      </trkpt>
      <trkpt lat="48.22816" lon="7.37883">
        <ele>215</ele>
        <time>2019-04-13T21:26:56Z</time>
      </trkpt>
      <trkpt lat="48.22828" lon="7.37851">
        <ele>216</ele>
        <time>2019-04-13T21:27:56Z</time>
      </trkpt>
      <trkpt lat="48.22836" lon="7.37831">
        <ele>216</ele>
        <time>2019-04-13T21:28:56Z</time>
      </trkpt>
      <trkpt lat="48.22849" lon="7.37794">
        <ele>218</ele>
        <time>2019-04-13T21:29:56Z</time>
      </trkpt>
      <trkpt lat="48.2286" lon="7.37766">
        <ele>220</ele>
        <time>2019-04-13T21:30:56Z</time>
      </trkpt>
      <trkpt lat="48.22863" lon="7.37758">
        <ele>220</ele>
        <time>2019-04-13T21:31:56Z</time>
      </trkpt>
      <trkpt lat="48.22866" lon="7.3775">
        <ele>221</ele>
        <time>2019-04-13T21:32:56Z</time>
      </trkpt>
      <trkpt lat="48.2287" lon="7.3774">
        <ele>221</ele>
        <time>2019-04-13T21:33:56Z</time>
      </trkpt>
      <trkpt lat="48.22886" lon="7.37699">
        <ele>221</ele>
        <time>2019-04-13T21:34:56Z</time>
      </trkpt>
      <trkpt lat="48.22888" lon="7.37693">
        <ele>221</ele>
        <time>2019-04-13T21:35:56Z</time>
      </trkpt>
      <trkpt lat="48.22899" lon="7.37661">
        <ele>222</ele>
        <time>2019-04-13T21:36:56Z</time>
      </trkpt>
      <trkpt lat="48.22917" lon="7.37647">
        <ele>222</ele>
        <time>2019-04-13T21:37:56Z</time>
      </trkpt>
      <trkpt lat="48.22928" lon="7.3764">
        <ele>223</ele>
        <time>2019-04-13T21:38:56Z</time>
      </trkpt>
      <trkpt lat="48.22933" lon="7.37638">
        <ele>223</ele>
        <time>2019-04-13T21:39:56Z</time>
      </trkpt>
      <trkpt lat="48.22933" lon="7.37638">
        <ele>223</ele>
        <time>2019-04-13T21:40:56Z</time>
      </trkpt>
      <trkpt lat="48.22931" lon="7.37627">
        <ele>223</ele>
        <time>2019-04-13T21:41:56Z</time>
      </trkpt>
      <trkpt lat="48.2293" lon="7.3762">
        <ele>224</ele>
        <time>2019-04-13T21:42:56Z</time>
      </trkpt>
      <trkpt lat="48.2293" lon="7.37618">
        <ele>224</ele>
        <time>2019-04-13T21:43:56Z</time>
      </trkpt>
      <trkpt lat="48.2293" lon="7.37613">
        <ele>224</ele>
        <time>2019-04-13T21:44:56Z</time>
      </trkpt>
      <trkpt lat="48.2293" lon="7.3761">
        <ele>224</ele>
        <time>2019-04-13T21:45:56Z</time>
      </trkpt>
      <trkpt lat="48.22931" lon="7.37606">
        <ele>224</ele>
        <time>2019-04-13T21:46:56Z</time>
      </trkpt>
      <trkpt lat="48.22932" lon="7.37596">
        <ele>224</ele>
        <time>2019-04-13T21:47:56Z</time>
      </trkpt>
      <trkpt lat="48.22934" lon="7.37588">
        <ele>224</ele>
        <time>2019-04-13T21:48:56Z</time>
      </trkpt>
      <trkpt lat="48.22936" lon="7.37581">
        <ele>224</ele>
        <time>2019-04-13T21:49:56Z</time>
      </trkpt>
      <trkpt lat="48.22939" lon="7.37574">
        <ele>224</ele>
        <time>2019-04-13T21:50:56Z</time>
      </trkpt>
      <trkpt lat="48.22942" lon="7.37568">
        <ele>224</ele>
        <time>2019-04-13T21:51:56Z</time>
      </trkpt>
      <trkpt lat="48.22946" lon="7.37559">
        <ele>225</ele>
        <time>2019-04-13T21:52:56Z</time>
      </trkpt>
      <trkpt lat="48.22956" lon="7.37537">
        <ele>225</ele>
        <time>2019-04-13T21:53:56Z</time>
      </trkpt>
      <trkpt lat="48.22973" lon="7.37501">
        <ele>226</ele>
        <time>2019-04-13T21:54:56Z</time>
      </trkpt>
      <trkpt lat="48.2299" lon="7.37465">
        <ele>228</ele>
        <time>2019-04-13T21:55:56Z</time>
      </trkpt>
      <trkpt lat="48.23004" lon="7.37436">
        <ele>230</ele>
        <time>2019-04-13T21:56:56Z</time>
      </trkpt>
      <trkpt lat="48.23015" lon="7.37414">
        <ele>231</ele>
        <time>2019-04-13T21:57:56Z</time>
      </trkpt>
      <trkpt lat="48.23033" lon="7.37376">
        <ele>232</ele>
        <time>2019-04-13T21:58:56Z</time>
      </trkpt>
      <trkpt lat="48.23068" lon="7.37299">
        <ele>235</ele>
        <time>2019-04-13T21:59:56Z</time>
      </trkpt>
      <trkpt lat="48.23074" lon="7.37284">
        <ele>235</ele>
        <time>2019-04-13T22:00:56Z</time>
      </trkpt>
      <trkpt lat="48.23082" lon="7.37268">
        <ele>235</ele>
        <time>2019-04-13T22:01:56Z</time>
      </trkpt>
      <trkpt lat="48.23087" lon="7.37261">
        <ele>235</ele>
        <time>2019-04-13T22:02:56Z</time>
      </trkpt>
      <trkpt lat="48.23105" lon="7.37222">
        <ele>234</ele>
        <time>2019-04-13T22:03:56Z</time>
      </trkpt>
      <trkpt lat="48.23122" lon="7.37187">
        <ele>233</ele>
        <time>2019-04-13T22:04:56Z</time>
      </trkpt>
      <trkpt lat="48.23139" lon="7.3715">
        <ele>233</ele>
        <time>2019-04-13T22:05:56Z</time>
      </trkpt>
      <trkpt lat="48.23152" lon="7.37123">
        <ele>234</ele>
        <time>2019-04-13T22:06:56Z</time>
      </trkpt>
      <trkpt lat="48.23169" lon="7.3709">
        <ele>235</ele>
        <time>2019-04-13T22:07:56Z</time>
      </trkpt>
      <trkpt lat="48.23179" lon="7.37071">
        <ele>236</ele>
        <time>2019-04-13T22:08:56Z</time>
      </trkpt>
      <trkpt lat="48.23185" lon="7.3706">
        <ele>236</ele>
        <time>2019-04-13T22:09:56Z</time>
      </trkpt>
      <trkpt lat="48.23194" lon="7.37042">
        <ele>237</ele>
        <time>2019-04-13T22:10:56Z</time>
      </trkpt>
      <trkpt lat="48.232" lon="7.3703">
        <ele>238</ele>
        <time>2019-04-13T22:11:56Z</time>
      </trkpt>
      <trkpt lat="48.23208" lon="7.37016">
        <ele>239</ele>
        <time>2019-04-13T22:12:56Z</time>
      </trkpt>
      <trkpt lat="48.2321" lon="7.3701">
        <ele>239</ele>
        <time>2019-04-13T22:13:56Z</time>
      </trkpt>
      <trkpt lat="48.23215" lon="7.37002">
        <ele>239</ele>
        <time>2019-04-13T22:14:56Z</time>
      </trkpt>
      <trkpt lat="48.23217" lon="7.36999">
        <ele>239</ele>
        <time>2019-04-13T22:15:56Z</time>
      </trkpt>
      <trkpt lat="48.23224" lon="7.3699">
        <ele>240</ele>
        <time>2019-04-13T22:16:56Z</time>
      </trkpt>
      <trkpt lat="48.23233" lon="7.36977">
        <ele>240</ele>
        <time>2019-04-13T22:17:56Z</time>
      </trkpt>
      <trkpt lat="48.23241" lon="7.36966">
        <ele>241</ele>
        <time>2019-04-13T22:18:56Z</time>
      </trkpt>
      <trkpt lat="48.23245" lon="7.36962">
        <ele>241</ele>
        <time>2019-04-13T22:19:56Z</time>
      </trkpt>
      <trkpt lat="48.23256" lon="7.3695">
        <ele>241</ele>
        <time>2019-04-13T22:20:56Z</time>
      </trkpt>
      <trkpt lat="48.2327" lon="7.36938">
        <ele>242</ele>
        <time>2019-04-13T22:21:56Z</time>
      </trkpt>
      <trkpt lat="48.23278" lon="7.36929">
        <ele>243</ele>
        <time>2019-04-13T22:22:56Z</time>
      </trkpt>
      <trkpt lat="48.23291" lon="7.36909">
        <ele>244</ele>
        <time>2019-04-13T22:23:56Z</time>
      </trkpt>
      <trkpt lat="48.23307" lon="7.36879">
        <ele>246</ele>
        <time>2019-04-13T22:24:56Z</time>
      </trkpt>
      <trkpt lat="48.23311" lon="7.36873">
        <ele>246</ele>
        <time>2019-04-13T22:25:56Z</time>
      </trkpt>
      <trkpt lat="48.23313" lon="7.3687">
        <ele>246</ele>
        <time>2019-04-13T22:26:56Z</time>
      </trkpt>
      <trkpt lat="48.23324" lon="7.36848">
        <ele>247</ele>
        <time>2019-04-13T22:27:56Z</time>
      </trkpt>
      <trkpt lat="48.23327" lon="7.36838">
        <ele>248</ele>
        <time>2019-04-13T22:28:56Z</time>
      </trkpt>
      <trkpt lat="48.23328" lon="7.36829">
        <ele>248</ele>
        <time>2019-04-13T22:29:56Z</time>
      </trkpt>
      <trkpt lat="48.23327" lon="7.36823">
        <ele>248</ele>
        <time>2019-04-13T22:30:56Z</time>
      </trkpt>
      <trkpt lat="48.23325" lon="7.36817">
        <ele>249</ele>
        <time>2019-04-13T22:31:56Z</time>
      </trkpt>
      <trkpt lat="48.23323" lon="7.36813">
        <ele>249</ele>
        <time>2019-04-13T22:32:56Z</time>
      </trkpt>
      <trkpt lat="48.23312" lon="7.36796">
        <ele>249</ele>
        <time>2019-04-13T22:33:56Z</time>
      </trkpt>
      <trkpt lat="48.23298" lon="7.36783">
        <ele>250</ele>
        <time>2019-04-13T22:34:56Z</time>
      </trkpt>
      <trkpt lat="48.23275" lon="7.36763">
        <ele>250</ele>
        <time>2019-04-13T22:35:56Z</time>
      </trkpt>
      <trkpt lat="48.23269" lon="7.36758">
        <ele>250</ele>
        <time>2019-04-13T22:36:56Z</time>
      </trkpt>
      <trkpt lat="48.23254" lon="7.36746">
        <ele>249</ele>
        <time>2019-04-13T22:37:56Z</time>
      </trkpt>
      <trkpt lat="48.23248" lon="7.36739">
        <ele>249</ele>
        <time>2019-04-13T22:38:56Z</time>
      </trkpt>
      <trkpt lat="48.23238" lon="7.36728">
        <ele>248</ele>
        <time>2019-04-13T22:39:56Z</time>
      </trkpt>
      <trkpt lat="48.23213" lon="7.36697">
        <ele>248</ele>
        <time>2019-04-13T22:40:56Z</time>
      </trkpt>
      <trkpt lat="48.23213" lon="7.36697">
        <ele>248</ele>
        <time>2019-04-13T22:41:56Z</time>
      </trkpt>
      <trkpt lat="48.2322" lon="7.36679">
        <ele>248</ele>
        <time>2019-04-13T22:42:56Z</time>
      </trkpt>
      <trkpt lat="48.23221" lon="7.36677">
        <ele>248</ele>
        <time>2019-04-13T22:43:56Z</time>
      </trkpt>
      <trkpt lat="48.23227" lon="7.36657">
        <ele>249</ele>
        <time>2019-04-13T22:44:56Z</time>
      </trkpt>
      <trkpt lat="48.2323" lon="7.36647">
        <ele>250</ele>
        <time>2019-04-13T22:45:56Z</time>
      </trkpt>
      <trkpt lat="48.23239" lon="7.36619">
        <ele>251</ele>
        <time>2019-04-13T22:46:56Z</time>
      </trkpt>
      <trkpt lat="48.2324" lon="7.36615">
        <ele>251</ele>
        <time>2019-04-13T22:47:56Z</time>
      </trkpt>
      <trkpt lat="48.2325" lon="7.36588">
        <ele>253</ele>
        <time>2019-04-13T22:48:56Z</time>
      </trkpt>
      <trkpt lat="48.23254" lon="7.36576">
        <ele>254</ele>
        <time>2019-04-13T22:49:56Z</time>
      </trkpt>
      <trkpt lat="48.2326" lon="7.36561">
        <ele>255</ele>
        <time>2019-04-13T22:50:56Z</time>
      </trkpt>
      <trkpt lat="48.23279" lon="7.36518">
        <ele>258</ele>
        <time>2019-04-13T22:51:56Z</time>
      </trkpt>
      <trkpt lat="48.23311" lon="7.3645">
        <ele>263</ele>
        <time>2019-04-13T22:52:56Z</time>
      </trkpt>
      <trkpt lat="48.23335" lon="7.36399">
        <ele>267</ele>
        <time>2019-04-13T22:53:56Z</time>
      </trkpt>
      <trkpt lat="48.23344" lon="7.36378">
        <ele>268</ele>
        <time>2019-04-13T22:54:56Z</time>
      </trkpt>
      <trkpt lat="48.23352" lon="7.36354">
        <ele>269</ele>
        <time>2019-04-13T22:55:56Z</time>
      </trkpt>
      <trkpt lat="48.23363" lon="7.36316">
        <ele>270</ele>
        <time>2019-04-13T22:56:56Z</time>
      </trkpt>
      <trkpt lat="48.23368" lon="7.363">
        <ele>271</ele>
        <time>2019-04-13T22:57:56Z</time>
      </trkpt>
      <trkpt lat="48.23375" lon="7.36289">
        <ele>271</ele>
        <time>2019-04-13T22:58:56Z</time>
      </trkpt>
      <trkpt lat="48.23382" lon="7.36282">
        <ele>272</ele>
        <time>2019-04-13T22:59:56Z</time>
      </trkpt>
      <trkpt lat="48.23418" lon="7.36261">
        <ele>273</ele>
        <time>2019-04-13T23:00:56Z</time>
      </trkpt>
      <trkpt lat="48.2345" lon="7.36244">
        <ele>273</ele>
        <time>2019-04-13T23:01:56Z</time>
      </trkpt>
      <trkpt lat="48.23482" lon="7.36227">
        <ele>274</ele>
        <time>2019-04-13T23:02:56Z</time>
      </trkpt>
      <trkpt lat="48.23507" lon="7.36211">
        <ele>275</ele>
        <time>2019-04-13T23:03:56Z</time>
      </trkpt>
      <trkpt lat="48.23541" lon="7.36191">
        <ele>277</ele>
        <time>2019-04-13T23:04:56Z</time>
      </trkpt>
      <trkpt lat="48.2358" lon="7.36167">
        <ele>279</ele>
        <time>2019-04-13T23:05:56Z</time>
      </trkpt>
      <trkpt lat="48.23602" lon="7.36156">
        <ele>280</ele>
        <time>2019-04-13T23:06:56Z</time>
      </trkpt>
      <trkpt lat="48.2361" lon="7.36153">
        <ele>281</ele>
        <time>2019-04-13T23:07:56Z</time>
      </trkpt>
      <trkpt lat="48.23618" lon="7.36153">
        <ele>281</ele>
        <time>2019-04-13T23:08:56Z</time>
      </trkpt>
      <trkpt lat="48.23625" lon="7.36156">
        <ele>281</ele>
        <time>2019-04-13T23:09:56Z</time>
      </trkpt>
      <trkpt lat="48.23634" lon="7.36166">
        <ele>281</ele>
        <time>2019-04-13T23:10:56Z</time>
      </trkpt>
      <trkpt lat="48.23645" lon="7.36178">
        <ele>282</ele>
        <time>2019-04-13T23:11:56Z</time>
      </trkpt>
      <trkpt lat="48.23654" lon="7.36187">
        <ele>282</ele>
        <time>2019-04-13T23:12:56Z</time>
      </trkpt>
      <trkpt lat="48.23664" lon="7.36192">
        <ele>282</ele>
        <time>2019-04-13T23:13:56Z</time>
      </trkpt>
      <trkpt lat="48.23713" lon="7.3621">
        <ele>286</ele>
        <time>2019-04-13T23:14:56Z</time>
      </trkpt>
      <trkpt lat="48.23727" lon="7.36215">
        <ele>287</ele>
        <time>2019-04-13T23:15:56Z</time>
      </trkpt>
      <trkpt lat="48.23737" lon="7.36215">
        <ele>288</ele>
        <time>2019-04-13T23:16:56Z</time>
      </trkpt>
      <trkpt lat="48.23746" lon="7.36211">
        <ele>289</ele>
        <time>2019-04-13T23:17:56Z</time>
      </trkpt>
      <trkpt lat="48.23754" lon="7.36204">
        <ele>290</ele>
        <time>2019-04-13T23:18:56Z</time>
      </trkpt>
      <trkpt lat="48.2376" lon="7.36195">
        <ele>291</ele>
        <time>2019-04-13T23:19:56Z</time>
      </trkpt>
      <trkpt lat="48.23769" lon="7.36172">
        <ele>292</ele>
        <time>2019-04-13T23:20:56Z</time>
      </trkpt>
      <trkpt lat="48.23775" lon="7.36158">
        <ele>293</ele>
        <time>2019-04-13T23:21:56Z</time>
      </trkpt>
      <trkpt lat="48.2378" lon="7.36148">
        <ele>294</ele>
        <time>2019-04-13T23:22:56Z</time>
      </trkpt>
      <trkpt lat="48.23788" lon="7.36138">
        <ele>295</ele>
        <time>2019-04-13T23:23:56Z</time>
      </trkpt>
      <trkpt lat="48.23808" lon="7.36124">
        <ele>297</ele>
        <time>2019-04-13T23:24:56Z</time>
      </trkpt>
      <trkpt lat="48.23829" lon="7.36107">
        <ele>300</ele>
        <time>2019-04-13T23:25:56Z</time>
      </trkpt>
      <trkpt lat="48.23853" lon="7.36091">
        <ele>304</ele>
        <time>2019-04-13T23:26:56Z</time>
      </trkpt>
      <trkpt lat="48.23877" lon="7.36072">
        <ele>308</ele>
        <time>2019-04-13T23:27:56Z</time>
      </trkpt>
      <trkpt lat="48.23896" lon="7.36053">
        <ele>312</ele>
        <time>2019-04-13T23:28:56Z</time>
      </trkpt>
      <trkpt lat="48.23925" lon="7.36021">
        <ele>317</ele>
        <time>2019-04-13T23:29:56Z</time>
      </trkpt>
      <trkpt lat="48.23949" lon="7.35994">
        <ele>321</ele>
        <time>2019-04-13T23:30:56Z</time>
      </trkpt>
      <trkpt lat="48.23972" lon="7.35966">
        <ele>324</ele>
        <time>2019-04-13T23:31:56Z</time>
      </trkpt>
      <trkpt lat="48.23991" lon="7.35943">
        <ele>326</ele>
        <time>2019-04-13T23:32:56Z</time>
      </trkpt>
      <trkpt lat="48.23998" lon="7.35935">
        <ele>326</ele>
        <time>2019-04-13T23:33:56Z</time>
      </trkpt>
      <trkpt lat="48.24003" lon="7.35927">
        <ele>327</ele>
        <time>2019-04-13T23:34:56Z</time>
      </trkpt>
      <trkpt lat="48.2401" lon="7.35915">
        <ele>328</ele>
        <time>2019-04-13T23:35:56Z</time>
      </trkpt>
      <trkpt lat="48.24126" lon="7.35696">
        <ele>347</ele>
        <time>2019-04-13T23:36:56Z</time>
      </trkpt>
      <trkpt lat="48.24134" lon="7.35688">
        <ele>348</ele>
        <time>2019-04-13T23:37:56Z</time>
      </trkpt>
      <trkpt lat="48.24144" lon="7.35683">
        <ele>348</ele>
        <time>2019-04-13T23:38:56Z</time>
      </trkpt>
      <trkpt lat="48.24179" lon="7.35679">
        <ele>351</ele>
        <time>2019-04-13T23:39:56Z</time>
      </trkpt>
      <trkpt lat="48.24188" lon="7.35672">
        <ele>353</ele>
        <time>2019-04-13T23:40:56Z</time>
      </trkpt>
      <trkpt lat="48.24193" lon="7.35669">
        <ele>353</ele>
        <time>2019-04-13T23:41:56Z</time>
      </trkpt>
      <trkpt lat="48.24198" lon="7.35661">
        <ele>355</ele>
        <time>2019-04-13T23:42:56Z</time>
      </trkpt>
      <trkpt lat="48.24201" lon="7.35657">
        <ele>356</ele>
        <time>2019-04-13T23:43:56Z</time>
      </trkpt>
      <trkpt lat="48.24202" lon="7.35651">
        <ele>357</ele>
        <time>2019-04-13T23:44:56Z</time>
      </trkpt>
      <trkpt lat="48.24202" lon="7.35643">
        <ele>358</ele>
        <time>2019-04-13T23:45:56Z</time>
      </trkpt>
      <trkpt lat="48.242" lon="7.35631">
        <ele>359</ele>
        <time>2019-04-13T23:46:56Z</time>
      </trkpt>
      <trkpt lat="48.24197" lon="7.35626">
        <ele>359</ele>
        <time>2019-04-13T23:47:56Z</time>
      </trkpt>
      <trkpt lat="48.24193" lon="7.35622">
        <ele>360</ele>
        <time>2019-04-13T23:48:56Z</time>
      </trkpt>
      <trkpt lat="48.24188" lon="7.35619">
        <ele>360</ele>
        <time>2019-04-13T23:49:56Z</time>
      </trkpt>
      <trkpt lat="48.24183" lon="7.35619">
        <ele>360</ele>
        <time>2019-04-13T23:50:56Z</time>
      </trkpt>
      <trkpt lat="48.24178" lon="7.35619">
        <ele>360</ele>
        <time>2019-04-13T23:51:56Z</time>
      </trkpt>
      <trkpt lat="48.24168" lon="7.35624">
        <ele>358</ele>
        <time>2019-04-13T23:52:56Z</time>
      </trkpt>
      <trkpt lat="48.24154" lon="7.35636">
        <ele>355</ele>
        <time>2019-04-13T23:53:56Z</time>
      </trkpt>
      <trkpt lat="48.24149" lon="7.35638">
        <ele>355</ele>
        <time>2019-04-13T23:54:56Z</time>
      </trkpt>
      <trkpt lat="48.24144" lon="7.35638">
        <ele>355</ele>
        <time>2019-04-13T23:55:56Z</time>
      </trkpt>
      <trkpt lat="48.24139" lon="7.35638">
        <ele>355</ele>
        <time>2019-04-13T23:56:56Z</time>
      </trkpt>
      <trkpt lat="48.24131" lon="7.3563">
        <ele>356</ele>
        <time>2019-04-13T23:57:56Z</time>
      </trkpt>
      <trkpt lat="48.24127" lon="7.35625">
        <ele>357</ele>
        <time>2019-04-13T23:58:56Z</time>
      </trkpt>
      <trkpt lat="48.24125" lon="7.35619">
        <ele>358</ele>
        <time>2019-04-13T23:59:56Z</time>
      </trkpt>
      <trkpt lat="48.2412" lon="7.35602">
        <ele>361</ele>
        <time>2019-04-14T00:00:56Z</time>
      </trkpt>
      <trkpt lat="48.24112" lon="7.35585">
        <ele>364</ele>
        <time>2019-04-14T00:01:56Z</time>
      </trkpt>
      <trkpt lat="48.24109" lon="7.35575">
        <ele>365</ele>
        <time>2019-04-14T00:02:56Z</time>
      </trkpt>
      <trkpt lat="48.24101" lon="7.35561">
        <ele>367</ele>
        <time>2019-04-14T00:03:56Z</time>
      </trkpt>
      <trkpt lat="48.24101" lon="7.3556">
        <ele>367</ele>
        <time>2019-04-14T00:04:56Z</time>
      </trkpt>
      <trkpt lat="48.24099" lon="7.35559">
        <ele>367</ele>
        <time>2019-04-14T00:05:56Z</time>
      </trkpt>
      <trkpt lat="48.24097" lon="7.35558">
        <ele>367</ele>
        <time>2019-04-14T00:06:56Z</time>
      </trkpt>
      <trkpt lat="48.24096" lon="7.35557">
        <ele>367</ele>
        <time>2019-04-14T00:07:56Z</time>
      </trkpt>
      <trkpt lat="48.2409" lon="7.35557">
        <ele>367</ele>
        <time>2019-04-14T00:08:56Z</time>
      </trkpt>
      <trkpt lat="48.24075" lon="7.35564">
        <ele>365</ele>
        <time>2019-04-14T00:09:56Z</time>
      </trkpt>
      <trkpt lat="48.24065" lon="7.35571">
        <ele>363</ele>
        <time>2019-04-14T00:10:56Z</time>
      </trkpt>
      <trkpt lat="48.24055" lon="7.35577">
        <ele>362</ele>
        <time>2019-04-14T00:11:56Z</time>
      </trkpt>
      <trkpt lat="48.2405" lon="7.35577">
        <ele>361</ele>
        <time>2019-04-14T00:12:56Z</time>
      </trkpt>
      <trkpt lat="48.24045" lon="7.35575">
        <ele>361</ele>
        <time>2019-04-14T00:13:56Z</time>
      </trkpt>
      <trkpt lat="48.2404" lon="7.35572">
        <ele>361</ele>
        <time>2019-04-14T00:14:56Z</time>
      </trkpt>
      <trkpt lat="48.2403" lon="7.3556">
        <ele>360</ele>
        <time>2019-04-14T00:15:56Z</time>
      </trkpt>
      <trkpt lat="48.24028" lon="7.35556">
        <ele>360</ele>
        <time>2019-04-14T00:16:56Z</time>
      </trkpt>
      <trkpt lat="48.24026" lon="7.35543">
        <ele>361</ele>
        <time>2019-04-14T00:17:56Z</time>
      </trkpt>
      <trkpt lat="48.24026" lon="7.35536">
        <ele>361</ele>
        <time>2019-04-14T00:18:56Z</time>
      </trkpt>
      <trkpt lat="48.24042" lon="7.35447">
        <ele>369</ele>
        <time>2019-04-14T00:19:56Z</time>
      </trkpt>
      <trkpt lat="48.24046" lon="7.35433">
        <ele>370</ele>
        <time>2019-04-14T00:20:56Z</time>
      </trkpt>
      <trkpt lat="48.24051" lon="7.35417">
        <ele>372</ele>
        <time>2019-04-14T00:21:56Z</time>
      </trkpt>
      <trkpt lat="48.24056" lon="7.35408">
        <ele>373</ele>
        <time>2019-04-14T00:22:56Z</time>
      </trkpt>
      <trkpt lat="48.24061" lon="7.35402">
        <ele>374</ele>
        <time>2019-04-14T00:23:56Z</time>
      </trkpt>
      <trkpt lat="48.24076" lon="7.35389">
        <ele>376</ele>
        <time>2019-04-14T00:24:56Z</time>
      </trkpt>
      <trkpt lat="48.24083" lon="7.35385">
        <ele>377</ele>
        <time>2019-04-14T00:25:56Z</time>
      </trkpt>
      <trkpt lat="48.24097" lon="7.35382">
        <ele>379</ele>
        <time>2019-04-14T00:26:56Z</time>
      </trkpt>
      <trkpt lat="48.24115" lon="7.35383">
        <ele>381</ele>
        <time>2019-04-14T00:27:56Z</time>
      </trkpt>
      <trkpt lat="48.2413" lon="7.35382">
        <ele>382</ele>
        <time>2019-04-14T00:28:56Z</time>
      </trkpt>
      <trkpt lat="48.24138" lon="7.35383">
        <ele>383</ele>
        <time>2019-04-14T00:29:56Z</time>
      </trkpt>
      <trkpt lat="48.24145" lon="7.35386">
        <ele>384</ele>
        <time>2019-04-14T00:30:56Z</time>
      </trkpt>
      <trkpt lat="48.24172" lon="7.35403">
        <ele>386</ele>
        <time>2019-04-14T00:31:56Z</time>
      </trkpt>
      <trkpt lat="48.24183" lon="7.35415">
        <ele>386</ele>
        <time>2019-04-14T00:32:56Z</time>
      </trkpt>
      <trkpt lat="48.24202" lon="7.3544">
        <ele>386</ele>
        <time>2019-04-14T00:33:56Z</time>
      </trkpt>
      <trkpt lat="48.24205" lon="7.35444">
        <ele>386</ele>
        <time>2019-04-14T00:34:56Z</time>
      </trkpt>
      <trkpt lat="48.24213" lon="7.3545">
        <ele>386</ele>
        <time>2019-04-14T00:35:56Z</time>
      </trkpt>
      <trkpt lat="48.24218" lon="7.35453">
        <ele>386</ele>
        <time>2019-04-14T00:36:56Z</time>
      </trkpt>
      <trkpt lat="48.24225" lon="7.35453">
        <ele>386</ele>
        <time>2019-04-14T00:37:56Z</time>
      </trkpt>
      <trkpt lat="48.24231" lon="7.35452">
        <ele>386</ele>
        <time>2019-04-14T00:38:56Z</time>
      </trkpt>
      <trkpt lat="48.24237" lon="7.35446">
        <ele>387</ele>
        <time>2019-04-14T00:39:56Z</time>
      </trkpt>
      <trkpt lat="48.2424" lon="7.35435">
        <ele>389</ele>
        <time>2019-04-14T00:40:56Z</time>
      </trkpt>
      <trkpt lat="48.2424" lon="7.35428">
        <ele>390</ele>
        <time>2019-04-14T00:41:56Z</time>
      </trkpt>
      <trkpt lat="48.2424" lon="7.35418">
        <ele>391</ele>
        <time>2019-04-14T00:42:56Z</time>
      </trkpt>
      <trkpt lat="48.24238" lon="7.35411">
        <ele>391</ele>
        <time>2019-04-14T00:43:56Z</time>
      </trkpt>
      <trkpt lat="48.24233" lon="7.35397">
        <ele>392</ele>
        <time>2019-04-14T00:44:56Z</time>
      </trkpt>
      <trkpt lat="48.24229" lon="7.35388">
        <ele>392</ele>
        <time>2019-04-14T00:45:56Z</time>
      </trkpt>
      <trkpt lat="48.24219" lon="7.3537">
        <ele>393</ele>
        <time>2019-04-14T00:46:56Z</time>
      </trkpt>
      <trkpt lat="48.24209" lon="7.35349">
        <ele>393</ele>
        <time>2019-04-14T00:47:56Z</time>
      </trkpt>
      <trkpt lat="48.24206" lon="7.35336">
        <ele>393</ele>
        <time>2019-04-14T00:48:56Z</time>
      </trkpt>
      <trkpt lat="48.24206" lon="7.35324">
        <ele>394</ele>
        <time>2019-04-14T00:49:56Z</time>
      </trkpt>
      <trkpt lat="48.24207" lon="7.35298">
        <ele>395</ele>
        <time>2019-04-14T00:50:56Z</time>
      </trkpt>
      <trkpt lat="48.24208" lon="7.35285">
        <ele>396</ele>
        <time>2019-04-14T00:51:56Z</time>
      </trkpt>
      <trkpt lat="48.24212" lon="7.35253">
        <ele>398</ele>
        <time>2019-04-14T00:52:56Z</time>
      </trkpt>
      <trkpt lat="48.24215" lon="7.3524">
        <ele>399</ele>
        <time>2019-04-14T00:53:56Z</time>
      </trkpt>
      <trkpt lat="48.24223" lon="7.35214">
        <ele>403</ele>
        <time>2019-04-14T00:54:56Z</time>
      </trkpt>
      <trkpt lat="48.24225" lon="7.35204">
        <ele>404</ele>
        <time>2019-04-14T00:55:56Z</time>
      </trkpt>
      <trkpt lat="48.24226" lon="7.35188">
        <ele>404</ele>
        <time>2019-04-14T00:56:56Z</time>
      </trkpt>
      <trkpt lat="48.24226" lon="7.35171">
        <ele>405</ele>
        <time>2019-04-14T00:57:56Z</time>
      </trkpt>
      <trkpt lat="48.24222" lon="7.35134">
        <ele>405</ele>
        <time>2019-04-14T00:58:56Z</time>
      </trkpt>
      <trkpt lat="48.2422" lon="7.35117">
        <ele>406</ele>
        <time>2019-04-14T00:59:56Z</time>
      </trkpt>
      <trkpt lat="48.24219" lon="7.35096">
        <ele>406</ele>
        <time>2019-04-14T01:00:56Z</time>
      </trkpt>
      <trkpt lat="48.24219" lon="7.3506">
        <ele>408</ele>
        <time>2019-04-14T01:01:56Z</time>
      </trkpt>
      <trkpt lat="48.24221" lon="7.35006">
        <ele>411</ele>
        <time>2019-04-14T01:02:56Z</time>
      </trkpt>
      <trkpt lat="48.24224" lon="7.34981">
        <ele>412</ele>
        <time>2019-04-14T01:03:56Z</time>
      </trkpt>
      <trkpt lat="48.24226" lon="7.3497">
        <ele>412</ele>
        <time>2019-04-14T01:04:56Z</time>
      </trkpt>
      <trkpt lat="48.24232" lon="7.34944">
        <ele>413</ele>
        <time>2019-04-14T01:05:56Z</time>
      </trkpt>
      <trkpt lat="48.2424" lon="7.3492">
        <ele>415</ele>
        <time>2019-04-14T01:06:56Z</time>
      </trkpt>
      <trkpt lat="48.24243" lon="7.34902">
        <ele>415</ele>
        <time>2019-04-14T01:07:56Z</time>
      </trkpt>
      <trkpt lat="48.24248" lon="7.34875">
        <ele>415</ele>
        <time>2019-04-14T01:08:56Z</time>
      </trkpt>
      <trkpt lat="48.24252" lon="7.34848">
        <ele>415</ele>
        <time>2019-04-14T01:09:56Z</time>
      </trkpt>
      <trkpt lat="48.24254" lon="7.34836">
        <ele>415</ele>
        <time>2019-04-14T01:10:56Z</time>
      </trkpt>
      <trkpt lat="48.24257" lon="7.34826">
        <ele>415</ele>
        <time>2019-04-14T01:11:56Z</time>
      </trkpt>
      <trkpt lat="48.24264" lon="7.34818">
        <ele>418</ele>
        <time>2019-04-14T01:12:56Z</time>
      </trkpt>
      <trkpt lat="48.2427" lon="7.34814">
        <ele>420</ele>
        <time>2019-04-14T01:13:56Z</time>
      </trkpt>
      <trkpt lat="48.24275" lon="7.34812">
        <ele>421</ele>
        <time>2019-04-14T01:14:56Z</time>
      </trkpt>
      <trkpt lat="48.24279" lon="7.34812">
        <ele>423</ele>
        <time>2019-04-14T01:15:56Z</time>
      </trkpt>
      <trkpt lat="48.24283" lon="7.34815">
        <ele>424</ele>
        <time>2019-04-14T01:16:56Z</time>
      </trkpt>
      <trkpt lat="48.24285" lon="7.3482">
        <ele>425</ele>
        <time>2019-04-14T01:17:56Z</time>
      </trkpt>
      <trkpt lat="48.24291" lon="7.34845">
        <ele>428</ele>
        <time>2019-04-14T01:18:56Z</time>
      </trkpt>
      <trkpt lat="48.24292" lon="7.34854">
        <ele>429</ele>
        <time>2019-04-14T01:19:56Z</time>
      </trkpt>
      <trkpt lat="48.24291" lon="7.34863">
        <ele>429</ele>
        <time>2019-04-14T01:20:56Z</time>
      </trkpt>
      <trkpt lat="48.24288" lon="7.34872">
        <ele>429</ele>
        <time>2019-04-14T01:21:56Z</time>
      </trkpt>
      <trkpt lat="48.24283" lon="7.3488">
        <ele>427</ele>
        <time>2019-04-14T01:22:56Z</time>
      </trkpt>
      <trkpt lat="48.2428" lon="7.34892">
        <ele>427</ele>
        <time>2019-04-14T01:23:56Z</time>
      </trkpt>
      <trkpt lat="48.24277" lon="7.34904">
        <ele>427</ele>
        <time>2019-04-14T01:24:56Z</time>
      </trkpt>
      <trkpt lat="48.24272" lon="7.34924">
        <ele>426</ele>
        <time>2019-04-14T01:25:56Z</time>
      </trkpt>
      <trkpt lat="48.24272" lon="7.34942">
        <ele>426</ele>
        <time>2019-04-14T01:26:56Z</time>
      </trkpt>
      <trkpt lat="48.24273" lon="7.34957">
        <ele>427</ele>
        <time>2019-04-14T01:27:56Z</time>
      </trkpt>
      <trkpt lat="48.24275" lon="7.3497">
        <ele>428</ele>
        <time>2019-04-14T01:28:56Z</time>
      </trkpt>
      <trkpt lat="48.24278" lon="7.34983">
        <ele>429</ele>
        <time>2019-04-14T01:29:56Z</time>
      </trkpt>
      <trkpt lat="48.24289" lon="7.35008">
        <ele>432</ele>
        <time>2019-04-14T01:30:56Z</time>
      </trkpt>
      <trkpt lat="48.24295" lon="7.35021">
        <ele>433</ele>
        <time>2019-04-14T01:31:56Z</time>
      </trkpt>
      <trkpt lat="48.24311" lon="7.35061">
        <ele>435</ele>
        <time>2019-04-14T01:32:56Z</time>
      </trkpt>
      <trkpt lat="48.24324" lon="7.35088">
        <ele>436</ele>
        <time>2019-04-14T01:33:56Z</time>
      </trkpt>
      <trkpt lat="48.24337" lon="7.35105">
        <ele>437</ele>
        <time>2019-04-14T01:34:56Z</time>
      </trkpt>
      <trkpt lat="48.24352" lon="7.35123">
        <ele>438</ele>
        <time>2019-04-14T01:35:56Z</time>
      </trkpt>
      <trkpt lat="48.24368" lon="7.35136">
        <ele>440</ele>
        <time>2019-04-14T01:36:56Z</time>
      </trkpt>
      <trkpt lat="48.24378" lon="7.3514">
        <ele>441</ele>
        <time>2019-04-14T01:37:56Z</time>
      </trkpt>
      <trkpt lat="48.24388" lon="7.35141">
        <ele>443</ele>
        <time>2019-04-14T01:38:56Z</time>
      </trkpt>
      <trkpt lat="48.24395" lon="7.35138">
        <ele>445</ele>
        <time>2019-04-14T01:39:56Z</time>
      </trkpt>
      <trkpt lat="48.24399" lon="7.35135">
        <ele>446</ele>
        <time>2019-04-14T01:40:56Z</time>
      </trkpt>
      <trkpt lat="48.24402" lon="7.35132">
        <ele>447</ele>
        <time>2019-04-14T01:41:56Z</time>
      </trkpt>
      <trkpt lat="48.24404" lon="7.35127">
        <ele>448</ele>
        <time>2019-04-14T01:42:56Z</time>
      </trkpt>
      <trkpt lat="48.24406" lon="7.35121">
        <ele>450</ele>
        <time>2019-04-14T01:43:56Z</time>
      </trkpt>
      <trkpt lat="48.24409" lon="7.35104">
        <ele>454</ele>
        <time>2019-04-14T01:44:56Z</time>
      </trkpt>
      <trkpt lat="48.24407" lon="7.35097">
        <ele>454</ele>
        <time>2019-04-14T01:45:56Z</time>
      </trkpt>
      <trkpt lat="48.24404" lon="7.35091">
        <ele>455</ele>
        <time>2019-04-14T01:46:56Z</time>
      </trkpt>
      <trkpt lat="48.24398" lon="7.35083">
        <ele>455</ele>
        <time>2019-04-14T01:47:56Z</time>
      </trkpt>
      <trkpt lat="48.24388" lon="7.35073">
        <ele>453</ele>
        <time>2019-04-14T01:48:56Z</time>
      </trkpt>
      <trkpt lat="48.24372" lon="7.35061">
        <ele>451</ele>
        <time>2019-04-14T01:49:56Z</time>
      </trkpt>
      <trkpt lat="48.24367" lon="7.35056">
        <ele>450</ele>
        <time>2019-04-14T01:50:56Z</time>
      </trkpt>
      <trkpt lat="48.24363" lon="7.35048">
        <ele>450</ele>
        <time>2019-04-14T01:51:56Z</time>
      </trkpt>
      <trkpt lat="48.24358" lon="7.3503">
        <ele>450</ele>
        <time>2019-04-14T01:52:56Z</time>
      </trkpt>
      <trkpt lat="48.24356" lon="7.35018">
        <ele>451</ele>
        <time>2019-04-14T01:53:56Z</time>
      </trkpt>
      <trkpt lat="48.24356" lon="7.34996">
        <ele>453</ele>
        <time>2019-04-14T01:54:56Z</time>
      </trkpt>
      <trkpt lat="48.24358" lon="7.34985">
        <ele>454</ele>
        <time>2019-04-14T01:55:56Z</time>
      </trkpt>
      <trkpt lat="48.2436" lon="7.34973">
        <ele>455</ele>
        <time>2019-04-14T01:56:56Z</time>
      </trkpt>
      <trkpt lat="48.24389" lon="7.3486">
        <ele>464</ele>
        <time>2019-04-14T01:57:56Z</time>
      </trkpt>
      <trkpt lat="48.24391" lon="7.34852">
        <ele>465</ele>
        <time>2019-04-14T01:58:56Z</time>
      </trkpt>
      <trkpt lat="48.24395" lon="7.34815">
        <ele>464</ele>
        <time>2019-04-14T01:59:56Z</time>
      </trkpt>
      <trkpt lat="48.24398" lon="7.34788">
        <ele>464</ele>
        <time>2019-04-14T02:00:56Z</time>
      </trkpt>
      <trkpt lat="48.24399" lon="7.34778">
        <ele>464</ele>
        <time>2019-04-14T02:01:56Z</time>
      </trkpt>
      <trkpt lat="48.24407" lon="7.34744">
        <ele>465</ele>
        <time>2019-04-14T02:02:56Z</time>
      </trkpt>
      <trkpt lat="48.24419" lon="7.34714">
        <ele>469</ele>
        <time>2019-04-14T02:03:56Z</time>
      </trkpt>
      <trkpt lat="48.24436" lon="7.34676">
        <ele>476</ele>
        <time>2019-04-14T02:04:56Z</time>
      </trkpt>
      <trkpt lat="48.24439" lon="7.34661">
        <ele>478</ele>
        <time>2019-04-14T02:05:56Z</time>
      </trkpt>
      <trkpt lat="48.24439" lon="7.34648">
        <ele>480</ele>
        <time>2019-04-14T02:06:56Z</time>
      </trkpt>
      <trkpt lat="48.24438" lon="7.34636">
        <ele>481</ele>
        <time>2019-04-14T02:07:56Z</time>
      </trkpt>
      <trkpt lat="48.24434" lon="7.34623">
        <ele>480</ele>
        <time>2019-04-14T02:08:56Z</time>
      </trkpt>
      <trkpt lat="48.24425" lon="7.34602">
        <ele>479</ele>
        <time>2019-04-14T02:09:56Z</time>
      </trkpt>
      <trkpt lat="48.24415" lon="7.34579">
        <ele>478</ele>
        <time>2019-04-14T02:10:56Z</time>
      </trkpt>
      <trkpt lat="48.24409" lon="7.34559">
        <ele>478</ele>
        <time>2019-04-14T02:11:56Z</time>
      </trkpt>
      <trkpt lat="48.24407" lon="7.34543">
        <ele>478</ele>
        <time>2019-04-14T02:12:56Z</time>
      </trkpt>
      <trkpt lat="48.24406" lon="7.34511">
        <ele>481</ele>
        <time>2019-04-14T02:13:56Z</time>
      </trkpt>
      <trkpt lat="48.2441" lon="7.34479">
        <ele>485</ele>
        <time>2019-04-14T02:14:56Z</time>
      </trkpt>
      <trkpt lat="48.24422" lon="7.3444">
        <ele>491</ele>
        <time>2019-04-14T02:15:56Z</time>
      </trkpt>
      <trkpt lat="48.24428" lon="7.34412">
        <ele>495</ele>
        <time>2019-04-14T02:16:56Z</time>
      </trkpt>
      <trkpt lat="48.24429" lon="7.344">
        <ele>497</ele>
        <time>2019-04-14T02:17:56Z</time>
      </trkpt>
      <trkpt lat="48.24429" lon="7.3439">
        <ele>498</ele>
        <time>2019-04-14T02:18:56Z</time>
      </trkpt>
      <trkpt lat="48.24426" lon="7.34372">
        <ele>498</ele>
        <time>2019-04-14T02:19:56Z</time>
      </trkpt>
      <trkpt lat="48.24417" lon="7.34334">
        <ele>499</ele>
        <time>2019-04-14T02:20:56Z</time>
      </trkpt>
      <trkpt lat="48.244" lon="7.34271">
        <ele>498</ele>
        <time>2019-04-14T02:21:56Z</time>
      </trkpt>
      <trkpt lat="48.24398" lon="7.3426">
        <ele>498</ele>
        <time>2019-04-14T02:22:56Z</time>
      </trkpt>
      <trkpt lat="48.24398" lon="7.34253">
        <ele>498</ele>
        <time>2019-04-14T02:23:56Z</time>
      </trkpt>
      <trkpt lat="48.244" lon="7.3424">
        <ele>499</ele>
        <time>2019-04-14T02:24:56Z</time>
      </trkpt>
      <trkpt lat="48.24403" lon="7.34222">
        <ele>500</ele>
        <time>2019-04-14T02:25:56Z</time>
      </trkpt>
      <trkpt lat="48.24453" lon="7.34005">
        <ele>513</ele>
        <time>2019-04-14T02:26:56Z</time>
      </trkpt>
      <trkpt lat="48.24476" lon="7.33924">
        <ele>521</ele>
        <time>2019-04-14T02:27:56Z</time>
      </trkpt>
      <trkpt lat="48.24483" lon="7.33891">
        <ele>525</ele>
        <time>2019-04-14T02:28:56Z</time>
      </trkpt>
      <trkpt lat="48.24484" lon="7.33879">
        <ele>526</ele>
        <time>2019-04-14T02:29:56Z</time>
      </trkpt>
      <trkpt lat="48.24484" lon="7.33868">
        <ele>527</ele>
        <time>2019-04-14T02:30:56Z</time>
      </trkpt>
      <trkpt lat="48.2448" lon="7.33838">
        <ele>527</ele>
        <time>2019-04-14T02:31:56Z</time>
      </trkpt>
      <trkpt lat="48.24476" lon="7.33821">
        <ele>527</ele>
        <time>2019-04-14T02:32:56Z</time>
      </trkpt>
      <trkpt lat="48.24467" lon="7.33797">
        <ele>525</ele>
        <time>2019-04-14T02:33:56Z</time>
      </trkpt>
      <trkpt lat="48.2446" lon="7.33777">
        <ele>524</ele>
        <time>2019-04-14T02:34:56Z</time>
      </trkpt>
      <trkpt lat="48.24458" lon="7.33766">
        <ele>524</ele>
        <time>2019-04-14T02:35:56Z</time>
      </trkpt>
      <trkpt lat="48.24457" lon="7.33755">
        <ele>524</ele>
        <time>2019-04-14T02:36:56Z</time>
      </trkpt>
      <trkpt lat="48.24457" lon="7.33731">
        <ele>524</ele>
        <time>2019-04-14T02:37:56Z</time>
      </trkpt>
      <trkpt lat="48.24458" lon="7.33721">
        <ele>525</ele>
        <time>2019-04-14T02:38:56Z</time>
      </trkpt>
      <trkpt lat="48.24465" lon="7.33705">
        <ele>527</ele>
        <time>2019-04-14T02:39:56Z</time>
      </trkpt>
      <trkpt lat="48.24469" lon="7.33701">
        <ele>529</ele>
        <time>2019-04-14T02:40:56Z</time>
      </trkpt>
      <trkpt lat="48.24477" lon="7.33694">
        <ele>532</ele>
        <time>2019-04-14T02:41:56Z</time>
      </trkpt>
      <trkpt lat="48.24477" lon="7.33694">
        <ele>532</ele>
        <time>2019-04-14T02:42:56Z</time>
      </trkpt>
      <trkpt lat="48.2448" lon="7.33702">
        <ele>533</ele>
        <time>2019-04-14T02:43:56Z</time>
      </trkpt>
      <trkpt lat="48.2448" lon="7.33702">
        <ele>533</ele>
        <time>2019-04-14T02:44:56Z</time>
      </trkpt>
      <trkpt lat="48.24481" lon="7.33707">
        <ele>534</ele>
        <time>2019-04-14T02:45:56Z</time>
      </trkpt>
      <trkpt lat="48.24483" lon="7.33713">
        <ele>535</ele>
        <time>2019-04-14T02:46:56Z</time>
      </trkpt>
      <trkpt lat="48.24485" lon="7.33729">
        <ele>535</ele>
        <time>2019-04-14T02:47:56Z</time>
      </trkpt>
      <trkpt lat="48.24487" lon="7.33749">
        <ele>536</ele>
        <time>2019-04-14T02:48:56Z</time>
      </trkpt>
      <trkpt lat="48.24488" lon="7.33771">
        <ele>535</ele>
        <time>2019-04-14T02:49:56Z</time>
      </trkpt>
      <trkpt lat="48.24489" lon="7.33784">
        <ele>534</ele>
        <time>2019-04-14T02:50:56Z</time>
      </trkpt>
      <trkpt lat="48.24491" lon="7.33797">
        <ele>534</ele>
        <time>2019-04-14T02:51:56Z</time>
      </trkpt>
      <trkpt lat="48.24495" lon="7.33809">
        <ele>535</ele>
        <time>2019-04-14T02:52:56Z</time>
      </trkpt>
      <trkpt lat="48.24499" lon="7.33818">
        <ele>536</ele>
        <time>2019-04-14T02:53:56Z</time>
      </trkpt>
      <trkpt lat="48.24505" lon="7.33826">
        <ele>538</ele>
        <time>2019-04-14T02:54:56Z</time>
      </trkpt>
      <trkpt lat="48.24513" lon="7.33838">
        <ele>540</ele>
        <time>2019-04-14T02:55:56Z</time>
      </trkpt>
      <trkpt lat="48.2452" lon="7.33848">
        <ele>542</ele>
        <time>2019-04-14T02:56:56Z</time>
      </trkpt>
      <trkpt lat="48.24522" lon="7.33855">
        <ele>543</ele>
        <time>2019-04-14T02:57:56Z</time>
      </trkpt>
      <trkpt lat="48.24524" lon="7.33864">
        <ele>543</ele>
        <time>2019-04-14T02:58:56Z</time>
      </trkpt>
      <trkpt lat="48.24526" lon="7.33873">
        <ele>544</ele>
        <time>2019-04-14T02:59:56Z</time>
      </trkpt>
      <trkpt lat="48.24526" lon="7.33887">
        <ele>543</ele>
        <time>2019-04-14T03:00:56Z</time>
      </trkpt>
      <trkpt lat="48.24523" lon="7.33964">
        <ele>541</ele>
        <time>2019-04-14T03:01:56Z</time>
      </trkpt>
      <trkpt lat="48.24522" lon="7.33974">
        <ele>541</ele>
        <time>2019-04-14T03:02:56Z</time>
      </trkpt>
      <trkpt lat="48.24523" lon="7.33985">
        <ele>542</ele>
        <time>2019-04-14T03:03:56Z</time>
      </trkpt>
      <trkpt lat="48.24526" lon="7.34007">
        <ele>543</ele>
        <time>2019-04-14T03:04:56Z</time>
      </trkpt>
      <trkpt lat="48.24535" lon="7.34052">
        <ele>548</ele>
        <time>2019-04-14T03:05:56Z</time>
      </trkpt>
      <trkpt lat="48.24544" lon="7.34085">
        <ele>551</ele>
        <time>2019-04-14T03:06:56Z</time>
      </trkpt>
      <trkpt lat="48.24546" lon="7.34092">
        <ele>552</ele>
        <time>2019-04-14T03:07:56Z</time>
      </trkpt>
      <trkpt lat="48.24548" lon="7.34105">
        <ele>553</ele>
        <time>2019-04-14T03:08:56Z</time>
      </trkpt>
      <trkpt lat="48.24552" lon="7.34119">
        <ele>554</ele>
        <time>2019-04-14T03:09:56Z</time>
      </trkpt>
      <trkpt lat="48.24554" lon="7.34129">
        <ele>555</ele>
        <time>2019-04-14T03:10:56Z</time>
      </trkpt>
      <trkpt lat="48.24557" lon="7.34152">
        <ele>556</ele>
        <time>2019-04-14T03:11:56Z</time>
      </trkpt>
      <trkpt lat="48.24567" lon="7.34266">
        <ele>560</ele>
        <time>2019-04-14T03:12:56Z</time>
      </trkpt>
      <trkpt lat="48.24569" lon="7.34287">
        <ele>560</ele>
        <time>2019-04-14T03:13:56Z</time>
      </trkpt>
      <trkpt lat="48.24576" lon="7.34351">
        <ele>560</ele>
        <time>2019-04-14T03:14:56Z</time>
      </trkpt>
      <trkpt lat="48.24581" lon="7.34371">
        <ele>560</ele>
        <time>2019-04-14T03:15:56Z</time>
      </trkpt>
      <trkpt lat="48.24605" lon="7.34435">
        <ele>561</ele>
        <time>2019-04-14T03:16:56Z</time>
      </trkpt>
      <trkpt lat="48.24615" lon="7.34464">
        <ele>562</ele>
        <time>2019-04-14T03:17:56Z</time>
      </trkpt>
      <trkpt lat="48.24628" lon="7.34503">
        <ele>562</ele>
        <time>2019-04-14T03:18:56Z</time>
      </trkpt>
      <trkpt lat="48.24636" lon="7.34535">
        <ele>563</ele>
        <time>2019-04-14T03:19:56Z</time>
      </trkpt>
      <trkpt lat="48.24641" lon="7.3457">
        <ele>561</ele>
        <time>2019-04-14T03:20:56Z</time>
      </trkpt>
      <trkpt lat="48.24644" lon="7.34586">
        <ele>561</ele>
        <time>2019-04-14T03:21:56Z</time>
      </trkpt>
      <trkpt lat="48.24647" lon="7.34606">
        <ele>560</ele>
        <time>2019-04-14T03:22:56Z</time>
      </trkpt>
      <trkpt lat="48.24648" lon="7.34615">
        <ele>560</ele>
        <time>2019-04-14T03:23:56Z</time>
      </trkpt>
      <trkpt lat="48.24648" lon="7.34623">
        <ele>559</ele>
        <time>2019-04-14T03:24:56Z</time>
      </trkpt>
      <trkpt lat="48.24648" lon="7.34631">
        <ele>558</ele>
        <time>2019-04-14T03:25:56Z</time>
      </trkpt>
      <trkpt lat="48.24648" lon="7.34638">
        <ele>558</ele>
        <time>2019-04-14T03:26:56Z</time>
      </trkpt>
      <trkpt lat="48.24647" lon="7.34647">
        <ele>557</ele>
        <time>2019-04-14T03:27:56Z</time>
      </trkpt>
      <trkpt lat="48.24645" lon="7.34655">
        <ele>555</ele>
        <time>2019-04-14T03:28:56Z</time>
      </trkpt>
      <trkpt lat="48.24643" lon="7.34665">
        <ele>554</ele>
        <time>2019-04-14T03:29:56Z</time>
      </trkpt>
      <trkpt lat="48.24643" lon="7.34672">
        <ele>554</ele>
        <time>2019-04-14T03:30:56Z</time>
      </trkpt>
      <trkpt lat="48.24643" lon="7.3468">
        <ele>553</ele>
        <time>2019-04-14T03:31:56Z</time>
      </trkpt>
      <trkpt lat="48.24643" lon="7.34688">
        <ele>552</ele>
        <time>2019-04-14T03:32:56Z</time>
      </trkpt>
      <trkpt lat="48.24646" lon="7.34695">
        <ele>553</ele>
        <time>2019-04-14T03:33:56Z</time>
      </trkpt>
      <trkpt lat="48.24648" lon="7.34699">
        <ele>553</ele>
        <time>2019-04-14T03:34:56Z</time>
      </trkpt>
      <trkpt lat="48.24652" lon="7.34703">
        <ele>554</ele>
        <time>2019-04-14T03:35:56Z</time>
      </trkpt>
      <trkpt lat="48.24657" lon="7.34706">
        <ele>555</ele>
        <time>2019-04-14T03:36:56Z</time>
      </trkpt>
      <trkpt lat="48.24661" lon="7.34708">
        <ele>556</ele>
        <time>2019-04-14T03:37:56Z</time>
      </trkpt>
      <trkpt lat="48.24665" lon="7.34709">
        <ele>557</ele>
        <time>2019-04-14T03:38:56Z</time>
      </trkpt>
      <trkpt lat="48.24679" lon="7.34705">
        <ele>562</ele>
        <time>2019-04-14T03:39:56Z</time>
      </trkpt>
      <trkpt lat="48.24679" lon="7.34705">
        <ele>562</ele>
        <time>2019-04-14T03:40:56Z</time>
      </trkpt>
      <trkpt lat="48.24676" lon="7.34684">
        <ele>563</ele>
        <time>2019-04-14T03:41:56Z</time>
      </trkpt>
      <trkpt lat="48.24673" lon="7.34643">
        <ele>566</ele>
        <time>2019-04-14T03:42:56Z</time>
      </trkpt>
      <trkpt lat="48.2467" lon="7.34562">
        <ele>573</ele>
        <time>2019-04-14T03:43:56Z</time>
      </trkpt>
      <trkpt lat="48.24669" lon="7.34533">
        <ele>575</ele>
        <time>2019-04-14T03:44:56Z</time>
      </trkpt>
      <trkpt lat="48.24665" lon="7.34488">
        <ele>578</ele>
        <time>2019-04-14T03:45:56Z</time>
      </trkpt>
      <trkpt lat="48.24663" lon="7.34473">
        <ele>578</ele>
        <time>2019-04-14T03:46:56Z</time>
      </trkpt>
      <trkpt lat="48.24663" lon="7.34459">
        <ele>580</ele>
        <time>2019-04-14T03:47:56Z</time>
      </trkpt>
      <trkpt lat="48.24664" lon="7.34384">
        <ele>586</ele>
        <time>2019-04-14T03:48:56Z</time>
      </trkpt>
      <trkpt lat="48.24664" lon="7.34362">
        <ele>588</ele>
        <time>2019-04-14T03:49:56Z</time>
      </trkpt>
      <trkpt lat="48.24664" lon="7.34346">
        <ele>589</ele>
        <time>2019-04-14T03:50:56Z</time>
      </trkpt>
      <trkpt lat="48.24661" lon="7.34256">
        <ele>592</ele>
        <time>2019-04-14T03:51:56Z</time>
      </trkpt>
      <trkpt lat="48.2466" lon="7.34227">
        <ele>593</ele>
        <time>2019-04-14T03:52:56Z</time>
      </trkpt>
      <trkpt lat="48.24659" lon="7.34204">
        <ele>594</ele>
        <time>2019-04-14T03:53:56Z</time>
      </trkpt>
      <trkpt lat="48.2466" lon="7.34184">
        <ele>595</ele>
        <time>2019-04-14T03:54:56Z</time>
      </trkpt>
      <trkpt lat="48.24662" lon="7.34155">
        <ele>597</ele>
        <time>2019-04-14T03:55:56Z</time>
      </trkpt>
      <trkpt lat="48.24663" lon="7.34141">
        <ele>598</ele>
        <time>2019-04-14T03:56:56Z</time>
      </trkpt>
      <trkpt lat="48.24664" lon="7.34119">
        <ele>598</ele>
        <time>2019-04-14T03:57:56Z</time>
      </trkpt>
      <trkpt lat="48.24671" lon="7.34022">
        <ele>602</ele>
        <time>2019-04-14T03:58:56Z</time>
      </trkpt>
      <trkpt lat="48.24682" lon="7.33892">
        <ele>611</ele>
        <time>2019-04-14T03:59:56Z</time>
      </trkpt>
      <trkpt lat="48.24685" lon="7.33824">
        <ele>617</ele>
        <time>2019-04-14T04:00:56Z</time>
      </trkpt>
      <trkpt lat="48.24684" lon="7.33766">
        <ele>620</ele>
        <time>2019-04-14T04:01:56Z</time>
      </trkpt>
      <trkpt lat="48.24681" lon="7.33695">
        <ele>621</ele>
        <time>2019-04-14T04:02:56Z</time>
      </trkpt>
      <trkpt lat="48.24681" lon="7.3366">
        <ele>622</ele>
        <time>2019-04-14T04:03:56Z</time>
      </trkpt>
      <trkpt lat="48.24681" lon="7.33645">
        <ele>622</ele>
        <time>2019-04-14T04:04:56Z</time>
      </trkpt>
      <trkpt lat="48.24683" lon="7.33622">
        <ele>623</ele>
        <time>2019-04-14T04:05:56Z</time>
      </trkpt>
      <trkpt lat="48.24684" lon="7.33589">
        <ele>623</ele>
        <time>2019-04-14T04:06:56Z</time>
      </trkpt>
      <trkpt lat="48.24685" lon="7.33562">
        <ele>623</ele>
        <time>2019-04-14T04:07:56Z</time>
      </trkpt>
      <trkpt lat="48.24685" lon="7.33532">
        <ele>623</ele>
        <time>2019-04-14T04:08:56Z</time>
      </trkpt>
      <trkpt lat="48.24686" lon="7.33498">
        <ele>623</ele>
        <time>2019-04-14T04:09:56Z</time>
      </trkpt>
      <trkpt lat="48.24688" lon="7.33472">
        <ele>625</ele>
        <time>2019-04-14T04:10:56Z</time>
      </trkpt>
      <trkpt lat="48.2469" lon="7.33448">
        <ele>627</ele>
        <time>2019-04-14T04:11:56Z</time>
      </trkpt>
      <trkpt lat="48.24694" lon="7.33422">
        <ele>629</ele>
        <time>2019-04-14T04:12:56Z</time>
      </trkpt>
      <trkpt lat="48.24697" lon="7.33402">
        <ele>630</ele>
        <time>2019-04-14T04:13:56Z</time>
      </trkpt>
      <trkpt lat="48.24701" lon="7.33387">
        <ele>630</ele>
        <time>2019-04-14T04:14:56Z</time>
      </trkpt>
      <trkpt lat="48.24706" lon="7.33372">
        <ele>630</ele>
        <time>2019-04-14T04:15:56Z</time>
      </trkpt>
      <trkpt lat="48.2471" lon="7.33359">
        <ele>631</ele>
        <time>2019-04-14T04:16:56Z</time>
      </trkpt>
      <trkpt lat="48.24714" lon="7.33352">
        <ele>631</ele>
        <time>2019-04-14T04:17:56Z</time>
      </trkpt>
      <trkpt lat="48.24718" lon="7.33348">
        <ele>631</ele>
        <time>2019-04-14T04:18:56Z</time>
      </trkpt>
      <trkpt lat="48.24723" lon="7.33344">
        <ele>632</ele>
        <time>2019-04-14T04:19:56Z</time>
      </trkpt>
      <trkpt lat="48.24728" lon="7.33342">
        <ele>633</ele>
        <time>2019-04-14T04:20:56Z</time>
      </trkpt>
      <trkpt lat="48.24732" lon="7.33342">
        <ele>634</ele>
        <time>2019-04-14T04:21:56Z</time>
      </trkpt>
      <trkpt lat="48.24738" lon="7.33343">
        <ele>635</ele>
        <time>2019-04-14T04:22:56Z</time>
      </trkpt>
      <trkpt lat="48.24743" lon="7.33345">
        <ele>636</ele>
        <time>2019-04-14T04:23:56Z</time>
      </trkpt>
      <trkpt lat="48.24751" lon="7.33349">
        <ele>638</ele>
        <time>2019-04-14T04:24:56Z</time>
      </trkpt>
      <trkpt lat="48.24763" lon="7.33361">
        <ele>640</ele>
        <time>2019-04-14T04:25:56Z</time>
      </trkpt>
      <trkpt lat="48.24809" lon="7.33408">
        <ele>648</ele>
        <time>2019-04-14T04:26:56Z</time>
      </trkpt>
      <trkpt lat="48.24856" lon="7.33461">
        <ele>652</ele>
        <time>2019-04-14T04:27:56Z</time>
      </trkpt>
      <trkpt lat="48.24856" lon="7.33461">
        <ele>652</ele>
        <time>2019-04-14T04:28:56Z</time>
      </trkpt>
      <trkpt lat="48.24853" lon="7.33479">
        <ele>654</ele>
        <time>2019-04-14T04:29:56Z</time>
      </trkpt>
      <trkpt lat="48.2485" lon="7.33486">
        <ele>655</ele>
        <time>2019-04-14T04:30:56Z</time>
      </trkpt>
      <trkpt lat="48.24843" lon="7.33493">
        <ele>657</ele>
        <time>2019-04-14T04:31:56Z</time>
      </trkpt>
      <trkpt lat="48.24836" lon="7.33493">
        <ele>657</ele>
        <time>2019-04-14T04:32:56Z</time>
      </trkpt>
      <trkpt lat="48.24822" lon="7.33491">
        <ele>656</ele>
        <time>2019-04-14T04:33:56Z</time>
      </trkpt>
      <trkpt lat="48.24802" lon="7.33486">
        <ele>654</ele>
        <time>2019-04-14T04:34:56Z</time>
      </trkpt>
      <trkpt lat="48.24789" lon="7.33486">
        <ele>652</ele>
        <time>2019-04-14T04:35:56Z</time>
      </trkpt>
      <trkpt lat="48.24785" lon="7.3349">
        <ele>652</ele>
        <time>2019-04-14T04:36:56Z</time>
      </trkpt>
      <trkpt lat="48.24771" lon="7.33502">
        <ele>651</ele>
        <time>2019-04-14T04:37:56Z</time>
      </trkpt>
      <trkpt lat="48.24768" lon="7.33508">
        <ele>652</ele>
        <time>2019-04-14T04:38:56Z</time>
      </trkpt>
      <trkpt lat="48.24765" lon="7.33516">
        <ele>652</ele>
        <time>2019-04-14T04:39:56Z</time>
      </trkpt>
      <trkpt lat="48.24762" lon="7.33526">
        <ele>652</ele>
        <time>2019-04-14T04:40:56Z</time>
      </trkpt>
      <trkpt lat="48.24761" lon="7.33536">
        <ele>653</ele>
        <time>2019-04-14T04:41:56Z</time>
      </trkpt>
      <trkpt lat="48.24759" lon="7.33549">
        <ele>653</ele>
        <time>2019-04-14T04:42:56Z</time>
      </trkpt>
      <trkpt lat="48.24759" lon="7.33553">
        <ele>653</ele>
        <time>2019-04-14T04:43:56Z</time>
      </trkpt>
      <trkpt lat="48.24759" lon="7.33554">
        <ele>653</ele>
        <time>2019-04-14T04:44:56Z</time>
      </trkpt>
      <trkpt lat="48.24758" lon="7.33563">
        <ele>654</ele>
        <time>2019-04-14T04:45:56Z</time>
      </trkpt>
      <trkpt lat="48.24759" lon="7.33571">
        <ele>654</ele>
        <time>2019-04-14T04:46:56Z</time>
      </trkpt>
      <trkpt lat="48.24763" lon="7.33651">
        <ele>660</ele>
        <time>2019-04-14T04:47:56Z</time>
      </trkpt>
      <trkpt lat="48.24769" lon="7.33706">
        <ele>664</ele>
        <time>2019-04-14T04:48:56Z</time>
      </trkpt>
      <trkpt lat="48.24779" lon="7.33762">
        <ele>670</ele>
        <time>2019-04-14T04:49:56Z</time>
      </trkpt>
      <trkpt lat="48.24806" lon="7.33933">
        <ele>678</ele>
        <time>2019-04-14T04:50:56Z</time>
      </trkpt>
      <trkpt lat="48.24821" lon="7.34026">
        <ele>686</ele>
        <time>2019-04-14T04:51:56Z</time>
      </trkpt>
      <trkpt lat="48.24825" lon="7.34052">
        <ele>686</ele>
        <time>2019-04-14T04:52:56Z</time>
      </trkpt>
      <trkpt lat="48.24833" lon="7.34114">
        <ele>689</ele>
        <time>2019-04-14T04:53:56Z</time>
      </trkpt>
      <trkpt lat="48.24842" lon="7.34185">
        <ele>694</ele>
        <time>2019-04-14T04:54:56Z</time>
      </trkpt>
      <trkpt lat="48.24869" lon="7.34364">
        <ele>696</ele>
        <time>2019-04-14T04:55:56Z</time>
      </trkpt>
      <trkpt lat="48.24871" lon="7.34376">
        <ele>696</ele>
        <time>2019-04-14T04:56:56Z</time>
      </trkpt>
      <trkpt lat="48.24877" lon="7.34411">
        <ele>697</ele>
        <time>2019-04-14T04:57:56Z</time>
      </trkpt>
      <trkpt lat="48.24888" lon="7.34456">
        <ele>699</ele>
        <time>2019-04-14T04:58:56Z</time>
      </trkpt>
      <trkpt lat="48.24892" lon="7.34473">
        <ele>700</ele>
        <time>2019-04-14T04:59:56Z</time>
      </trkpt>
      <trkpt lat="48.249" lon="7.34511">
        <ele>700</ele>
        <time>2019-04-14T05:00:56Z</time>
      </trkpt>
      <trkpt lat="48.2491" lon="7.34551">
        <ele>699</ele>
        <time>2019-04-14T05:01:56Z</time>
      </trkpt>
      <trkpt lat="48.2492" lon="7.34585">
        <ele>697</ele>
        <time>2019-04-14T05:02:56Z</time>
      </trkpt>
      <trkpt lat="48.24932" lon="7.34614">
        <ele>692</ele>
        <time>2019-04-14T05:03:56Z</time>
      </trkpt>
      <trkpt lat="48.24937" lon="7.34625">
        <ele>690</ele>
        <time>2019-04-14T05:04:56Z</time>
      </trkpt>
      <trkpt lat="48.24942" lon="7.34631">
        <ele>689</ele>
        <time>2019-04-14T05:05:56Z</time>
      </trkpt>
      <trkpt lat="48.24949" lon="7.34633">
        <ele>689</ele>
        <time>2019-04-14T05:06:56Z</time>
      </trkpt>
      <trkpt lat="48.24952" lon="7.34633">
        <ele>689</ele>
        <time>2019-04-14T05:07:56Z</time>
      </trkpt>
      <trkpt lat="48.24956" lon="7.34631">
        <ele>690</ele>
        <time>2019-04-14T05:08:56Z</time>
      </trkpt>
      <trkpt lat="48.24961" lon="7.34627">
        <ele>691</ele>
        <time>2019-04-14T05:09:56Z</time>
      </trkpt>
      <trkpt lat="48.24966" lon="7.34624">
        <ele>692</ele>
        <time>2019-04-14T05:10:56Z</time>
      </trkpt>
      <trkpt lat="48.24972" lon="7.34616">
        <ele>694</ele>
        <time>2019-04-14T05:11:56Z</time>
      </trkpt>
      <trkpt lat="48.2498" lon="7.34601">
        <ele>698</ele>
        <time>2019-04-14T05:12:56Z</time>
      </trkpt>
      <trkpt lat="48.24987" lon="7.34582">
        <ele>702</ele>
        <time>2019-04-14T05:13:56Z</time>
      </trkpt>
      <trkpt lat="48.25001" lon="7.34521">
        <ele>708</ele>
        <time>2019-04-14T05:14:56Z</time>
      </trkpt>
      <trkpt lat="48.25005" lon="7.34492">
        <ele>709</ele>
        <time>2019-04-14T05:15:56Z</time>
      </trkpt>
      <trkpt lat="48.25007" lon="7.34469">
        <ele>709</ele>
        <time>2019-04-14T05:16:56Z</time>
      </trkpt>
      <trkpt lat="48.25011" lon="7.34355">
        <ele>710</ele>
        <time>2019-04-14T05:17:56Z</time>
      </trkpt>
      <trkpt lat="48.25011" lon="7.34302">
        <ele>710</ele>
        <time>2019-04-14T05:18:56Z</time>
      </trkpt>
      <trkpt lat="48.25012" lon="7.34256">
        <ele>709</ele>
        <time>2019-04-14T05:19:56Z</time>
      </trkpt>
      <trkpt lat="48.25015" lon="7.34182">
        <ele>705</ele>
        <time>2019-04-14T05:20:56Z</time>
      </trkpt>
      <trkpt lat="48.25016" lon="7.34145">
        <ele>703</ele>
        <time>2019-04-14T05:21:56Z</time>
      </trkpt>
      <trkpt lat="48.25024" lon="7.3399">
        <ele>693</ele>
        <time>2019-04-14T05:22:56Z</time>
      </trkpt>
      <trkpt lat="48.25028" lon="7.33904">
        <ele>685</ele>
        <time>2019-04-14T05:23:56Z</time>
      </trkpt>
      <trkpt lat="48.25027" lon="7.3387">
        <ele>681</ele>
        <time>2019-04-14T05:24:56Z</time>
      </trkpt>
      <trkpt lat="48.25026" lon="7.33842">
        <ele>679</ele>
        <time>2019-04-14T05:25:56Z</time>
      </trkpt>
      <trkpt lat="48.25025" lon="7.33799">
        <ele>673</ele>
        <time>2019-04-14T05:26:56Z</time>
      </trkpt>
      <trkpt lat="48.25022" lon="7.33767">
        <ele>670</ele>
        <time>2019-04-14T05:27:56Z</time>
      </trkpt>
      <trkpt lat="48.25013" lon="7.3373">
        <ele>668</ele>
        <time>2019-04-14T05:28:56Z</time>
      </trkpt>
      <trkpt lat="48.25005" lon="7.33714">
        <ele>668</ele>
        <time>2019-04-14T05:29:56Z</time>
      </trkpt>
      <trkpt lat="48.24998" lon="7.33701">
        <ele>669</ele>
        <time>2019-04-14T05:30:56Z</time>
      </trkpt>
      <trkpt lat="48.24984" lon="7.33674">
        <ele>668</ele>
        <time>2019-04-14T05:31:56Z</time>
      </trkpt>
      <trkpt lat="48.24968" lon="7.33649">
        <ele>667</ele>
        <time>2019-04-14T05:32:56Z</time>
      </trkpt>
      <trkpt lat="48.24948" lon="7.33622">
        <ele>667</ele>
        <time>2019-04-14T05:33:56Z</time>
      </trkpt>
      <trkpt lat="48.24921" lon="7.33578">
        <ele>665</ele>
        <time>2019-04-14T05:34:56Z</time>
      </trkpt>
      <trkpt lat="48.24886" lon="7.33518">
        <ele>657</ele>
        <time>2019-04-14T05:35:56Z</time>
      </trkpt>
      <trkpt lat="48.24856" lon="7.33461">
        <ele>652</ele>
        <time>2019-04-14T05:36:56Z</time>
      </trkpt>
      <trkpt lat="48.24809" lon="7.33408">
        <ele>648</ele>
        <time>2019-04-14T05:37:56Z</time>
      </trkpt>
      <trkpt lat="48.24763" lon="7.33361">
        <ele>640</ele>
        <time>2019-04-14T05:38:56Z</time>
      </trkpt>
      <trkpt lat="48.24751" lon="7.33349">
        <ele>638</ele>
        <time>2019-04-14T05:39:56Z</time>
      </trkpt>
      <trkpt lat="48.24743" lon="7.33345">
        <ele>636</ele>
        <time>2019-04-14T05:40:56Z</time>
      </trkpt>
      <trkpt lat="48.24738" lon="7.33343">
        <ele>635</ele>
        <time>2019-04-14T05:41:56Z</time>
      </trkpt>
      <trkpt lat="48.24732" lon="7.33342">
        <ele>634</ele>
        <time>2019-04-14T05:42:56Z</time>
      </trkpt>
      <trkpt lat="48.24728" lon="7.33342">
        <ele>633</ele>
        <time>2019-04-14T05:43:56Z</time>
      </trkpt>
      <trkpt lat="48.24723" lon="7.33344">
        <ele>632</ele>
        <time>2019-04-14T05:44:56Z</time>
      </trkpt>
      <trkpt lat="48.24718" lon="7.33348">
        <ele>631</ele>
        <time>2019-04-14T05:45:56Z</time>
      </trkpt>
      <trkpt lat="48.24714" lon="7.33352">
        <ele>631</ele>
        <time>2019-04-14T05:46:56Z</time>
      </trkpt>
      <trkpt lat="48.2471" lon="7.33359">
        <ele>631</ele>
        <time>2019-04-14T05:47:56Z</time>
      </trkpt>
      <trkpt lat="48.24706" lon="7.33372">
        <ele>630</ele>
        <time>2019-04-14T05:48:56Z</time>
      </trkpt>
      <trkpt lat="48.24701" lon="7.33387">
        <ele>630</ele>
        <time>2019-04-14T05:49:56Z</time>
      </trkpt>
      <trkpt lat="48.24697" lon="7.33402">
        <ele>630</ele>
        <time>2019-04-14T05:50:56Z</time>
      </trkpt>
      <trkpt lat="48.24694" lon="7.33422">
        <ele>629</ele>
        <time>2019-04-14T05:51:56Z</time>
      </trkpt>
      <trkpt lat="48.2469" lon="7.33448">
        <ele>627</ele>
        <time>2019-04-14T05:52:56Z</time>
      </trkpt>
      <trkpt lat="48.24688" lon="7.33472">
        <ele>625</ele>
        <time>2019-04-14T05:53:56Z</time>
      </trkpt>
      <trkpt lat="48.24686" lon="7.33498">
        <ele>623</ele>
        <time>2019-04-14T05:54:56Z</time>
      </trkpt>
      <trkpt lat="48.24685" lon="7.33532">
        <ele>623</ele>
        <time>2019-04-14T05:55:56Z</time>
      </trkpt>
      <trkpt lat="48.24685" lon="7.33562">
        <ele>623</ele>
        <time>2019-04-14T05:56:56Z</time>
      </trkpt>
      <trkpt lat="48.24684" lon="7.33589">
        <ele>623</ele>
        <time>2019-04-14T05:57:56Z</time>
      </trkpt>
      <trkpt lat="48.24683" lon="7.33622">
        <ele>623</ele>
        <time>2019-04-14T05:58:56Z</time>
      </trkpt>
      <trkpt lat="48.24681" lon="7.33645">
        <ele>622</ele>
        <time>2019-04-14T05:59:56Z</time>
      </trkpt>
      <trkpt lat="48.24681" lon="7.3366">
        <ele>622</ele>
        <time>2019-04-14T06:00:56Z</time>
      </trkpt>
      <trkpt lat="48.24681" lon="7.33695">
        <ele>621</ele>
        <time>2019-04-14T06:01:56Z</time>
      </trkpt>
      <trkpt lat="48.24684" lon="7.33766">
        <ele>620</ele>
        <time>2019-04-14T06:02:56Z</time>
      </trkpt>
      <trkpt lat="48.24685" lon="7.33824">
        <ele>617</ele>
        <time>2019-04-14T06:03:56Z</time>
      </trkpt>
      <trkpt lat="48.24682" lon="7.33892">
        <ele>611</ele>
        <time>2019-04-14T06:04:56Z</time>
      </trkpt>
      <trkpt lat="48.24671" lon="7.34022">
        <ele>602</ele>
        <time>2019-04-14T06:05:56Z</time>
      </trkpt>
      <trkpt lat="48.24664" lon="7.34119">
        <ele>598</ele>
        <time>2019-04-14T06:06:56Z</time>
      </trkpt>
      <trkpt lat="48.24663" lon="7.34141">
        <ele>598</ele>
        <time>2019-04-14T06:07:56Z</time>
      </trkpt>
      <trkpt lat="48.24662" lon="7.34155">
        <ele>597</ele>
        <time>2019-04-14T06:08:56Z</time>
      </trkpt>
      <trkpt lat="48.2466" lon="7.34184">
        <ele>595</ele>
        <time>2019-04-14T06:09:56Z</time>
      </trkpt>
      <trkpt lat="48.24659" lon="7.34204">
        <ele>594</ele>
        <time>2019-04-14T06:10:56Z</time>
      </trkpt>
      <trkpt lat="48.2466" lon="7.34227">
        <ele>593</ele>
        <time>2019-04-14T06:11:56Z</time>
      </trkpt>
      <trkpt lat="48.24661" lon="7.34256">
        <ele>592</ele>
        <time>2019-04-14T06:12:56Z</time>
      </trkpt>
      <trkpt lat="48.24664" lon="7.34346">
        <ele>589</ele>
        <time>2019-04-14T06:13:56Z</time>
      </trkpt>
      <trkpt lat="48.24664" lon="7.34362">
        <ele>588</ele>
        <time>2019-04-14T06:14:56Z</time>
      </trkpt>
      <trkpt lat="48.24664" lon="7.34384">
        <ele>586</ele>
        <time>2019-04-14T06:15:56Z</time>
      </trkpt>
      <trkpt lat="48.24663" lon="7.34459">
        <ele>580</ele>
        <time>2019-04-14T06:16:56Z</time>
      </trkpt>
      <trkpt lat="48.24663" lon="7.34473">
        <ele>578</ele>
        <time>2019-04-14T06:17:56Z</time>
      </trkpt>
      <trkpt lat="48.24665" lon="7.34488">
        <ele>578</ele>
        <time>2019-04-14T06:18:56Z</time>
      </trkpt>
      <trkpt lat="48.24669" lon="7.34533">
        <ele>575</ele>
        <time>2019-04-14T06:19:56Z</time>
      </trkpt>
      <trkpt lat="48.2467" lon="7.34562">
        <ele>573</ele>
        <time>2019-04-14T06:20:56Z</time>
      </trkpt>
      <trkpt lat="48.24673" lon="7.34643">
        <ele>566</ele>
        <time>2019-04-14T06:21:56Z</time>
      </trkpt>
      <trkpt lat="48.24676" lon="7.34684">
        <ele>563</ele>
        <time>2019-04-14T06:22:56Z</time>
      </trkpt>
      <trkpt lat="48.24679" lon="7.34705">
        <ele>562</ele>
        <time>2019-04-14T06:23:56Z</time>
      </trkpt>
      <trkpt lat="48.24679" lon="7.34705">
        <ele>562</ele>
        <time>2019-04-14T06:24:56Z</time>
      </trkpt>
      <trkpt lat="48.24665" lon="7.34709">
        <ele>557</ele>
        <time>2019-04-14T06:25:56Z</time>
      </trkpt>
      <trkpt lat="48.24665" lon="7.34709">
        <ele>557</ele>
        <time>2019-04-14T06:26:56Z</time>
      </trkpt>
      <trkpt lat="48.24661" lon="7.34708">
        <ele>556</ele>
        <time>2019-04-14T06:27:56Z</time>
      </trkpt>
      <trkpt lat="48.24657" lon="7.34706">
        <ele>555</ele>
        <time>2019-04-14T06:28:56Z</time>
      </trkpt>
      <trkpt lat="48.24652" lon="7.34703">
        <ele>554</ele>
        <time>2019-04-14T06:29:56Z</time>
      </trkpt>
      <trkpt lat="48.24648" lon="7.34699">
        <ele>553</ele>
        <time>2019-04-14T06:30:56Z</time>
      </trkpt>
      <trkpt lat="48.24646" lon="7.34695">
        <ele>553</ele>
        <time>2019-04-14T06:31:56Z</time>
      </trkpt>
      <trkpt lat="48.24643" lon="7.34688">
        <ele>552</ele>
        <time>2019-04-14T06:32:56Z</time>
      </trkpt>
      <trkpt lat="48.24643" lon="7.3468">
        <ele>553</ele>
        <time>2019-04-14T06:33:56Z</time>
      </trkpt>
      <trkpt lat="48.24643" lon="7.34672">
        <ele>554</ele>
        <time>2019-04-14T06:34:56Z</time>
      </trkpt>
      <trkpt lat="48.24643" lon="7.34665">
        <ele>554</ele>
        <time>2019-04-14T06:35:56Z</time>
      </trkpt>
      <trkpt lat="48.24645" lon="7.34655">
        <ele>555</ele>
        <time>2019-04-14T06:36:56Z</time>
      </trkpt>
      <trkpt lat="48.24647" lon="7.34647">
        <ele>557</ele>
        <time>2019-04-14T06:37:56Z</time>
      </trkpt>
      <trkpt lat="48.24648" lon="7.34638">
        <ele>558</ele>
        <time>2019-04-14T06:38:56Z</time>
      </trkpt>
      <trkpt lat="48.24648" lon="7.34631">
        <ele>558</ele>
        <time>2019-04-14T06:39:56Z</time>
      </trkpt>
      <trkpt lat="48.24648" lon="7.34623">
        <ele>559</ele>
        <time>2019-04-14T06:40:56Z</time>
      </trkpt>
      <trkpt lat="48.24648" lon="7.34615">
        <ele>560</ele>
        <time>2019-04-14T06:41:56Z</time>
      </trkpt>
      <trkpt lat="48.24647" lon="7.34606">
        <ele>560</ele>
        <time>2019-04-14T06:42:56Z</time>
      </trkpt>
      <trkpt lat="48.24644" lon="7.34586">
        <ele>561</ele>
        <time>2019-04-14T06:43:56Z</time>
      </trkpt>
      <trkpt lat="48.24641" lon="7.3457">
        <ele>561</ele>
        <time>2019-04-14T06:44:56Z</time>
      </trkpt>
      <trkpt lat="48.24636" lon="7.34535">
        <ele>563</ele>
        <time>2019-04-14T06:45:56Z</time>
      </trkpt>
      <trkpt lat="48.24628" lon="7.34503">
        <ele>562</ele>
        <time>2019-04-14T06:46:56Z</time>
      </trkpt>
      <trkpt lat="48.24615" lon="7.34464">
        <ele>562</ele>
        <time>2019-04-14T06:47:56Z</time>
      </trkpt>
      <trkpt lat="48.24605" lon="7.34435">
        <ele>561</ele>
        <time>2019-04-14T06:48:56Z</time>
      </trkpt>
      <trkpt lat="48.24581" lon="7.34371">
        <ele>560</ele>
        <time>2019-04-14T06:49:56Z</time>
      </trkpt>
      <trkpt lat="48.24576" lon="7.34351">
        <ele>560</ele>
        <time>2019-04-14T06:50:56Z</time>
      </trkpt>
      <trkpt lat="48.24569" lon="7.34287">
        <ele>560</ele>
        <time>2019-04-14T06:51:56Z</time>
      </trkpt>
      <trkpt lat="48.24567" lon="7.34266">
        <ele>560</ele>
        <time>2019-04-14T06:52:56Z</time>
      </trkpt>
      <trkpt lat="48.24557" lon="7.34152">
        <ele>556</ele>
        <time>2019-04-14T06:53:56Z</time>
      </trkpt>
      <trkpt lat="48.24554" lon="7.34129">
        <ele>555</ele>
        <time>2019-04-14T06:54:56Z</time>
      </trkpt>
      <trkpt lat="48.24552" lon="7.34119">
        <ele>554</ele>
        <time>2019-04-14T06:55:56Z</time>
      </trkpt>
      <trkpt lat="48.24548" lon="7.34105">
        <ele>553</ele>
        <time>2019-04-14T06:56:56Z</time>
      </trkpt>
      <trkpt lat="48.24546" lon="7.34092">
        <ele>552</ele>
        <time>2019-04-14T06:57:56Z</time>
      </trkpt>
      <trkpt lat="48.24544" lon="7.34085">
        <ele>551</ele>
        <time>2019-04-14T06:58:56Z</time>
      </trkpt>
      <trkpt lat="48.24535" lon="7.34052">
        <ele>548</ele>
        <time>2019-04-14T06:59:56Z</time>
      </trkpt>
      <trkpt lat="48.24526" lon="7.34007">
        <ele>543</ele>
        <time>2019-04-14T07:00:56Z</time>
      </trkpt>
      <trkpt lat="48.24523" lon="7.33985">
        <ele>542</ele>
        <time>2019-04-14T07:01:56Z</time>
      </trkpt>
      <trkpt lat="48.24522" lon="7.33974">
        <ele>541</ele>
        <time>2019-04-14T07:02:56Z</time>
      </trkpt>
      <trkpt lat="48.24523" lon="7.33964">
        <ele>541</ele>
        <time>2019-04-14T07:03:56Z</time>
      </trkpt>
      <trkpt lat="48.24526" lon="7.33887">
        <ele>543</ele>
        <time>2019-04-14T07:04:56Z</time>
      </trkpt>
      <trkpt lat="48.24526" lon="7.33873">
        <ele>544</ele>
        <time>2019-04-14T07:05:56Z</time>
      </trkpt>
      <trkpt lat="48.24524" lon="7.33864">
        <ele>543</ele>
        <time>2019-04-14T07:06:56Z</time>
      </trkpt>
      <trkpt lat="48.24522" lon="7.33855">
        <ele>543</ele>
        <time>2019-04-14T07:07:56Z</time>
      </trkpt>
      <trkpt lat="48.2452" lon="7.33848">
        <ele>542</ele>
        <time>2019-04-14T07:08:56Z</time>
      </trkpt>
      <trkpt lat="48.24513" lon="7.33838">
        <ele>540</ele>
        <time>2019-04-14T07:09:56Z</time>
      </trkpt>
      <trkpt lat="48.24505" lon="7.33826">
        <ele>538</ele>
        <time>2019-04-14T07:10:56Z</time>
      </trkpt>
      <trkpt lat="48.24499" lon="7.33818">
        <ele>536</ele>
        <time>2019-04-14T07:11:56Z</time>
      </trkpt>
      <trkpt lat="48.24495" lon="7.33809">
        <ele>535</ele>
        <time>2019-04-14T07:12:56Z</time>
      </trkpt>
      <trkpt lat="48.24491" lon="7.33797">
        <ele>534</ele>
        <time>2019-04-14T07:13:56Z</time>
      </trkpt>
      <trkpt lat="48.24489" lon="7.33784">
        <ele>534</ele>
        <time>2019-04-14T07:14:56Z</time>
      </trkpt>
      <trkpt lat="48.24488" lon="7.33771">
        <ele>535</ele>
        <time>2019-04-14T07:15:56Z</time>
      </trkpt>
      <trkpt lat="48.24487" lon="7.33749">
        <ele>536</ele>
        <time>2019-04-14T07:16:56Z</time>
      </trkpt>
      <trkpt lat="48.24485" lon="7.33729">
        <ele>535</ele>
        <time>2019-04-14T07:17:56Z</time>
      </trkpt>
      <trkpt lat="48.24483" lon="7.33713">
        <ele>535</ele>
        <time>2019-04-14T07:18:56Z</time>
      </trkpt>
      <trkpt lat="48.24481" lon="7.33707">
        <ele>534</ele>
        <time>2019-04-14T07:19:56Z</time>
      </trkpt>
      <trkpt lat="48.24477" lon="7.33694">
        <ele>532</ele>
        <time>2019-04-14T07:20:56Z</time>
      </trkpt>
      <trkpt lat="48.24477" lon="7.33694">
        <ele>532</ele>
        <time>2019-04-14T07:21:56Z</time>
      </trkpt>
      <trkpt lat="48.24476" lon="7.33684">
        <ele>532</ele>
        <time>2019-04-14T07:22:56Z</time>
      </trkpt>
      <trkpt lat="48.24476" lon="7.33677">
        <ele>532</ele>
        <time>2019-04-14T07:23:56Z</time>
      </trkpt>
      <trkpt lat="48.24476" lon="7.33674">
        <ele>532</ele>
        <time>2019-04-14T07:24:56Z</time>
      </trkpt>
      <trkpt lat="48.24477" lon="7.33664">
        <ele>532</ele>
        <time>2019-04-14T07:25:56Z</time>
      </trkpt>
      <trkpt lat="48.24478" lon="7.33659">
        <ele>532</ele>
        <time>2019-04-14T07:26:56Z</time>
      </trkpt>
      <trkpt lat="48.24479" lon="7.33648">
        <ele>533</ele>
        <time>2019-04-14T07:27:56Z</time>
      </trkpt>
      <trkpt lat="48.24481" lon="7.33635">
        <ele>534</ele>
        <time>2019-04-14T07:28:56Z</time>
      </trkpt>
      <trkpt lat="48.24483" lon="7.33621">
        <ele>534</ele>
        <time>2019-04-14T07:29:56Z</time>
      </trkpt>
      <trkpt lat="48.24485" lon="7.33614">
        <ele>535</ele>
        <time>2019-04-14T07:30:56Z</time>
      </trkpt>
      <trkpt lat="48.24488" lon="7.33593">
        <ele>536</ele>
        <time>2019-04-14T07:31:56Z</time>
      </trkpt>
      <trkpt lat="48.24488" lon="7.33586">
        <ele>536</ele>
        <time>2019-04-14T07:32:56Z</time>
      </trkpt>
      <trkpt lat="48.24489" lon="7.33579">
        <ele>537</ele>
        <time>2019-04-14T07:33:56Z</time>
      </trkpt>
      <trkpt lat="48.24491" lon="7.33566">
        <ele>539</ele>
        <time>2019-04-14T07:34:56Z</time>
      </trkpt>
      <trkpt lat="48.24492" lon="7.33559">
        <ele>540</ele>
        <time>2019-04-14T07:35:56Z</time>
      </trkpt>
      <trkpt lat="48.24493" lon="7.33547">
        <ele>541</ele>
        <time>2019-04-14T07:36:56Z</time>
      </trkpt>
      <trkpt lat="48.24493" lon="7.33541">
        <ele>542</ele>
        <time>2019-04-14T07:37:56Z</time>
      </trkpt>
      <trkpt lat="48.24493" lon="7.33535">
        <ele>542</ele>
        <time>2019-04-14T07:38:56Z</time>
      </trkpt>
      <trkpt lat="48.24493" lon="7.33518">
        <ele>543</ele>
        <time>2019-04-14T07:39:56Z</time>
      </trkpt>
      <trkpt lat="48.24491" lon="7.33498">
        <ele>544</ele>
        <time>2019-04-14T07:40:56Z</time>
      </trkpt>
      <trkpt lat="48.2449" lon="7.33477">
        <ele>545</ele>
        <time>2019-04-14T07:41:56Z</time>
      </trkpt>
      <trkpt lat="48.24489" lon="7.33447">
        <ele>547</ele>
        <time>2019-04-14T07:42:56Z</time>
      </trkpt>
      <trkpt lat="48.24486" lon="7.33401">
        <ele>549</ele>
        <time>2019-04-14T07:43:56Z</time>
      </trkpt>
      <trkpt lat="48.24485" lon="7.3338">
        <ele>550</ele>
        <time>2019-04-14T07:44:56Z</time>
      </trkpt>
      <trkpt lat="48.24484" lon="7.33367">
        <ele>550</ele>
        <time>2019-04-14T07:45:56Z</time>
      </trkpt>
      <trkpt lat="48.24484" lon="7.33353">
        <ele>551</ele>
        <time>2019-04-14T07:46:56Z</time>
      </trkpt>
      <trkpt lat="48.24483" lon="7.3334">
        <ele>551</ele>
        <time>2019-04-14T07:47:56Z</time>
      </trkpt>
      <trkpt lat="48.24482" lon="7.33332">
        <ele>551</ele>
        <time>2019-04-14T07:48:56Z</time>
      </trkpt>
      <trkpt lat="48.24481" lon="7.33312">
        <ele>552</ele>
        <time>2019-04-14T07:49:56Z</time>
      </trkpt>
      <trkpt lat="48.24481" lon="7.33297">
        <ele>552</ele>
        <time>2019-04-14T07:50:56Z</time>
      </trkpt>
      <trkpt lat="48.24482" lon="7.3329">
        <ele>553</ele>
        <time>2019-04-14T07:51:56Z</time>
      </trkpt>
      <trkpt lat="48.24482" lon="7.33282">
        <ele>554</ele>
        <time>2019-04-14T07:52:56Z</time>
      </trkpt>
      <trkpt lat="48.24483" lon="7.33274">
        <ele>554</ele>
        <time>2019-04-14T07:53:56Z</time>
      </trkpt>
      <trkpt lat="48.24486" lon="7.33258">
        <ele>556</ele>
        <time>2019-04-14T07:54:56Z</time>
      </trkpt>
      <trkpt lat="48.24489" lon="7.33233">
        <ele>558</ele>
        <time>2019-04-14T07:55:56Z</time>
      </trkpt>
      <trkpt lat="48.24495" lon="7.33187">
        <ele>561</ele>
        <time>2019-04-14T07:56:56Z</time>
      </trkpt>
      <trkpt lat="48.24497" lon="7.33167">
        <ele>562</ele>
        <time>2019-04-14T07:57:56Z</time>
      </trkpt>
      <trkpt lat="48.24499" lon="7.33148">
        <ele>563</ele>
        <time>2019-04-14T07:58:56Z</time>
      </trkpt>
      <trkpt lat="48.245" lon="7.33128">
        <ele>563</ele>
        <time>2019-04-14T07:59:56Z</time>
      </trkpt>
      <trkpt lat="48.24501" lon="7.3311">
        <ele>564</ele>
        <time>2019-04-14T08:00:56Z</time>
      </trkpt>
      <trkpt lat="48.24501" lon="7.33091">
        <ele>564</ele>
        <time>2019-04-14T08:01:56Z</time>
      </trkpt>
      <trkpt lat="48.245" lon="7.33063">
        <ele>565</ele>
        <time>2019-04-14T08:02:56Z</time>
      </trkpt>
      <trkpt lat="48.24498" lon="7.33035">
        <ele>566</ele>
        <time>2019-04-14T08:03:56Z</time>
      </trkpt>
      <trkpt lat="48.24496" lon="7.33018">
        <ele>566</ele>
        <time>2019-04-14T08:04:56Z</time>
      </trkpt>
      <trkpt lat="48.24494" lon="7.33">
        <ele>566</ele>
        <time>2019-04-14T08:05:56Z</time>
      </trkpt>
      <trkpt lat="48.24493" lon="7.32992">
        <ele>567</ele>
        <time>2019-04-14T08:06:56Z</time>
      </trkpt>
      <trkpt lat="48.24492" lon="7.32983">
        <ele>568</ele>
        <time>2019-04-14T08:07:56Z</time>
      </trkpt>
      <trkpt lat="48.24491" lon="7.32975">
        <ele>568</ele>
        <time>2019-04-14T08:08:56Z</time>
      </trkpt>
      <trkpt lat="48.24489" lon="7.32966">
        <ele>569</ele>
        <time>2019-04-14T08:09:56Z</time>
      </trkpt>
      <trkpt lat="48.24486" lon="7.32956">
        <ele>569</ele>
        <time>2019-04-14T08:10:56Z</time>
      </trkpt>
      <trkpt lat="48.24482" lon="7.32943">
        <ele>569</ele>
        <time>2019-04-14T08:11:56Z</time>
      </trkpt>
      <trkpt lat="48.2448" lon="7.32935">
        <ele>569</ele>
        <time>2019-04-14T08:12:56Z</time>
      </trkpt>
      <trkpt lat="48.24477" lon="7.32928">
        <ele>569</ele>
        <time>2019-04-14T08:13:56Z</time>
      </trkpt>
      <trkpt lat="48.24467" lon="7.32908">
        <ele>569</ele>
        <time>2019-04-14T08:14:56Z</time>
      </trkpt>
      <trkpt lat="48.24457" lon="7.32889">
        <ele>569</ele>
        <time>2019-04-14T08:15:56Z</time>
      </trkpt>
      <trkpt lat="48.24451" lon="7.32876">
        <ele>569</ele>
        <time>2019-04-14T08:16:56Z</time>
      </trkpt>
      <trkpt lat="48.24448" lon="7.3287">
        <ele>570</ele>
        <time>2019-04-14T08:17:56Z</time>
      </trkpt>
      <trkpt lat="48.24445" lon="7.32864">
        <ele>570</ele>
        <time>2019-04-14T08:18:56Z</time>
      </trkpt>
      <trkpt lat="48.24442" lon="7.32858">
        <ele>571</ele>
        <time>2019-04-14T08:19:56Z</time>
      </trkpt>
      <trkpt lat="48.2444" lon="7.32851">
        <ele>572</ele>
        <time>2019-04-14T08:20:56Z</time>
      </trkpt>
      <trkpt lat="48.24437" lon="7.32845">
        <ele>573</ele>
        <time>2019-04-14T08:21:56Z</time>
      </trkpt>
      <trkpt lat="48.24434" lon="7.32839">
        <ele>573</ele>
        <time>2019-04-14T08:22:56Z</time>
      </trkpt>
      <trkpt lat="48.24432" lon="7.32833">
        <ele>574</ele>
        <time>2019-04-14T08:23:56Z</time>
      </trkpt>
      <trkpt lat="48.24429" lon="7.32827">
        <ele>574</ele>
        <time>2019-04-14T08:24:56Z</time>
      </trkpt>
      <trkpt lat="48.24427" lon="7.3282">
        <ele>574</ele>
        <time>2019-04-14T08:25:56Z</time>
      </trkpt>
      <trkpt lat="48.24425" lon="7.32814">
        <ele>575</ele>
        <time>2019-04-14T08:26:56Z</time>
      </trkpt>
      <trkpt lat="48.24423" lon="7.32807">
        <ele>575</ele>
        <time>2019-04-14T08:27:56Z</time>
      </trkpt>
      <trkpt lat="48.24422" lon="7.328">
        <ele>575</ele>
        <time>2019-04-14T08:28:56Z</time>
      </trkpt>
      <trkpt lat="48.24421" lon="7.32794">
        <ele>576</ele>
        <time>2019-04-14T08:29:56Z</time>
      </trkpt>
      <trkpt lat="48.2442" lon="7.32787">
        <ele>576</ele>
        <time>2019-04-14T08:30:56Z</time>
      </trkpt>
      <trkpt lat="48.24419" lon="7.32781">
        <ele>577</ele>
        <time>2019-04-14T08:31:56Z</time>
      </trkpt>
      <trkpt lat="48.24419" lon="7.32774">
        <ele>577</ele>
        <time>2019-04-14T08:32:56Z</time>
      </trkpt>
      <trkpt lat="48.24418" lon="7.32767">
        <ele>578</ele>
        <time>2019-04-14T08:33:56Z</time>
      </trkpt>
      <trkpt lat="48.24418" lon="7.32761">
        <ele>578</ele>
        <time>2019-04-14T08:34:56Z</time>
      </trkpt>
      <trkpt lat="48.24417" lon="7.32754">
        <ele>579</ele>
        <time>2019-04-14T08:35:56Z</time>
      </trkpt>
      <trkpt lat="48.24416" lon="7.32748">
        <ele>579</ele>
        <time>2019-04-14T08:36:56Z</time>
      </trkpt>
      <trkpt lat="48.24416" lon="7.32741">
        <ele>579</ele>
        <time>2019-04-14T08:37:56Z</time>
      </trkpt>
      <trkpt lat="48.24415" lon="7.32735">
        <ele>579</ele>
        <time>2019-04-14T08:38:56Z</time>
      </trkpt>
      <trkpt lat="48.24414" lon="7.32729">
        <ele>579</ele>
        <time>2019-04-14T08:39:56Z</time>
      </trkpt>
      <trkpt lat="48.24413" lon="7.32722">
        <ele>579</ele>
        <time>2019-04-14T08:40:56Z</time>
      </trkpt>
      <trkpt lat="48.24412" lon="7.32716">
        <ele>580</ele>
        <time>2019-04-14T08:41:56Z</time>
      </trkpt>
      <trkpt lat="48.24407" lon="7.32696">
        <ele>580</ele>
        <time>2019-04-14T08:42:56Z</time>
      </trkpt>
      <trkpt lat="48.244" lon="7.32679">
        <ele>580</ele>
        <time>2019-04-14T08:43:56Z</time>
      </trkpt>
      <trkpt lat="48.24393" lon="7.32663">
        <ele>581</ele>
        <time>2019-04-14T08:44:56Z</time>
      </trkpt>
      <trkpt lat="48.24391" lon="7.3266">
        <ele>581</ele>
        <time>2019-04-14T08:45:56Z</time>
      </trkpt>
      <trkpt lat="48.24381" lon="7.32647">
        <ele>581</ele>
        <time>2019-04-14T08:46:56Z</time>
      </trkpt>
      <trkpt lat="48.24368" lon="7.32633">
        <ele>582</ele>
        <time>2019-04-14T08:47:56Z</time>
      </trkpt>
      <trkpt lat="48.24366" lon="7.3263">
        <ele>583</ele>
        <time>2019-04-14T08:48:56Z</time>
      </trkpt>
      <trkpt lat="48.24357" lon="7.32623">
        <ele>584</ele>
        <time>2019-04-14T08:49:56Z</time>
      </trkpt>
      <trkpt lat="48.24349" lon="7.32618">
        <ele>585</ele>
        <time>2019-04-14T08:50:56Z</time>
      </trkpt>
      <trkpt lat="48.24332" lon="7.32608">
        <ele>587</ele>
        <time>2019-04-14T08:51:56Z</time>
      </trkpt>
      <trkpt lat="48.24329" lon="7.32606">
        <ele>588</ele>
        <time>2019-04-14T08:52:56Z</time>
      </trkpt>
      <trkpt lat="48.24312" lon="7.326">
        <ele>588</ele>
        <time>2019-04-14T08:53:56Z</time>
      </trkpt>
      <trkpt lat="48.24291" lon="7.32593">
        <ele>588</ele>
        <time>2019-04-14T08:54:56Z</time>
      </trkpt>
      <trkpt lat="48.24224" lon="7.32568">
        <ele>587</ele>
        <time>2019-04-14T08:55:56Z</time>
      </trkpt>
      <trkpt lat="48.24184" lon="7.32553">
        <ele>585</ele>
        <time>2019-04-14T08:56:56Z</time>
      </trkpt>
      <trkpt lat="48.24144" lon="7.32539">
        <ele>584</ele>
        <time>2019-04-14T08:57:56Z</time>
      </trkpt>
      <trkpt lat="48.24131" lon="7.32534">
        <ele>584</ele>
        <time>2019-04-14T08:58:56Z</time>
      </trkpt>
      <trkpt lat="48.24116" lon="7.32526">
        <ele>584</ele>
        <time>2019-04-14T08:59:56Z</time>
      </trkpt>
      <trkpt lat="48.24096" lon="7.32513">
        <ele>583</ele>
        <time>2019-04-14T09:00:56Z</time>
      </trkpt>
      <trkpt lat="48.24084" lon="7.32503">
        <ele>583</ele>
        <time>2019-04-14T09:01:56Z</time>
      </trkpt>
      <trkpt lat="48.24068" lon="7.32492">
        <ele>584</ele>
        <time>2019-04-14T09:02:56Z</time>
      </trkpt>
      <trkpt lat="48.24054" lon="7.32481">
        <ele>585</ele>
        <time>2019-04-14T09:03:56Z</time>
      </trkpt>
      <trkpt lat="48.24044" lon="7.32474">
        <ele>586</ele>
        <time>2019-04-14T09:04:56Z</time>
      </trkpt>
      <trkpt lat="48.24034" lon="7.32467">
        <ele>587</ele>
        <time>2019-04-14T09:05:56Z</time>
      </trkpt>
      <trkpt lat="48.24029" lon="7.32464">
        <ele>587</ele>
        <time>2019-04-14T09:06:56Z</time>
      </trkpt>
      <trkpt lat="48.24022" lon="7.32461">
        <ele>587</ele>
        <time>2019-04-14T09:07:56Z</time>
      </trkpt>
      <trkpt lat="48.24012" lon="7.32458">
        <ele>586</ele>
        <time>2019-04-14T09:08:56Z</time>
      </trkpt>
      <trkpt lat="48.23996" lon="7.32455">
        <ele>585</ele>
        <time>2019-04-14T09:09:56Z</time>
      </trkpt>
      <trkpt lat="48.23991" lon="7.32454">
        <ele>585</ele>
        <time>2019-04-14T09:10:56Z</time>
      </trkpt>
      <trkpt lat="48.23974" lon="7.32449">
        <ele>585</ele>
        <time>2019-04-14T09:11:56Z</time>
      </trkpt>
      <trkpt lat="48.23965" lon="7.32446">
        <ele>585</ele>
        <time>2019-04-14T09:12:56Z</time>
      </trkpt>
      <trkpt lat="48.23952" lon="7.32439">
        <ele>585</ele>
        <time>2019-04-14T09:13:56Z</time>
      </trkpt>
      <trkpt lat="48.2395" lon="7.32437">
        <ele>585</ele>
        <time>2019-04-14T09:14:56Z</time>
      </trkpt>
      <trkpt lat="48.23947" lon="7.32434">
        <ele>585</ele>
        <time>2019-04-14T09:15:56Z</time>
      </trkpt>
      <trkpt lat="48.23942" lon="7.32426">
        <ele>585</ele>
        <time>2019-04-14T09:16:56Z</time>
      </trkpt>
      <trkpt lat="48.23938" lon="7.32417">
        <ele>585</ele>
        <time>2019-04-14T09:17:56Z</time>
      </trkpt>
      <trkpt lat="48.23936" lon="7.32408">
        <ele>584</ele>
        <time>2019-04-14T09:18:56Z</time>
      </trkpt>
      <trkpt lat="48.2393" lon="7.3238">
        <ele>582</ele>
        <time>2019-04-14T09:19:56Z</time>
      </trkpt>
      <trkpt lat="48.23928" lon="7.32368">
        <ele>581</ele>
        <time>2019-04-14T09:20:56Z</time>
      </trkpt>
      <trkpt lat="48.23927" lon="7.32361">
        <ele>580</ele>
        <time>2019-04-14T09:21:56Z</time>
      </trkpt>
      <trkpt lat="48.23926" lon="7.32354">
        <ele>579</ele>
        <time>2019-04-14T09:22:56Z</time>
      </trkpt>
      <trkpt lat="48.23925" lon="7.32346">
        <ele>579</ele>
        <time>2019-04-14T09:23:56Z</time>
      </trkpt>
      <trkpt lat="48.23924" lon="7.32327">
        <ele>577</ele>
        <time>2019-04-14T09:24:56Z</time>
      </trkpt>
      <trkpt lat="48.23924" lon="7.32311">
        <ele>577</ele>
        <time>2019-04-14T09:25:56Z</time>
      </trkpt>
      <trkpt lat="48.23924" lon="7.32305">
        <ele>577</ele>
        <time>2019-04-14T09:26:56Z</time>
      </trkpt>
      <trkpt lat="48.23924" lon="7.32294">
        <ele>577</ele>
        <time>2019-04-14T09:27:56Z</time>
      </trkpt>
      <trkpt lat="48.23925" lon="7.32283">
        <ele>577</ele>
        <time>2019-04-14T09:28:56Z</time>
      </trkpt>
      <trkpt lat="48.23925" lon="7.32273">
        <ele>577</ele>
        <time>2019-04-14T09:29:56Z</time>
      </trkpt>
      <trkpt lat="48.23926" lon="7.32259">
        <ele>577</ele>
        <time>2019-04-14T09:30:56Z</time>
      </trkpt>
      <trkpt lat="48.23926" lon="7.32227">
        <ele>576</ele>
        <time>2019-04-14T09:31:56Z</time>
      </trkpt>
      <trkpt lat="48.23925" lon="7.32212">
        <ele>574</ele>
        <time>2019-04-14T09:32:56Z</time>
      </trkpt>
      <trkpt lat="48.23924" lon="7.32199">
        <ele>573</ele>
        <time>2019-04-14T09:33:56Z</time>
      </trkpt>
      <trkpt lat="48.23922" lon="7.32182">
        <ele>571</ele>
        <time>2019-04-14T09:34:56Z</time>
      </trkpt>
      <trkpt lat="48.2392" lon="7.32163">
        <ele>569</ele>
        <time>2019-04-14T09:35:56Z</time>
      </trkpt>
      <trkpt lat="48.23919" lon="7.32155">
        <ele>568</ele>
        <time>2019-04-14T09:36:56Z</time>
      </trkpt>
      <trkpt lat="48.23918" lon="7.32142">
        <ele>567</ele>
        <time>2019-04-14T09:37:56Z</time>
      </trkpt>
      <trkpt lat="48.23917" lon="7.32136">
        <ele>566</ele>
        <time>2019-04-14T09:38:56Z</time>
      </trkpt>
      <trkpt lat="48.23916" lon="7.32116">
        <ele>565</ele>
        <time>2019-04-14T09:39:56Z</time>
      </trkpt>
      <trkpt lat="48.23915" lon="7.32095">
        <ele>563</ele>
        <time>2019-04-14T09:40:56Z</time>
      </trkpt>
      <trkpt lat="48.23915" lon="7.32084">
        <ele>562</ele>
        <time>2019-04-14T09:41:56Z</time>
      </trkpt>
      <trkpt lat="48.23917" lon="7.32073">
        <ele>563</ele>
        <time>2019-04-14T09:42:56Z</time>
      </trkpt>
      <trkpt lat="48.23918" lon="7.32064">
        <ele>563</ele>
        <time>2019-04-14T09:43:56Z</time>
      </trkpt>
      <trkpt lat="48.23919" lon="7.32053">
        <ele>563</ele>
        <time>2019-04-14T09:44:56Z</time>
      </trkpt>
      <trkpt lat="48.23921" lon="7.32044">
        <ele>563</ele>
        <time>2019-04-14T09:45:56Z</time>
      </trkpt>
      <trkpt lat="48.23923" lon="7.32033">
        <ele>563</ele>
        <time>2019-04-14T09:46:56Z</time>
      </trkpt>
      <trkpt lat="48.23925" lon="7.32023">
        <ele>563</ele>
        <time>2019-04-14T09:47:56Z</time>
      </trkpt>
      <trkpt lat="48.23928" lon="7.32011">
        <ele>564</ele>
        <time>2019-04-14T09:48:56Z</time>
      </trkpt>
      <trkpt lat="48.23931" lon="7.31995">
        <ele>564</ele>
        <time>2019-04-14T09:49:56Z</time>
      </trkpt>
      <trkpt lat="48.23933" lon="7.31989">
        <ele>565</ele>
        <time>2019-04-14T09:50:56Z</time>
      </trkpt>
      <trkpt lat="48.23935" lon="7.31984">
        <ele>566</ele>
        <time>2019-04-14T09:51:56Z</time>
      </trkpt>
      <trkpt lat="48.23936" lon="7.31982">
        <ele>566</ele>
        <time>2019-04-14T09:52:56Z</time>
      </trkpt>
      <trkpt lat="48.23938" lon="7.31977">
        <ele>567</ele>
        <time>2019-04-14T09:53:56Z</time>
      </trkpt>
      <trkpt lat="48.2394" lon="7.31973">
        <ele>568</ele>
        <time>2019-04-14T09:54:56Z</time>
      </trkpt>
      <trkpt lat="48.23944" lon="7.31968">
        <ele>569</ele>
        <time>2019-04-14T09:55:56Z</time>
      </trkpt>
      <trkpt lat="48.23947" lon="7.31964">
        <ele>570</ele>
        <time>2019-04-14T09:56:56Z</time>
      </trkpt>
      <trkpt lat="48.23951" lon="7.31955">
        <ele>571</ele>
        <time>2019-04-14T09:57:56Z</time>
      </trkpt>
      <trkpt lat="48.23952" lon="7.3195">
        <ele>572</ele>
        <time>2019-04-14T09:58:56Z</time>
      </trkpt>
      <trkpt lat="48.23953" lon="7.31943">
        <ele>572</ele>
        <time>2019-04-14T09:59:56Z</time>
      </trkpt>
      <trkpt lat="48.23951" lon="7.31932">
        <ele>572</ele>
        <time>2019-04-14T10:00:56Z</time>
      </trkpt>
      <trkpt lat="48.2395" lon="7.31926">
        <ele>572</ele>
        <time>2019-04-14T10:01:56Z</time>
      </trkpt>
      <trkpt lat="48.23945" lon="7.31916">
        <ele>572</ele>
        <time>2019-04-14T10:02:56Z</time>
      </trkpt>
      <trkpt lat="48.23942" lon="7.31911">
        <ele>571</ele>
        <time>2019-04-14T10:03:56Z</time>
      </trkpt>
      <trkpt lat="48.23938" lon="7.31902">
        <ele>571</ele>
        <time>2019-04-14T10:04:56Z</time>
      </trkpt>
      <trkpt lat="48.23919" lon="7.31878">
        <ele>567</ele>
        <time>2019-04-14T10:05:56Z</time>
      </trkpt>
      <trkpt lat="48.23912" lon="7.3187">
        <ele>567</ele>
        <time>2019-04-14T10:06:56Z</time>
      </trkpt>
      <trkpt lat="48.23906" lon="7.31866">
        <ele>566</ele>
        <time>2019-04-14T10:07:56Z</time>
      </trkpt>
      <trkpt lat="48.23901" lon="7.31863">
        <ele>566</ele>
        <time>2019-04-14T10:08:56Z</time>
      </trkpt>
      <trkpt lat="48.239" lon="7.31863">
        <ele>566</ele>
        <time>2019-04-14T10:09:56Z</time>
      </trkpt>
      <trkpt lat="48.23893" lon="7.31862">
        <ele>565</ele>
        <time>2019-04-14T10:10:56Z</time>
      </trkpt>
      <trkpt lat="48.23883" lon="7.31861">
        <ele>564</ele>
        <time>2019-04-14T10:11:56Z</time>
      </trkpt>
      <trkpt lat="48.23876" lon="7.31861">
        <ele>563</ele>
        <time>2019-04-14T10:12:56Z</time>
      </trkpt>
      <trkpt lat="48.23867" lon="7.31863">
        <ele>562</ele>
        <time>2019-04-14T10:13:56Z</time>
      </trkpt>
      <trkpt lat="48.23855" lon="7.31864">
        <ele>560</ele>
        <time>2019-04-14T10:14:56Z</time>
      </trkpt>
      <trkpt lat="48.23843" lon="7.31865">
        <ele>558</ele>
        <time>2019-04-14T10:15:56Z</time>
      </trkpt>
      <trkpt lat="48.23836" lon="7.31866">
        <ele>557</ele>
        <time>2019-04-14T10:16:56Z</time>
      </trkpt>
      <trkpt lat="48.23824" lon="7.31868">
        <ele>556</ele>
        <time>2019-04-14T10:17:56Z</time>
      </trkpt>
      <trkpt lat="48.23813" lon="7.3187">
        <ele>554</ele>
        <time>2019-04-14T10:18:56Z</time>
      </trkpt>
      <trkpt lat="48.23807" lon="7.3187">
        <ele>553</ele>
        <time>2019-04-14T10:19:56Z</time>
      </trkpt>
      <trkpt lat="48.23772" lon="7.31876">
        <ele>548</ele>
        <time>2019-04-14T10:20:56Z</time>
      </trkpt>
      <trkpt lat="48.23767" lon="7.31875">
        <ele>548</ele>
        <time>2019-04-14T10:21:56Z</time>
      </trkpt>
      <trkpt lat="48.23762" lon="7.31874">
        <ele>547</ele>
        <time>2019-04-14T10:22:56Z</time>
      </trkpt>
      <trkpt lat="48.23755" lon="7.31869">
        <ele>547</ele>
        <time>2019-04-14T10:23:56Z</time>
      </trkpt>
      <trkpt lat="48.23754" lon="7.31868">
        <ele>547</ele>
        <time>2019-04-14T10:24:56Z</time>
      </trkpt>
      <trkpt lat="48.23752" lon="7.31866">
        <ele>547</ele>
        <time>2019-04-14T10:25:56Z</time>
      </trkpt>
      <trkpt lat="48.23749" lon="7.3186">
        <ele>547</ele>
        <time>2019-04-14T10:26:56Z</time>
      </trkpt>
      <trkpt lat="48.23748" lon="7.31857">
        <ele>548</ele>
        <time>2019-04-14T10:27:56Z</time>
      </trkpt>
      <trkpt lat="48.23747" lon="7.3185">
        <ele>548</ele>
        <time>2019-04-14T10:28:56Z</time>
      </trkpt>
      <trkpt lat="48.23747" lon="7.31847">
        <ele>549</ele>
        <time>2019-04-14T10:29:56Z</time>
      </trkpt>
      <trkpt lat="48.23747" lon="7.3184">
        <ele>550</ele>
        <time>2019-04-14T10:30:56Z</time>
      </trkpt>
      <trkpt lat="48.23747" lon="7.31836">
        <ele>550</ele>
        <time>2019-04-14T10:31:56Z</time>
      </trkpt>
      <trkpt lat="48.23748" lon="7.3183">
        <ele>551</ele>
        <time>2019-04-14T10:32:56Z</time>
      </trkpt>
      <trkpt lat="48.23751" lon="7.31823">
        <ele>551</ele>
        <time>2019-04-14T10:33:56Z</time>
      </trkpt>
      <trkpt lat="48.23754" lon="7.31817">
        <ele>551</ele>
        <time>2019-04-14T10:34:56Z</time>
      </trkpt>
      <trkpt lat="48.23756" lon="7.31813">
        <ele>551</ele>
        <time>2019-04-14T10:35:56Z</time>
      </trkpt>
      <trkpt lat="48.23761" lon="7.31808">
        <ele>552</ele>
        <time>2019-04-14T10:36:56Z</time>
      </trkpt>
      <trkpt lat="48.23763" lon="7.31804">
        <ele>552</ele>
        <time>2019-04-14T10:37:56Z</time>
      </trkpt>
      <trkpt lat="48.23768" lon="7.31797">
        <ele>553</ele>
        <time>2019-04-14T10:38:56Z</time>
      </trkpt>
      <trkpt lat="48.23769" lon="7.31795">
        <ele>553</ele>
        <time>2019-04-14T10:39:56Z</time>
      </trkpt>
      <trkpt lat="48.23772" lon="7.31789">
        <ele>553</ele>
        <time>2019-04-14T10:40:56Z</time>
      </trkpt>
      <trkpt lat="48.23776" lon="7.31782">
        <ele>554</ele>
        <time>2019-04-14T10:41:56Z</time>
      </trkpt>
      <trkpt lat="48.23778" lon="7.31777">
        <ele>554</ele>
        <time>2019-04-14T10:42:56Z</time>
      </trkpt>
      <trkpt lat="48.23781" lon="7.31764">
        <ele>554</ele>
        <time>2019-04-14T10:43:56Z</time>
      </trkpt>
      <trkpt lat="48.23783" lon="7.31753">
        <ele>554</ele>
        <time>2019-04-14T10:44:56Z</time>
      </trkpt>
      <trkpt lat="48.23786" lon="7.31732">
        <ele>553</ele>
        <time>2019-04-14T10:45:56Z</time>
      </trkpt>
      <trkpt lat="48.23789" lon="7.31708">
        <ele>552</ele>
        <time>2019-04-14T10:46:56Z</time>
      </trkpt>
      <trkpt lat="48.23791" lon="7.31697">
        <ele>551</ele>
        <time>2019-04-14T10:47:56Z</time>
      </trkpt>
      <trkpt lat="48.23792" lon="7.31692">
        <ele>551</ele>
        <time>2019-04-14T10:48:56Z</time>
      </trkpt>
      <trkpt lat="48.23793" lon="7.31685">
        <ele>551</ele>
        <time>2019-04-14T10:49:56Z</time>
      </trkpt>
      <trkpt lat="48.23794" lon="7.31677">
        <ele>550</ele>
        <time>2019-04-14T10:50:56Z</time>
      </trkpt>
      <trkpt lat="48.23795" lon="7.31672">
        <ele>550</ele>
        <time>2019-04-14T10:51:56Z</time>
      </trkpt>
      <trkpt lat="48.23796" lon="7.31668">
        <ele>550</ele>
        <time>2019-04-14T10:52:56Z</time>
      </trkpt>
      <trkpt lat="48.23797" lon="7.31664">
        <ele>550</ele>
        <time>2019-04-14T10:53:56Z</time>
      </trkpt>
      <trkpt lat="48.23798" lon="7.31661">
        <ele>550</ele>
        <time>2019-04-14T10:54:56Z</time>
      </trkpt>
      <trkpt lat="48.23801" lon="7.31655">
        <ele>551</ele>
        <time>2019-04-14T10:55:56Z</time>
      </trkpt>
      <trkpt lat="48.23805" lon="7.31649">
        <ele>551</ele>
        <time>2019-04-14T10:56:56Z</time>
      </trkpt>
      <trkpt lat="48.23811" lon="7.31638">
        <ele>552</ele>
        <time>2019-04-14T10:57:56Z</time>
      </trkpt>
      <trkpt lat="48.23814" lon="7.3163">
        <ele>553</ele>
        <time>2019-04-14T10:58:56Z</time>
      </trkpt>
      <trkpt lat="48.23817" lon="7.31619">
        <ele>553</ele>
        <time>2019-04-14T10:59:56Z</time>
      </trkpt>
      <trkpt lat="48.23816" lon="7.31612">
        <ele>554</ele>
        <time>2019-04-14T11:00:56Z</time>
      </trkpt>
      <trkpt lat="48.23815" lon="7.31606">
        <ele>554</ele>
        <time>2019-04-14T11:01:56Z</time>
      </trkpt>
      <trkpt lat="48.23813" lon="7.31602">
        <ele>554</ele>
        <time>2019-04-14T11:02:56Z</time>
      </trkpt>
      <trkpt lat="48.23812" lon="7.316">
        <ele>554</ele>
        <time>2019-04-14T11:03:56Z</time>
      </trkpt>
      <trkpt lat="48.2381" lon="7.31598">
        <ele>554</ele>
        <time>2019-04-14T11:04:56Z</time>
      </trkpt>
      <trkpt lat="48.23807" lon="7.31597">
        <ele>555</ele>
        <time>2019-04-14T11:05:56Z</time>
      </trkpt>
      <trkpt lat="48.23803" lon="7.31596">
        <ele>555</ele>
        <time>2019-04-14T11:06:56Z</time>
      </trkpt>
      <trkpt lat="48.238" lon="7.31597">
        <ele>555</ele>
        <time>2019-04-14T11:07:56Z</time>
      </trkpt>
      <trkpt lat="48.23795" lon="7.31599">
        <ele>554</ele>
        <time>2019-04-14T11:08:56Z</time>
      </trkpt>
      <trkpt lat="48.23792" lon="7.31602">
        <ele>554</ele>
        <time>2019-04-14T11:09:56Z</time>
      </trkpt>
      <trkpt lat="48.23777" lon="7.31618">
        <ele>553</ele>
        <time>2019-04-14T11:10:56Z</time>
      </trkpt>
      <trkpt lat="48.23764" lon="7.31629">
        <ele>551</ele>
        <time>2019-04-14T11:11:56Z</time>
      </trkpt>
      <trkpt lat="48.23747" lon="7.3164">
        <ele>549</ele>
        <time>2019-04-14T11:12:56Z</time>
      </trkpt>
      <trkpt lat="48.23708" lon="7.31661">
        <ele>543</ele>
        <time>2019-04-14T11:13:56Z</time>
      </trkpt>
      <trkpt lat="48.2369" lon="7.31672">
        <ele>540</ele>
        <time>2019-04-14T11:14:56Z</time>
      </trkpt>
      <trkpt lat="48.23677" lon="7.3168">
        <ele>539</ele>
        <time>2019-04-14T11:15:56Z</time>
      </trkpt>
      <trkpt lat="48.23669" lon="7.31683">
        <ele>538</ele>
        <time>2019-04-14T11:16:56Z</time>
      </trkpt>
      <trkpt lat="48.23665" lon="7.31684">
        <ele>537</ele>
        <time>2019-04-14T11:17:56Z</time>
      </trkpt>
      <trkpt lat="48.2366" lon="7.31685">
        <ele>537</ele>
        <time>2019-04-14T11:18:56Z</time>
      </trkpt>
      <trkpt lat="48.23654" lon="7.31685">
        <ele>536</ele>
        <time>2019-04-14T11:19:56Z</time>
      </trkpt>
      <trkpt lat="48.23648" lon="7.31684">
        <ele>535</ele>
        <time>2019-04-14T11:20:56Z</time>
      </trkpt>
      <trkpt lat="48.23642" lon="7.31683">
        <ele>534</ele>
        <time>2019-04-14T11:21:56Z</time>
      </trkpt>
      <trkpt lat="48.23634" lon="7.31679">
        <ele>533</ele>
        <time>2019-04-14T11:22:56Z</time>
      </trkpt>
      <trkpt lat="48.23612" lon="7.31666">
        <ele>530</ele>
        <time>2019-04-14T11:23:56Z</time>
      </trkpt>
      <trkpt lat="48.23585" lon="7.31651">
        <ele>527</ele>
        <time>2019-04-14T11:24:56Z</time>
      </trkpt>
      <trkpt lat="48.23552" lon="7.31633">
        <ele>523</ele>
        <time>2019-04-14T11:25:56Z</time>
      </trkpt>
      <trkpt lat="48.23547" lon="7.31631">
        <ele>523</ele>
        <time>2019-04-14T11:26:56Z</time>
      </trkpt>
      <trkpt lat="48.2354" lon="7.31627">
        <ele>522</ele>
        <time>2019-04-14T11:27:56Z</time>
      </trkpt>
      <trkpt lat="48.23531" lon="7.31618">
        <ele>521</ele>
        <time>2019-04-14T11:28:56Z</time>
      </trkpt>
      <trkpt lat="48.2352" lon="7.31604">
        <ele>520</ele>
        <time>2019-04-14T11:29:56Z</time>
      </trkpt>
      <trkpt lat="48.23517" lon="7.31594">
        <ele>520</ele>
        <time>2019-04-14T11:30:56Z</time>
      </trkpt>
      <trkpt lat="48.23514" lon="7.31579">
        <ele>520</ele>
        <time>2019-04-14T11:31:56Z</time>
      </trkpt>
      <trkpt lat="48.23514" lon="7.31577">
        <ele>520</ele>
        <time>2019-04-14T11:32:56Z</time>
      </trkpt>
      <trkpt lat="48.23512" lon="7.31564">
        <ele>520</ele>
        <time>2019-04-14T11:33:56Z</time>
      </trkpt>
      <trkpt lat="48.23513" lon="7.31548">
        <ele>520</ele>
        <time>2019-04-14T11:34:56Z</time>
      </trkpt>
      <trkpt lat="48.23516" lon="7.31537">
        <ele>520</ele>
        <time>2019-04-14T11:35:56Z</time>
      </trkpt>
      <trkpt lat="48.2352" lon="7.31528">
        <ele>520</ele>
        <time>2019-04-14T11:36:56Z</time>
      </trkpt>
      <trkpt lat="48.23524" lon="7.3152">
        <ele>520</ele>
        <time>2019-04-14T11:37:56Z</time>
      </trkpt>
      <trkpt lat="48.23529" lon="7.31512">
        <ele>520</ele>
        <time>2019-04-14T11:38:56Z</time>
      </trkpt>
      <trkpt lat="48.23535" lon="7.31502">
        <ele>521</ele>
        <time>2019-04-14T11:39:56Z</time>
      </trkpt>
      <trkpt lat="48.23542" lon="7.31494">
        <ele>521</ele>
        <time>2019-04-14T11:40:56Z</time>
      </trkpt>
      <trkpt lat="48.23548" lon="7.31486">
        <ele>521</ele>
        <time>2019-04-14T11:41:56Z</time>
      </trkpt>
      <trkpt lat="48.23553" lon="7.31478">
        <ele>521</ele>
        <time>2019-04-14T11:42:56Z</time>
      </trkpt>
      <trkpt lat="48.23558" lon="7.31467">
        <ele>521</ele>
        <time>2019-04-14T11:43:56Z</time>
      </trkpt>
      <trkpt lat="48.23563" lon="7.31454">
        <ele>520</ele>
        <time>2019-04-14T11:44:56Z</time>
      </trkpt>
      <trkpt lat="48.23571" lon="7.31423">
        <ele>519</ele>
        <time>2019-04-14T11:45:56Z</time>
      </trkpt>
      <trkpt lat="48.23573" lon="7.31418">
        <ele>518</ele>
        <time>2019-04-14T11:46:56Z</time>
      </trkpt>
      <trkpt lat="48.23574" lon="7.3141">
        <ele>518</ele>
        <time>2019-04-14T11:47:56Z</time>
      </trkpt>
      <trkpt lat="48.23582" lon="7.31369">
        <ele>514</ele>
        <time>2019-04-14T11:48:56Z</time>
      </trkpt>
      <trkpt lat="48.23586" lon="7.31342">
        <ele>512</ele>
        <time>2019-04-14T11:49:56Z</time>
      </trkpt>
      <trkpt lat="48.2359" lon="7.31318">
        <ele>511</ele>
        <time>2019-04-14T11:50:56Z</time>
      </trkpt>
      <trkpt lat="48.23593" lon="7.31305">
        <ele>511</ele>
        <time>2019-04-14T11:51:56Z</time>
      </trkpt>
      <trkpt lat="48.23597" lon="7.31289">
        <ele>512</ele>
        <time>2019-04-14T11:52:56Z</time>
      </trkpt>
      <trkpt lat="48.236" lon="7.31276">
        <ele>512</ele>
        <time>2019-04-14T11:53:56Z</time>
      </trkpt>
      <trkpt lat="48.23602" lon="7.31266">
        <ele>512</ele>
        <time>2019-04-14T11:54:56Z</time>
      </trkpt>
      <trkpt lat="48.23604" lon="7.31259">
        <ele>512</ele>
        <time>2019-04-14T11:55:56Z</time>
      </trkpt>
      <trkpt lat="48.23604" lon="7.3125">
        <ele>511</ele>
        <time>2019-04-14T11:56:56Z</time>
      </trkpt>
      <trkpt lat="48.23604" lon="7.31242">
        <ele>511</ele>
        <time>2019-04-14T11:57:56Z</time>
      </trkpt>
      <trkpt lat="48.23602" lon="7.31235">
        <ele>511</ele>
        <time>2019-04-14T11:58:56Z</time>
      </trkpt>
      <trkpt lat="48.23599" lon="7.31227">
        <ele>510</ele>
        <time>2019-04-14T11:59:56Z</time>
      </trkpt>
      <trkpt lat="48.23596" lon="7.31221">
        <ele>509</ele>
        <time>2019-04-14T12:00:56Z</time>
      </trkpt>
      <trkpt lat="48.23583" lon="7.312">
        <ele>505</ele>
        <time>2019-04-14T12:01:56Z</time>
      </trkpt>
      <trkpt lat="48.23572" lon="7.31176">
        <ele>502</ele>
        <time>2019-04-14T12:02:56Z</time>
      </trkpt>
      <trkpt lat="48.23568" lon="7.31158">
        <ele>501</ele>
        <time>2019-04-14T12:03:56Z</time>
      </trkpt>
      <trkpt lat="48.23566" lon="7.31141">
        <ele>500</ele>
        <time>2019-04-14T12:04:56Z</time>
      </trkpt>
      <trkpt lat="48.23565" lon="7.31129">
        <ele>499</ele>
        <time>2019-04-14T12:05:56Z</time>
      </trkpt>
      <trkpt lat="48.23565" lon="7.31124">
        <ele>499</ele>
        <time>2019-04-14T12:06:56Z</time>
      </trkpt>
      <trkpt lat="48.23563" lon="7.31099">
        <ele>498</ele>
        <time>2019-04-14T12:07:56Z</time>
      </trkpt>
      <trkpt lat="48.23554" lon="7.30956">
        <ele>488</ele>
        <time>2019-04-14T12:08:56Z</time>
      </trkpt>
      <trkpt lat="48.23553" lon="7.30941">
        <ele>487</ele>
        <time>2019-04-14T12:09:56Z</time>
      </trkpt>
      <trkpt lat="48.23553" lon="7.30927">
        <ele>486</ele>
        <time>2019-04-14T12:10:56Z</time>
      </trkpt>
      <trkpt lat="48.23553" lon="7.30919">
        <ele>485</ele>
        <time>2019-04-14T12:11:56Z</time>
      </trkpt>
      <trkpt lat="48.23552" lon="7.30895">
        <ele>485</ele>
        <time>2019-04-14T12:12:56Z</time>
      </trkpt>
      <trkpt lat="48.2355" lon="7.3088">
        <ele>484</ele>
        <time>2019-04-14T12:13:56Z</time>
      </trkpt>
      <trkpt lat="48.23547" lon="7.3087">
        <ele>484</ele>
        <time>2019-04-14T12:14:56Z</time>
      </trkpt>
      <trkpt lat="48.23539" lon="7.30858">
        <ele>482</ele>
        <time>2019-04-14T12:15:56Z</time>
      </trkpt>
      <trkpt lat="48.23526" lon="7.30848">
        <ele>480</ele>
        <time>2019-04-14T12:16:56Z</time>
      </trkpt>
      <trkpt lat="48.23512" lon="7.30834">
        <ele>477</ele>
        <time>2019-04-14T12:17:56Z</time>
      </trkpt>
      <trkpt lat="48.23503" lon="7.30825">
        <ele>476</ele>
        <time>2019-04-14T12:18:56Z</time>
      </trkpt>
      <trkpt lat="48.23497" lon="7.30815">
        <ele>475</ele>
        <time>2019-04-14T12:19:56Z</time>
      </trkpt>
      <trkpt lat="48.23489" lon="7.30802">
        <ele>475</ele>
        <time>2019-04-14T12:20:56Z</time>
      </trkpt>
      <trkpt lat="48.23484" lon="7.3079">
        <ele>475</ele>
        <time>2019-04-14T12:21:56Z</time>
      </trkpt>
      <trkpt lat="48.23479" lon="7.30775">
        <ele>475</ele>
        <time>2019-04-14T12:22:56Z</time>
      </trkpt>
      <trkpt lat="48.23474" lon="7.30759">
        <ele>475</ele>
        <time>2019-04-14T12:23:56Z</time>
      </trkpt>
      <trkpt lat="48.23469" lon="7.30736">
        <ele>475</ele>
        <time>2019-04-14T12:24:56Z</time>
      </trkpt>
      <trkpt lat="48.23464" lon="7.30707">
        <ele>476</ele>
        <time>2019-04-14T12:25:56Z</time>
      </trkpt>
      <trkpt lat="48.23462" lon="7.3069">
        <ele>476</ele>
        <time>2019-04-14T12:26:56Z</time>
      </trkpt>
      <trkpt lat="48.2346" lon="7.3068">
        <ele>476</ele>
        <time>2019-04-14T12:27:56Z</time>
      </trkpt>
      <trkpt lat="48.23458" lon="7.30672">
        <ele>476</ele>
        <time>2019-04-14T12:28:56Z</time>
      </trkpt>
      <trkpt lat="48.23455" lon="7.30664">
        <ele>476</ele>
        <time>2019-04-14T12:29:56Z</time>
      </trkpt>
      <trkpt lat="48.23451" lon="7.30658">
        <ele>476</ele>
        <time>2019-04-14T12:30:56Z</time>
      </trkpt>
      <trkpt lat="48.23446" lon="7.30652">
        <ele>475</ele>
        <time>2019-04-14T12:31:56Z</time>
      </trkpt>
      <trkpt lat="48.23441" lon="7.30647">
        <ele>475</ele>
        <time>2019-04-14T12:32:56Z</time>
      </trkpt>
      <trkpt lat="48.23436" lon="7.30643">
        <ele>475</ele>
        <time>2019-04-14T12:33:56Z</time>
      </trkpt>
      <trkpt lat="48.23431" lon="7.30641">
        <ele>474</ele>
        <time>2019-04-14T12:34:56Z</time>
      </trkpt>
      <trkpt lat="48.23426" lon="7.3064">
        <ele>474</ele>
        <time>2019-04-14T12:35:56Z</time>
      </trkpt>
      <trkpt lat="48.23412" lon="7.30642">
        <ele>473</ele>
        <time>2019-04-14T12:36:56Z</time>
      </trkpt>
      <trkpt lat="48.23403" lon="7.30645">
        <ele>473</ele>
        <time>2019-04-14T12:37:56Z</time>
      </trkpt>
      <trkpt lat="48.23394" lon="7.30649">
        <ele>473</ele>
        <time>2019-04-14T12:38:56Z</time>
      </trkpt>
      <trkpt lat="48.23385" lon="7.30652">
        <ele>473</ele>
        <time>2019-04-14T12:39:56Z</time>
      </trkpt>
      <trkpt lat="48.23374" lon="7.30657">
        <ele>473</ele>
        <time>2019-04-14T12:40:56Z</time>
      </trkpt>
      <trkpt lat="48.23365" lon="7.3066">
        <ele>473</ele>
        <time>2019-04-14T12:41:56Z</time>
      </trkpt>
      <trkpt lat="48.23355" lon="7.30661">
        <ele>473</ele>
        <time>2019-04-14T12:42:56Z</time>
      </trkpt>
      <trkpt lat="48.23349" lon="7.30661">
        <ele>473</ele>
        <time>2019-04-14T12:43:56Z</time>
      </trkpt>
      <trkpt lat="48.2334" lon="7.30659">
        <ele>473</ele>
        <time>2019-04-14T12:44:56Z</time>
      </trkpt>
      <trkpt lat="48.23331" lon="7.30656">
        <ele>474</ele>
        <time>2019-04-14T12:45:56Z</time>
      </trkpt>
      <trkpt lat="48.23325" lon="7.30654">
        <ele>473</ele>
        <time>2019-04-14T12:46:56Z</time>
      </trkpt>
      <trkpt lat="48.23319" lon="7.30651">
        <ele>473</ele>
        <time>2019-04-14T12:47:56Z</time>
      </trkpt>
      <trkpt lat="48.23301" lon="7.30637">
        <ele>473</ele>
        <time>2019-04-14T12:48:56Z</time>
      </trkpt>
      <trkpt lat="48.23294" lon="7.3063">
        <ele>473</ele>
        <time>2019-04-14T12:49:56Z</time>
      </trkpt>
      <trkpt lat="48.23289" lon="7.30624">
        <ele>473</ele>
        <time>2019-04-14T12:50:56Z</time>
      </trkpt>
      <trkpt lat="48.23284" lon="7.30616">
        <ele>473</ele>
        <time>2019-04-14T12:51:56Z</time>
      </trkpt>
      <trkpt lat="48.23281" lon="7.30606">
        <ele>474</ele>
        <time>2019-04-14T12:52:56Z</time>
      </trkpt>
      <trkpt lat="48.23278" lon="7.30594">
        <ele>474</ele>
        <time>2019-04-14T12:53:56Z</time>
      </trkpt>
      <trkpt lat="48.23276" lon="7.30575">
        <ele>474</ele>
        <time>2019-04-14T12:54:56Z</time>
      </trkpt>
      <trkpt lat="48.23274" lon="7.30543">
        <ele>475</ele>
        <time>2019-04-14T12:55:56Z</time>
      </trkpt>
      <trkpt lat="48.23274" lon="7.30534">
        <ele>475</ele>
        <time>2019-04-14T12:56:56Z</time>
      </trkpt>
      <trkpt lat="48.23274" lon="7.30503">
        <ele>476</ele>
        <time>2019-04-14T12:57:56Z</time>
      </trkpt>
      <trkpt lat="48.23272" lon="7.30441">
        <ele>479</ele>
        <time>2019-04-14T12:58:56Z</time>
      </trkpt>
      <trkpt lat="48.23271" lon="7.30411">
        <ele>481</ele>
        <time>2019-04-14T12:59:56Z</time>
      </trkpt>
      <trkpt lat="48.2327" lon="7.3039">
        <ele>481</ele>
        <time>2019-04-14T13:00:56Z</time>
      </trkpt>
      <trkpt lat="48.2327" lon="7.30362">
        <ele>481</ele>
        <time>2019-04-14T13:01:56Z</time>
      </trkpt>
      <trkpt lat="48.2327" lon="7.30339">
        <ele>482</ele>
        <time>2019-04-14T13:02:56Z</time>
      </trkpt>
      <trkpt lat="48.23269" lon="7.30318">
        <ele>482</ele>
        <time>2019-04-14T13:03:56Z</time>
      </trkpt>
      <trkpt lat="48.23266" lon="7.30292">
        <ele>483</ele>
        <time>2019-04-14T13:04:56Z</time>
      </trkpt>
      <trkpt lat="48.23263" lon="7.30264">
        <ele>484</ele>
        <time>2019-04-14T13:05:56Z</time>
      </trkpt>
      <trkpt lat="48.23254" lon="7.30223">
        <ele>485</ele>
        <time>2019-04-14T13:06:56Z</time>
      </trkpt>
      <trkpt lat="48.23252" lon="7.30212">
        <ele>485</ele>
        <time>2019-04-14T13:07:56Z</time>
      </trkpt>
      <trkpt lat="48.2325" lon="7.302">
        <ele>485</ele>
        <time>2019-04-14T13:08:56Z</time>
      </trkpt>
      <trkpt lat="48.23249" lon="7.30195">
        <ele>485</ele>
        <time>2019-04-14T13:09:56Z</time>
      </trkpt>
      <trkpt lat="48.23243" lon="7.30166">
        <ele>486</ele>
        <time>2019-04-14T13:10:56Z</time>
      </trkpt>
      <trkpt lat="48.23235" lon="7.30135">
        <ele>486</ele>
        <time>2019-04-14T13:11:56Z</time>
      </trkpt>
      <trkpt lat="48.23234" lon="7.30128">
        <ele>486</ele>
        <time>2019-04-14T13:12:56Z</time>
      </trkpt>
      <trkpt lat="48.23224" lon="7.30079">
        <ele>487</ele>
        <time>2019-04-14T13:13:56Z</time>
      </trkpt>
      <trkpt lat="48.2322" lon="7.30059">
        <ele>488</ele>
        <time>2019-04-14T13:14:56Z</time>
      </trkpt>
      <trkpt lat="48.23217" lon="7.3005">
        <ele>488</ele>
        <time>2019-04-14T13:15:56Z</time>
      </trkpt>
      <trkpt lat="48.23215" lon="7.30042">
        <ele>488</ele>
        <time>2019-04-14T13:16:56Z</time>
      </trkpt>
      <trkpt lat="48.23211" lon="7.30038">
        <ele>488</ele>
        <time>2019-04-14T13:17:56Z</time>
      </trkpt>
      <trkpt lat="48.23208" lon="7.30034">
        <ele>488</ele>
        <time>2019-04-14T13:18:56Z</time>
      </trkpt>
      <trkpt lat="48.23204" lon="7.30031">
        <ele>488</ele>
        <time>2019-04-14T13:19:56Z</time>
      </trkpt>
      <trkpt lat="48.23199" lon="7.3003">
        <ele>487</ele>
        <time>2019-04-14T13:20:56Z</time>
      </trkpt>
      <trkpt lat="48.23195" lon="7.30029">
        <ele>487</ele>
        <time>2019-04-14T13:21:56Z</time>
      </trkpt>
      <trkpt lat="48.23193" lon="7.30029">
        <ele>487</ele>
        <time>2019-04-14T13:22:56Z</time>
      </trkpt>
      <trkpt lat="48.23191" lon="7.3003">
        <ele>486</ele>
        <time>2019-04-14T13:23:56Z</time>
      </trkpt>
      <trkpt lat="48.23185" lon="7.30033">
        <ele>486</ele>
        <time>2019-04-14T13:24:56Z</time>
      </trkpt>
      <trkpt lat="48.2318" lon="7.30037">
        <ele>485</ele>
        <time>2019-04-14T13:25:56Z</time>
      </trkpt>
      <trkpt lat="48.23176" lon="7.30043">
        <ele>484</ele>
        <time>2019-04-14T13:26:56Z</time>
      </trkpt>
      <trkpt lat="48.23171" lon="7.30056">
        <ele>482</ele>
        <time>2019-04-14T13:27:56Z</time>
      </trkpt>
      <trkpt lat="48.23165" lon="7.3007">
        <ele>481</ele>
        <time>2019-04-14T13:28:56Z</time>
      </trkpt>
      <trkpt lat="48.23161" lon="7.30083">
        <ele>480</ele>
        <time>2019-04-14T13:29:56Z</time>
      </trkpt>
      <trkpt lat="48.23157" lon="7.30092">
        <ele>480</ele>
        <time>2019-04-14T13:30:56Z</time>
      </trkpt>
      <trkpt lat="48.23152" lon="7.30099">
        <ele>479</ele>
        <time>2019-04-14T13:31:56Z</time>
      </trkpt>
      <trkpt lat="48.23145" lon="7.30107">
        <ele>479</ele>
        <time>2019-04-14T13:32:56Z</time>
      </trkpt>
      <trkpt lat="48.23123" lon="7.30121">
        <ele>479</ele>
        <time>2019-04-14T13:33:56Z</time>
      </trkpt>
      <trkpt lat="48.23102" lon="7.30132">
        <ele>479</ele>
        <time>2019-04-14T13:34:56Z</time>
      </trkpt>
      <trkpt lat="48.23083" lon="7.30144">
        <ele>479</ele>
        <time>2019-04-14T13:35:56Z</time>
      </trkpt>
      <trkpt lat="48.23078" lon="7.30147">
        <ele>480</ele>
        <time>2019-04-14T13:36:56Z</time>
      </trkpt>
      <trkpt lat="48.23076" lon="7.30151">
        <ele>480</ele>
        <time>2019-04-14T13:37:56Z</time>
      </trkpt>
      <trkpt lat="48.23074" lon="7.30153">
        <ele>480</ele>
        <time>2019-04-14T13:38:56Z</time>
      </trkpt>
      <trkpt lat="48.23072" lon="7.3016">
        <ele>480</ele>
        <time>2019-04-14T13:39:56Z</time>
      </trkpt>
      <trkpt lat="48.23063" lon="7.30185">
        <ele>480</ele>
        <time>2019-04-14T13:40:56Z</time>
      </trkpt>
      <trkpt lat="48.23052" lon="7.30218">
        <ele>480</ele>
        <time>2019-04-14T13:41:56Z</time>
      </trkpt>
      <trkpt lat="48.23045" lon="7.30235">
        <ele>480</ele>
        <time>2019-04-14T13:42:56Z</time>
      </trkpt>
      <trkpt lat="48.23038" lon="7.30249">
        <ele>480</ele>
        <time>2019-04-14T13:43:56Z</time>
      </trkpt>
      <trkpt lat="48.23034" lon="7.30257">
        <ele>480</ele>
        <time>2019-04-14T13:44:56Z</time>
      </trkpt>
      <trkpt lat="48.23027" lon="7.30268">
        <ele>480</ele>
        <time>2019-04-14T13:45:56Z</time>
      </trkpt>
      <trkpt lat="48.23007" lon="7.30302">
        <ele>481</ele>
        <time>2019-04-14T13:46:56Z</time>
      </trkpt>
      <trkpt lat="48.22997" lon="7.3032">
        <ele>481</ele>
        <time>2019-04-14T13:47:56Z</time>
      </trkpt>
      <trkpt lat="48.22992" lon="7.3033">
        <ele>482</ele>
        <time>2019-04-14T13:48:56Z</time>
      </trkpt>
      <trkpt lat="48.2298" lon="7.30354">
        <ele>480</ele>
        <time>2019-04-14T13:49:56Z</time>
      </trkpt>
      <trkpt lat="48.22961" lon="7.3039">
        <ele>476</ele>
        <time>2019-04-14T13:50:56Z</time>
      </trkpt>
      <trkpt lat="48.22943" lon="7.3042">
        <ele>474</ele>
        <time>2019-04-14T13:51:56Z</time>
      </trkpt>
      <trkpt lat="48.22925" lon="7.3045">
        <ele>474</ele>
        <time>2019-04-14T13:52:56Z</time>
      </trkpt>
      <trkpt lat="48.22913" lon="7.30469">
        <ele>475</ele>
        <time>2019-04-14T13:53:56Z</time>
      </trkpt>
      <trkpt lat="48.22905" lon="7.30482">
        <ele>475</ele>
        <time>2019-04-14T13:54:56Z</time>
      </trkpt>
      <trkpt lat="48.22903" lon="7.30486">
        <ele>475</ele>
        <time>2019-04-14T13:55:56Z</time>
      </trkpt>
      <trkpt lat="48.22898" lon="7.30492">
        <ele>475</ele>
        <time>2019-04-14T13:56:56Z</time>
      </trkpt>
      <trkpt lat="48.22892" lon="7.305">
        <ele>474</ele>
        <time>2019-04-14T13:57:56Z</time>
      </trkpt>
      <trkpt lat="48.22885" lon="7.30507">
        <ele>475</ele>
        <time>2019-04-14T13:58:56Z</time>
      </trkpt>
      <trkpt lat="48.22877" lon="7.30515">
        <ele>474</ele>
        <time>2019-04-14T13:59:56Z</time>
      </trkpt>
      <trkpt lat="48.22864" lon="7.30528">
        <ele>474</ele>
        <time>2019-04-14T14:00:56Z</time>
      </trkpt>
      <trkpt lat="48.22851" lon="7.30545">
        <ele>474</ele>
        <time>2019-04-14T14:01:56Z</time>
      </trkpt>
      <trkpt lat="48.22848" lon="7.30548">
        <ele>474</ele>
        <time>2019-04-14T14:02:56Z</time>
      </trkpt>
      <trkpt lat="48.22842" lon="7.30553">
        <ele>474</ele>
        <time>2019-04-14T14:03:56Z</time>
      </trkpt>
      <trkpt lat="48.22837" lon="7.30555">
        <ele>474</ele>
        <time>2019-04-14T14:04:56Z</time>
      </trkpt>
      <trkpt lat="48.22832" lon="7.30556">
        <ele>474</ele>
        <time>2019-04-14T14:05:56Z</time>
      </trkpt>
      <trkpt lat="48.22826" lon="7.30556">
        <ele>473</ele>
        <time>2019-04-14T14:06:56Z</time>
      </trkpt>
      <trkpt lat="48.22818" lon="7.30555">
        <ele>472</ele>
        <time>2019-04-14T14:07:56Z</time>
      </trkpt>
      <trkpt lat="48.22812" lon="7.30553">
        <ele>472</ele>
        <time>2019-04-14T14:08:56Z</time>
      </trkpt>
      <trkpt lat="48.22806" lon="7.30551">
        <ele>471</ele>
        <time>2019-04-14T14:09:56Z</time>
      </trkpt>
      <trkpt lat="48.22801" lon="7.30547">
        <ele>471</ele>
        <time>2019-04-14T14:10:56Z</time>
      </trkpt>
      <trkpt lat="48.22796" lon="7.30541">
        <ele>471</ele>
        <time>2019-04-14T14:11:56Z</time>
      </trkpt>
      <trkpt lat="48.22791" lon="7.30536">
        <ele>470</ele>
        <time>2019-04-14T14:12:56Z</time>
      </trkpt>
      <trkpt lat="48.22785" lon="7.30525">
        <ele>470</ele>
        <time>2019-04-14T14:13:56Z</time>
      </trkpt>
      <trkpt lat="48.22775" lon="7.30503">
        <ele>469</ele>
        <time>2019-04-14T14:14:56Z</time>
      </trkpt>
      <trkpt lat="48.22763" lon="7.3048">
        <ele>469</ele>
        <time>2019-04-14T14:15:56Z</time>
      </trkpt>
      <trkpt lat="48.22757" lon="7.30466">
        <ele>469</ele>
        <time>2019-04-14T14:16:56Z</time>
      </trkpt>
      <trkpt lat="48.22751" lon="7.30456">
        <ele>469</ele>
        <time>2019-04-14T14:17:56Z</time>
      </trkpt>
      <trkpt lat="48.22747" lon="7.3045">
        <ele>469</ele>
        <time>2019-04-14T14:18:56Z</time>
      </trkpt>
      <trkpt lat="48.22743" lon="7.30446">
        <ele>469</ele>
        <time>2019-04-14T14:19:56Z</time>
      </trkpt>
      <trkpt lat="48.22738" lon="7.30442">
        <ele>469</ele>
        <time>2019-04-14T14:20:56Z</time>
      </trkpt>
      <trkpt lat="48.22731" lon="7.30439">
        <ele>468</ele>
        <time>2019-04-14T14:21:56Z</time>
      </trkpt>
      <trkpt lat="48.22725" lon="7.30438">
        <ele>468</ele>
        <time>2019-04-14T14:22:56Z</time>
      </trkpt>
      <trkpt lat="48.22719" lon="7.30438">
        <ele>467</ele>
        <time>2019-04-14T14:23:56Z</time>
      </trkpt>
      <trkpt lat="48.22713" lon="7.30439">
        <ele>467</ele>
        <time>2019-04-14T14:24:56Z</time>
      </trkpt>
      <trkpt lat="48.22709" lon="7.30441">
        <ele>466</ele>
        <time>2019-04-14T14:25:56Z</time>
      </trkpt>
      <trkpt lat="48.22705" lon="7.30446">
        <ele>466</ele>
        <time>2019-04-14T14:26:56Z</time>
      </trkpt>
      <trkpt lat="48.22703" lon="7.30448">
        <ele>465</ele>
        <time>2019-04-14T14:27:56Z</time>
      </trkpt>
      <trkpt lat="48.22703" lon="7.30448">
        <ele>465</ele>
        <time>2019-04-14T14:28:56Z</time>
      </trkpt>
      <trkpt lat="48.22702" lon="7.30449">
        <ele>465</ele>
        <time>2019-04-14T14:29:56Z</time>
      </trkpt>
      <trkpt lat="48.22701" lon="7.30454">
        <ele>465</ele>
        <time>2019-04-14T14:30:56Z</time>
      </trkpt>
      <trkpt lat="48.22699" lon="7.3046">
        <ele>464</ele>
        <time>2019-04-14T14:31:56Z</time>
      </trkpt>
      <trkpt lat="48.227" lon="7.30467">
        <ele>464</ele>
        <time>2019-04-14T14:32:56Z</time>
      </trkpt>
      <trkpt lat="48.22701" lon="7.30472">
        <ele>463</ele>
        <time>2019-04-14T14:33:56Z</time>
      </trkpt>
      <trkpt lat="48.22703" lon="7.30477">
        <ele>463</ele>
        <time>2019-04-14T14:34:56Z</time>
      </trkpt>
      <trkpt lat="48.22707" lon="7.30481">
        <ele>463</ele>
        <time>2019-04-14T14:35:56Z</time>
      </trkpt>
      <trkpt lat="48.22711" lon="7.30483">
        <ele>463</ele>
        <time>2019-04-14T14:36:56Z</time>
      </trkpt>
      <trkpt lat="48.22717" lon="7.30487">
        <ele>464</ele>
        <time>2019-04-14T14:37:56Z</time>
      </trkpt>
      <trkpt lat="48.22725" lon="7.30491">
        <ele>464</ele>
        <time>2019-04-14T14:38:56Z</time>
      </trkpt>
      <trkpt lat="48.2273" lon="7.30494">
        <ele>464</ele>
        <time>2019-04-14T14:39:56Z</time>
      </trkpt>
      <trkpt lat="48.22734" lon="7.30499">
        <ele>465</ele>
        <time>2019-04-14T14:40:56Z</time>
      </trkpt>
      <trkpt lat="48.22736" lon="7.30504">
        <ele>465</ele>
        <time>2019-04-14T14:41:56Z</time>
      </trkpt>
      <trkpt lat="48.22737" lon="7.3051">
        <ele>464</ele>
        <time>2019-04-14T14:42:56Z</time>
      </trkpt>
      <trkpt lat="48.22737" lon="7.30516">
        <ele>464</ele>
        <time>2019-04-14T14:43:56Z</time>
      </trkpt>
      <trkpt lat="48.22736" lon="7.30522">
        <ele>464</ele>
        <time>2019-04-14T14:44:56Z</time>
      </trkpt>
      <trkpt lat="48.22735" lon="7.30527">
        <ele>464</ele>
        <time>2019-04-14T14:45:56Z</time>
      </trkpt>
      <trkpt lat="48.22734" lon="7.30528">
        <ele>464</ele>
        <time>2019-04-14T14:46:56Z</time>
      </trkpt>
      <trkpt lat="48.22732" lon="7.30532">
        <ele>463</ele>
        <time>2019-04-14T14:47:56Z</time>
      </trkpt>
      <trkpt lat="48.22726" lon="7.30538">
        <ele>462</ele>
        <time>2019-04-14T14:48:56Z</time>
      </trkpt>
      <trkpt lat="48.22719" lon="7.30545">
        <ele>461</ele>
        <time>2019-04-14T14:49:56Z</time>
      </trkpt>
      <trkpt lat="48.22712" lon="7.30555">
        <ele>460</ele>
        <time>2019-04-14T14:50:56Z</time>
      </trkpt>
      <trkpt lat="48.22706" lon="7.30565">
        <ele>459</ele>
        <time>2019-04-14T14:51:56Z</time>
      </trkpt>
      <trkpt lat="48.22704" lon="7.30569">
        <ele>459</ele>
        <time>2019-04-14T14:52:56Z</time>
      </trkpt>
      <trkpt lat="48.22691" lon="7.30592">
        <ele>456</ele>
        <time>2019-04-14T14:53:56Z</time>
      </trkpt>
      <trkpt lat="48.22681" lon="7.30612">
        <ele>455</ele>
        <time>2019-04-14T14:54:56Z</time>
      </trkpt>
      <trkpt lat="48.22675" lon="7.30621">
        <ele>455</ele>
        <time>2019-04-14T14:55:56Z</time>
      </trkpt>
      <trkpt lat="48.22668" lon="7.3063">
        <ele>454</ele>
        <time>2019-04-14T14:56:56Z</time>
      </trkpt>
      <trkpt lat="48.2266" lon="7.3064">
        <ele>454</ele>
        <time>2019-04-14T14:57:56Z</time>
      </trkpt>
      <trkpt lat="48.22653" lon="7.30647">
        <ele>453</ele>
        <time>2019-04-14T14:58:56Z</time>
      </trkpt>
      <trkpt lat="48.22648" lon="7.30654">
        <ele>452</ele>
        <time>2019-04-14T14:59:56Z</time>
      </trkpt>
      <trkpt lat="48.22642" lon="7.30662">
        <ele>451</ele>
        <time>2019-04-14T15:00:56Z</time>
      </trkpt>
      <trkpt lat="48.22639" lon="7.3067">
        <ele>450</ele>
        <time>2019-04-14T15:01:56Z</time>
      </trkpt>
      <trkpt lat="48.22637" lon="7.30677">
        <ele>450</ele>
        <time>2019-04-14T15:02:56Z</time>
      </trkpt>
      <trkpt lat="48.22636" lon="7.30686">
        <ele>449</ele>
        <time>2019-04-14T15:03:56Z</time>
      </trkpt>
      <trkpt lat="48.22636" lon="7.30694">
        <ele>448</ele>
        <time>2019-04-14T15:04:56Z</time>
      </trkpt>
      <trkpt lat="48.22637" lon="7.30702">
        <ele>447</ele>
        <time>2019-04-14T15:05:56Z</time>
      </trkpt>
      <trkpt lat="48.22638" lon="7.30711">
        <ele>447</ele>
        <time>2019-04-14T15:06:56Z</time>
      </trkpt>
      <trkpt lat="48.22645" lon="7.30737">
        <ele>446</ele>
        <time>2019-04-14T15:07:56Z</time>
      </trkpt>
      <trkpt lat="48.22653" lon="7.30759">
        <ele>445</ele>
        <time>2019-04-14T15:08:56Z</time>
      </trkpt>
      <trkpt lat="48.2266" lon="7.30781">
        <ele>443</ele>
        <time>2019-04-14T15:09:56Z</time>
      </trkpt>
      <trkpt lat="48.22664" lon="7.3079">
        <ele>443</ele>
        <time>2019-04-14T15:10:56Z</time>
      </trkpt>
      <trkpt lat="48.22674" lon="7.30809">
        <ele>442</ele>
        <time>2019-04-14T15:11:56Z</time>
      </trkpt>
      <trkpt lat="48.22684" lon="7.30829">
        <ele>440</ele>
        <time>2019-04-14T15:12:56Z</time>
      </trkpt>
      <trkpt lat="48.22699" lon="7.30855">
        <ele>437</ele>
        <time>2019-04-14T15:13:56Z</time>
      </trkpt>
      <trkpt lat="48.22709" lon="7.30872">
        <ele>435</ele>
        <time>2019-04-14T15:14:56Z</time>
      </trkpt>
      <trkpt lat="48.22721" lon="7.30888">
        <ele>433</ele>
        <time>2019-04-14T15:15:56Z</time>
      </trkpt>
      <trkpt lat="48.22731" lon="7.30896">
        <ele>432</ele>
        <time>2019-04-14T15:16:56Z</time>
      </trkpt>
      <trkpt lat="48.22739" lon="7.30901">
        <ele>432</ele>
        <time>2019-04-14T15:17:56Z</time>
      </trkpt>
      <trkpt lat="48.22746" lon="7.30902">
        <ele>432</ele>
        <time>2019-04-14T15:18:56Z</time>
      </trkpt>
      <trkpt lat="48.22753" lon="7.30902">
        <ele>431</ele>
        <time>2019-04-14T15:19:56Z</time>
      </trkpt>
      <trkpt lat="48.2276" lon="7.30901">
        <ele>431</ele>
        <time>2019-04-14T15:20:56Z</time>
      </trkpt>
      <trkpt lat="48.22766" lon="7.30898">
        <ele>431</ele>
        <time>2019-04-14T15:21:56Z</time>
      </trkpt>
      <trkpt lat="48.22768" lon="7.30897">
        <ele>431</ele>
        <time>2019-04-14T15:22:56Z</time>
      </trkpt>
      <trkpt lat="48.22776" lon="7.30892">
        <ele>431</ele>
        <time>2019-04-14T15:23:56Z</time>
      </trkpt>
      <trkpt lat="48.22782" lon="7.30888">
        <ele>431</ele>
        <time>2019-04-14T15:24:56Z</time>
      </trkpt>
      <trkpt lat="48.22793" lon="7.30878">
        <ele>431</ele>
        <time>2019-04-14T15:25:56Z</time>
      </trkpt>
      <trkpt lat="48.22803" lon="7.30868">
        <ele>432</ele>
        <time>2019-04-14T15:26:56Z</time>
      </trkpt>
      <trkpt lat="48.22812" lon="7.30857">
        <ele>434</ele>
        <time>2019-04-14T15:27:56Z</time>
      </trkpt>
      <trkpt lat="48.22822" lon="7.30848">
        <ele>435</ele>
        <time>2019-04-14T15:28:56Z</time>
      </trkpt>
      <trkpt lat="48.2283" lon="7.30841">
        <ele>436</ele>
        <time>2019-04-14T15:29:56Z</time>
      </trkpt>
      <trkpt lat="48.22839" lon="7.30836">
        <ele>436</ele>
        <time>2019-04-14T15:30:56Z</time>
      </trkpt>
      <trkpt lat="48.22848" lon="7.30831">
        <ele>436</ele>
        <time>2019-04-14T15:31:56Z</time>
      </trkpt>
      <trkpt lat="48.22861" lon="7.30825">
        <ele>436</ele>
        <time>2019-04-14T15:32:56Z</time>
      </trkpt>
      <trkpt lat="48.22874" lon="7.3082">
        <ele>436</ele>
        <time>2019-04-14T15:33:56Z</time>
      </trkpt>
      <trkpt lat="48.22886" lon="7.30813">
        <ele>437</ele>
        <time>2019-04-14T15:34:56Z</time>
      </trkpt>
      <trkpt lat="48.22907" lon="7.30804">
        <ele>437</ele>
        <time>2019-04-14T15:35:56Z</time>
      </trkpt>
      <trkpt lat="48.22919" lon="7.30799">
        <ele>438</ele>
        <time>2019-04-14T15:36:56Z</time>
      </trkpt>
      <trkpt lat="48.22938" lon="7.30795">
        <ele>438</ele>
        <time>2019-04-14T15:37:56Z</time>
      </trkpt>
      <trkpt lat="48.2295" lon="7.30794">
        <ele>438</ele>
        <time>2019-04-14T15:38:56Z</time>
      </trkpt>
      <trkpt lat="48.22954" lon="7.30794">
        <ele>438</ele>
        <time>2019-04-14T15:39:56Z</time>
      </trkpt>
      <trkpt lat="48.22963" lon="7.30793">
        <ele>437</ele>
        <time>2019-04-14T15:40:56Z</time>
      </trkpt>
      <trkpt lat="48.2297" lon="7.30791">
        <ele>437</ele>
        <time>2019-04-14T15:41:56Z</time>
      </trkpt>
      <trkpt lat="48.22982" lon="7.30789">
        <ele>437</ele>
        <time>2019-04-14T15:42:56Z</time>
      </trkpt>
      <trkpt lat="48.22987" lon="7.30789">
        <ele>437</ele>
        <time>2019-04-14T15:43:56Z</time>
      </trkpt>
      <trkpt lat="48.22993" lon="7.3079">
        <ele>436</ele>
        <time>2019-04-14T15:44:56Z</time>
      </trkpt>
      <trkpt lat="48.22998" lon="7.30794">
        <ele>436</ele>
        <time>2019-04-14T15:45:56Z</time>
      </trkpt>
      <trkpt lat="48.23002" lon="7.30799">
        <ele>435</ele>
        <time>2019-04-14T15:46:56Z</time>
      </trkpt>
      <trkpt lat="48.23003" lon="7.30804">
        <ele>435</ele>
        <time>2019-04-14T15:47:56Z</time>
      </trkpt>
      <trkpt lat="48.23005" lon="7.3081">
        <ele>435</ele>
        <time>2019-04-14T15:48:56Z</time>
      </trkpt>
      <trkpt lat="48.23005" lon="7.30816">
        <ele>434</ele>
        <time>2019-04-14T15:49:56Z</time>
      </trkpt>
      <trkpt lat="48.23005" lon="7.30824">
        <ele>434</ele>
        <time>2019-04-14T15:50:56Z</time>
      </trkpt>
      <trkpt lat="48.23004" lon="7.3083">
        <ele>433</ele>
        <time>2019-04-14T15:51:56Z</time>
      </trkpt>
      <trkpt lat="48.23003" lon="7.30836">
        <ele>433</ele>
        <time>2019-04-14T15:52:56Z</time>
      </trkpt>
      <trkpt lat="48.23" lon="7.3084">
        <ele>434</ele>
        <time>2019-04-14T15:53:56Z</time>
      </trkpt>
      <trkpt lat="48.22995" lon="7.30846">
        <ele>435</ele>
        <time>2019-04-14T15:54:56Z</time>
      </trkpt>
      <trkpt lat="48.2299" lon="7.3085">
        <ele>436</ele>
        <time>2019-04-14T15:55:56Z</time>
      </trkpt>
      <trkpt lat="48.22982" lon="7.30855">
        <ele>436</ele>
        <time>2019-04-14T15:56:56Z</time>
      </trkpt>
      <trkpt lat="48.22981" lon="7.30855">
        <ele>436</ele>
        <time>2019-04-14T15:57:56Z</time>
      </trkpt>
      <trkpt lat="48.22963" lon="7.3086">
        <ele>435</ele>
        <time>2019-04-14T15:58:56Z</time>
      </trkpt>
      <trkpt lat="48.22944" lon="7.30863">
        <ele>433</ele>
        <time>2019-04-14T15:59:56Z</time>
      </trkpt>
      <trkpt lat="48.22935" lon="7.30866">
        <ele>432</ele>
        <time>2019-04-14T16:00:56Z</time>
      </trkpt>
      <trkpt lat="48.22927" lon="7.30871">
        <ele>431</ele>
        <time>2019-04-14T16:01:56Z</time>
      </trkpt>
      <trkpt lat="48.22918" lon="7.30878">
        <ele>430</ele>
        <time>2019-04-14T16:02:56Z</time>
      </trkpt>
      <trkpt lat="48.22908" lon="7.30887">
        <ele>429</ele>
        <time>2019-04-14T16:03:56Z</time>
      </trkpt>
      <trkpt lat="48.22898" lon="7.30898">
        <ele>428</ele>
        <time>2019-04-14T16:04:56Z</time>
      </trkpt>
      <trkpt lat="48.22887" lon="7.30909">
        <ele>426</ele>
        <time>2019-04-14T16:05:56Z</time>
      </trkpt>
      <trkpt lat="48.22884" lon="7.30911">
        <ele>426</ele>
        <time>2019-04-14T16:06:56Z</time>
      </trkpt>
      <trkpt lat="48.22876" lon="7.30918">
        <ele>424</ele>
        <time>2019-04-14T16:07:56Z</time>
      </trkpt>
      <trkpt lat="48.22866" lon="7.30927">
        <ele>424</ele>
        <time>2019-04-14T16:08:56Z</time>
      </trkpt>
      <trkpt lat="48.22858" lon="7.30936">
        <ele>424</ele>
        <time>2019-04-14T16:09:56Z</time>
      </trkpt>
      <trkpt lat="48.22848" lon="7.30947">
        <ele>423</ele>
        <time>2019-04-14T16:10:56Z</time>
      </trkpt>
      <trkpt lat="48.22839" lon="7.3096">
        <ele>422</ele>
        <time>2019-04-14T16:11:56Z</time>
      </trkpt>
      <trkpt lat="48.2283" lon="7.30975">
        <ele>421</ele>
        <time>2019-04-14T16:12:56Z</time>
      </trkpt>
      <trkpt lat="48.22825" lon="7.30984">
        <ele>420</ele>
        <time>2019-04-14T16:13:56Z</time>
      </trkpt>
      <trkpt lat="48.2282" lon="7.30992">
        <ele>420</ele>
        <time>2019-04-14T16:14:56Z</time>
      </trkpt>
      <trkpt lat="48.22813" lon="7.31008">
        <ele>421</ele>
        <time>2019-04-14T16:15:56Z</time>
      </trkpt>
      <trkpt lat="48.22807" lon="7.3102">
        <ele>422</ele>
        <time>2019-04-14T16:16:56Z</time>
      </trkpt>
      <trkpt lat="48.228" lon="7.31031">
        <ele>422</ele>
        <time>2019-04-14T16:17:56Z</time>
      </trkpt>
      <trkpt lat="48.22793" lon="7.31039">
        <ele>422</ele>
        <time>2019-04-14T16:18:56Z</time>
      </trkpt>
      <trkpt lat="48.22785" lon="7.31047">
        <ele>421</ele>
        <time>2019-04-14T16:19:56Z</time>
      </trkpt>
      <trkpt lat="48.22776" lon="7.31055">
        <ele>419</ele>
        <time>2019-04-14T16:20:56Z</time>
      </trkpt>
      <trkpt lat="48.22767" lon="7.31062">
        <ele>417</ele>
        <time>2019-04-14T16:21:56Z</time>
      </trkpt>
      <trkpt lat="48.2276" lon="7.31069">
        <ele>415</ele>
        <time>2019-04-14T16:22:56Z</time>
      </trkpt>
      <trkpt lat="48.22752" lon="7.31078">
        <ele>413</ele>
        <time>2019-04-14T16:23:56Z</time>
      </trkpt>
      <trkpt lat="48.22745" lon="7.31088">
        <ele>412</ele>
        <time>2019-04-14T16:24:56Z</time>
      </trkpt>
      <trkpt lat="48.22739" lon="7.31098">
        <ele>414</ele>
        <time>2019-04-14T16:25:56Z</time>
      </trkpt>
      <trkpt lat="48.22734" lon="7.31107">
        <ele>415</ele>
        <time>2019-04-14T16:26:56Z</time>
      </trkpt>
      <trkpt lat="48.2273" lon="7.31117">
        <ele>416</ele>
        <time>2019-04-14T16:27:56Z</time>
      </trkpt>
      <trkpt lat="48.22729" lon="7.31119">
        <ele>417</ele>
        <time>2019-04-14T16:28:56Z</time>
      </trkpt>
      <trkpt lat="48.22724" lon="7.31128">
        <ele>418</ele>
        <time>2019-04-14T16:29:56Z</time>
      </trkpt>
      <trkpt lat="48.22718" lon="7.31134">
        <ele>417</ele>
        <time>2019-04-14T16:30:56Z</time>
      </trkpt>
      <trkpt lat="48.22712" lon="7.31138">
        <ele>417</ele>
        <time>2019-04-14T16:31:56Z</time>
      </trkpt>
      <trkpt lat="48.22707" lon="7.31138">
        <ele>415</ele>
        <time>2019-04-14T16:32:56Z</time>
      </trkpt>
      <trkpt lat="48.22704" lon="7.31137">
        <ele>415</ele>
        <time>2019-04-14T16:33:56Z</time>
      </trkpt>
      <trkpt lat="48.227" lon="7.31135">
        <ele>413</ele>
        <time>2019-04-14T16:34:56Z</time>
      </trkpt>
      <trkpt lat="48.22695" lon="7.3113">
        <ele>411</ele>
        <time>2019-04-14T16:35:56Z</time>
      </trkpt>
      <trkpt lat="48.22691" lon="7.31125">
        <ele>409</ele>
        <time>2019-04-14T16:36:56Z</time>
      </trkpt>
      <trkpt lat="48.22687" lon="7.31118">
        <ele>407</ele>
        <time>2019-04-14T16:37:56Z</time>
      </trkpt>
      <trkpt lat="48.22683" lon="7.31102">
        <ele>404</ele>
        <time>2019-04-14T16:38:56Z</time>
      </trkpt>
      <trkpt lat="48.22682" lon="7.31086">
        <ele>401</ele>
        <time>2019-04-14T16:39:56Z</time>
      </trkpt>
      <trkpt lat="48.22683" lon="7.3106">
        <ele>402</ele>
        <time>2019-04-14T16:40:56Z</time>
      </trkpt>
      <trkpt lat="48.22681" lon="7.31044">
        <ele>402</ele>
        <time>2019-04-14T16:41:56Z</time>
      </trkpt>
      <trkpt lat="48.22678" lon="7.31033">
        <ele>402</ele>
        <time>2019-04-14T16:42:56Z</time>
      </trkpt>
      <trkpt lat="48.22675" lon="7.31025">
        <ele>402</ele>
        <time>2019-04-14T16:43:56Z</time>
      </trkpt>
      <trkpt lat="48.22672" lon="7.31021">
        <ele>402</ele>
        <time>2019-04-14T16:44:56Z</time>
      </trkpt>
      <trkpt lat="48.22667" lon="7.31018">
        <ele>401</ele>
        <time>2019-04-14T16:45:56Z</time>
      </trkpt>
      <trkpt lat="48.22662" lon="7.31017">
        <ele>401</ele>
        <time>2019-04-14T16:46:56Z</time>
      </trkpt>
      <trkpt lat="48.22652" lon="7.31019">
        <ele>402</ele>
        <time>2019-04-14T16:47:56Z</time>
      </trkpt>
      <trkpt lat="48.22645" lon="7.31023">
        <ele>402</ele>
        <time>2019-04-14T16:48:56Z</time>
      </trkpt>
      <trkpt lat="48.22641" lon="7.31029">
        <ele>402</ele>
        <time>2019-04-14T16:49:56Z</time>
      </trkpt>
      <trkpt lat="48.22636" lon="7.31037">
        <ele>401</ele>
        <time>2019-04-14T16:50:56Z</time>
      </trkpt>
      <trkpt lat="48.2263" lon="7.3105">
        <ele>401</ele>
        <time>2019-04-14T16:51:56Z</time>
      </trkpt>
      <trkpt lat="48.22625" lon="7.31058">
        <ele>400</ele>
        <time>2019-04-14T16:52:56Z</time>
      </trkpt>
      <trkpt lat="48.22619" lon="7.31067">
        <ele>399</ele>
        <time>2019-04-14T16:53:56Z</time>
      </trkpt>
      <trkpt lat="48.22612" lon="7.31076">
        <ele>398</ele>
        <time>2019-04-14T16:54:56Z</time>
      </trkpt>
      <trkpt lat="48.22601" lon="7.31091">
        <ele>397</ele>
        <time>2019-04-14T16:55:56Z</time>
      </trkpt>
      <trkpt lat="48.22597" lon="7.31099">
        <ele>396</ele>
        <time>2019-04-14T16:56:56Z</time>
      </trkpt>
      <trkpt lat="48.22594" lon="7.31108">
        <ele>396</ele>
        <time>2019-04-14T16:57:56Z</time>
      </trkpt>
      <trkpt lat="48.22593" lon="7.31118">
        <ele>395</ele>
        <time>2019-04-14T16:58:56Z</time>
      </trkpt>
      <trkpt lat="48.22593" lon="7.31127">
        <ele>395</ele>
        <time>2019-04-14T16:59:56Z</time>
      </trkpt>
      <trkpt lat="48.22594" lon="7.31135">
        <ele>394</ele>
        <time>2019-04-14T17:00:56Z</time>
      </trkpt>
      <trkpt lat="48.22597" lon="7.31159">
        <ele>393</ele>
        <time>2019-04-14T17:01:56Z</time>
      </trkpt>
      <trkpt lat="48.22598" lon="7.31173">
        <ele>394</ele>
        <time>2019-04-14T17:02:56Z</time>
      </trkpt>
      <trkpt lat="48.22598" lon="7.31185">
        <ele>394</ele>
        <time>2019-04-14T17:03:56Z</time>
      </trkpt>
      <trkpt lat="48.22596" lon="7.312">
        <ele>394</ele>
        <time>2019-04-14T17:04:56Z</time>
      </trkpt>
      <trkpt lat="48.22593" lon="7.31216">
        <ele>393</ele>
        <time>2019-04-14T17:05:56Z</time>
      </trkpt>
      <trkpt lat="48.22588" lon="7.31242">
        <ele>392</ele>
        <time>2019-04-14T17:06:56Z</time>
      </trkpt>
      <trkpt lat="48.22584" lon="7.31264">
        <ele>390</ele>
        <time>2019-04-14T17:07:56Z</time>
      </trkpt>
      <trkpt lat="48.22584" lon="7.31264">
        <ele>390</ele>
        <time>2019-04-14T17:08:56Z</time>
      </trkpt>
      <trkpt lat="48.22581" lon="7.31276">
        <ele>390</ele>
        <time>2019-04-14T17:09:56Z</time>
      </trkpt>
      <trkpt lat="48.22577" lon="7.31294">
        <ele>391</ele>
        <time>2019-04-14T17:10:56Z</time>
      </trkpt>
      <trkpt lat="48.22573" lon="7.31312">
        <ele>391</ele>
        <time>2019-04-14T17:11:56Z</time>
      </trkpt>
      <trkpt lat="48.22569" lon="7.31327">
        <ele>390</ele>
        <time>2019-04-14T17:12:56Z</time>
      </trkpt>
      <trkpt lat="48.22563" lon="7.3134">
        <ele>390</ele>
        <time>2019-04-14T17:13:56Z</time>
      </trkpt>
      <trkpt lat="48.22559" lon="7.31346">
        <ele>390</ele>
        <time>2019-04-14T17:14:56Z</time>
      </trkpt>
      <trkpt lat="48.22553" lon="7.31353">
        <ele>390</ele>
        <time>2019-04-14T17:15:56Z</time>
      </trkpt>
      <trkpt lat="48.2255" lon="7.31357">
        <ele>389</ele>
        <time>2019-04-14T17:16:56Z</time>
      </trkpt>
      <trkpt lat="48.22546" lon="7.31361">
        <ele>389</ele>
        <time>2019-04-14T17:17:56Z</time>
      </trkpt>
      <trkpt lat="48.22538" lon="7.31366">
        <ele>388</ele>
        <time>2019-04-14T17:18:56Z</time>
      </trkpt>
      <trkpt lat="48.22531" lon="7.31369">
        <ele>387</ele>
        <time>2019-04-14T17:19:56Z</time>
      </trkpt>
      <trkpt lat="48.22522" lon="7.31372">
        <ele>386</ele>
        <time>2019-04-14T17:20:56Z</time>
      </trkpt>
      <trkpt lat="48.2251" lon="7.31378">
        <ele>384</ele>
        <time>2019-04-14T17:21:56Z</time>
      </trkpt>
      <trkpt lat="48.22497" lon="7.31385">
        <ele>381</ele>
        <time>2019-04-14T17:22:56Z</time>
      </trkpt>
      <trkpt lat="48.22487" lon="7.31392">
        <ele>380</ele>
        <time>2019-04-14T17:23:56Z</time>
      </trkpt>
      <trkpt lat="48.22477" lon="7.31399">
        <ele>378</ele>
        <time>2019-04-14T17:24:56Z</time>
      </trkpt>
      <trkpt lat="48.22467" lon="7.31408">
        <ele>376</ele>
        <time>2019-04-14T17:25:56Z</time>
      </trkpt>
      <trkpt lat="48.22458" lon="7.31417">
        <ele>373</ele>
        <time>2019-04-14T17:26:56Z</time>
      </trkpt>
      <trkpt lat="48.22447" lon="7.31428">
        <ele>373</ele>
        <time>2019-04-14T17:27:56Z</time>
      </trkpt>
      <trkpt lat="48.22438" lon="7.31437">
        <ele>372</ele>
        <time>2019-04-14T17:28:56Z</time>
      </trkpt>
      <trkpt lat="48.22432" lon="7.31443">
        <ele>371</ele>
        <time>2019-04-14T17:29:56Z</time>
      </trkpt>
      <trkpt lat="48.22428" lon="7.31445">
        <ele>370</ele>
        <time>2019-04-14T17:30:56Z</time>
      </trkpt>
      <trkpt lat="48.22424" lon="7.31445">
        <ele>370</ele>
        <time>2019-04-14T17:31:56Z</time>
      </trkpt>
      <trkpt lat="48.22421" lon="7.31444">
        <ele>369</ele>
        <time>2019-04-14T17:32:56Z</time>
      </trkpt>
      <trkpt lat="48.22417" lon="7.31442">
        <ele>368</ele>
        <time>2019-04-14T17:33:56Z</time>
      </trkpt>
      <trkpt lat="48.22412" lon="7.31438">
        <ele>368</ele>
        <time>2019-04-14T17:34:56Z</time>
      </trkpt>
      <trkpt lat="48.22408" lon="7.31432">
        <ele>368</ele>
        <time>2019-04-14T17:35:56Z</time>
      </trkpt>
      <trkpt lat="48.22406" lon="7.3143">
        <ele>369</ele>
        <time>2019-04-14T17:36:56Z</time>
      </trkpt>
      <trkpt lat="48.22398" lon="7.31419">
        <ele>369</ele>
        <time>2019-04-14T17:37:56Z</time>
      </trkpt>
      <trkpt lat="48.22392" lon="7.31412">
        <ele>370</ele>
        <time>2019-04-14T17:38:56Z</time>
      </trkpt>
      <trkpt lat="48.22385" lon="7.31409">
        <ele>371</ele>
        <time>2019-04-14T17:39:56Z</time>
      </trkpt>
      <trkpt lat="48.22382" lon="7.31409">
        <ele>371</ele>
        <time>2019-04-14T17:40:56Z</time>
      </trkpt>
      <trkpt lat="48.22378" lon="7.3141">
        <ele>372</ele>
        <time>2019-04-14T17:41:56Z</time>
      </trkpt>
      <trkpt lat="48.2237" lon="7.31417">
        <ele>371</ele>
        <time>2019-04-14T17:42:56Z</time>
      </trkpt>
      <trkpt lat="48.22364" lon="7.31429">
        <ele>370</ele>
        <time>2019-04-14T17:43:56Z</time>
      </trkpt>
      <trkpt lat="48.22362" lon="7.31438">
        <ele>370</ele>
        <time>2019-04-14T17:44:56Z</time>
      </trkpt>
      <trkpt lat="48.22361" lon="7.31446">
        <ele>369</ele>
        <time>2019-04-14T17:45:56Z</time>
      </trkpt>
      <trkpt lat="48.2236" lon="7.3145">
        <ele>369</ele>
        <time>2019-04-14T17:46:56Z</time>
      </trkpt>
      <trkpt lat="48.2236" lon="7.31455">
        <ele>368</ele>
        <time>2019-04-14T17:47:56Z</time>
      </trkpt>
      <trkpt lat="48.2236" lon="7.31468">
        <ele>367</ele>
        <time>2019-04-14T17:48:56Z</time>
      </trkpt>
      <trkpt lat="48.22362" lon="7.3148">
        <ele>366</ele>
        <time>2019-04-14T17:49:56Z</time>
      </trkpt>
      <trkpt lat="48.22367" lon="7.31514">
        <ele>363</ele>
        <time>2019-04-14T17:50:56Z</time>
      </trkpt>
      <trkpt lat="48.22367" lon="7.31523">
        <ele>363</ele>
        <time>2019-04-14T17:51:56Z</time>
      </trkpt>
      <trkpt lat="48.22367" lon="7.3153">
        <ele>362</ele>
        <time>2019-04-14T17:52:56Z</time>
      </trkpt>
      <trkpt lat="48.22366" lon="7.3154">
        <ele>361</ele>
        <time>2019-04-14T17:53:56Z</time>
      </trkpt>
      <trkpt lat="48.22361" lon="7.3156">
        <ele>358</ele>
        <time>2019-04-14T17:54:56Z</time>
      </trkpt>
      <trkpt lat="48.2235" lon="7.316">
        <ele>352</ele>
        <time>2019-04-14T17:55:56Z</time>
      </trkpt>
      <trkpt lat="48.22343" lon="7.3162">
        <ele>350</ele>
        <time>2019-04-14T17:56:56Z</time>
      </trkpt>
      <trkpt lat="48.22339" lon="7.31627">
        <ele>348</ele>
        <time>2019-04-14T17:57:56Z</time>
      </trkpt>
      <trkpt lat="48.22334" lon="7.31631">
        <ele>347</ele>
        <time>2019-04-14T17:58:56Z</time>
      </trkpt>
      <trkpt lat="48.22326" lon="7.31635">
        <ele>346</ele>
        <time>2019-04-14T17:59:56Z</time>
      </trkpt>
      <trkpt lat="48.22323" lon="7.31637">
        <ele>346</ele>
        <time>2019-04-14T18:00:56Z</time>
      </trkpt>
      <trkpt lat="48.22318" lon="7.31637">
        <ele>346</ele>
        <time>2019-04-14T18:01:56Z</time>
      </trkpt>
      <trkpt lat="48.22307" lon="7.31639">
        <ele>346</ele>
        <time>2019-04-14T18:02:56Z</time>
      </trkpt>
      <trkpt lat="48.22295" lon="7.3164">
        <ele>345</ele>
        <time>2019-04-14T18:03:56Z</time>
      </trkpt>
      <trkpt lat="48.2226" lon="7.31648">
        <ele>343</ele>
        <time>2019-04-14T18:04:56Z</time>
      </trkpt>
      <trkpt lat="48.2223" lon="7.31657">
        <ele>343</ele>
        <time>2019-04-14T18:05:56Z</time>
      </trkpt>
      <trkpt lat="48.22221" lon="7.31662">
        <ele>343</ele>
        <time>2019-04-14T18:06:56Z</time>
      </trkpt>
      <trkpt lat="48.22212" lon="7.31669">
        <ele>343</ele>
        <time>2019-04-14T18:07:56Z</time>
      </trkpt>
      <trkpt lat="48.22208" lon="7.31674">
        <ele>343</ele>
        <time>2019-04-14T18:08:56Z</time>
      </trkpt>
      <trkpt lat="48.222" lon="7.31684">
        <ele>343</ele>
        <time>2019-04-14T18:09:56Z</time>
      </trkpt>
      <trkpt lat="48.22198" lon="7.31691">
        <ele>342</ele>
        <time>2019-04-14T18:10:56Z</time>
      </trkpt>
      <trkpt lat="48.22196" lon="7.31697">
        <ele>342</ele>
        <time>2019-04-14T18:11:56Z</time>
      </trkpt>
      <trkpt lat="48.22194" lon="7.31705">
        <ele>342</ele>
        <time>2019-04-14T18:12:56Z</time>
      </trkpt>
      <trkpt lat="48.2219" lon="7.31733">
        <ele>339</ele>
        <time>2019-04-14T18:13:56Z</time>
      </trkpt>
      <trkpt lat="48.22189" lon="7.31745">
        <ele>338</ele>
        <time>2019-04-14T18:14:56Z</time>
      </trkpt>
      <trkpt lat="48.22187" lon="7.31758">
        <ele>337</ele>
        <time>2019-04-14T18:15:56Z</time>
      </trkpt>
      <trkpt lat="48.22187" lon="7.31769">
        <ele>337</ele>
        <time>2019-04-14T18:16:56Z</time>
      </trkpt>
      <trkpt lat="48.22185" lon="7.31782">
        <ele>336</ele>
        <time>2019-04-14T18:17:56Z</time>
      </trkpt>
      <trkpt lat="48.22184" lon="7.3179">
        <ele>335</ele>
        <time>2019-04-14T18:18:56Z</time>
      </trkpt>
      <trkpt lat="48.22183" lon="7.31796">
        <ele>335</ele>
        <time>2019-04-14T18:19:56Z</time>
      </trkpt>
      <trkpt lat="48.22184" lon="7.3181">
        <ele>334</ele>
        <time>2019-04-14T18:20:56Z</time>
      </trkpt>
      <trkpt lat="48.22184" lon="7.31822">
        <ele>334</ele>
        <time>2019-04-14T18:21:56Z</time>
      </trkpt>
      <trkpt lat="48.22188" lon="7.3185">
        <ele>334</ele>
        <time>2019-04-14T18:22:56Z</time>
      </trkpt>
      <trkpt lat="48.22201" lon="7.31903">
        <ele>336</ele>
        <time>2019-04-14T18:23:56Z</time>
      </trkpt>
      <trkpt lat="48.22205" lon="7.3192">
        <ele>336</ele>
        <time>2019-04-14T18:24:56Z</time>
      </trkpt>
      <trkpt lat="48.22209" lon="7.31933">
        <ele>336</ele>
        <time>2019-04-14T18:25:56Z</time>
      </trkpt>
      <trkpt lat="48.22215" lon="7.31946">
        <ele>335</ele>
        <time>2019-04-14T18:26:56Z</time>
      </trkpt>
      <trkpt lat="48.22218" lon="7.31956">
        <ele>334</ele>
        <time>2019-04-14T18:27:56Z</time>
      </trkpt>
      <trkpt lat="48.22224" lon="7.31976">
        <ele>332</ele>
        <time>2019-04-14T18:28:56Z</time>
      </trkpt>
      <trkpt lat="48.22228" lon="7.31988">
        <ele>331</ele>
        <time>2019-04-14T18:29:56Z</time>
      </trkpt>
      <trkpt lat="48.2223" lon="7.31997">
        <ele>330</ele>
        <time>2019-04-14T18:30:56Z</time>
      </trkpt>
      <trkpt lat="48.22232" lon="7.32009">
        <ele>329</ele>
        <time>2019-04-14T18:31:56Z</time>
      </trkpt>
      <trkpt lat="48.22234" lon="7.3202">
        <ele>328</ele>
        <time>2019-04-14T18:32:56Z</time>
      </trkpt>
      <trkpt lat="48.22235" lon="7.3203">
        <ele>328</ele>
        <time>2019-04-14T18:33:56Z</time>
      </trkpt>
      <trkpt lat="48.22236" lon="7.32055">
        <ele>327</ele>
        <time>2019-04-14T18:34:56Z</time>
      </trkpt>
      <trkpt lat="48.22236" lon="7.32063">
        <ele>326</ele>
        <time>2019-04-14T18:35:56Z</time>
      </trkpt>
      <trkpt lat="48.22237" lon="7.32072">
        <ele>326</ele>
        <time>2019-04-14T18:36:56Z</time>
      </trkpt>
      <trkpt lat="48.22236" lon="7.3208">
        <ele>326</ele>
        <time>2019-04-14T18:37:56Z</time>
      </trkpt>
      <trkpt lat="48.22235" lon="7.32088">
        <ele>326</ele>
        <time>2019-04-14T18:38:56Z</time>
      </trkpt>
      <trkpt lat="48.22234" lon="7.32108">
        <ele>327</ele>
        <time>2019-04-14T18:39:56Z</time>
      </trkpt>
      <trkpt lat="48.22232" lon="7.3212">
        <ele>328</ele>
        <time>2019-04-14T18:40:56Z</time>
      </trkpt>
      <trkpt lat="48.22228" lon="7.3214">
        <ele>329</ele>
        <time>2019-04-14T18:41:56Z</time>
      </trkpt>
      <trkpt lat="48.22225" lon="7.32148">
        <ele>329</ele>
        <time>2019-04-14T18:42:56Z</time>
      </trkpt>
      <trkpt lat="48.22222" lon="7.32156">
        <ele>330</ele>
        <time>2019-04-14T18:43:56Z</time>
      </trkpt>
      <trkpt lat="48.22219" lon="7.32162">
        <ele>330</ele>
        <time>2019-04-14T18:44:56Z</time>
      </trkpt>
      <trkpt lat="48.22215" lon="7.3217">
        <ele>330</ele>
        <time>2019-04-14T18:45:56Z</time>
      </trkpt>
      <trkpt lat="48.22211" lon="7.32176">
        <ele>330</ele>
        <time>2019-04-14T18:46:56Z</time>
      </trkpt>
      <trkpt lat="48.22207" lon="7.32182">
        <ele>330</ele>
        <time>2019-04-14T18:47:56Z</time>
      </trkpt>
      <trkpt lat="48.22202" lon="7.32188">
        <ele>330</ele>
        <time>2019-04-14T18:48:56Z</time>
      </trkpt>
      <trkpt lat="48.22198" lon="7.32194">
        <ele>330</ele>
        <time>2019-04-14T18:49:56Z</time>
      </trkpt>
      <trkpt lat="48.22193" lon="7.32199">
        <ele>330</ele>
        <time>2019-04-14T18:50:56Z</time>
      </trkpt>
      <trkpt lat="48.22178" lon="7.32212">
        <ele>327</ele>
        <time>2019-04-14T18:51:56Z</time>
      </trkpt>
      <trkpt lat="48.22174" lon="7.32217">
        <ele>326</ele>
        <time>2019-04-14T18:52:56Z</time>
      </trkpt>
      <trkpt lat="48.22168" lon="7.32223">
        <ele>324</ele>
        <time>2019-04-14T18:53:56Z</time>
      </trkpt>
      <trkpt lat="48.22165" lon="7.32228">
        <ele>324</ele>
        <time>2019-04-14T18:54:56Z</time>
      </trkpt>
      <trkpt lat="48.22161" lon="7.32235">
        <ele>324</ele>
        <time>2019-04-14T18:55:56Z</time>
      </trkpt>
      <trkpt lat="48.22158" lon="7.32243">
        <ele>324</ele>
        <time>2019-04-14T18:56:56Z</time>
      </trkpt>
      <trkpt lat="48.22155" lon="7.32249">
        <ele>324</ele>
        <time>2019-04-14T18:57:56Z</time>
      </trkpt>
      <trkpt lat="48.22154" lon="7.32257">
        <ele>325</ele>
        <time>2019-04-14T18:58:56Z</time>
      </trkpt>
      <trkpt lat="48.22153" lon="7.32262">
        <ele>325</ele>
        <time>2019-04-14T18:59:56Z</time>
      </trkpt>
      <trkpt lat="48.22151" lon="7.3227">
        <ele>325</ele>
        <time>2019-04-14T19:00:56Z</time>
      </trkpt>
      <trkpt lat="48.22151" lon="7.32276">
        <ele>325</ele>
        <time>2019-04-14T19:01:56Z</time>
      </trkpt>
      <trkpt lat="48.22151" lon="7.3228">
        <ele>325</ele>
        <time>2019-04-14T19:02:56Z</time>
      </trkpt>
      <trkpt lat="48.2215" lon="7.32289">
        <ele>325</ele>
        <time>2019-04-14T19:03:56Z</time>
      </trkpt>
      <trkpt lat="48.2215" lon="7.32317">
        <ele>325</ele>
        <time>2019-04-14T19:04:56Z</time>
      </trkpt>
      <trkpt lat="48.2215" lon="7.3233">
        <ele>325</ele>
        <time>2019-04-14T19:05:56Z</time>
      </trkpt>
      <trkpt lat="48.22148" lon="7.3238">
        <ele>324</ele>
        <time>2019-04-14T19:06:56Z</time>
      </trkpt>
      <trkpt lat="48.22147" lon="7.32412">
        <ele>323</ele>
        <time>2019-04-14T19:07:56Z</time>
      </trkpt>
      <trkpt lat="48.22145" lon="7.3243">
        <ele>321</ele>
        <time>2019-04-14T19:08:56Z</time>
      </trkpt>
      <trkpt lat="48.22144" lon="7.32444">
        <ele>319</ele>
        <time>2019-04-14T19:09:56Z</time>
      </trkpt>
      <trkpt lat="48.22141" lon="7.3247">
        <ele>316</ele>
        <time>2019-04-14T19:10:56Z</time>
      </trkpt>
      <trkpt lat="48.22138" lon="7.32486">
        <ele>314</ele>
        <time>2019-04-14T19:11:56Z</time>
      </trkpt>
      <trkpt lat="48.22134" lon="7.32501">
        <ele>312</ele>
        <time>2019-04-14T19:12:56Z</time>
      </trkpt>
      <trkpt lat="48.22131" lon="7.32511">
        <ele>311</ele>
        <time>2019-04-14T19:13:56Z</time>
      </trkpt>
      <trkpt lat="48.22126" lon="7.32528">
        <ele>309</ele>
        <time>2019-04-14T19:14:56Z</time>
      </trkpt>
      <trkpt lat="48.22121" lon="7.32544">
        <ele>307</ele>
        <time>2019-04-14T19:15:56Z</time>
      </trkpt>
      <trkpt lat="48.22117" lon="7.32556">
        <ele>305</ele>
        <time>2019-04-14T19:16:56Z</time>
      </trkpt>
      <trkpt lat="48.22112" lon="7.32567">
        <ele>303</ele>
        <time>2019-04-14T19:17:56Z</time>
      </trkpt>
      <trkpt lat="48.22097" lon="7.32597">
        <ele>300</ele>
        <time>2019-04-14T19:18:56Z</time>
      </trkpt>
      <trkpt lat="48.22059" lon="7.32676">
        <ele>301</ele>
        <time>2019-04-14T19:19:56Z</time>
      </trkpt>
      <trkpt lat="48.22039" lon="7.3271">
        <ele>301</ele>
        <time>2019-04-14T19:20:56Z</time>
      </trkpt>
      <trkpt lat="48.22033" lon="7.32721">
        <ele>300</ele>
        <time>2019-04-14T19:21:56Z</time>
      </trkpt>
      <trkpt lat="48.21995" lon="7.32769">
        <ele>295</ele>
        <time>2019-04-14T19:22:56Z</time>
      </trkpt>
      <trkpt lat="48.21968" lon="7.32809">
        <ele>300</ele>
        <time>2019-04-14T19:23:56Z</time>
      </trkpt>
      <trkpt lat="48.21948" lon="7.32843">
        <ele>299</ele>
        <time>2019-04-14T19:24:56Z</time>
      </trkpt>
      <trkpt lat="48.21919" lon="7.32898">
        <ele>294</ele>
        <time>2019-04-14T19:25:56Z</time>
      </trkpt>
      <trkpt lat="48.21855" lon="7.33021">
        <ele>297</ele>
        <time>2019-04-14T19:26:56Z</time>
      </trkpt>
      <trkpt lat="48.21795" lon="7.3313">
        <ele>295</ele>
        <time>2019-04-14T19:27:56Z</time>
      </trkpt>
      <trkpt lat="48.21775" lon="7.33173">
        <ele>293</ele>
        <time>2019-04-14T19:28:56Z</time>
      </trkpt>
      <trkpt lat="48.2177" lon="7.33187">
        <ele>292</ele>
        <time>2019-04-14T19:29:56Z</time>
      </trkpt>
      <trkpt lat="48.21764" lon="7.33208">
        <ele>290</ele>
        <time>2019-04-14T19:30:56Z</time>
      </trkpt>
      <trkpt lat="48.21763" lon="7.33215">
        <ele>290</ele>
        <time>2019-04-14T19:31:56Z</time>
      </trkpt>
      <trkpt lat="48.21757" lon="7.3324">
        <ele>288</ele>
        <time>2019-04-14T19:32:56Z</time>
      </trkpt>
      <trkpt lat="48.21755" lon="7.33255">
        <ele>287</ele>
        <time>2019-04-14T19:33:56Z</time>
      </trkpt>
      <trkpt lat="48.21752" lon="7.33269">
        <ele>287</ele>
        <time>2019-04-14T19:34:56Z</time>
      </trkpt>
      <trkpt lat="48.21749" lon="7.33287">
        <ele>288</ele>
        <time>2019-04-14T19:35:56Z</time>
      </trkpt>
      <trkpt lat="48.21745" lon="7.33304">
        <ele>289</ele>
        <time>2019-04-14T19:36:56Z</time>
      </trkpt>
      <trkpt lat="48.21743" lon="7.33313">
        <ele>289</ele>
        <time>2019-04-14T19:37:56Z</time>
      </trkpt>
      <trkpt lat="48.21738" lon="7.33327">
        <ele>290</ele>
        <time>2019-04-14T19:38:56Z</time>
      </trkpt>
      <trkpt lat="48.21728" lon="7.33345">
        <ele>291</ele>
        <time>2019-04-14T19:39:56Z</time>
      </trkpt>
      <trkpt lat="48.2172" lon="7.3336">
        <ele>292</ele>
        <time>2019-04-14T19:40:56Z</time>
      </trkpt>
      <trkpt lat="48.21714" lon="7.33364">
        <ele>292</ele>
        <time>2019-04-14T19:41:56Z</time>
      </trkpt>
      <trkpt lat="48.21703" lon="7.33378">
        <ele>291</ele>
        <time>2019-04-14T19:42:56Z</time>
      </trkpt>
      <trkpt lat="48.21694" lon="7.33388">
        <ele>290</ele>
        <time>2019-04-14T19:43:56Z</time>
      </trkpt>
      <trkpt lat="48.21686" lon="7.33396">
        <ele>288</ele>
        <time>2019-04-14T19:44:56Z</time>
      </trkpt>
      <trkpt lat="48.21674" lon="7.33415">
        <ele>285</ele>
        <time>2019-04-14T19:45:56Z</time>
      </trkpt>
      <trkpt lat="48.21649" lon="7.33454">
        <ele>283</ele>
        <time>2019-04-14T19:46:56Z</time>
      </trkpt>
      <trkpt lat="48.21637" lon="7.33473">
        <ele>281</ele>
        <time>2019-04-14T19:47:56Z</time>
      </trkpt>
      <trkpt lat="48.21628" lon="7.33486">
        <ele>279</ele>
        <time>2019-04-14T19:48:56Z</time>
      </trkpt>
      <trkpt lat="48.21621" lon="7.33497">
        <ele>278</ele>
        <time>2019-04-14T19:49:56Z</time>
      </trkpt>
      <trkpt lat="48.21612" lon="7.33507">
        <ele>276</ele>
        <time>2019-04-14T19:50:56Z</time>
      </trkpt>
      <trkpt lat="48.21603" lon="7.33518">
        <ele>274</ele>
        <time>2019-04-14T19:51:56Z</time>
      </trkpt>
      <trkpt lat="48.21597" lon="7.33524">
        <ele>273</ele>
        <time>2019-04-14T19:52:56Z</time>
      </trkpt>
      <trkpt lat="48.21591" lon="7.3353">
        <ele>272</ele>
        <time>2019-04-14T19:53:56Z</time>
      </trkpt>
      <trkpt lat="48.21583" lon="7.33538">
        <ele>270</ele>
        <time>2019-04-14T19:54:56Z</time>
      </trkpt>
      <trkpt lat="48.21575" lon="7.33546">
        <ele>270</ele>
        <time>2019-04-14T19:55:56Z</time>
      </trkpt>
      <trkpt lat="48.21552" lon="7.33565">
        <ele>270</ele>
        <time>2019-04-14T19:56:56Z</time>
      </trkpt>
      <trkpt lat="48.21539" lon="7.33576">
        <ele>269</ele>
        <time>2019-04-14T19:57:56Z</time>
      </trkpt>
      <trkpt lat="48.21518" lon="7.33597">
        <ele>269</ele>
        <time>2019-04-14T19:58:56Z</time>
      </trkpt>
      <trkpt lat="48.21501" lon="7.33614">
        <ele>269</ele>
        <time>2019-04-14T19:59:56Z</time>
      </trkpt>
      <trkpt lat="48.21488" lon="7.33628">
        <ele>270</ele>
        <time>2019-04-14T20:00:56Z</time>
      </trkpt>
      <trkpt lat="48.21472" lon="7.33641">
        <ele>270</ele>
        <time>2019-04-14T20:01:56Z</time>
      </trkpt>
      <trkpt lat="48.21457" lon="7.33653">
        <ele>270</ele>
        <time>2019-04-14T20:02:56Z</time>
      </trkpt>
      <trkpt lat="48.21452" lon="7.33656">
        <ele>269</ele>
        <time>2019-04-14T20:03:56Z</time>
      </trkpt>
      <trkpt lat="48.21432" lon="7.33669">
        <ele>268</ele>
        <time>2019-04-14T20:04:56Z</time>
      </trkpt>
      <trkpt lat="48.21428" lon="7.33671">
        <ele>268</ele>
        <time>2019-04-14T20:05:56Z</time>
      </trkpt>
      <trkpt lat="48.21417" lon="7.33682">
        <ele>268</ele>
        <time>2019-04-14T20:06:56Z</time>
      </trkpt>
      <trkpt lat="48.21408" lon="7.33694">
        <ele>269</ele>
        <time>2019-04-14T20:07:56Z</time>
      </trkpt>
      <trkpt lat="48.21397" lon="7.3371">
        <ele>269</ele>
        <time>2019-04-14T20:08:56Z</time>
      </trkpt>
      <trkpt lat="48.21387" lon="7.3373">
        <ele>268</ele>
        <time>2019-04-14T20:09:56Z</time>
      </trkpt>
      <trkpt lat="48.21376" lon="7.33752">
        <ele>266</ele>
        <time>2019-04-14T20:10:56Z</time>
      </trkpt>
      <trkpt lat="48.21364" lon="7.3377">
        <ele>264</ele>
        <time>2019-04-14T20:11:56Z</time>
      </trkpt>
      <trkpt lat="48.21359" lon="7.33776">
        <ele>263</ele>
        <time>2019-04-14T20:12:56Z</time>
      </trkpt>
      <trkpt lat="48.21349" lon="7.33792">
        <ele>262</ele>
        <time>2019-04-14T20:13:56Z</time>
      </trkpt>
      <trkpt lat="48.21348" lon="7.33793">
        <ele>261</ele>
        <time>2019-04-14T20:14:56Z</time>
      </trkpt>
      <trkpt lat="48.2134" lon="7.33806">
        <ele>260</ele>
        <time>2019-04-14T20:15:56Z</time>
      </trkpt>
      <trkpt lat="48.21335" lon="7.33819">
        <ele>259</ele>
        <time>2019-04-14T20:16:56Z</time>
      </trkpt>
      <trkpt lat="48.21328" lon="7.33839">
        <ele>258</ele>
        <time>2019-04-14T20:17:56Z</time>
      </trkpt>
      <trkpt lat="48.21322" lon="7.33855">
        <ele>258</ele>
        <time>2019-04-14T20:18:56Z</time>
      </trkpt>
      <trkpt lat="48.21309" lon="7.33894">
        <ele>257</ele>
        <time>2019-04-14T20:19:56Z</time>
      </trkpt>
      <trkpt lat="48.21294" lon="7.33939">
        <ele>255</ele>
        <time>2019-04-14T20:20:56Z</time>
      </trkpt>
      <trkpt lat="48.2128" lon="7.33979">
        <ele>254</ele>
        <time>2019-04-14T20:21:56Z</time>
      </trkpt>
      <trkpt lat="48.21264" lon="7.34012">
        <ele>253</ele>
        <time>2019-04-14T20:22:56Z</time>
      </trkpt>
      <trkpt lat="48.21251" lon="7.34037">
        <ele>252</ele>
        <time>2019-04-14T20:23:56Z</time>
      </trkpt>
      <trkpt lat="48.21232" lon="7.34073">
        <ele>252</ele>
        <time>2019-04-14T20:24:56Z</time>
      </trkpt>
      <trkpt lat="48.21205" lon="7.3412">
        <ele>252</ele>
        <time>2019-04-14T20:25:56Z</time>
      </trkpt>
      <trkpt lat="48.21186" lon="7.34149">
        <ele>252</ele>
        <time>2019-04-14T20:26:56Z</time>
      </trkpt>
      <trkpt lat="48.21167" lon="7.34175">
        <ele>251</ele>
        <time>2019-04-14T20:27:56Z</time>
      </trkpt>
      <trkpt lat="48.21143" lon="7.34204">
        <ele>250</ele>
        <time>2019-04-14T20:28:56Z</time>
      </trkpt>
      <trkpt lat="48.21118" lon="7.34236">
        <ele>247</ele>
        <time>2019-04-14T20:29:56Z</time>
      </trkpt>
      <trkpt lat="48.21112" lon="7.34243">
        <ele>247</ele>
        <time>2019-04-14T20:30:56Z</time>
      </trkpt>
      <trkpt lat="48.21093" lon="7.34262">
        <ele>246</ele>
        <time>2019-04-14T20:31:56Z</time>
      </trkpt>
      <trkpt lat="48.21069" lon="7.34286">
        <ele>244</ele>
        <time>2019-04-14T20:32:56Z</time>
      </trkpt>
      <trkpt lat="48.21043" lon="7.34314">
        <ele>242</ele>
        <time>2019-04-14T20:33:56Z</time>
      </trkpt>
      <trkpt lat="48.21035" lon="7.34322">
        <ele>242</ele>
        <time>2019-04-14T20:34:56Z</time>
      </trkpt>
      <trkpt lat="48.21026" lon="7.34331">
        <ele>241</ele>
        <time>2019-04-14T20:35:56Z</time>
      </trkpt>
      <trkpt lat="48.21014" lon="7.34345">
        <ele>240</ele>
        <time>2019-04-14T20:36:56Z</time>
      </trkpt>
      <trkpt lat="48.20997" lon="7.34361">
        <ele>239</ele>
        <time>2019-04-14T20:37:56Z</time>
      </trkpt>
      <trkpt lat="48.20983" lon="7.3437">
        <ele>239</ele>
        <time>2019-04-14T20:38:56Z</time>
      </trkpt>
      <trkpt lat="48.2097" lon="7.34376">
        <ele>240</ele>
        <time>2019-04-14T20:39:56Z</time>
      </trkpt>
      <trkpt lat="48.20955" lon="7.3438">
        <ele>240</ele>
        <time>2019-04-14T20:40:56Z</time>
      </trkpt>
      <trkpt lat="48.20937" lon="7.34386">
        <ele>240</ele>
        <time>2019-04-14T20:41:56Z</time>
      </trkpt>
      <trkpt lat="48.20921" lon="7.34395">
        <ele>239</ele>
        <time>2019-04-14T20:42:56Z</time>
      </trkpt>
      <trkpt lat="48.20907" lon="7.34407">
        <ele>239</ele>
        <time>2019-04-14T20:43:56Z</time>
      </trkpt>
      <trkpt lat="48.20893" lon="7.34422">
        <ele>238</ele>
        <time>2019-04-14T20:44:56Z</time>
      </trkpt>
      <trkpt lat="48.20882" lon="7.34436">
        <ele>237</ele>
        <time>2019-04-14T20:45:56Z</time>
      </trkpt>
      <trkpt lat="48.20873" lon="7.34451">
        <ele>237</ele>
        <time>2019-04-14T20:46:56Z</time>
      </trkpt>
      <trkpt lat="48.20863" lon="7.34469">
        <ele>236</ele>
        <time>2019-04-14T20:47:56Z</time>
      </trkpt>
      <trkpt lat="48.20857" lon="7.34484">
        <ele>235</ele>
        <time>2019-04-14T20:48:56Z</time>
      </trkpt>
      <trkpt lat="48.20851" lon="7.34498">
        <ele>235</ele>
        <time>2019-04-14T20:49:56Z</time>
      </trkpt>
      <trkpt lat="48.20846" lon="7.34516">
        <ele>234</ele>
        <time>2019-04-14T20:50:56Z</time>
      </trkpt>
      <trkpt lat="48.20841" lon="7.34529">
        <ele>234</ele>
        <time>2019-04-14T20:51:56Z</time>
      </trkpt>
      <trkpt lat="48.20837" lon="7.34556">
        <ele>234</ele>
        <time>2019-04-14T20:52:56Z</time>
      </trkpt>
      <trkpt lat="48.20831" lon="7.34589">
        <ele>233</ele>
        <time>2019-04-14T20:53:56Z</time>
      </trkpt>
      <trkpt lat="48.20825" lon="7.34612">
        <ele>232</ele>
        <time>2019-04-14T20:54:56Z</time>
      </trkpt>
      <trkpt lat="48.20817" lon="7.34638">
        <ele>232</ele>
        <time>2019-04-14T20:55:56Z</time>
      </trkpt>
      <trkpt lat="48.20809" lon="7.34662">
        <ele>231</ele>
        <time>2019-04-14T20:56:56Z</time>
      </trkpt>
      <trkpt lat="48.20806" lon="7.34678">
        <ele>230</ele>
        <time>2019-04-14T20:57:56Z</time>
      </trkpt>
      <trkpt lat="48.20803" lon="7.34698">
        <ele>230</ele>
        <time>2019-04-14T20:58:56Z</time>
      </trkpt>
      <trkpt lat="48.20799" lon="7.34733">
        <ele>229</ele>
        <time>2019-04-14T20:59:56Z</time>
      </trkpt>
      <trkpt lat="48.20793" lon="7.34779">
        <ele>229</ele>
        <time>2019-04-14T21:00:56Z</time>
      </trkpt>
      <trkpt lat="48.2079" lon="7.34808">
        <ele>228</ele>
        <time>2019-04-14T21:01:56Z</time>
      </trkpt>
      <trkpt lat="48.2079" lon="7.3482">
        <ele>228</ele>
        <time>2019-04-14T21:02:56Z</time>
      </trkpt>
      <trkpt lat="48.2079" lon="7.34838">
        <ele>228</ele>
        <time>2019-04-14T21:03:56Z</time>
      </trkpt>
      <trkpt lat="48.20792" lon="7.34867">
        <ele>228</ele>
        <time>2019-04-14T21:04:56Z</time>
      </trkpt>
      <trkpt lat="48.20793" lon="7.349">
        <ele>228</ele>
        <time>2019-04-14T21:05:56Z</time>
      </trkpt>
      <trkpt lat="48.20793" lon="7.34917">
        <ele>228</ele>
        <time>2019-04-14T21:06:56Z</time>
      </trkpt>
      <trkpt lat="48.2079" lon="7.34933">
        <ele>227</ele>
        <time>2019-04-14T21:07:56Z</time>
      </trkpt>
      <trkpt lat="48.20783" lon="7.34962">
        <ele>226</ele>
        <time>2019-04-14T21:08:56Z</time>
      </trkpt>
      <trkpt lat="48.20773" lon="7.34995">
        <ele>225</ele>
        <time>2019-04-14T21:09:56Z</time>
      </trkpt>
      <trkpt lat="48.20761" lon="7.35029">
        <ele>224</ele>
        <time>2019-04-14T21:10:56Z</time>
      </trkpt>
      <trkpt lat="48.20758" lon="7.35039">
        <ele>224</ele>
        <time>2019-04-14T21:11:56Z</time>
      </trkpt>
      <trkpt lat="48.20752" lon="7.35059">
        <ele>223</ele>
        <time>2019-04-14T21:12:56Z</time>
      </trkpt>
      <trkpt lat="48.20743" lon="7.35087">
        <ele>223</ele>
        <time>2019-04-14T21:13:56Z</time>
      </trkpt>
      <trkpt lat="48.20735" lon="7.3511">
        <ele>223</ele>
        <time>2019-04-14T21:14:56Z</time>
      </trkpt>
      <trkpt lat="48.20725" lon="7.35133">
        <ele>224</ele>
        <time>2019-04-14T21:15:56Z</time>
      </trkpt>
      <trkpt lat="48.20719" lon="7.3515">
        <ele>224</ele>
        <time>2019-04-14T21:16:56Z</time>
      </trkpt>
      <trkpt lat="48.20719" lon="7.35152">
        <ele>224</ele>
        <time>2019-04-14T21:17:56Z</time>
      </trkpt>
      <trkpt lat="48.20714" lon="7.35168">
        <ele>224</ele>
        <time>2019-04-14T21:18:56Z</time>
      </trkpt>
      <trkpt lat="48.20708" lon="7.352">
        <ele>223</ele>
        <time>2019-04-14T21:19:56Z</time>
      </trkpt>
      <trkpt lat="48.20693" lon="7.35268">
        <ele>221</ele>
        <time>2019-04-14T21:20:56Z</time>
      </trkpt>
      <trkpt lat="48.20689" lon="7.35292">
        <ele>221</ele>
        <time>2019-04-14T21:21:56Z</time>
      </trkpt>
      <trkpt lat="48.20683" lon="7.35317">
        <ele>221</ele>
        <time>2019-04-14T21:22:56Z</time>
      </trkpt>
      <trkpt lat="48.20678" lon="7.35341">
        <ele>220</ele>
        <time>2019-04-14T21:23:56Z</time>
      </trkpt>
      <trkpt lat="48.20673" lon="7.35368">
        <ele>219</ele>
        <time>2019-04-14T21:24:56Z</time>
      </trkpt>
      <trkpt lat="48.20668" lon="7.35397">
        <ele>218</ele>
        <time>2019-04-14T21:25:56Z</time>
      </trkpt>
      <trkpt lat="48.20664" lon="7.35426">
        <ele>217</ele>
        <time>2019-04-14T21:26:56Z</time>
      </trkpt>
      <trkpt lat="48.20664" lon="7.35432">
        <ele>217</ele>
        <time>2019-04-14T21:27:56Z</time>
      </trkpt>
      <trkpt lat="48.20659" lon="7.35468">
        <ele>217</ele>
        <time>2019-04-14T21:28:56Z</time>
      </trkpt>
      <trkpt lat="48.20652" lon="7.35501">
        <ele>217</ele>
        <time>2019-04-14T21:29:56Z</time>
      </trkpt>
      <trkpt lat="48.20648" lon="7.35514">
        <ele>217</ele>
        <time>2019-04-14T21:30:56Z</time>
      </trkpt>
      <trkpt lat="48.20643" lon="7.35532">
        <ele>217</ele>
        <time>2019-04-14T21:31:56Z</time>
      </trkpt>
      <trkpt lat="48.20636" lon="7.35556">
        <ele>216</ele>
        <time>2019-04-14T21:32:56Z</time>
      </trkpt>
      <trkpt lat="48.20628" lon="7.35581">
        <ele>216</ele>
        <time>2019-04-14T21:33:56Z</time>
      </trkpt>
      <trkpt lat="48.20613" lon="7.35629">
        <ele>215</ele>
        <time>2019-04-14T21:34:56Z</time>
      </trkpt>
      <trkpt lat="48.20607" lon="7.35651">
        <ele>215</ele>
        <time>2019-04-14T21:35:56Z</time>
      </trkpt>
      <trkpt lat="48.20591" lon="7.35702">
        <ele>215</ele>
        <time>2019-04-14T21:36:56Z</time>
      </trkpt>
      <trkpt lat="48.20588" lon="7.35714">
        <ele>214</ele>
        <time>2019-04-14T21:37:56Z</time>
      </trkpt>
      <trkpt lat="48.20585" lon="7.35724">
        <ele>214</ele>
        <time>2019-04-14T21:38:56Z</time>
      </trkpt>
      <trkpt lat="48.20585" lon="7.35733">
        <ele>214</ele>
        <time>2019-04-14T21:39:56Z</time>
      </trkpt>
      <trkpt lat="48.20584" lon="7.35741">
        <ele>214</ele>
        <time>2019-04-14T21:40:56Z</time>
      </trkpt>
      <trkpt lat="48.20584" lon="7.35753">
        <ele>214</ele>
        <time>2019-04-14T21:41:56Z</time>
      </trkpt>
      <trkpt lat="48.20585" lon="7.35768">
        <ele>214</ele>
        <time>2019-04-14T21:42:56Z</time>
      </trkpt>
      <trkpt lat="48.20585" lon="7.35768">
        <ele>214</ele>
        <time>2019-04-14T21:43:56Z</time>
      </trkpt>
      <trkpt lat="48.20585" lon="7.35769">
        <ele>214</ele>
        <time>2019-04-14T21:44:56Z</time>
      </trkpt>
      <trkpt lat="48.20584" lon="7.35769">
        <ele>214</ele>
        <time>2019-04-14T21:45:56Z</time>
      </trkpt>
      <trkpt lat="48.20583" lon="7.35769">
        <ele>214</ele>
        <time>2019-04-14T21:46:56Z</time>
      </trkpt>
      <trkpt lat="48.20582" lon="7.3577">
        <ele>214</ele>
        <time>2019-04-14T21:47:56Z</time>
      </trkpt>
      <trkpt lat="48.20572" lon="7.35762">
        <ele>214</ele>
        <time>2019-04-14T21:48:56Z</time>
      </trkpt>
      <trkpt lat="48.20562" lon="7.35753">
        <ele>214</ele>
        <time>2019-04-14T21:49:56Z</time>
      </trkpt>
      <trkpt lat="48.20552" lon="7.35742">
        <ele>214</ele>
        <time>2019-04-14T21:50:56Z</time>
      </trkpt>
      <trkpt lat="48.20541" lon="7.35729">
        <ele>214</ele>
        <time>2019-04-14T21:51:56Z</time>
      </trkpt>
      <trkpt lat="48.20534" lon="7.35719">
        <ele>214</ele>
        <time>2019-04-14T21:52:56Z</time>
      </trkpt>
      <trkpt lat="48.20527" lon="7.3571">
        <ele>214</ele>
        <time>2019-04-14T21:53:56Z</time>
      </trkpt>
      <trkpt lat="48.20519" lon="7.35698">
        <ele>215</ele>
        <time>2019-04-14T21:54:56Z</time>
      </trkpt>
      <trkpt lat="48.20516" lon="7.35691">
        <ele>215</ele>
        <time>2019-04-14T21:55:56Z</time>
      </trkpt>
      <trkpt lat="48.20513" lon="7.35682">
        <ele>215</ele>
        <time>2019-04-14T21:56:56Z</time>
      </trkpt>
      <trkpt lat="48.20513" lon="7.35682">
        <ele>215</ele>
        <time>2019-04-14T21:57:56Z</time>
      </trkpt>
      <trkpt lat="48.20508" lon="7.35693">
        <ele>215</ele>
        <time>2019-04-14T21:58:56Z</time>
      </trkpt>
      <trkpt lat="48.20507" lon="7.35696">
        <ele>215</ele>
        <time>2019-04-14T21:59:56Z</time>
      </trkpt>
      <trkpt lat="48.20505" lon="7.35702">
        <ele>215</ele>
        <time>2019-04-14T22:00:56Z</time>
      </trkpt>
      <trkpt lat="48.20505" lon="7.35702">
        <ele>215</ele>
        <time>2019-04-14T22:01:56Z</time>
      </trkpt>
      <trkpt lat="48.20478" lon="7.35701">
        <ele>214</ele>
        <time>2019-04-14T22:02:56Z</time>
      </trkpt>
      <trkpt lat="48.20475" lon="7.357">
        <ele>214</ele>
        <time>2019-04-14T22:03:56Z</time>
      </trkpt>
      <trkpt lat="48.20446" lon="7.35697">
        <ele>214</ele>
        <time>2019-04-14T22:04:56Z</time>
      </trkpt>
      <trkpt lat="48.20433" lon="7.35694">
        <ele>214</ele>
        <time>2019-04-14T22:05:56Z</time>
      </trkpt>
      <trkpt lat="48.20422" lon="7.35691">
        <ele>214</ele>
        <time>2019-04-14T22:06:56Z</time>
      </trkpt>
      <trkpt lat="48.20386" lon="7.35681">
        <ele>215</ele>
        <time>2019-04-14T22:07:56Z</time>
      </trkpt>
      <trkpt lat="48.20386" lon="7.35681">
        <ele>215</ele>
        <time>2019-04-14T22:08:56Z</time>
      </trkpt>
      <trkpt lat="48.20392" lon="7.35658">
        <ele>215</ele>
        <time>2019-04-14T22:09:56Z</time>
      </trkpt>
      <trkpt lat="48.20398" lon="7.35637">
        <ele>216</ele>
        <time>2019-04-14T22:10:56Z</time>
      </trkpt>
      <trkpt lat="48.20407" lon="7.356">
        <ele>217</ele>
        <time>2019-04-14T22:11:56Z</time>
      </trkpt>
      <trkpt lat="48.20412" lon="7.35572">
        <ele>218</ele>
        <time>2019-04-14T22:12:56Z</time>
      </trkpt>
      <trkpt lat="48.20415" lon="7.35556">
        <ele>219</ele>
        <time>2019-04-14T22:13:56Z</time>
      </trkpt>
      <trkpt lat="48.20415" lon="7.35553">
        <ele>219</ele>
        <time>2019-04-14T22:14:56Z</time>
      </trkpt>
      <trkpt lat="48.20416" lon="7.35543">
        <ele>219</ele>
        <time>2019-04-14T22:15:56Z</time>
      </trkpt>
      <trkpt lat="48.20419" lon="7.3551">
        <ele>220</ele>
        <time>2019-04-14T22:16:56Z</time>
      </trkpt>
      <trkpt lat="48.20421" lon="7.35474">
        <ele>220</ele>
        <time>2019-04-14T22:17:56Z</time>
      </trkpt>
      <trkpt lat="48.20422" lon="7.35454">
        <ele>220</ele>
        <time>2019-04-14T22:18:56Z</time>
      </trkpt>
      <trkpt lat="48.20424" lon="7.3543">
        <ele>220</ele>
        <time>2019-04-14T22:19:56Z</time>
      </trkpt>
      <trkpt lat="48.20426" lon="7.35413">
        <ele>220</ele>
        <time>2019-04-14T22:20:56Z</time>
      </trkpt>
      <trkpt lat="48.2043" lon="7.35398">
        <ele>220</ele>
        <time>2019-04-14T22:21:56Z</time>
      </trkpt>
      <trkpt lat="48.2043" lon="7.35398">
        <ele>220</ele>
        <time>2019-04-14T22:22:56Z</time>
      </trkpt>
      <trkpt lat="48.20399" lon="7.35392">
        <ele>220</ele>
        <time>2019-04-14T22:23:56Z</time>
      </trkpt>
      <trkpt lat="48.20354" lon="7.35387">
        <ele>219</ele>
        <time>2019-04-14T22:24:56Z</time>
      </trkpt>
      <trkpt lat="48.20329" lon="7.35382">
        <ele>219</ele>
        <time>2019-04-14T22:25:56Z</time>
      </trkpt>
      <trkpt lat="48.20305" lon="7.35379">
        <ele>219</ele>
        <time>2019-04-14T22:26:56Z</time>
      </trkpt>
      <trkpt lat="48.20291" lon="7.35379">
        <ele>219</ele>
        <time>2019-04-14T22:27:56Z</time>
      </trkpt>
      <trkpt lat="48.20265" lon="7.35378">
        <ele>219</ele>
        <time>2019-04-14T22:28:56Z</time>
      </trkpt>
      <trkpt lat="48.20249" lon="7.35377">
        <ele>220</ele>
        <time>2019-04-14T22:29:56Z</time>
      </trkpt>
      <trkpt lat="48.2023" lon="7.35375">
        <ele>220</ele>
        <time>2019-04-14T22:30:56Z</time>
      </trkpt>
      <trkpt lat="48.20211" lon="7.35373">
        <ele>220</ele>
        <time>2019-04-14T22:31:56Z</time>
      </trkpt>
      <trkpt lat="48.20202" lon="7.35371">
        <ele>221</ele>
        <time>2019-04-14T22:32:56Z</time>
      </trkpt>
      <trkpt lat="48.20193" lon="7.3537">
        <ele>221</ele>
        <time>2019-04-14T22:33:56Z</time>
      </trkpt>
      <trkpt lat="48.20178" lon="7.35367">
        <ele>221</ele>
        <time>2019-04-14T22:34:56Z</time>
      </trkpt>
      <trkpt lat="48.2016" lon="7.35362">
        <ele>222</ele>
        <time>2019-04-14T22:35:56Z</time>
      </trkpt>
      <trkpt lat="48.20139" lon="7.35355">
        <ele>224</ele>
        <time>2019-04-14T22:36:56Z</time>
      </trkpt>
      <trkpt lat="48.20138" lon="7.35355">
        <ele>224</ele>
        <time>2019-04-14T22:37:56Z</time>
      </trkpt>
      <trkpt lat="48.20106" lon="7.3534">
        <ele>226</ele>
        <time>2019-04-14T22:38:56Z</time>
      </trkpt>
      <trkpt lat="48.20096" lon="7.35336">
        <ele>227</ele>
        <time>2019-04-14T22:39:56Z</time>
      </trkpt>
      <trkpt lat="48.20087" lon="7.3533">
        <ele>228</ele>
        <time>2019-04-14T22:40:56Z</time>
      </trkpt>
      <trkpt lat="48.20077" lon="7.35323">
        <ele>228</ele>
        <time>2019-04-14T22:41:56Z</time>
      </trkpt>
      <trkpt lat="48.20046" lon="7.35302">
        <ele>228</ele>
        <time>2019-04-14T22:42:56Z</time>
      </trkpt>
      <trkpt lat="48.20031" lon="7.35293">
        <ele>229</ele>
        <time>2019-04-14T22:43:56Z</time>
      </trkpt>
      <trkpt lat="48.2002" lon="7.35286">
        <ele>229</ele>
        <time>2019-04-14T22:44:56Z</time>
      </trkpt>
      <trkpt lat="48.20007" lon="7.3528">
        <ele>229</ele>
        <time>2019-04-14T22:45:56Z</time>
      </trkpt>
      <trkpt lat="48.19984" lon="7.3527">
        <ele>228</ele>
        <time>2019-04-14T22:46:56Z</time>
      </trkpt>
      <trkpt lat="48.19961" lon="7.35261">
        <ele>227</ele>
        <time>2019-04-14T22:47:56Z</time>
      </trkpt>
      <trkpt lat="48.19956" lon="7.35259">
        <ele>227</ele>
        <time>2019-04-14T22:48:56Z</time>
      </trkpt>
      <trkpt lat="48.19949" lon="7.35258">
        <ele>227</ele>
        <time>2019-04-14T22:49:56Z</time>
      </trkpt>
      <trkpt lat="48.19941" lon="7.35252">
        <ele>226</ele>
        <time>2019-04-14T22:50:56Z</time>
      </trkpt>
      <trkpt lat="48.19933" lon="7.35243">
        <ele>226</ele>
        <time>2019-04-14T22:51:56Z</time>
      </trkpt>
      <trkpt lat="48.19913" lon="7.35213">
        <ele>226</ele>
        <time>2019-04-14T22:52:56Z</time>
      </trkpt>
      <trkpt lat="48.19893" lon="7.35177">
        <ele>225</ele>
        <time>2019-04-14T22:53:56Z</time>
      </trkpt>
      <trkpt lat="48.19869" lon="7.35135">
        <ele>224</ele>
        <time>2019-04-14T22:54:56Z</time>
      </trkpt>
      <trkpt lat="48.1985" lon="7.351">
        <ele>222</ele>
        <time>2019-04-14T22:55:56Z</time>
      </trkpt>
      <trkpt lat="48.19837" lon="7.35077">
        <ele>221</ele>
        <time>2019-04-14T22:56:56Z</time>
      </trkpt>
      <trkpt lat="48.19824" lon="7.35062">
        <ele>220</ele>
        <time>2019-04-14T22:57:56Z</time>
      </trkpt>
      <trkpt lat="48.19816" lon="7.3505">
        <ele>219</ele>
        <time>2019-04-14T22:58:56Z</time>
      </trkpt>
      <trkpt lat="48.19805" lon="7.35038">
        <ele>219</ele>
        <time>2019-04-14T22:59:56Z</time>
      </trkpt>
      <trkpt lat="48.19796" lon="7.35029">
        <ele>218</ele>
        <time>2019-04-14T23:00:56Z</time>
      </trkpt>
      <trkpt lat="48.19789" lon="7.35021">
        <ele>218</ele>
        <time>2019-04-14T23:01:56Z</time>
      </trkpt>
      <trkpt lat="48.19784" lon="7.35012">
        <ele>217</ele>
        <time>2019-04-14T23:02:56Z</time>
      </trkpt>
      <trkpt lat="48.19773" lon="7.34981">
        <ele>217</ele>
        <time>2019-04-14T23:03:56Z</time>
      </trkpt>
      <trkpt lat="48.19761" lon="7.34944">
        <ele>217</ele>
        <time>2019-04-14T23:04:56Z</time>
      </trkpt>
      <trkpt lat="48.19751" lon="7.34905">
        <ele>216</ele>
        <time>2019-04-14T23:05:56Z</time>
      </trkpt>
      <trkpt lat="48.19745" lon="7.34874">
        <ele>216</ele>
        <time>2019-04-14T23:06:56Z</time>
      </trkpt>
      <trkpt lat="48.19741" lon="7.34858">
        <ele>215</ele>
        <time>2019-04-14T23:07:56Z</time>
      </trkpt>
      <trkpt lat="48.19735" lon="7.34843">
        <ele>215</ele>
        <time>2019-04-14T23:08:56Z</time>
      </trkpt>
      <trkpt lat="48.19725" lon="7.34818">
        <ele>214</ele>
        <time>2019-04-14T23:09:56Z</time>
      </trkpt>
      <trkpt lat="48.19717" lon="7.34797">
        <ele>213</ele>
        <time>2019-04-14T23:10:56Z</time>
      </trkpt>
      <trkpt lat="48.19711" lon="7.34783">
        <ele>213</ele>
        <time>2019-04-14T23:11:56Z</time>
      </trkpt>
      <trkpt lat="48.197" lon="7.34761">
        <ele>212</ele>
        <time>2019-04-14T23:12:56Z</time>
      </trkpt>
      <trkpt lat="48.1969" lon="7.34747">
        <ele>211</ele>
        <time>2019-04-14T23:13:56Z</time>
      </trkpt>
      <trkpt lat="48.19679" lon="7.34735">
        <ele>211</ele>
        <time>2019-04-14T23:14:56Z</time>
      </trkpt>
      <trkpt lat="48.19668" lon="7.34728">
        <ele>210</ele>
        <time>2019-04-14T23:15:56Z</time>
      </trkpt>
      <trkpt lat="48.19664" lon="7.34726">
        <ele>210</ele>
        <time>2019-04-14T23:16:56Z</time>
      </trkpt>
      <trkpt lat="48.19656" lon="7.34722">
        <ele>210</ele>
        <time>2019-04-14T23:17:56Z</time>
      </trkpt>
      <trkpt lat="48.19638" lon="7.34718">
        <ele>210</ele>
        <time>2019-04-14T23:18:56Z</time>
      </trkpt>
      <trkpt lat="48.19616" lon="7.34713">
        <ele>210</ele>
        <time>2019-04-14T23:19:56Z</time>
      </trkpt>
      <trkpt lat="48.19606" lon="7.3471">
        <ele>210</ele>
        <time>2019-04-14T23:20:56Z</time>
      </trkpt>
      <trkpt lat="48.19588" lon="7.34702">
        <ele>210</ele>
        <time>2019-04-14T23:21:56Z</time>
      </trkpt>
      <trkpt lat="48.19562" lon="7.3469">
        <ele>210</ele>
        <time>2019-04-14T23:22:56Z</time>
      </trkpt>
      <trkpt lat="48.19545" lon="7.34682">
        <ele>211</ele>
        <time>2019-04-14T23:23:56Z</time>
      </trkpt>
      <trkpt lat="48.19541" lon="7.34681">
        <ele>211</ele>
        <time>2019-04-14T23:24:56Z</time>
      </trkpt>
      <trkpt lat="48.19535" lon="7.3468">
        <ele>211</ele>
        <time>2019-04-14T23:25:56Z</time>
      </trkpt>
      <trkpt lat="48.19535" lon="7.3468">
        <ele>211</ele>
        <time>2019-04-14T23:26:56Z</time>
      </trkpt>
      <trkpt lat="48.1954" lon="7.3464">
        <ele>212</ele>
        <time>2019-04-14T23:27:56Z</time>
      </trkpt>
      <trkpt lat="48.19543" lon="7.34595">
        <ele>213</ele>
        <time>2019-04-14T23:28:56Z</time>
      </trkpt>
      <trkpt lat="48.19545" lon="7.34567">
        <ele>214</ele>
        <time>2019-04-14T23:29:56Z</time>
      </trkpt>
      <trkpt lat="48.19547" lon="7.34541">
        <ele>214</ele>
        <time>2019-04-14T23:30:56Z</time>
      </trkpt>
      <trkpt lat="48.1955" lon="7.34503">
        <ele>215</ele>
        <time>2019-04-14T23:31:56Z</time>
      </trkpt>
      <trkpt lat="48.19552" lon="7.34465">
        <ele>215</ele>
        <time>2019-04-14T23:32:56Z</time>
      </trkpt>
      <trkpt lat="48.19554" lon="7.34438">
        <ele>215</ele>
        <time>2019-04-14T23:33:56Z</time>
      </trkpt>
      <trkpt lat="48.19554" lon="7.34427">
        <ele>215</ele>
        <time>2019-04-14T23:34:56Z</time>
      </trkpt>
      <trkpt lat="48.19555" lon="7.34418">
        <ele>215</ele>
        <time>2019-04-14T23:35:56Z</time>
      </trkpt>
      <trkpt lat="48.19555" lon="7.34411">
        <ele>215</ele>
        <time>2019-04-14T23:36:56Z</time>
      </trkpt>
      <trkpt lat="48.19555" lon="7.34399">
        <ele>215</ele>
        <time>2019-04-14T23:37:56Z</time>
      </trkpt>
      <trkpt lat="48.19554" lon="7.34391">
        <ele>215</ele>
        <time>2019-04-14T23:38:56Z</time>
      </trkpt>
      <trkpt lat="48.19554" lon="7.34391">
        <ele>215</ele>
        <time>2019-04-14T23:39:56Z</time>
      </trkpt>
      <trkpt lat="48.1955" lon="7.34371">
        <ele>215</ele>
        <time>2019-04-14T23:40:56Z</time>
      </trkpt>
      <trkpt lat="48.19545" lon="7.34343">
        <ele>215</ele>
        <time>2019-04-14T23:41:56Z</time>
      </trkpt>
      <trkpt lat="48.1954" lon="7.34326">
        <ele>214</ele>
        <time>2019-04-14T23:42:56Z</time>
      </trkpt>
      <trkpt lat="48.19522" lon="7.34293">
        <ele>214</ele>
        <time>2019-04-14T23:43:56Z</time>
      </trkpt>
      <trkpt lat="48.19503" lon="7.34259">
        <ele>213</ele>
        <time>2019-04-14T23:44:56Z</time>
      </trkpt>
      <trkpt lat="48.19486" lon="7.34227">
        <ele>213</ele>
        <time>2019-04-14T23:45:56Z</time>
      </trkpt>
      <trkpt lat="48.1948" lon="7.34214">
        <ele>213</ele>
        <time>2019-04-14T23:46:56Z</time>
      </trkpt>
      <trkpt lat="48.19474" lon="7.34199">
        <ele>214</ele>
        <time>2019-04-14T23:47:56Z</time>
      </trkpt>
      <trkpt lat="48.19466" lon="7.34171">
        <ele>214</ele>
        <time>2019-04-14T23:48:56Z</time>
      </trkpt>
      <trkpt lat="48.1946" lon="7.34138">
        <ele>215</ele>
        <time>2019-04-14T23:49:56Z</time>
      </trkpt>
      <trkpt lat="48.19456" lon="7.34116">
        <ele>215</ele>
        <time>2019-04-14T23:50:56Z</time>
      </trkpt>
      <trkpt lat="48.19456" lon="7.34116">
        <ele>215</ele>
        <time>2019-04-14T23:51:56Z</time>
      </trkpt>
      <trkpt lat="48.19452" lon="7.34095">
        <ele>215</ele>
        <time>2019-04-14T23:52:56Z</time>
      </trkpt>
      <trkpt lat="48.19447" lon="7.34066">
        <ele>215</ele>
        <time>2019-04-14T23:53:56Z</time>
      </trkpt>
      <trkpt lat="48.19446" lon="7.34049">
        <ele>215</ele>
        <time>2019-04-14T23:54:56Z</time>
      </trkpt>
      <trkpt lat="48.19445" lon="7.34039">
        <ele>215</ele>
        <time>2019-04-14T23:55:56Z</time>
      </trkpt>
      <trkpt lat="48.19446" lon="7.34027">
        <ele>215</ele>
        <time>2019-04-14T23:56:56Z</time>
      </trkpt>
      <trkpt lat="48.19446" lon="7.34016">
        <ele>215</ele>
        <time>2019-04-14T23:57:56Z</time>
      </trkpt>
      <trkpt lat="48.19449" lon="7.33997">
        <ele>215</ele>
        <time>2019-04-14T23:58:56Z</time>
      </trkpt>
      <trkpt lat="48.19458" lon="7.3394">
        <ele>216</ele>
        <time>2019-04-14T23:59:56Z</time>
      </trkpt>
      <trkpt lat="48.19469" lon="7.33878">
        <ele>217</ele>
        <time>2019-04-15T00:00:56Z</time>
      </trkpt>
      <trkpt lat="48.19475" lon="7.33846">
        <ele>217</ele>
        <time>2019-04-15T00:01:56Z</time>
      </trkpt>
      <trkpt lat="48.19478" lon="7.33821">
        <ele>218</ele>
        <time>2019-04-15T00:02:56Z</time>
      </trkpt>
      <trkpt lat="48.19484" lon="7.33763">
        <ele>218</ele>
        <time>2019-04-15T00:03:56Z</time>
      </trkpt>
      <trkpt lat="48.19495" lon="7.33647">
        <ele>219</ele>
        <time>2019-04-15T00:04:56Z</time>
      </trkpt>
      <trkpt lat="48.19498" lon="7.33606">
        <ele>220</ele>
        <time>2019-04-15T00:05:56Z</time>
      </trkpt>
      <trkpt lat="48.19508" lon="7.33533">
        <ele>221</ele>
        <time>2019-04-15T00:06:56Z</time>
      </trkpt>
      <trkpt lat="48.1951" lon="7.3351">
        <ele>222</ele>
        <time>2019-04-15T00:07:56Z</time>
      </trkpt>
      <trkpt lat="48.1951" lon="7.33496">
        <ele>222</ele>
        <time>2019-04-15T00:08:56Z</time>
      </trkpt>
      <trkpt lat="48.19509" lon="7.33488">
        <ele>223</ele>
        <time>2019-04-15T00:09:56Z</time>
      </trkpt>
      <trkpt lat="48.19508" lon="7.33471">
        <ele>223</ele>
        <time>2019-04-15T00:10:56Z</time>
      </trkpt>
      <trkpt lat="48.19506" lon="7.33456">
        <ele>224</ele>
        <time>2019-04-15T00:11:56Z</time>
      </trkpt>
      <trkpt lat="48.19501" lon="7.33442">
        <ele>224</ele>
        <time>2019-04-15T00:12:56Z</time>
      </trkpt>
      <trkpt lat="48.19494" lon="7.3343">
        <ele>225</ele>
        <time>2019-04-15T00:13:56Z</time>
      </trkpt>
      <trkpt lat="48.19475" lon="7.33398">
        <ele>225</ele>
        <time>2019-04-15T00:14:56Z</time>
      </trkpt>
      <trkpt lat="48.19464" lon="7.33381">
        <ele>225</ele>
        <time>2019-04-15T00:15:56Z</time>
      </trkpt>
      <trkpt lat="48.19448" lon="7.33354">
        <ele>225</ele>
        <time>2019-04-15T00:16:56Z</time>
      </trkpt>
      <trkpt lat="48.19432" lon="7.33325">
        <ele>225</ele>
        <time>2019-04-15T00:17:56Z</time>
      </trkpt>
      <trkpt lat="48.19402" lon="7.33284">
        <ele>227</ele>
        <time>2019-04-15T00:18:56Z</time>
      </trkpt>
      <trkpt lat="48.19384" lon="7.33263">
        <ele>228</ele>
        <time>2019-04-15T00:19:56Z</time>
      </trkpt>
      <trkpt lat="48.19369" lon="7.33244">
        <ele>228</ele>
        <time>2019-04-15T00:20:56Z</time>
      </trkpt>
      <trkpt lat="48.19356" lon="7.33229">
        <ele>228</ele>
        <time>2019-04-15T00:21:56Z</time>
      </trkpt>
      <trkpt lat="48.19344" lon="7.33221">
        <ele>228</ele>
        <time>2019-04-15T00:22:56Z</time>
      </trkpt>
      <trkpt lat="48.19331" lon="7.33211">
        <ele>228</ele>
        <time>2019-04-15T00:23:56Z</time>
      </trkpt>
      <trkpt lat="48.19324" lon="7.33205">
        <ele>228</ele>
        <time>2019-04-15T00:24:56Z</time>
      </trkpt>
      <trkpt lat="48.19319" lon="7.33198">
        <ele>228</ele>
        <time>2019-04-15T00:25:56Z</time>
      </trkpt>
      <trkpt lat="48.19317" lon="7.33196">
        <ele>228</ele>
        <time>2019-04-15T00:26:56Z</time>
      </trkpt>
      <trkpt lat="48.19309" lon="7.33177">
        <ele>228</ele>
        <time>2019-04-15T00:27:56Z</time>
      </trkpt>
      <trkpt lat="48.19299" lon="7.3314">
        <ele>228</ele>
        <time>2019-04-15T00:28:56Z</time>
      </trkpt>
      <trkpt lat="48.19296" lon="7.33125">
        <ele>228</ele>
        <time>2019-04-15T00:29:56Z</time>
      </trkpt>
      <trkpt lat="48.19285" lon="7.33086">
        <ele>229</ele>
        <time>2019-04-15T00:30:56Z</time>
      </trkpt>
      <trkpt lat="48.19274" lon="7.33034">
        <ele>230</ele>
        <time>2019-04-15T00:31:56Z</time>
      </trkpt>
      <trkpt lat="48.19267" lon="7.32994">
        <ele>230</ele>
        <time>2019-04-15T00:32:56Z</time>
      </trkpt>
      <trkpt lat="48.19267" lon="7.32994">
        <ele>230</ele>
        <time>2019-04-15T00:33:56Z</time>
      </trkpt>
      <trkpt lat="48.19255" lon="7.32997">
        <ele>230</ele>
        <time>2019-04-15T00:34:56Z</time>
      </trkpt>
      <trkpt lat="48.19255" lon="7.32997">
        <ele>230</ele>
        <time>2019-04-15T00:35:56Z</time>
      </trkpt>
      <trkpt lat="48.19246" lon="7.33">
        <ele>230</ele>
        <time>2019-04-15T00:36:56Z</time>
      </trkpt>
      <trkpt lat="48.19246" lon="7.33">
        <ele>230</ele>
        <time>2019-04-15T00:37:56Z</time>
      </trkpt>
      <trkpt lat="48.19245" lon="7.3298">
        <ele>230</ele>
        <time>2019-04-15T00:38:56Z</time>
      </trkpt>
      <trkpt lat="48.19242" lon="7.32974">
        <ele>230</ele>
        <time>2019-04-15T00:39:56Z</time>
      </trkpt>
      <trkpt lat="48.1924" lon="7.32961">
        <ele>230</ele>
        <time>2019-04-15T00:40:56Z</time>
      </trkpt>
      <trkpt lat="48.19239" lon="7.32939">
        <ele>231</ele>
        <time>2019-04-15T00:41:56Z</time>
      </trkpt>
      <trkpt lat="48.19239" lon="7.32935">
        <ele>231</ele>
        <time>2019-04-15T00:42:56Z</time>
      </trkpt>
      <trkpt lat="48.19236" lon="7.32871">
        <ele>232</ele>
        <time>2019-04-15T00:43:56Z</time>
      </trkpt>
      <trkpt lat="48.19235" lon="7.32858">
        <ele>232</ele>
        <time>2019-04-15T00:44:56Z</time>
      </trkpt>
      <trkpt lat="48.19234" lon="7.32822">
        <ele>233</ele>
        <time>2019-04-15T00:45:56Z</time>
      </trkpt>
      <trkpt lat="48.19231" lon="7.32783">
        <ele>234</ele>
        <time>2019-04-15T00:46:56Z</time>
      </trkpt>
      <trkpt lat="48.1923" lon="7.32755">
        <ele>235</ele>
        <time>2019-04-15T00:47:56Z</time>
      </trkpt>
      <trkpt lat="48.19228" lon="7.32662">
        <ele>237</ele>
        <time>2019-04-15T00:48:56Z</time>
      </trkpt>
      <trkpt lat="48.1923" lon="7.32625">
        <ele>237</ele>
        <time>2019-04-15T00:49:56Z</time>
      </trkpt>
      <trkpt lat="48.1923" lon="7.32607">
        <ele>237</ele>
        <time>2019-04-15T00:50:56Z</time>
      </trkpt>
      <trkpt lat="48.19231" lon="7.32606">
        <ele>237</ele>
        <time>2019-04-15T00:51:56Z</time>
      </trkpt>
      <trkpt lat="48.19231" lon="7.32605">
        <ele>237</ele>
        <time>2019-04-15T00:52:56Z</time>
      </trkpt>
      <trkpt lat="48.19231" lon="7.32604">
        <ele>237</ele>
        <time>2019-04-15T00:53:56Z</time>
      </trkpt>
      <trkpt lat="48.19232" lon="7.32603">
        <ele>237</ele>
        <time>2019-04-15T00:54:56Z</time>
      </trkpt>
      <trkpt lat="48.19232" lon="7.32602">
        <ele>237</ele>
        <time>2019-04-15T00:55:56Z</time>
      </trkpt>
      <trkpt lat="48.19232" lon="7.32601">
        <ele>237</ele>
        <time>2019-04-15T00:56:56Z</time>
      </trkpt>
      <trkpt lat="48.19232" lon="7.326">
        <ele>237</ele>
        <time>2019-04-15T00:57:56Z</time>
      </trkpt>
      <trkpt lat="48.19232" lon="7.32599">
        <ele>237</ele>
        <time>2019-04-15T00:58:56Z</time>
      </trkpt>
      <trkpt lat="48.19233" lon="7.32598">
        <ele>237</ele>
        <time>2019-04-15T00:59:56Z</time>
      </trkpt>
      <trkpt lat="48.19233" lon="7.32597">
        <ele>237</ele>
        <time>2019-04-15T01:00:56Z</time>
      </trkpt>
      <trkpt lat="48.19233" lon="7.32596">
        <ele>237</ele>
        <time>2019-04-15T01:01:56Z</time>
      </trkpt>
      <trkpt lat="48.19233" lon="7.32595">
        <ele>237</ele>
        <time>2019-04-15T01:02:56Z</time>
      </trkpt>
      <trkpt lat="48.19233" lon="7.32594">
        <ele>237</ele>
        <time>2019-04-15T01:03:56Z</time>
      </trkpt>
      <trkpt lat="48.19232" lon="7.32593">
        <ele>237</ele>
        <time>2019-04-15T01:04:56Z</time>
      </trkpt>
      <trkpt lat="48.19232" lon="7.32592">
        <ele>237</ele>
        <time>2019-04-15T01:05:56Z</time>
      </trkpt>
      <trkpt lat="48.19232" lon="7.32591">
        <ele>237</ele>
        <time>2019-04-15T01:06:56Z</time>
      </trkpt>
      <trkpt lat="48.19232" lon="7.3259">
        <ele>237</ele>
        <time>2019-04-15T01:07:56Z</time>
      </trkpt>
      <trkpt lat="48.19237" lon="7.32574">
        <ele>237</ele>
        <time>2019-04-15T01:08:56Z</time>
      </trkpt>
      <trkpt lat="48.19238" lon="7.32566">
        <ele>237</ele>
        <time>2019-04-15T01:09:56Z</time>
      </trkpt>
      <trkpt lat="48.19243" lon="7.32544">
        <ele>237</ele>
        <time>2019-04-15T01:10:56Z</time>
      </trkpt>
      <trkpt lat="48.19249" lon="7.32524">
        <ele>238</ele>
        <time>2019-04-15T01:11:56Z</time>
      </trkpt>
      <trkpt lat="48.19251" lon="7.32518">
        <ele>238</ele>
        <time>2019-04-15T01:12:56Z</time>
      </trkpt>
      <trkpt lat="48.19252" lon="7.32515">
        <ele>238</ele>
        <time>2019-04-15T01:13:56Z</time>
      </trkpt>
      <trkpt lat="48.19253" lon="7.32512">
        <ele>238</ele>
        <time>2019-04-15T01:14:56Z</time>
      </trkpt>
      <trkpt lat="48.19253" lon="7.3251">
        <ele>238</ele>
        <time>2019-04-15T01:15:56Z</time>
      </trkpt>
      <trkpt lat="48.19253" lon="7.32508">
        <ele>238</ele>
        <time>2019-04-15T01:16:56Z</time>
      </trkpt>
      <trkpt lat="48.19253" lon="7.32505">
        <ele>238</ele>
        <time>2019-04-15T01:17:56Z</time>
      </trkpt>
      <trkpt lat="48.19253" lon="7.32503">
        <ele>238</ele>
        <time>2019-04-15T01:18:56Z</time>
      </trkpt>
      <trkpt lat="48.19253" lon="7.32503">
        <ele>238</ele>
        <time>2019-04-15T01:19:56Z</time>
      </trkpt>
      <trkpt lat="48.19253" lon="7.32502">
        <ele>238</ele>
        <time>2019-04-15T01:20:56Z</time>
      </trkpt>
      <trkpt lat="48.19254" lon="7.32502">
        <ele>238</ele>
        <time>2019-04-15T01:21:56Z</time>
      </trkpt>
      <trkpt lat="48.19254" lon="7.32501">
        <ele>238</ele>
        <time>2019-04-15T01:22:56Z</time>
      </trkpt>
      <trkpt lat="48.19255" lon="7.32501">
        <ele>238</ele>
        <time>2019-04-15T01:23:56Z</time>
      </trkpt>
      <trkpt lat="48.19255" lon="7.325">
        <ele>238</ele>
        <time>2019-04-15T01:24:56Z</time>
      </trkpt>
      <trkpt lat="48.19256" lon="7.325">
        <ele>238</ele>
        <time>2019-04-15T01:25:56Z</time>
      </trkpt>
      <trkpt lat="48.19256" lon="7.32499">
        <ele>238</ele>
        <time>2019-04-15T01:26:56Z</time>
      </trkpt>
      <trkpt lat="48.19256" lon="7.32498">
        <ele>238</ele>
        <time>2019-04-15T01:27:56Z</time>
      </trkpt>
      <trkpt lat="48.19257" lon="7.32497">
        <ele>238</ele>
        <time>2019-04-15T01:28:56Z</time>
      </trkpt>
      <trkpt lat="48.19258" lon="7.32496">
        <ele>238</ele>
        <time>2019-04-15T01:29:56Z</time>
      </trkpt>
      <trkpt lat="48.19258" lon="7.32495">
        <ele>238</ele>
        <time>2019-04-15T01:30:56Z</time>
      </trkpt>
      <trkpt lat="48.19258" lon="7.32494">
        <ele>238</ele>
        <time>2019-04-15T01:31:56Z</time>
      </trkpt>
      <trkpt lat="48.19258" lon="7.32493">
        <ele>238</ele>
        <time>2019-04-15T01:32:56Z</time>
      </trkpt>
      <trkpt lat="48.19259" lon="7.32492">
        <ele>238</ele>
        <time>2019-04-15T01:33:56Z</time>
      </trkpt>
      <trkpt lat="48.19259" lon="7.32491">
        <ele>238</ele>
        <time>2019-04-15T01:34:56Z</time>
      </trkpt>
      <trkpt lat="48.19259" lon="7.3249">
        <ele>238</ele>
        <time>2019-04-15T01:35:56Z</time>
      </trkpt>
      <trkpt lat="48.19259" lon="7.32489">
        <ele>238</ele>
        <time>2019-04-15T01:36:56Z</time>
      </trkpt>
      <trkpt lat="48.19259" lon="7.32488">
        <ele>238</ele>
        <time>2019-04-15T01:37:56Z</time>
      </trkpt>
      <trkpt lat="48.19259" lon="7.32487">
        <ele>238</ele>
        <time>2019-04-15T01:38:56Z</time>
      </trkpt>
      <trkpt lat="48.19259" lon="7.32486">
        <ele>238</ele>
        <time>2019-04-15T01:39:56Z</time>
      </trkpt>
      <trkpt lat="48.19259" lon="7.32485">
        <ele>239</ele>
        <time>2019-04-15T01:40:56Z</time>
      </trkpt>
      <trkpt lat="48.19259" lon="7.32484">
        <ele>239</ele>
        <time>2019-04-15T01:41:56Z</time>
      </trkpt>
      <trkpt lat="48.19259" lon="7.32483">
        <ele>239</ele>
        <time>2019-04-15T01:42:56Z</time>
      </trkpt>
      <trkpt lat="48.19259" lon="7.32482">
        <ele>239</ele>
        <time>2019-04-15T01:43:56Z</time>
      </trkpt>
      <trkpt lat="48.19258" lon="7.32481">
        <ele>239</ele>
        <time>2019-04-15T01:44:56Z</time>
      </trkpt>
      <trkpt lat="48.19258" lon="7.3248">
        <ele>239</ele>
        <time>2019-04-15T01:45:56Z</time>
      </trkpt>
      <trkpt lat="48.19258" lon="7.32479">
        <ele>239</ele>
        <time>2019-04-15T01:46:56Z</time>
      </trkpt>
      <trkpt lat="48.19257" lon="7.32478">
        <ele>239</ele>
        <time>2019-04-15T01:47:56Z</time>
      </trkpt>
      <trkpt lat="48.19257" lon="7.32477">
        <ele>239</ele>
        <time>2019-04-15T01:48:56Z</time>
      </trkpt>
      <trkpt lat="48.19257" lon="7.32476">
        <ele>239</ele>
        <time>2019-04-15T01:49:56Z</time>
      </trkpt>
      <trkpt lat="48.19256" lon="7.32475">
        <ele>239</ele>
        <time>2019-04-15T01:50:56Z</time>
      </trkpt>
      <trkpt lat="48.19255" lon="7.32474">
        <ele>239</ele>
        <time>2019-04-15T01:51:56Z</time>
      </trkpt>
      <trkpt lat="48.19255" lon="7.32473">
        <ele>239</ele>
        <time>2019-04-15T01:52:56Z</time>
      </trkpt>
      <trkpt lat="48.19254" lon="7.32473">
        <ele>239</ele>
        <time>2019-04-15T01:53:56Z</time>
      </trkpt>
      <trkpt lat="48.19254" lon="7.32472">
        <ele>239</ele>
        <time>2019-04-15T01:54:56Z</time>
      </trkpt>
      <trkpt lat="48.19253" lon="7.32471">
        <ele>239</ele>
        <time>2019-04-15T01:55:56Z</time>
      </trkpt>
      <trkpt lat="48.19252" lon="7.3247">
        <ele>239</ele>
        <time>2019-04-15T01:56:56Z</time>
      </trkpt>
      <trkpt lat="48.19251" lon="7.3247">
        <ele>239</ele>
        <time>2019-04-15T01:57:56Z</time>
      </trkpt>
      <trkpt lat="48.1925" lon="7.32469">
        <ele>239</ele>
        <time>2019-04-15T01:58:56Z</time>
      </trkpt>
      <trkpt lat="48.19249" lon="7.32469">
        <ele>239</ele>
        <time>2019-04-15T01:59:56Z</time>
      </trkpt>
      <trkpt lat="48.19248" lon="7.32469">
        <ele>239</ele>
        <time>2019-04-15T02:00:56Z</time>
      </trkpt>
      <trkpt lat="48.19247" lon="7.32469">
        <ele>239</ele>
        <time>2019-04-15T02:01:56Z</time>
      </trkpt>
      <trkpt lat="48.19246" lon="7.32469">
        <ele>239</ele>
        <time>2019-04-15T02:02:56Z</time>
      </trkpt>
      <trkpt lat="48.19237" lon="7.32467">
        <ele>239</ele>
        <time>2019-04-15T02:03:56Z</time>
      </trkpt>
      <trkpt lat="48.1923" lon="7.32464">
        <ele>239</ele>
        <time>2019-04-15T02:04:56Z</time>
      </trkpt>
      <trkpt lat="48.19224" lon="7.32463">
        <ele>239</ele>
        <time>2019-04-15T02:05:56Z</time>
      </trkpt>
      <trkpt lat="48.19222" lon="7.32463">
        <ele>239</ele>
        <time>2019-04-15T02:06:56Z</time>
      </trkpt>
      <trkpt lat="48.19213" lon="7.32464">
        <ele>239</ele>
        <time>2019-04-15T02:07:56Z</time>
      </trkpt>
      <trkpt lat="48.19197" lon="7.32467">
        <ele>239</ele>
        <time>2019-04-15T02:08:56Z</time>
      </trkpt>
      <trkpt lat="48.19187" lon="7.32469">
        <ele>238</ele>
        <time>2019-04-15T02:09:56Z</time>
      </trkpt>
      <trkpt lat="48.19184" lon="7.32469">
        <ele>238</ele>
        <time>2019-04-15T02:10:56Z</time>
      </trkpt>
      <trkpt lat="48.1918" lon="7.3247">
        <ele>238</ele>
        <time>2019-04-15T02:11:56Z</time>
      </trkpt>
      <trkpt lat="48.19179" lon="7.3247">
        <ele>238</ele>
        <time>2019-04-15T02:12:56Z</time>
      </trkpt>
      <trkpt lat="48.19175" lon="7.32471">
        <ele>238</ele>
        <time>2019-04-15T02:13:56Z</time>
      </trkpt>
      <trkpt lat="48.19172" lon="7.3247">
        <ele>238</ele>
        <time>2019-04-15T02:14:56Z</time>
      </trkpt>
      <trkpt lat="48.1917" lon="7.32468">
        <ele>238</ele>
        <time>2019-04-15T02:15:56Z</time>
      </trkpt>
      <trkpt lat="48.19167" lon="7.32466">
        <ele>238</ele>
        <time>2019-04-15T02:16:56Z</time>
      </trkpt>
      <trkpt lat="48.19167" lon="7.32466">
        <ele>238</ele>
        <time>2019-04-15T02:17:56Z</time>
      </trkpt>
      <trkpt lat="48.19167" lon="7.32465">
        <ele>239</ele>
        <time>2019-04-15T02:18:56Z</time>
      </trkpt>
      <trkpt lat="48.19166" lon="7.32465">
        <ele>239</ele>
        <time>2019-04-15T02:19:56Z</time>
      </trkpt>
      <trkpt lat="48.19166" lon="7.32464">
        <ele>239</ele>
        <time>2019-04-15T02:20:56Z</time>
      </trkpt>
      <trkpt lat="48.19166" lon="7.32463">
        <ele>239</ele>
        <time>2019-04-15T02:21:56Z</time>
      </trkpt>
      <trkpt lat="48.19165" lon="7.32463">
        <ele>239</ele>
        <time>2019-04-15T02:22:56Z</time>
      </trkpt>
      <trkpt lat="48.19165" lon="7.32462">
        <ele>239</ele>
        <time>2019-04-15T02:23:56Z</time>
      </trkpt>
      <trkpt lat="48.19164" lon="7.32462">
        <ele>239</ele>
        <time>2019-04-15T02:24:56Z</time>
      </trkpt>
      <trkpt lat="48.19164" lon="7.32461">
        <ele>239</ele>
        <time>2019-04-15T02:25:56Z</time>
      </trkpt>
      <trkpt lat="48.19164" lon="7.32453">
        <ele>240</ele>
        <time>2019-04-15T02:26:56Z</time>
      </trkpt>
      <trkpt lat="48.19165" lon="7.3244">
        <ele>240</ele>
        <time>2019-04-15T02:27:56Z</time>
      </trkpt>
      <trkpt lat="48.19165" lon="7.32426">
        <ele>241</ele>
        <time>2019-04-15T02:28:56Z</time>
      </trkpt>
      <trkpt lat="48.19164" lon="7.32421">
        <ele>242</ele>
        <time>2019-04-15T02:29:56Z</time>
      </trkpt>
      <trkpt lat="48.19168" lon="7.32384">
        <ele>244</ele>
        <time>2019-04-15T02:30:56Z</time>
      </trkpt>
      <trkpt lat="48.19177" lon="7.32341">
        <ele>245</ele>
        <time>2019-04-15T02:31:56Z</time>
      </trkpt>
      <trkpt lat="48.19188" lon="7.32283">
        <ele>248</ele>
        <time>2019-04-15T02:32:56Z</time>
      </trkpt>
      <trkpt lat="48.19204" lon="7.32206">
        <ele>251</ele>
        <time>2019-04-15T02:33:56Z</time>
      </trkpt>
      <trkpt lat="48.19205" lon="7.32201">
        <ele>251</ele>
        <time>2019-04-15T02:34:56Z</time>
      </trkpt>
      <trkpt lat="48.1921" lon="7.32176">
        <ele>252</ele>
        <time>2019-04-15T02:35:56Z</time>
      </trkpt>
      <trkpt lat="48.19211" lon="7.32168">
        <ele>252</ele>
        <time>2019-04-15T02:36:56Z</time>
      </trkpt>
      <trkpt lat="48.19218" lon="7.32135">
        <ele>254</ele>
        <time>2019-04-15T02:37:56Z</time>
      </trkpt>
      <trkpt lat="48.19235" lon="7.32055">
        <ele>258</ele>
        <time>2019-04-15T02:38:56Z</time>
      </trkpt>
      <trkpt lat="48.19255" lon="7.31963">
        <ele>262</ele>
        <time>2019-04-15T02:39:56Z</time>
      </trkpt>
      <trkpt lat="48.19263" lon="7.31929">
        <ele>262</ele>
        <time>2019-04-15T02:40:56Z</time>
      </trkpt>
      <trkpt lat="48.19278" lon="7.3186">
        <ele>265</ele>
        <time>2019-04-15T02:41:56Z</time>
      </trkpt>
      <trkpt lat="48.19299" lon="7.31763">
        <ele>267</ele>
        <time>2019-04-15T02:42:56Z</time>
      </trkpt>
      <trkpt lat="48.19309" lon="7.31715">
        <ele>268</ele>
        <time>2019-04-15T02:43:56Z</time>
      </trkpt>
      <trkpt lat="48.19316" lon="7.31674">
        <ele>270</ele>
        <time>2019-04-15T02:44:56Z</time>
      </trkpt>
      <trkpt lat="48.19318" lon="7.31649">
        <ele>270</ele>
        <time>2019-04-15T02:45:56Z</time>
      </trkpt>
      <trkpt lat="48.1932" lon="7.31623">
        <ele>270</ele>
        <time>2019-04-15T02:46:56Z</time>
      </trkpt>
      <trkpt lat="48.19324" lon="7.3158">
        <ele>271</ele>
        <time>2019-04-15T02:47:56Z</time>
      </trkpt>
      <trkpt lat="48.19327" lon="7.31561">
        <ele>271</ele>
        <time>2019-04-15T02:48:56Z</time>
      </trkpt>
      <trkpt lat="48.19329" lon="7.31551">
        <ele>271</ele>
        <time>2019-04-15T02:49:56Z</time>
      </trkpt>
      <trkpt lat="48.19333" lon="7.31531">
        <ele>271</ele>
        <time>2019-04-15T02:50:56Z</time>
      </trkpt>
      <trkpt lat="48.1934" lon="7.31507">
        <ele>270</ele>
        <time>2019-04-15T02:51:56Z</time>
      </trkpt>
      <trkpt lat="48.19346" lon="7.31492">
        <ele>270</ele>
        <time>2019-04-15T02:52:56Z</time>
      </trkpt>
      <trkpt lat="48.19355" lon="7.31472">
        <ele>270</ele>
        <time>2019-04-15T02:53:56Z</time>
      </trkpt>
      <trkpt lat="48.19376" lon="7.31432">
        <ele>269</ele>
        <time>2019-04-15T02:54:56Z</time>
      </trkpt>
      <trkpt lat="48.19388" lon="7.31409">
        <ele>269</ele>
        <time>2019-04-15T02:55:56Z</time>
      </trkpt>
      <trkpt lat="48.19395" lon="7.31394">
        <ele>269</ele>
        <time>2019-04-15T02:56:56Z</time>
      </trkpt>
      <trkpt lat="48.19395" lon="7.31394">
        <ele>269</ele>
        <time>2019-04-15T02:57:56Z</time>
      </trkpt>
      <trkpt lat="48.19392" lon="7.31391">
        <ele>269</ele>
        <time>2019-04-15T02:58:56Z</time>
      </trkpt>
      <trkpt lat="48.19388" lon="7.31387">
        <ele>270</ele>
        <time>2019-04-15T02:59:56Z</time>
      </trkpt>
      <trkpt lat="48.19382" lon="7.31381">
        <ele>270</ele>
        <time>2019-04-15T03:00:56Z</time>
      </trkpt>
      <trkpt lat="48.19373" lon="7.31373">
        <ele>271</ele>
        <time>2019-04-15T03:01:56Z</time>
      </trkpt>
      <trkpt lat="48.19364" lon="7.31361">
        <ele>272</ele>
        <time>2019-04-15T03:02:56Z</time>
      </trkpt>
      <trkpt lat="48.19346" lon="7.3134">
        <ele>273</ele>
        <time>2019-04-15T03:03:56Z</time>
      </trkpt>
      <trkpt lat="48.19339" lon="7.31332">
        <ele>274</ele>
        <time>2019-04-15T03:04:56Z</time>
      </trkpt>
      <trkpt lat="48.19324" lon="7.31316">
        <ele>275</ele>
        <time>2019-04-15T03:05:56Z</time>
      </trkpt>
      <trkpt lat="48.19307" lon="7.31304">
        <ele>277</ele>
        <time>2019-04-15T03:06:56Z</time>
      </trkpt>
      <trkpt lat="48.19286" lon="7.31285">
        <ele>279</ele>
        <time>2019-04-15T03:07:56Z</time>
      </trkpt>
      <trkpt lat="48.19279" lon="7.31274">
        <ele>280</ele>
        <time>2019-04-15T03:08:56Z</time>
      </trkpt>
      <trkpt lat="48.19273" lon="7.31263">
        <ele>280</ele>
        <time>2019-04-15T03:09:56Z</time>
      </trkpt>
      <trkpt lat="48.19265" lon="7.31247">
        <ele>281</ele>
        <time>2019-04-15T03:10:56Z</time>
      </trkpt>
      <trkpt lat="48.1926" lon="7.31238">
        <ele>282</ele>
        <time>2019-04-15T03:11:56Z</time>
      </trkpt>
      <trkpt lat="48.19255" lon="7.31232">
        <ele>282</ele>
        <time>2019-04-15T03:12:56Z</time>
      </trkpt>
      <trkpt lat="48.19252" lon="7.3123">
        <ele>282</ele>
        <time>2019-04-15T03:13:56Z</time>
      </trkpt>
      <trkpt lat="48.19249" lon="7.31228">
        <ele>283</ele>
        <time>2019-04-15T03:14:56Z</time>
      </trkpt>
      <trkpt lat="48.19238" lon="7.31225">
        <ele>283</ele>
        <time>2019-04-15T03:15:56Z</time>
      </trkpt>
      <trkpt lat="48.19224" lon="7.31219">
        <ele>283</ele>
        <time>2019-04-15T03:16:56Z</time>
      </trkpt>
      <trkpt lat="48.19213" lon="7.31215">
        <ele>284</ele>
        <time>2019-04-15T03:17:56Z</time>
      </trkpt>
      <trkpt lat="48.1918" lon="7.31195">
        <ele>285</ele>
        <time>2019-04-15T03:18:56Z</time>
      </trkpt>
      <trkpt lat="48.19132" lon="7.31166">
        <ele>290</ele>
        <time>2019-04-15T03:19:56Z</time>
      </trkpt>
      <trkpt lat="48.191" lon="7.31147">
        <ele>294</ele>
        <time>2019-04-15T03:20:56Z</time>
      </trkpt>
      <trkpt lat="48.19082" lon="7.31136">
        <ele>296</ele>
        <time>2019-04-15T03:21:56Z</time>
      </trkpt>
      <trkpt lat="48.19066" lon="7.3113">
        <ele>297</ele>
        <time>2019-04-15T03:22:56Z</time>
      </trkpt>
      <trkpt lat="48.19051" lon="7.31125">
        <ele>299</ele>
        <time>2019-04-15T03:23:56Z</time>
      </trkpt>
      <trkpt lat="48.19033" lon="7.31122">
        <ele>300</ele>
        <time>2019-04-15T03:24:56Z</time>
      </trkpt>
      <trkpt lat="48.19018" lon="7.31119">
        <ele>302</ele>
        <time>2019-04-15T03:25:56Z</time>
      </trkpt>
      <trkpt lat="48.19007" lon="7.31118">
        <ele>303</ele>
        <time>2019-04-15T03:26:56Z</time>
      </trkpt>
      <trkpt lat="48.19007" lon="7.31118">
        <ele>303</ele>
        <time>2019-04-15T03:27:56Z</time>
      </trkpt>
      <trkpt lat="48.18997" lon="7.31121">
        <ele>304</ele>
        <time>2019-04-15T03:28:56Z</time>
      </trkpt>
      <trkpt lat="48.18989" lon="7.31123">
        <ele>304</ele>
        <time>2019-04-15T03:29:56Z</time>
      </trkpt>
      <trkpt lat="48.18981" lon="7.31123">
        <ele>304</ele>
        <time>2019-04-15T03:30:56Z</time>
      </trkpt>
      <trkpt lat="48.18965" lon="7.3112">
        <ele>305</ele>
        <time>2019-04-15T03:31:56Z</time>
      </trkpt>
      <trkpt lat="48.1895" lon="7.31117">
        <ele>305</ele>
        <time>2019-04-15T03:32:56Z</time>
      </trkpt>
      <trkpt lat="48.18935" lon="7.31112">
        <ele>306</ele>
        <time>2019-04-15T03:33:56Z</time>
      </trkpt>
      <trkpt lat="48.18906" lon="7.31101">
        <ele>306</ele>
        <time>2019-04-15T03:34:56Z</time>
      </trkpt>
      <trkpt lat="48.18896" lon="7.31098">
        <ele>306</ele>
        <time>2019-04-15T03:35:56Z</time>
      </trkpt>
      <trkpt lat="48.18889" lon="7.31095">
        <ele>306</ele>
        <time>2019-04-15T03:36:56Z</time>
      </trkpt>
      <trkpt lat="48.1887" lon="7.31091">
        <ele>305</ele>
        <time>2019-04-15T03:37:56Z</time>
      </trkpt>
      <trkpt lat="48.18851" lon="7.31085">
        <ele>304</ele>
        <time>2019-04-15T03:38:56Z</time>
      </trkpt>
      <trkpt lat="48.18829" lon="7.31075">
        <ele>303</ele>
        <time>2019-04-15T03:39:56Z</time>
      </trkpt>
      <trkpt lat="48.18812" lon="7.31067">
        <ele>302</ele>
        <time>2019-04-15T03:40:56Z</time>
      </trkpt>
      <trkpt lat="48.18797" lon="7.3106">
        <ele>301</ele>
        <time>2019-04-15T03:41:56Z</time>
      </trkpt>
      <trkpt lat="48.18774" lon="7.31052">
        <ele>300</ele>
        <time>2019-04-15T03:42:56Z</time>
      </trkpt>
      <trkpt lat="48.18741" lon="7.31042">
        <ele>298</ele>
        <time>2019-04-15T03:43:56Z</time>
      </trkpt>
      <trkpt lat="48.18711" lon="7.31033">
        <ele>297</ele>
        <time>2019-04-15T03:44:56Z</time>
      </trkpt>
      <trkpt lat="48.18686" lon="7.31025">
        <ele>296</ele>
        <time>2019-04-15T03:45:56Z</time>
      </trkpt>
      <trkpt lat="48.1868" lon="7.31023">
        <ele>296</ele>
        <time>2019-04-15T03:46:56Z</time>
      </trkpt>
      <trkpt lat="48.18657" lon="7.31017">
        <ele>296</ele>
        <time>2019-04-15T03:47:56Z</time>
      </trkpt>
      <trkpt lat="48.18631" lon="7.31014">
        <ele>296</ele>
        <time>2019-04-15T03:48:56Z</time>
      </trkpt>
      <trkpt lat="48.18608" lon="7.3101">
        <ele>297</ele>
        <time>2019-04-15T03:49:56Z</time>
      </trkpt>
      <trkpt lat="48.18556" lon="7.30997">
        <ele>298</ele>
        <time>2019-04-15T03:50:56Z</time>
      </trkpt>
      <trkpt lat="48.18543" lon="7.30994">
        <ele>299</ele>
        <time>2019-04-15T03:51:56Z</time>
      </trkpt>
      <trkpt lat="48.1853" lon="7.30993">
        <ele>299</ele>
        <time>2019-04-15T03:52:56Z</time>
      </trkpt>
      <trkpt lat="48.18523" lon="7.30992">
        <ele>299</ele>
        <time>2019-04-15T03:53:56Z</time>
      </trkpt>
      <trkpt lat="48.18506" lon="7.30988">
        <ele>299</ele>
        <time>2019-04-15T03:54:56Z</time>
      </trkpt>
      <trkpt lat="48.18496" lon="7.30984">
        <ele>299</ele>
        <time>2019-04-15T03:55:56Z</time>
      </trkpt>
      <trkpt lat="48.18485" lon="7.30977">
        <ele>299</ele>
        <time>2019-04-15T03:56:56Z</time>
      </trkpt>
      <trkpt lat="48.18473" lon="7.30968">
        <ele>299</ele>
        <time>2019-04-15T03:57:56Z</time>
      </trkpt>
      <trkpt lat="48.18457" lon="7.30957">
        <ele>299</ele>
        <time>2019-04-15T03:58:56Z</time>
      </trkpt>
      <trkpt lat="48.18437" lon="7.30946">
        <ele>298</ele>
        <time>2019-04-15T03:59:56Z</time>
      </trkpt>
      <trkpt lat="48.18401" lon="7.30926">
        <ele>296</ele>
        <time>2019-04-15T04:00:56Z</time>
      </trkpt>
      <trkpt lat="48.18362" lon="7.30903">
        <ele>294</ele>
        <time>2019-04-15T04:01:56Z</time>
      </trkpt>
      <trkpt lat="48.18327" lon="7.30884">
        <ele>292</ele>
        <time>2019-04-15T04:02:56Z</time>
      </trkpt>
      <trkpt lat="48.18309" lon="7.30876">
        <ele>291</ele>
        <time>2019-04-15T04:03:56Z</time>
      </trkpt>
      <trkpt lat="48.18287" lon="7.30869">
        <ele>290</ele>
        <time>2019-04-15T04:04:56Z</time>
      </trkpt>
      <trkpt lat="48.1827" lon="7.30865">
        <ele>289</ele>
        <time>2019-04-15T04:05:56Z</time>
      </trkpt>
      <trkpt lat="48.18235" lon="7.30859">
        <ele>287</ele>
        <time>2019-04-15T04:06:56Z</time>
      </trkpt>
      <trkpt lat="48.18218" lon="7.30856">
        <ele>286</ele>
        <time>2019-04-15T04:07:56Z</time>
      </trkpt>
      <trkpt lat="48.18199" lon="7.30856">
        <ele>284</ele>
        <time>2019-04-15T04:08:56Z</time>
      </trkpt>
      <trkpt lat="48.18169" lon="7.30856">
        <ele>282</ele>
        <time>2019-04-15T04:09:56Z</time>
      </trkpt>
      <trkpt lat="48.1815" lon="7.30856">
        <ele>281</ele>
        <time>2019-04-15T04:10:56Z</time>
      </trkpt>
      <trkpt lat="48.18146" lon="7.30856">
        <ele>281</ele>
        <time>2019-04-15T04:11:56Z</time>
      </trkpt>
      <trkpt lat="48.18146" lon="7.30856">
        <ele>281</ele>
        <time>2019-04-15T04:12:56Z</time>
      </trkpt>
      <trkpt lat="48.18136" lon="7.30857">
        <ele>281</ele>
        <time>2019-04-15T04:13:56Z</time>
      </trkpt>
      <trkpt lat="48.18123" lon="7.30854">
        <ele>281</ele>
        <time>2019-04-15T04:14:56Z</time>
      </trkpt>
      <trkpt lat="48.18099" lon="7.3085">
        <ele>280</ele>
        <time>2019-04-15T04:15:56Z</time>
      </trkpt>
      <trkpt lat="48.18076" lon="7.30844">
        <ele>280</ele>
        <time>2019-04-15T04:16:56Z</time>
      </trkpt>
      <trkpt lat="48.18055" lon="7.30838">
        <ele>281</ele>
        <time>2019-04-15T04:17:56Z</time>
      </trkpt>
      <trkpt lat="48.1803" lon="7.30831">
        <ele>282</ele>
        <time>2019-04-15T04:18:56Z</time>
      </trkpt>
      <trkpt lat="48.18011" lon="7.30829">
        <ele>282</ele>
        <time>2019-04-15T04:19:56Z</time>
      </trkpt>
      <trkpt lat="48.18004" lon="7.30829">
        <ele>282</ele>
        <time>2019-04-15T04:20:56Z</time>
      </trkpt>
      <trkpt lat="48.18" lon="7.30829">
        <ele>282</ele>
        <time>2019-04-15T04:21:56Z</time>
      </trkpt>
      <trkpt lat="48.17998" lon="7.3083">
        <ele>282</ele>
        <time>2019-04-15T04:22:56Z</time>
      </trkpt>
      <trkpt lat="48.17997" lon="7.30831">
        <ele>282</ele>
        <time>2019-04-15T04:23:56Z</time>
      </trkpt>
      <trkpt lat="48.17994" lon="7.30834">
        <ele>282</ele>
        <time>2019-04-15T04:24:56Z</time>
      </trkpt>
      <trkpt lat="48.17994" lon="7.30834">
        <ele>282</ele>
        <time>2019-04-15T04:25:56Z</time>
      </trkpt>
      <trkpt lat="48.17991" lon="7.30797">
        <ele>284</ele>
        <time>2019-04-15T04:26:56Z</time>
      </trkpt>
      <trkpt lat="48.17987" lon="7.30777">
        <ele>285</ele>
        <time>2019-04-15T04:27:56Z</time>
      </trkpt>
      <trkpt lat="48.17984" lon="7.30763">
        <ele>286</ele>
        <time>2019-04-15T04:28:56Z</time>
      </trkpt>
      <trkpt lat="48.17978" lon="7.30746">
        <ele>287</ele>
        <time>2019-04-15T04:29:56Z</time>
      </trkpt>
      <trkpt lat="48.17977" lon="7.3074">
        <ele>288</ele>
        <time>2019-04-15T04:30:56Z</time>
      </trkpt>
      <trkpt lat="48.17973" lon="7.30733">
        <ele>288</ele>
        <time>2019-04-15T04:31:56Z</time>
      </trkpt>
      <trkpt lat="48.17968" lon="7.3073">
        <ele>288</ele>
        <time>2019-04-15T04:32:56Z</time>
      </trkpt>
      <trkpt lat="48.17968" lon="7.3073">
        <ele>288</ele>
        <time>2019-04-15T04:33:56Z</time>
      </trkpt>
      <trkpt lat="48.17966" lon="7.30731">
        <ele>288</ele>
        <time>2019-04-15T04:34:56Z</time>
      </trkpt>
      <trkpt lat="48.17963" lon="7.30734">
        <ele>288</ele>
        <time>2019-04-15T04:35:56Z</time>
      </trkpt>
      <trkpt lat="48.17963" lon="7.30737">
        <ele>288</ele>
        <time>2019-04-15T04:36:56Z</time>
      </trkpt>
      <trkpt lat="48.17962" lon="7.30742">
        <ele>288</ele>
        <time>2019-04-15T04:37:56Z</time>
      </trkpt>
      <trkpt lat="48.17962" lon="7.30742">
        <ele>288</ele>
        <time>2019-04-15T04:38:56Z</time>
      </trkpt>
      <trkpt lat="48.1795" lon="7.30738">
        <ele>289</ele>
        <time>2019-04-15T04:39:56Z</time>
      </trkpt>
      <trkpt lat="48.17927" lon="7.30722">
        <ele>290</ele>
        <time>2019-04-15T04:40:56Z</time>
      </trkpt>
      <trkpt lat="48.17911" lon="7.30707">
        <ele>291</ele>
        <time>2019-04-15T04:41:56Z</time>
      </trkpt>
      <trkpt lat="48.17908" lon="7.30704">
        <ele>292</ele>
        <time>2019-04-15T04:42:56Z</time>
      </trkpt>
      <trkpt lat="48.17887" lon="7.30682">
        <ele>294</ele>
        <time>2019-04-15T04:43:56Z</time>
      </trkpt>
      <trkpt lat="48.17869" lon="7.30662">
        <ele>297</ele>
        <time>2019-04-15T04:44:56Z</time>
      </trkpt>
      <trkpt lat="48.17852" lon="7.30641">
        <ele>299</ele>
        <time>2019-04-15T04:45:56Z</time>
      </trkpt>
      <trkpt lat="48.17842" lon="7.30627">
        <ele>300</ele>
        <time>2019-04-15T04:46:56Z</time>
      </trkpt>
      <trkpt lat="48.17835" lon="7.30616">
        <ele>301</ele>
        <time>2019-04-15T04:47:56Z</time>
      </trkpt>
      <trkpt lat="48.17827" lon="7.306">
        <ele>302</ele>
        <time>2019-04-15T04:48:56Z</time>
      </trkpt>
      <trkpt lat="48.17823" lon="7.30588">
        <ele>302</ele>
        <time>2019-04-15T04:49:56Z</time>
      </trkpt>
      <trkpt lat="48.17817" lon="7.3057">
        <ele>304</ele>
        <time>2019-04-15T04:50:56Z</time>
      </trkpt>
      <trkpt lat="48.17811" lon="7.30553">
        <ele>305</ele>
        <time>2019-04-15T04:51:56Z</time>
      </trkpt>
      <trkpt lat="48.17807" lon="7.30538">
        <ele>307</ele>
        <time>2019-04-15T04:52:56Z</time>
      </trkpt>
      <trkpt lat="48.17804" lon="7.30526">
        <ele>308</ele>
        <time>2019-04-15T04:53:56Z</time>
      </trkpt>
      <trkpt lat="48.17802" lon="7.30512">
        <ele>309</ele>
        <time>2019-04-15T04:54:56Z</time>
      </trkpt>
      <trkpt lat="48.178" lon="7.30494">
        <ele>310</ele>
        <time>2019-04-15T04:55:56Z</time>
      </trkpt>
      <trkpt lat="48.17798" lon="7.3048">
        <ele>311</ele>
        <time>2019-04-15T04:56:56Z</time>
      </trkpt>
      <trkpt lat="48.17795" lon="7.30469">
        <ele>312</ele>
        <time>2019-04-15T04:57:56Z</time>
      </trkpt>
      <trkpt lat="48.17788" lon="7.30454">
        <ele>313</ele>
        <time>2019-04-15T04:58:56Z</time>
      </trkpt>
      <trkpt lat="48.17788" lon="7.30454">
        <ele>313</ele>
        <time>2019-04-15T04:59:56Z</time>
      </trkpt>
      <trkpt lat="48.17776" lon="7.3043">
        <ele>315</ele>
        <time>2019-04-15T05:00:56Z</time>
      </trkpt>
      <trkpt lat="48.17763" lon="7.30402">
        <ele>317</ele>
        <time>2019-04-15T05:01:56Z</time>
      </trkpt>
      <trkpt lat="48.17746" lon="7.30365">
        <ele>319</ele>
        <time>2019-04-15T05:02:56Z</time>
      </trkpt>
      <trkpt lat="48.17739" lon="7.30353">
        <ele>319</ele>
        <time>2019-04-15T05:03:56Z</time>
      </trkpt>
      <trkpt lat="48.17729" lon="7.30336">
        <ele>320</ele>
        <time>2019-04-15T05:04:56Z</time>
      </trkpt>
      <trkpt lat="48.17708" lon="7.30306">
        <ele>321</ele>
        <time>2019-04-15T05:05:56Z</time>
      </trkpt>
      <trkpt lat="48.17688" lon="7.30278">
        <ele>322</ele>
        <time>2019-04-15T05:06:56Z</time>
      </trkpt>
      <trkpt lat="48.17675" lon="7.30259">
        <ele>322</ele>
        <time>2019-04-15T05:07:56Z</time>
      </trkpt>
      <trkpt lat="48.17664" lon="7.3024">
        <ele>323</ele>
        <time>2019-04-15T05:08:56Z</time>
      </trkpt>
      <trkpt lat="48.17651" lon="7.30212">
        <ele>327</ele>
        <time>2019-04-15T05:09:56Z</time>
      </trkpt>
      <trkpt lat="48.17631" lon="7.30167">
        <ele>332</ele>
        <time>2019-04-15T05:10:56Z</time>
      </trkpt>
      <trkpt lat="48.17618" lon="7.30136">
        <ele>334</ele>
        <time>2019-04-15T05:11:56Z</time>
      </trkpt>
      <trkpt lat="48.17613" lon="7.30123">
        <ele>335</ele>
        <time>2019-04-15T05:12:56Z</time>
      </trkpt>
      <trkpt lat="48.17608" lon="7.30108">
        <ele>336</ele>
        <time>2019-04-15T05:13:56Z</time>
      </trkpt>
      <trkpt lat="48.17604" lon="7.30095">
        <ele>337</ele>
        <time>2019-04-15T05:14:56Z</time>
      </trkpt>
      <trkpt lat="48.17593" lon="7.30073">
        <ele>338</ele>
        <time>2019-04-15T05:15:56Z</time>
      </trkpt>
      <trkpt lat="48.17585" lon="7.30056">
        <ele>338</ele>
        <time>2019-04-15T05:16:56Z</time>
      </trkpt>
      <trkpt lat="48.17571" lon="7.30044">
        <ele>340</ele>
        <time>2019-04-15T05:17:56Z</time>
      </trkpt>
      <trkpt lat="48.17545" lon="7.30014">
        <ele>344</ele>
        <time>2019-04-15T05:18:56Z</time>
      </trkpt>
      <trkpt lat="48.17538" lon="7.30006">
        <ele>345</ele>
        <time>2019-04-15T05:19:56Z</time>
      </trkpt>
      <trkpt lat="48.17533" lon="7.29996">
        <ele>346</ele>
        <time>2019-04-15T05:20:56Z</time>
      </trkpt>
      <trkpt lat="48.17527" lon="7.2998">
        <ele>348</ele>
        <time>2019-04-15T05:21:56Z</time>
      </trkpt>
      <trkpt lat="48.17515" lon="7.29952">
        <ele>351</ele>
        <time>2019-04-15T05:22:56Z</time>
      </trkpt>
      <trkpt lat="48.175" lon="7.2992">
        <ele>356</ele>
        <time>2019-04-15T05:23:56Z</time>
      </trkpt>
      <trkpt lat="48.17492" lon="7.29905">
        <ele>358</ele>
        <time>2019-04-15T05:24:56Z</time>
      </trkpt>
      <trkpt lat="48.17482" lon="7.29887">
        <ele>361</ele>
        <time>2019-04-15T05:25:56Z</time>
      </trkpt>
      <trkpt lat="48.17471" lon="7.29869">
        <ele>364</ele>
        <time>2019-04-15T05:26:56Z</time>
      </trkpt>
      <trkpt lat="48.17464" lon="7.29857">
        <ele>366</ele>
        <time>2019-04-15T05:27:56Z</time>
      </trkpt>
      <trkpt lat="48.17454" lon="7.29843">
        <ele>368</ele>
        <time>2019-04-15T05:28:56Z</time>
      </trkpt>
      <trkpt lat="48.17433" lon="7.29815">
        <ele>371</ele>
        <time>2019-04-15T05:29:56Z</time>
      </trkpt>
      <trkpt lat="48.17418" lon="7.29793">
        <ele>373</ele>
        <time>2019-04-15T05:30:56Z</time>
      </trkpt>
      <trkpt lat="48.17399" lon="7.29771">
        <ele>376</ele>
        <time>2019-04-15T05:31:56Z</time>
      </trkpt>
      <trkpt lat="48.1738" lon="7.29746">
        <ele>377</ele>
        <time>2019-04-15T05:32:56Z</time>
      </trkpt>
      <trkpt lat="48.17367" lon="7.29727">
        <ele>378</ele>
        <time>2019-04-15T05:33:56Z</time>
      </trkpt>
      <trkpt lat="48.17358" lon="7.29711">
        <ele>379</ele>
        <time>2019-04-15T05:34:56Z</time>
      </trkpt>
      <trkpt lat="48.17353" lon="7.29703">
        <ele>379</ele>
        <time>2019-04-15T05:35:56Z</time>
      </trkpt>
      <trkpt lat="48.17345" lon="7.29688">
        <ele>380</ele>
        <time>2019-04-15T05:36:56Z</time>
      </trkpt>
      <trkpt lat="48.17335" lon="7.29667">
        <ele>380</ele>
        <time>2019-04-15T05:37:56Z</time>
      </trkpt>
      <trkpt lat="48.17318" lon="7.29638">
        <ele>380</ele>
        <time>2019-04-15T05:38:56Z</time>
      </trkpt>
      <trkpt lat="48.17313" lon="7.29629">
        <ele>379</ele>
        <time>2019-04-15T05:39:56Z</time>
      </trkpt>
      <trkpt lat="48.17303" lon="7.29616">
        <ele>379</ele>
        <time>2019-04-15T05:40:56Z</time>
      </trkpt>
      <trkpt lat="48.17289" lon="7.29596">
        <ele>377</ele>
        <time>2019-04-15T05:41:56Z</time>
      </trkpt>
      <trkpt lat="48.17257" lon="7.2955">
        <ele>374</ele>
        <time>2019-04-15T05:42:56Z</time>
      </trkpt>
      <trkpt lat="48.17229" lon="7.29513">
        <ele>371</ele>
        <time>2019-04-15T05:43:56Z</time>
      </trkpt>
      <trkpt lat="48.17222" lon="7.29504">
        <ele>371</ele>
        <time>2019-04-15T05:44:56Z</time>
      </trkpt>
      <trkpt lat="48.17212" lon="7.29499">
        <ele>369</ele>
        <time>2019-04-15T05:45:56Z</time>
      </trkpt>
      <trkpt lat="48.17193" lon="7.29489">
        <ele>367</ele>
        <time>2019-04-15T05:46:56Z</time>
      </trkpt>
      <trkpt lat="48.17169" lon="7.29478">
        <ele>363</ele>
        <time>2019-04-15T05:47:56Z</time>
      </trkpt>
      <trkpt lat="48.17152" lon="7.2947">
        <ele>361</ele>
        <time>2019-04-15T05:48:56Z</time>
      </trkpt>
      <trkpt lat="48.1714" lon="7.29467">
        <ele>359</ele>
        <time>2019-04-15T05:49:56Z</time>
      </trkpt>
      <trkpt lat="48.17125" lon="7.29463">
        <ele>357</ele>
        <time>2019-04-15T05:50:56Z</time>
      </trkpt>
      <trkpt lat="48.17113" lon="7.2946">
        <ele>355</ele>
        <time>2019-04-15T05:51:56Z</time>
      </trkpt>
      <trkpt lat="48.17111" lon="7.2946">
        <ele>355</ele>
        <time>2019-04-15T05:52:56Z</time>
      </trkpt>
      <trkpt lat="48.17111" lon="7.2946">
        <ele>355</ele>
        <time>2019-04-15T05:53:56Z</time>
      </trkpt>
      <trkpt lat="48.17111" lon="7.29447">
        <ele>355</ele>
        <time>2019-04-15T05:54:56Z</time>
      </trkpt>
      <trkpt lat="48.1711" lon="7.29428">
        <ele>355</ele>
        <time>2019-04-15T05:55:56Z</time>
      </trkpt>
      <trkpt lat="48.17109" lon="7.29414">
        <ele>354</ele>
        <time>2019-04-15T05:56:56Z</time>
      </trkpt>
      <trkpt lat="48.17106" lon="7.29401">
        <ele>355</ele>
        <time>2019-04-15T05:57:56Z</time>
      </trkpt>
      <trkpt lat="48.17102" lon="7.29391">
        <ele>354</ele>
        <time>2019-04-15T05:58:56Z</time>
      </trkpt>
      <trkpt lat="48.17097" lon="7.29378">
        <ele>354</ele>
        <time>2019-04-15T05:59:56Z</time>
      </trkpt>
      <trkpt lat="48.17083" lon="7.29354">
        <ele>352</ele>
        <time>2019-04-15T06:00:56Z</time>
      </trkpt>
      <trkpt lat="48.17069" lon="7.2933">
        <ele>351</ele>
        <time>2019-04-15T06:01:56Z</time>
      </trkpt>
      <trkpt lat="48.17055" lon="7.29306">
        <ele>350</ele>
        <time>2019-04-15T06:02:56Z</time>
      </trkpt>
      <trkpt lat="48.17048" lon="7.29292">
        <ele>350</ele>
        <time>2019-04-15T06:03:56Z</time>
      </trkpt>
      <trkpt lat="48.17044" lon="7.29283">
        <ele>350</ele>
        <time>2019-04-15T06:04:56Z</time>
      </trkpt>
      <trkpt lat="48.17038" lon="7.29266">
        <ele>350</ele>
        <time>2019-04-15T06:05:56Z</time>
      </trkpt>
      <trkpt lat="48.17035" lon="7.29256">
        <ele>350</ele>
        <time>2019-04-15T06:06:56Z</time>
      </trkpt>
      <trkpt lat="48.17034" lon="7.29245">
        <ele>351</ele>
        <time>2019-04-15T06:07:56Z</time>
      </trkpt>
      <trkpt lat="48.17032" lon="7.29232">
        <ele>351</ele>
        <time>2019-04-15T06:08:56Z</time>
      </trkpt>
      <trkpt lat="48.17032" lon="7.29209">
        <ele>353</ele>
        <time>2019-04-15T06:09:56Z</time>
      </trkpt>
      <trkpt lat="48.17031" lon="7.29195">
        <ele>354</ele>
        <time>2019-04-15T06:10:56Z</time>
      </trkpt>
      <trkpt lat="48.17031" lon="7.29179">
        <ele>355</ele>
        <time>2019-04-15T06:11:56Z</time>
      </trkpt>
      <trkpt lat="48.17031" lon="7.29159">
        <ele>356</ele>
        <time>2019-04-15T06:12:56Z</time>
      </trkpt>
      <trkpt lat="48.1703" lon="7.29152">
        <ele>356</ele>
        <time>2019-04-15T06:13:56Z</time>
      </trkpt>
      <trkpt lat="48.17027" lon="7.29146">
        <ele>356</ele>
        <time>2019-04-15T06:14:56Z</time>
      </trkpt>
      <trkpt lat="48.17022" lon="7.29141">
        <ele>355</ele>
        <time>2019-04-15T06:15:56Z</time>
      </trkpt>
      <trkpt lat="48.17016" lon="7.29138">
        <ele>355</ele>
        <time>2019-04-15T06:16:56Z</time>
      </trkpt>
      <trkpt lat="48.17009" lon="7.29136">
        <ele>354</ele>
        <time>2019-04-15T06:17:56Z</time>
      </trkpt>
      <trkpt lat="48.17009" lon="7.29136">
        <ele>354</ele>
        <time>2019-04-15T06:18:56Z</time>
      </trkpt>
      <trkpt lat="48.16991" lon="7.29191">
        <ele>348</ele>
        <time>2019-04-15T06:19:56Z</time>
      </trkpt>
      <trkpt lat="48.16987" lon="7.29201">
        <ele>347</ele>
        <time>2019-04-15T06:20:56Z</time>
      </trkpt>
      <trkpt lat="48.16981" lon="7.29216">
        <ele>346</ele>
        <time>2019-04-15T06:21:56Z</time>
      </trkpt>
      <trkpt lat="48.16974" lon="7.29232">
        <ele>344</ele>
        <time>2019-04-15T06:22:56Z</time>
      </trkpt>
      <trkpt lat="48.16965" lon="7.29251">
        <ele>342</ele>
        <time>2019-04-15T06:23:56Z</time>
      </trkpt>
      <trkpt lat="48.16957" lon="7.29264">
        <ele>341</ele>
        <time>2019-04-15T06:24:56Z</time>
      </trkpt>
      <trkpt lat="48.16951" lon="7.29274">
        <ele>341</ele>
        <time>2019-04-15T06:25:56Z</time>
      </trkpt>
      <trkpt lat="48.16946" lon="7.29282">
        <ele>340</ele>
        <time>2019-04-15T06:26:56Z</time>
      </trkpt>
      <trkpt lat="48.16937" lon="7.29291">
        <ele>339</ele>
        <time>2019-04-15T06:27:56Z</time>
      </trkpt>
      <trkpt lat="48.16924" lon="7.29304">
        <ele>339</ele>
        <time>2019-04-15T06:28:56Z</time>
      </trkpt>
      <trkpt lat="48.16912" lon="7.29315">
        <ele>337</ele>
        <time>2019-04-15T06:29:56Z</time>
      </trkpt>
      <trkpt lat="48.16906" lon="7.2932">
        <ele>337</ele>
        <time>2019-04-15T06:30:56Z</time>
      </trkpt>
      <trkpt lat="48.16903" lon="7.29322">
        <ele>336</ele>
        <time>2019-04-15T06:31:56Z</time>
      </trkpt>
      <trkpt lat="48.16895" lon="7.29328">
        <ele>335</ele>
        <time>2019-04-15T06:32:56Z</time>
      </trkpt>
      <trkpt lat="48.16889" lon="7.29332">
        <ele>334</ele>
        <time>2019-04-15T06:33:56Z</time>
      </trkpt>
      <trkpt lat="48.16882" lon="7.29334">
        <ele>334</ele>
        <time>2019-04-15T06:34:56Z</time>
      </trkpt>
      <trkpt lat="48.16875" lon="7.29336">
        <ele>333</ele>
        <time>2019-04-15T06:35:56Z</time>
      </trkpt>
      <trkpt lat="48.16867" lon="7.29337">
        <ele>332</ele>
        <time>2019-04-15T06:36:56Z</time>
      </trkpt>
      <trkpt lat="48.16856" lon="7.29338">
        <ele>331</ele>
        <time>2019-04-15T06:37:56Z</time>
      </trkpt>
      <trkpt lat="48.16845" lon="7.29338">
        <ele>330</ele>
        <time>2019-04-15T06:38:56Z</time>
      </trkpt>
      <trkpt lat="48.16837" lon="7.2934">
        <ele>329</ele>
        <time>2019-04-15T06:39:56Z</time>
      </trkpt>
      <trkpt lat="48.1683" lon="7.29342">
        <ele>328</ele>
        <time>2019-04-15T06:40:56Z</time>
      </trkpt>
      <trkpt lat="48.16824" lon="7.29346">
        <ele>328</ele>
        <time>2019-04-15T06:41:56Z</time>
      </trkpt>
      <trkpt lat="48.16818" lon="7.2935">
        <ele>327</ele>
        <time>2019-04-15T06:42:56Z</time>
      </trkpt>
      <trkpt lat="48.16811" lon="7.29357">
        <ele>326</ele>
        <time>2019-04-15T06:43:56Z</time>
      </trkpt>
      <trkpt lat="48.16806" lon="7.29364">
        <ele>325</ele>
        <time>2019-04-15T06:44:56Z</time>
      </trkpt>
      <trkpt lat="48.16801" lon="7.29373">
        <ele>325</ele>
        <time>2019-04-15T06:45:56Z</time>
      </trkpt>
      <trkpt lat="48.16796" lon="7.29381">
        <ele>324</ele>
        <time>2019-04-15T06:46:56Z</time>
      </trkpt>
      <trkpt lat="48.16792" lon="7.2939">
        <ele>323</ele>
        <time>2019-04-15T06:47:56Z</time>
      </trkpt>
      <trkpt lat="48.16788" lon="7.29398">
        <ele>322</ele>
        <time>2019-04-15T06:48:56Z</time>
      </trkpt>
      <trkpt lat="48.16781" lon="7.29406">
        <ele>322</ele>
        <time>2019-04-15T06:49:56Z</time>
      </trkpt>
      <trkpt lat="48.16774" lon="7.29412">
        <ele>321</ele>
        <time>2019-04-15T06:50:56Z</time>
      </trkpt>
      <trkpt lat="48.16766" lon="7.29419">
        <ele>320</ele>
        <time>2019-04-15T06:51:56Z</time>
      </trkpt>
      <trkpt lat="48.16759" lon="7.29425">
        <ele>320</ele>
        <time>2019-04-15T06:52:56Z</time>
      </trkpt>
      <trkpt lat="48.16753" lon="7.29432">
        <ele>319</ele>
        <time>2019-04-15T06:53:56Z</time>
      </trkpt>
      <trkpt lat="48.16736" lon="7.29462">
        <ele>317</ele>
        <time>2019-04-15T06:54:56Z</time>
      </trkpt>
      <trkpt lat="48.16736" lon="7.29462">
        <ele>317</ele>
        <time>2019-04-15T06:55:56Z</time>
      </trkpt>
      <trkpt lat="48.16729" lon="7.29459">
        <ele>317</ele>
        <time>2019-04-15T06:56:56Z</time>
      </trkpt>
      <trkpt lat="48.16724" lon="7.29456">
        <ele>317</ele>
        <time>2019-04-15T06:57:56Z</time>
      </trkpt>
      <trkpt lat="48.16718" lon="7.29455">
        <ele>317</ele>
        <time>2019-04-15T06:58:56Z</time>
      </trkpt>
      <trkpt lat="48.16711" lon="7.29455">
        <ele>317</ele>
        <time>2019-04-15T06:59:56Z</time>
      </trkpt>
      <trkpt lat="48.16703" lon="7.29454">
        <ele>317</ele>
        <time>2019-04-15T07:00:56Z</time>
      </trkpt>
      <trkpt lat="48.16683" lon="7.29455">
        <ele>316</ele>
        <time>2019-04-15T07:01:56Z</time>
      </trkpt>
      <trkpt lat="48.16675" lon="7.29455">
        <ele>315</ele>
        <time>2019-04-15T07:02:56Z</time>
      </trkpt>
      <trkpt lat="48.16666" lon="7.29455">
        <ele>315</ele>
        <time>2019-04-15T07:03:56Z</time>
      </trkpt>
      <trkpt lat="48.16643" lon="7.29454">
        <ele>315</ele>
        <time>2019-04-15T07:04:56Z</time>
      </trkpt>
      <trkpt lat="48.16623" lon="7.29452">
        <ele>315</ele>
        <time>2019-04-15T07:05:56Z</time>
      </trkpt>
      <trkpt lat="48.16606" lon="7.29451">
        <ele>314</ele>
        <time>2019-04-15T07:06:56Z</time>
      </trkpt>
      <trkpt lat="48.16598" lon="7.29451">
        <ele>314</ele>
        <time>2019-04-15T07:07:56Z</time>
      </trkpt>
      <trkpt lat="48.1659" lon="7.29452">
        <ele>314</ele>
        <time>2019-04-15T07:08:56Z</time>
      </trkpt>
      <trkpt lat="48.16583" lon="7.29455">
        <ele>314</ele>
        <time>2019-04-15T07:09:56Z</time>
      </trkpt>
      <trkpt lat="48.16576" lon="7.29461">
        <ele>313</ele>
        <time>2019-04-15T07:10:56Z</time>
      </trkpt>
      <trkpt lat="48.16567" lon="7.29469">
        <ele>313</ele>
        <time>2019-04-15T07:11:56Z</time>
      </trkpt>
      <trkpt lat="48.16553" lon="7.29485">
        <ele>312</ele>
        <time>2019-04-15T07:12:56Z</time>
      </trkpt>
      <trkpt lat="48.16546" lon="7.29493">
        <ele>312</ele>
        <time>2019-04-15T07:13:56Z</time>
      </trkpt>
      <trkpt lat="48.16516" lon="7.29524">
        <ele>311</ele>
        <time>2019-04-15T07:14:56Z</time>
      </trkpt>
      <trkpt lat="48.16495" lon="7.29549">
        <ele>309</ele>
        <time>2019-04-15T07:15:56Z</time>
      </trkpt>
      <trkpt lat="48.16481" lon="7.29571">
        <ele>307</ele>
        <time>2019-04-15T07:16:56Z</time>
      </trkpt>
      <trkpt lat="48.16471" lon="7.29593">
        <ele>306</ele>
        <time>2019-04-15T07:17:56Z</time>
      </trkpt>
      <trkpt lat="48.16463" lon="7.29613">
        <ele>305</ele>
        <time>2019-04-15T07:18:56Z</time>
      </trkpt>
      <trkpt lat="48.16456" lon="7.29641">
        <ele>303</ele>
        <time>2019-04-15T07:19:56Z</time>
      </trkpt>
      <trkpt lat="48.16456" lon="7.29641">
        <ele>303</ele>
        <time>2019-04-15T07:20:56Z</time>
      </trkpt>
      <trkpt lat="48.16432" lon="7.29635">
        <ele>303</ele>
        <time>2019-04-15T07:21:56Z</time>
      </trkpt>
      <trkpt lat="48.16415" lon="7.29631">
        <ele>303</ele>
        <time>2019-04-15T07:22:56Z</time>
      </trkpt>
      <trkpt lat="48.164" lon="7.29631">
        <ele>304</ele>
        <time>2019-04-15T07:23:56Z</time>
      </trkpt>
      <trkpt lat="48.16387" lon="7.29631">
        <ele>304</ele>
        <time>2019-04-15T07:24:56Z</time>
      </trkpt>
      <trkpt lat="48.1638" lon="7.29633">
        <ele>305</ele>
        <time>2019-04-15T07:25:56Z</time>
      </trkpt>
      <trkpt lat="48.1637" lon="7.29636">
        <ele>305</ele>
        <time>2019-04-15T07:26:56Z</time>
      </trkpt>
      <trkpt lat="48.1636" lon="7.29642">
        <ele>305</ele>
        <time>2019-04-15T07:27:56Z</time>
      </trkpt>
      <trkpt lat="48.16357" lon="7.29645">
        <ele>305</ele>
        <time>2019-04-15T07:28:56Z</time>
      </trkpt>
      <trkpt lat="48.16357" lon="7.29645">
        <ele>305</ele>
        <time>2019-04-15T07:29:56Z</time>
      </trkpt>
      <trkpt lat="48.16347" lon="7.29636">
        <ele>306</ele>
        <time>2019-04-15T07:30:56Z</time>
      </trkpt>
      <trkpt lat="48.16333" lon="7.29627">
        <ele>307</ele>
        <time>2019-04-15T07:31:56Z</time>
      </trkpt>
      <trkpt lat="48.16301" lon="7.29615">
        <ele>310</ele>
        <time>2019-04-15T07:32:56Z</time>
      </trkpt>
      <trkpt lat="48.16271" lon="7.29604">
        <ele>313</ele>
        <time>2019-04-15T07:33:56Z</time>
      </trkpt>
      <trkpt lat="48.16246" lon="7.29595">
        <ele>315</ele>
        <time>2019-04-15T07:34:56Z</time>
      </trkpt>
      <trkpt lat="48.16221" lon="7.29587">
        <ele>318</ele>
        <time>2019-04-15T07:35:56Z</time>
      </trkpt>
      <trkpt lat="48.16205" lon="7.29581">
        <ele>319</ele>
        <time>2019-04-15T07:36:56Z</time>
      </trkpt>
      <trkpt lat="48.16196" lon="7.29577">
        <ele>320</ele>
        <time>2019-04-15T07:37:56Z</time>
      </trkpt>
      <trkpt lat="48.16173" lon="7.29562">
        <ele>322</ele>
        <time>2019-04-15T07:38:56Z</time>
      </trkpt>
      <trkpt lat="48.16147" lon="7.29544">
        <ele>325</ele>
        <time>2019-04-15T07:39:56Z</time>
      </trkpt>
      <trkpt lat="48.16126" lon="7.29534">
        <ele>327</ele>
        <time>2019-04-15T07:40:56Z</time>
      </trkpt>
      <trkpt lat="48.1611" lon="7.29526">
        <ele>329</ele>
        <time>2019-04-15T07:41:56Z</time>
      </trkpt>
      <trkpt lat="48.16097" lon="7.29518">
        <ele>330</ele>
        <time>2019-04-15T07:42:56Z</time>
      </trkpt>
      <trkpt lat="48.16087" lon="7.29507">
        <ele>331</ele>
        <time>2019-04-15T07:43:56Z</time>
      </trkpt>
      <trkpt lat="48.16075" lon="7.29493">
        <ele>332</ele>
        <time>2019-04-15T07:44:56Z</time>
      </trkpt>
      <trkpt lat="48.16075" lon="7.29493">
        <ele>332</ele>
        <time>2019-04-15T07:45:56Z</time>
      </trkpt>
      <trkpt lat="48.16063" lon="7.29477">
        <ele>332</ele>
        <time>2019-04-15T07:46:56Z</time>
      </trkpt>
      <trkpt lat="48.1605" lon="7.29466">
        <ele>332</ele>
        <time>2019-04-15T07:47:56Z</time>
      </trkpt>
      <trkpt lat="48.1603" lon="7.29454">
        <ele>332</ele>
        <time>2019-04-15T07:48:56Z</time>
      </trkpt>
      <trkpt lat="48.16005" lon="7.2944">
        <ele>333</ele>
        <time>2019-04-15T07:49:56Z</time>
      </trkpt>
      <trkpt lat="48.15974" lon="7.29428">
        <ele>332</ele>
        <time>2019-04-15T07:50:56Z</time>
      </trkpt>
      <trkpt lat="48.15957" lon="7.29418">
        <ele>331</ele>
        <time>2019-04-15T07:51:56Z</time>
      </trkpt>
      <trkpt lat="48.15941" lon="7.29408">
        <ele>331</ele>
        <time>2019-04-15T07:52:56Z</time>
      </trkpt>
      <trkpt lat="48.15931" lon="7.29399">
        <ele>331</ele>
        <time>2019-04-15T07:53:56Z</time>
      </trkpt>
      <trkpt lat="48.15916" lon="7.29382">
        <ele>331</ele>
        <time>2019-04-15T07:54:56Z</time>
      </trkpt>
      <trkpt lat="48.15893" lon="7.29355">
        <ele>331</ele>
        <time>2019-04-15T07:55:56Z</time>
      </trkpt>
      <trkpt lat="48.15876" lon="7.29336">
        <ele>331</ele>
        <time>2019-04-15T07:56:56Z</time>
      </trkpt>
      <trkpt lat="48.15865" lon="7.29323">
        <ele>331</ele>
        <time>2019-04-15T07:57:56Z</time>
      </trkpt>
      <trkpt lat="48.15851" lon="7.29311">
        <ele>331</ele>
        <time>2019-04-15T07:58:56Z</time>
      </trkpt>
      <trkpt lat="48.15832" lon="7.29296">
        <ele>331</ele>
        <time>2019-04-15T07:59:56Z</time>
      </trkpt>
      <trkpt lat="48.15814" lon="7.29283">
        <ele>330</ele>
        <time>2019-04-15T08:00:56Z</time>
      </trkpt>
      <trkpt lat="48.15792" lon="7.29267">
        <ele>329</ele>
        <time>2019-04-15T08:01:56Z</time>
      </trkpt>
      <trkpt lat="48.15775" lon="7.29258">
        <ele>329</ele>
        <time>2019-04-15T08:02:56Z</time>
      </trkpt>
      <trkpt lat="48.15739" lon="7.29236">
        <ele>327</ele>
        <time>2019-04-15T08:03:56Z</time>
      </trkpt>
      <trkpt lat="48.15719" lon="7.29223">
        <ele>326</ele>
        <time>2019-04-15T08:04:56Z</time>
      </trkpt>
      <trkpt lat="48.15701" lon="7.29208">
        <ele>325</ele>
        <time>2019-04-15T08:05:56Z</time>
      </trkpt>
      <trkpt lat="48.15684" lon="7.29192">
        <ele>324</ele>
        <time>2019-04-15T08:06:56Z</time>
      </trkpt>
      <trkpt lat="48.15667" lon="7.29172">
        <ele>323</ele>
        <time>2019-04-15T08:07:56Z</time>
      </trkpt>
      <trkpt lat="48.1565" lon="7.29152">
        <ele>322</ele>
        <time>2019-04-15T08:08:56Z</time>
      </trkpt>
      <trkpt lat="48.15629" lon="7.29133">
        <ele>321</ele>
        <time>2019-04-15T08:09:56Z</time>
      </trkpt>
      <trkpt lat="48.1561" lon="7.29119">
        <ele>320</ele>
        <time>2019-04-15T08:10:56Z</time>
      </trkpt>
      <trkpt lat="48.1559" lon="7.29107">
        <ele>319</ele>
        <time>2019-04-15T08:11:56Z</time>
      </trkpt>
      <trkpt lat="48.15573" lon="7.29096">
        <ele>318</ele>
        <time>2019-04-15T08:12:56Z</time>
      </trkpt>
      <trkpt lat="48.15556" lon="7.29084">
        <ele>318</ele>
        <time>2019-04-15T08:13:56Z</time>
      </trkpt>
      <trkpt lat="48.1554" lon="7.29068">
        <ele>318</ele>
        <time>2019-04-15T08:14:56Z</time>
      </trkpt>
      <trkpt lat="48.15535" lon="7.29059">
        <ele>318</ele>
        <time>2019-04-15T08:15:56Z</time>
      </trkpt>
      <trkpt lat="48.15525" lon="7.29048">
        <ele>318</ele>
        <time>2019-04-15T08:16:56Z</time>
      </trkpt>
      <trkpt lat="48.15499" lon="7.29028">
        <ele>317</ele>
        <time>2019-04-15T08:17:56Z</time>
      </trkpt>
      <trkpt lat="48.15481" lon="7.29017">
        <ele>317</ele>
        <time>2019-04-15T08:18:56Z</time>
      </trkpt>
      <trkpt lat="48.15461" lon="7.29004">
        <ele>316</ele>
        <time>2019-04-15T08:19:56Z</time>
      </trkpt>
      <trkpt lat="48.15444" lon="7.28994">
        <ele>316</ele>
        <time>2019-04-15T08:20:56Z</time>
      </trkpt>
      <trkpt lat="48.15427" lon="7.28985">
        <ele>315</ele>
        <time>2019-04-15T08:21:56Z</time>
      </trkpt>
      <trkpt lat="48.15409" lon="7.28977">
        <ele>315</ele>
        <time>2019-04-15T08:22:56Z</time>
      </trkpt>
      <trkpt lat="48.15397" lon="7.28973">
        <ele>314</ele>
        <time>2019-04-15T08:23:56Z</time>
      </trkpt>
      <trkpt lat="48.15386" lon="7.2897">
        <ele>314</ele>
        <time>2019-04-15T08:24:56Z</time>
      </trkpt>
      <trkpt lat="48.15359" lon="7.28959">
        <ele>314</ele>
        <time>2019-04-15T08:25:56Z</time>
      </trkpt>
      <trkpt lat="48.15336" lon="7.28948">
        <ele>314</ele>
        <time>2019-04-15T08:26:56Z</time>
      </trkpt>
      <trkpt lat="48.1532" lon="7.28938">
        <ele>314</ele>
        <time>2019-04-15T08:27:56Z</time>
      </trkpt>
      <trkpt lat="48.15311" lon="7.28929">
        <ele>314</ele>
        <time>2019-04-15T08:28:56Z</time>
      </trkpt>
      <trkpt lat="48.15304" lon="7.28921">
        <ele>314</ele>
        <time>2019-04-15T08:29:56Z</time>
      </trkpt>
      <trkpt lat="48.15296" lon="7.2891">
        <ele>315</ele>
        <time>2019-04-15T08:30:56Z</time>
      </trkpt>
      <trkpt lat="48.15288" lon="7.28898">
        <ele>316</ele>
        <time>2019-04-15T08:31:56Z</time>
      </trkpt>
      <trkpt lat="48.15278" lon="7.28886">
        <ele>317</ele>
        <time>2019-04-15T08:32:56Z</time>
      </trkpt>
      <trkpt lat="48.15262" lon="7.2887">
        <ele>317</ele>
        <time>2019-04-15T08:33:56Z</time>
      </trkpt>
      <trkpt lat="48.15246" lon="7.28853">
        <ele>318</ele>
        <time>2019-04-15T08:34:56Z</time>
      </trkpt>
      <trkpt lat="48.15227" lon="7.28832">
        <ele>319</ele>
        <time>2019-04-15T08:35:56Z</time>
      </trkpt>
      <trkpt lat="48.1521" lon="7.28809">
        <ele>321</ele>
        <time>2019-04-15T08:36:56Z</time>
      </trkpt>
      <trkpt lat="48.15193" lon="7.2879">
        <ele>323</ele>
        <time>2019-04-15T08:37:56Z</time>
      </trkpt>
      <trkpt lat="48.15178" lon="7.28773">
        <ele>324</ele>
        <time>2019-04-15T08:38:56Z</time>
      </trkpt>
      <trkpt lat="48.15168" lon="7.28764">
        <ele>325</ele>
        <time>2019-04-15T08:39:56Z</time>
      </trkpt>
      <trkpt lat="48.15161" lon="7.28759">
        <ele>325</ele>
        <time>2019-04-15T08:40:56Z</time>
      </trkpt>
      <trkpt lat="48.15152" lon="7.28752">
        <ele>326</ele>
        <time>2019-04-15T08:41:56Z</time>
      </trkpt>
      <trkpt lat="48.15143" lon="7.28748">
        <ele>327</ele>
        <time>2019-04-15T08:42:56Z</time>
      </trkpt>
      <trkpt lat="48.15124" lon="7.28743">
        <ele>328</ele>
        <time>2019-04-15T08:43:56Z</time>
      </trkpt>
      <trkpt lat="48.15099" lon="7.28738">
        <ele>329</ele>
        <time>2019-04-15T08:44:56Z</time>
      </trkpt>
      <trkpt lat="48.15073" lon="7.28731">
        <ele>330</ele>
        <time>2019-04-15T08:45:56Z</time>
      </trkpt>
      <trkpt lat="48.15066" lon="7.28729">
        <ele>330</ele>
        <time>2019-04-15T08:46:56Z</time>
      </trkpt>
      <trkpt lat="48.15056" lon="7.28725">
        <ele>330</ele>
        <time>2019-04-15T08:47:56Z</time>
      </trkpt>
      <trkpt lat="48.15044" lon="7.28718">
        <ele>331</ele>
        <time>2019-04-15T08:48:56Z</time>
      </trkpt>
      <trkpt lat="48.15039" lon="7.28715">
        <ele>331</ele>
        <time>2019-04-15T08:49:56Z</time>
      </trkpt>
      <trkpt lat="48.15029" lon="7.28707">
        <ele>331</ele>
        <time>2019-04-15T08:50:56Z</time>
      </trkpt>
      <trkpt lat="48.15015" lon="7.28697">
        <ele>331</ele>
        <time>2019-04-15T08:51:56Z</time>
      </trkpt>
      <trkpt lat="48.14998" lon="7.28686">
        <ele>330</ele>
        <time>2019-04-15T08:52:56Z</time>
      </trkpt>
      <trkpt lat="48.14984" lon="7.28677">
        <ele>329</ele>
        <time>2019-04-15T08:53:56Z</time>
      </trkpt>
      <trkpt lat="48.14964" lon="7.28666">
        <ele>327</ele>
        <time>2019-04-15T08:54:56Z</time>
      </trkpt>
      <trkpt lat="48.1495" lon="7.28659">
        <ele>326</ele>
        <time>2019-04-15T08:55:56Z</time>
      </trkpt>
      <trkpt lat="48.14937" lon="7.2865">
        <ele>325</ele>
        <time>2019-04-15T08:56:56Z</time>
      </trkpt>
      <trkpt lat="48.1491" lon="7.28629">
        <ele>322</ele>
        <time>2019-04-15T08:57:56Z</time>
      </trkpt>
      <trkpt lat="48.14888" lon="7.28612">
        <ele>320</ele>
        <time>2019-04-15T08:58:56Z</time>
      </trkpt>
      <trkpt lat="48.14879" lon="7.28606">
        <ele>318</ele>
        <time>2019-04-15T08:59:56Z</time>
      </trkpt>
      <trkpt lat="48.14874" lon="7.28604">
        <ele>318</ele>
        <time>2019-04-15T09:00:56Z</time>
      </trkpt>
      <trkpt lat="48.14871" lon="7.28602">
        <ele>317</ele>
        <time>2019-04-15T09:01:56Z</time>
      </trkpt>
      <trkpt lat="48.14862" lon="7.286">
        <ele>316</ele>
        <time>2019-04-15T09:02:56Z</time>
      </trkpt>
      <trkpt lat="48.14849" lon="7.28598">
        <ele>315</ele>
        <time>2019-04-15T09:03:56Z</time>
      </trkpt>
      <trkpt lat="48.14839" lon="7.28596">
        <ele>314</ele>
        <time>2019-04-15T09:04:56Z</time>
      </trkpt>
      <trkpt lat="48.14832" lon="7.28593">
        <ele>313</ele>
        <time>2019-04-15T09:05:56Z</time>
      </trkpt>
      <trkpt lat="48.14824" lon="7.28589">
        <ele>312</ele>
        <time>2019-04-15T09:06:56Z</time>
      </trkpt>
      <trkpt lat="48.14813" lon="7.2858">
        <ele>311</ele>
        <time>2019-04-15T09:07:56Z</time>
      </trkpt>
      <trkpt lat="48.14784" lon="7.28558">
        <ele>308</ele>
        <time>2019-04-15T09:08:56Z</time>
      </trkpt>
      <trkpt lat="48.1475" lon="7.28529">
        <ele>303</ele>
        <time>2019-04-15T09:09:56Z</time>
      </trkpt>
      <trkpt lat="48.14739" lon="7.28521">
        <ele>302</ele>
        <time>2019-04-15T09:10:56Z</time>
      </trkpt>
      <trkpt lat="48.14727" lon="7.28508">
        <ele>300</ele>
        <time>2019-04-15T09:11:56Z</time>
      </trkpt>
      <trkpt lat="48.14718" lon="7.285">
        <ele>299</ele>
        <time>2019-04-15T09:12:56Z</time>
      </trkpt>
      <trkpt lat="48.14711" lon="7.28494">
        <ele>298</ele>
        <time>2019-04-15T09:13:56Z</time>
      </trkpt>
      <trkpt lat="48.147" lon="7.28488">
        <ele>297</ele>
        <time>2019-04-15T09:14:56Z</time>
      </trkpt>
      <trkpt lat="48.1468" lon="7.28478">
        <ele>295</ele>
        <time>2019-04-15T09:15:56Z</time>
      </trkpt>
      <trkpt lat="48.14666" lon="7.28472">
        <ele>294</ele>
        <time>2019-04-15T09:16:56Z</time>
      </trkpt>
      <trkpt lat="48.14649" lon="7.28467">
        <ele>291</ele>
        <time>2019-04-15T09:17:56Z</time>
      </trkpt>
      <trkpt lat="48.14631" lon="7.28463">
        <ele>289</ele>
        <time>2019-04-15T09:18:56Z</time>
      </trkpt>
      <trkpt lat="48.14624" lon="7.2846">
        <ele>287</ele>
        <time>2019-04-15T09:19:56Z</time>
      </trkpt>
      <trkpt lat="48.1461" lon="7.28456">
        <ele>285</ele>
        <time>2019-04-15T09:20:56Z</time>
      </trkpt>
      <trkpt lat="48.14593" lon="7.28449">
        <ele>283</ele>
        <time>2019-04-15T09:21:56Z</time>
      </trkpt>
      <trkpt lat="48.1458" lon="7.28442">
        <ele>281</ele>
        <time>2019-04-15T09:22:56Z</time>
      </trkpt>
      <trkpt lat="48.14569" lon="7.28437">
        <ele>280</ele>
        <time>2019-04-15T09:23:56Z</time>
      </trkpt>
      <trkpt lat="48.14558" lon="7.28433">
        <ele>278</ele>
        <time>2019-04-15T09:24:56Z</time>
      </trkpt>
      <trkpt lat="48.14542" lon="7.2843">
        <ele>277</ele>
        <time>2019-04-15T09:25:56Z</time>
      </trkpt>
      <trkpt lat="48.14519" lon="7.28427">
        <ele>274</ele>
        <time>2019-04-15T09:26:56Z</time>
      </trkpt>
      <trkpt lat="48.14503" lon="7.28424">
        <ele>272</ele>
        <time>2019-04-15T09:27:56Z</time>
      </trkpt>
      <trkpt lat="48.14483" lon="7.28418">
        <ele>271</ele>
        <time>2019-04-15T09:28:56Z</time>
      </trkpt>
      <trkpt lat="48.14458" lon="7.28408">
        <ele>270</ele>
        <time>2019-04-15T09:29:56Z</time>
      </trkpt>
      <trkpt lat="48.14438" lon="7.28399">
        <ele>270</ele>
        <time>2019-04-15T09:30:56Z</time>
      </trkpt>
      <trkpt lat="48.14431" lon="7.28396">
        <ele>269</ele>
        <time>2019-04-15T09:31:56Z</time>
      </trkpt>
      <trkpt lat="48.14428" lon="7.28396">
        <ele>269</ele>
        <time>2019-04-15T09:32:56Z</time>
      </trkpt>
      <trkpt lat="48.14428" lon="7.28396">
        <ele>269</ele>
        <time>2019-04-15T09:33:56Z</time>
      </trkpt>
      <trkpt lat="48.14424" lon="7.28399">
        <ele>269</ele>
        <time>2019-04-15T09:34:56Z</time>
      </trkpt>
      <trkpt lat="48.14421" lon="7.28406">
        <ele>268</ele>
        <time>2019-04-15T09:35:56Z</time>
      </trkpt>
      <trkpt lat="48.14407" lon="7.28459">
        <ele>266</ele>
        <time>2019-04-15T09:36:56Z</time>
      </trkpt>
      <trkpt lat="48.14392" lon="7.28506">
        <ele>264</ele>
        <time>2019-04-15T09:37:56Z</time>
      </trkpt>
      <trkpt lat="48.14381" lon="7.28537">
        <ele>263</ele>
        <time>2019-04-15T09:38:56Z</time>
      </trkpt>
      <trkpt lat="48.1437" lon="7.28561">
        <ele>262</ele>
        <time>2019-04-15T09:39:56Z</time>
      </trkpt>
      <trkpt lat="48.1436" lon="7.28575">
        <ele>261</ele>
        <time>2019-04-15T09:40:56Z</time>
      </trkpt>
      <trkpt lat="48.14352" lon="7.28588">
        <ele>260</ele>
        <time>2019-04-15T09:41:56Z</time>
      </trkpt>
      <trkpt lat="48.14346" lon="7.28598">
        <ele>259</ele>
        <time>2019-04-15T09:42:56Z</time>
      </trkpt>
      <trkpt lat="48.14343" lon="7.28602">
        <ele>259</ele>
        <time>2019-04-15T09:43:56Z</time>
      </trkpt>
      <trkpt lat="48.14337" lon="7.28609">
        <ele>258</ele>
        <time>2019-04-15T09:44:56Z</time>
      </trkpt>
      <trkpt lat="48.1433" lon="7.28614">
        <ele>257</ele>
        <time>2019-04-15T09:45:56Z</time>
      </trkpt>
      <trkpt lat="48.14325" lon="7.28616">
        <ele>257</ele>
        <time>2019-04-15T09:46:56Z</time>
      </trkpt>
      <trkpt lat="48.14319" lon="7.28617">
        <ele>256</ele>
        <time>2019-04-15T09:47:56Z</time>
      </trkpt>
      <trkpt lat="48.14309" lon="7.28618">
        <ele>256</ele>
        <time>2019-04-15T09:48:56Z</time>
      </trkpt>
      <trkpt lat="48.14297" lon="7.28621">
        <ele>255</ele>
        <time>2019-04-15T09:49:56Z</time>
      </trkpt>
      <trkpt lat="48.14284" lon="7.28629">
        <ele>254</ele>
        <time>2019-04-15T09:50:56Z</time>
      </trkpt>
      <trkpt lat="48.14258" lon="7.28648">
        <ele>252</ele>
        <time>2019-04-15T09:51:56Z</time>
      </trkpt>
      <trkpt lat="48.14229" lon="7.28675">
        <ele>250</ele>
        <time>2019-04-15T09:52:56Z</time>
      </trkpt>
      <trkpt lat="48.14199" lon="7.28708">
        <ele>249</ele>
        <time>2019-04-15T09:53:56Z</time>
      </trkpt>
      <trkpt lat="48.14177" lon="7.28738">
        <ele>248</ele>
        <time>2019-04-15T09:54:56Z</time>
      </trkpt>
      <trkpt lat="48.14171" lon="7.28748">
        <ele>248</ele>
        <time>2019-04-15T09:55:56Z</time>
      </trkpt>
      <trkpt lat="48.14169" lon="7.28751">
        <ele>248</ele>
        <time>2019-04-15T09:56:56Z</time>
      </trkpt>
      <trkpt lat="48.14162" lon="7.28758">
        <ele>248</ele>
        <time>2019-04-15T09:57:56Z</time>
      </trkpt>
      <trkpt lat="48.14153" lon="7.28759">
        <ele>247</ele>
        <time>2019-04-15T09:58:56Z</time>
      </trkpt>
      <trkpt lat="48.14142" lon="7.2876">
        <ele>246</ele>
        <time>2019-04-15T09:59:56Z</time>
      </trkpt>
      <trkpt lat="48.14133" lon="7.28758">
        <ele>245</ele>
        <time>2019-04-15T10:00:56Z</time>
      </trkpt>
      <trkpt lat="48.14101" lon="7.28759">
        <ele>243</ele>
        <time>2019-04-15T10:01:56Z</time>
      </trkpt>
      <trkpt lat="48.14083" lon="7.28759">
        <ele>241</ele>
        <time>2019-04-15T10:02:56Z</time>
      </trkpt>
      <trkpt lat="48.14077" lon="7.28759">
        <ele>241</ele>
        <time>2019-04-15T10:03:56Z</time>
      </trkpt>
      <trkpt lat="48.14048" lon="7.28759">
        <ele>238</ele>
        <time>2019-04-15T10:04:56Z</time>
      </trkpt>
      <trkpt lat="48.14018" lon="7.2876">
        <ele>235</ele>
        <time>2019-04-15T10:05:56Z</time>
      </trkpt>
      <trkpt lat="48.13992" lon="7.28765">
        <ele>233</ele>
        <time>2019-04-15T10:06:56Z</time>
      </trkpt>
      <trkpt lat="48.13949" lon="7.28775">
        <ele>230</ele>
        <time>2019-04-15T10:07:56Z</time>
      </trkpt>
      <trkpt lat="48.13932" lon="7.28779">
        <ele>229</ele>
        <time>2019-04-15T10:08:56Z</time>
      </trkpt>
      <trkpt lat="48.13919" lon="7.2878">
        <ele>228</ele>
        <time>2019-04-15T10:09:56Z</time>
      </trkpt>
      <trkpt lat="48.13907" lon="7.2878">
        <ele>227</ele>
        <time>2019-04-15T10:10:56Z</time>
      </trkpt>
      <trkpt lat="48.13879" lon="7.28777">
        <ele>226</ele>
        <time>2019-04-15T10:11:56Z</time>
      </trkpt>
      <trkpt lat="48.13848" lon="7.28773">
        <ele>225</ele>
        <time>2019-04-15T10:12:56Z</time>
      </trkpt>
      <trkpt lat="48.13833" lon="7.28772">
        <ele>224</ele>
        <time>2019-04-15T10:13:56Z</time>
      </trkpt>
      <trkpt lat="48.13814" lon="7.28771">
        <ele>224</ele>
        <time>2019-04-15T10:14:56Z</time>
      </trkpt>
      <trkpt lat="48.13798" lon="7.28772">
        <ele>224</ele>
        <time>2019-04-15T10:15:56Z</time>
      </trkpt>
      <trkpt lat="48.13798" lon="7.28772">
        <ele>224</ele>
        <time>2019-04-15T10:16:56Z</time>
      </trkpt>
      <trkpt lat="48.13785" lon="7.28772">
        <ele>224</ele>
        <time>2019-04-15T10:17:56Z</time>
      </trkpt>
      <trkpt lat="48.13764" lon="7.28772">
        <ele>223</ele>
        <time>2019-04-15T10:18:56Z</time>
      </trkpt>
      <trkpt lat="48.13751" lon="7.28771">
        <ele>223</ele>
        <time>2019-04-15T10:19:56Z</time>
      </trkpt>
      <trkpt lat="48.13742" lon="7.28769">
        <ele>223</ele>
        <time>2019-04-15T10:20:56Z</time>
      </trkpt>
      <trkpt lat="48.13742" lon="7.28769">
        <ele>223</ele>
        <time>2019-04-15T10:21:56Z</time>
      </trkpt>
      <trkpt lat="48.13741" lon="7.28753">
        <ele>223</ele>
        <time>2019-04-15T10:22:56Z</time>
      </trkpt>
      <trkpt lat="48.13741" lon="7.28736">
        <ele>224</ele>
        <time>2019-04-15T10:23:56Z</time>
      </trkpt>
      <trkpt lat="48.1374" lon="7.28714">
        <ele>224</ele>
        <time>2019-04-15T10:24:56Z</time>
      </trkpt>
      <trkpt lat="48.13742" lon="7.28652">
        <ele>225</ele>
        <time>2019-04-15T10:25:56Z</time>
      </trkpt>
      <trkpt lat="48.13746" lon="7.28592">
        <ele>226</ele>
        <time>2019-04-15T10:26:56Z</time>
      </trkpt>
      <trkpt lat="48.13746" lon="7.28587">
        <ele>226</ele>
        <time>2019-04-15T10:27:56Z</time>
      </trkpt>
      <trkpt lat="48.13747" lon="7.2858">
        <ele>226</ele>
        <time>2019-04-15T10:28:56Z</time>
      </trkpt>
      <trkpt lat="48.13747" lon="7.28568">
        <ele>226</ele>
        <time>2019-04-15T10:29:56Z</time>
      </trkpt>
      <trkpt lat="48.13748" lon="7.28552">
        <ele>226</ele>
        <time>2019-04-15T10:30:56Z</time>
      </trkpt>
      <trkpt lat="48.13749" lon="7.28536">
        <ele>225</ele>
        <time>2019-04-15T10:31:56Z</time>
      </trkpt>
      <trkpt lat="48.1375" lon="7.28523">
        <ele>225</ele>
        <time>2019-04-15T10:32:56Z</time>
      </trkpt>
      <trkpt lat="48.1375" lon="7.28507">
        <ele>225</ele>
        <time>2019-04-15T10:33:56Z</time>
      </trkpt>
      <trkpt lat="48.13751" lon="7.28494">
        <ele>225</ele>
        <time>2019-04-15T10:34:56Z</time>
      </trkpt>
      <trkpt lat="48.13751" lon="7.28481">
        <ele>225</ele>
        <time>2019-04-15T10:35:56Z</time>
      </trkpt>
      <trkpt lat="48.13752" lon="7.28467">
        <ele>225</ele>
        <time>2019-04-15T10:36:56Z</time>
      </trkpt>
      <trkpt lat="48.13752" lon="7.28451">
        <ele>226</ele>
        <time>2019-04-15T10:37:56Z</time>
      </trkpt>
      <trkpt lat="48.13751" lon="7.28439">
        <ele>226</ele>
        <time>2019-04-15T10:38:56Z</time>
      </trkpt>
      <trkpt lat="48.1375" lon="7.2843">
        <ele>226</ele>
        <time>2019-04-15T10:39:56Z</time>
      </trkpt>
      <trkpt lat="48.13748" lon="7.28423">
        <ele>226</ele>
        <time>2019-04-15T10:40:56Z</time>
      </trkpt>
      <trkpt lat="48.13743" lon="7.28416">
        <ele>226</ele>
        <time>2019-04-15T10:41:56Z</time>
      </trkpt>
      <trkpt lat="48.13741" lon="7.2841">
        <ele>226</ele>
        <time>2019-04-15T10:42:56Z</time>
      </trkpt>
      <trkpt lat="48.13738" lon="7.284">
        <ele>226</ele>
        <time>2019-04-15T10:43:56Z</time>
      </trkpt>
      <trkpt lat="48.13737" lon="7.28397">
        <ele>226</ele>
        <time>2019-04-15T10:44:56Z</time>
      </trkpt>
      <trkpt lat="48.13736" lon="7.28392">
        <ele>226</ele>
        <time>2019-04-15T10:45:56Z</time>
      </trkpt>
      <trkpt lat="48.13736" lon="7.28392">
        <ele>226</ele>
        <time>2019-04-15T10:46:56Z</time>
      </trkpt>
      <trkpt lat="48.13742" lon="7.28388">
        <ele>226</ele>
        <time>2019-04-15T10:47:56Z</time>
      </trkpt>
      <trkpt lat="48.13742" lon="7.28388">
        <ele>226</ele>
        <time>2019-04-15T10:48:56Z</time>
      </trkpt>
      <trkpt lat="48.1374" lon="7.28383">
        <ele>226</ele>
        <time>2019-04-15T10:49:56Z</time>
      </trkpt>
      <trkpt lat="48.13736" lon="7.28374">
        <ele>227</ele>
        <time>2019-04-15T10:50:56Z</time>
      </trkpt>
      <trkpt lat="48.13733" lon="7.28362">
        <ele>227</ele>
        <time>2019-04-15T10:51:56Z</time>
      </trkpt>
      <trkpt lat="48.13729" lon="7.2835">
        <ele>227</ele>
        <time>2019-04-15T10:52:56Z</time>
      </trkpt>
      <trkpt lat="48.13726" lon="7.28331">
        <ele>227</ele>
        <time>2019-04-15T10:53:56Z</time>
      </trkpt>
      <trkpt lat="48.13724" lon="7.28308">
        <ele>227</ele>
        <time>2019-04-15T10:54:56Z</time>
      </trkpt>
      <trkpt lat="48.13722" lon="7.28292">
        <ele>227</ele>
        <time>2019-04-15T10:55:56Z</time>
      </trkpt>
      <trkpt lat="48.13717" lon="7.28277">
        <ele>227</ele>
        <time>2019-04-15T10:56:56Z</time>
      </trkpt>
      <trkpt lat="48.13712" lon="7.28267">
        <ele>227</ele>
        <time>2019-04-15T10:57:56Z</time>
      </trkpt>
      <trkpt lat="48.13698" lon="7.28246">
        <ele>227</ele>
        <time>2019-04-15T10:58:56Z</time>
      </trkpt>
      <trkpt lat="48.13687" lon="7.28229">
        <ele>227</ele>
        <time>2019-04-15T10:59:56Z</time>
      </trkpt>
      <trkpt lat="48.1368" lon="7.28218">
        <ele>227</ele>
        <time>2019-04-15T11:00:56Z</time>
      </trkpt>
      <trkpt lat="48.13666" lon="7.28191">
        <ele>228</ele>
        <time>2019-04-15T11:01:56Z</time>
      </trkpt>
      <trkpt lat="48.13659" lon="7.28177">
        <ele>228</ele>
        <time>2019-04-15T11:02:56Z</time>
      </trkpt>
      <trkpt lat="48.13651" lon="7.28169">
        <ele>228</ele>
        <time>2019-04-15T11:03:56Z</time>
      </trkpt>
      <trkpt lat="48.13651" lon="7.28169">
        <ele>228</ele>
        <time>2019-04-15T11:04:56Z</time>
      </trkpt>
      <trkpt lat="48.13645" lon="7.2816">
        <ele>228</ele>
        <time>2019-04-15T11:05:56Z</time>
      </trkpt>
      <trkpt lat="48.13645" lon="7.2816">
        <ele>228</ele>
        <time>2019-04-15T11:06:56Z</time>
      </trkpt>
      <trkpt lat="48.13646" lon="7.28159">
        <ele>228</ele>
        <time>2019-04-15T11:07:56Z</time>
      </trkpt>
      <trkpt lat="48.13649" lon="7.28152">
        <ele>228</ele>
        <time>2019-04-15T11:08:56Z</time>
      </trkpt>
      <trkpt lat="48.1365" lon="7.2815">
        <ele>228</ele>
        <time>2019-04-15T11:09:56Z</time>
      </trkpt>
      <trkpt lat="48.13655" lon="7.28143">
        <ele>228</ele>
        <time>2019-04-15T11:10:56Z</time>
      </trkpt>
      <trkpt lat="48.13664" lon="7.28123">
        <ele>228</ele>
        <time>2019-04-15T11:11:56Z</time>
      </trkpt>
      <trkpt lat="48.13669" lon="7.28109">
        <ele>228</ele>
        <time>2019-04-15T11:12:56Z</time>
      </trkpt>
      <trkpt lat="48.13673" lon="7.28095">
        <ele>228</ele>
        <time>2019-04-15T11:13:56Z</time>
      </trkpt>
      <trkpt lat="48.13675" lon="7.2809">
        <ele>228</ele>
        <time>2019-04-15T11:14:56Z</time>
      </trkpt>
      <trkpt lat="48.13677" lon="7.28077">
        <ele>228</ele>
        <time>2019-04-15T11:15:56Z</time>
      </trkpt>
      <trkpt lat="48.13677" lon="7.28066">
        <ele>228</ele>
        <time>2019-04-15T11:16:56Z</time>
      </trkpt>
      <trkpt lat="48.13678" lon="7.28064">
        <ele>228</ele>
        <time>2019-04-15T11:17:56Z</time>
      </trkpt>
      <trkpt lat="48.13678" lon="7.2806">
        <ele>228</ele>
        <time>2019-04-15T11:18:56Z</time>
      </trkpt>
      <trkpt lat="48.13679" lon="7.28056">
        <ele>228</ele>
        <time>2019-04-15T11:19:56Z</time>
      </trkpt>
      <trkpt lat="48.13679" lon="7.28056">
        <ele>228</ele>
        <time>2019-04-15T11:20:56Z</time>
      </trkpt>
      <trkpt lat="48.13687" lon="7.28052">
        <ele>228</ele>
        <time>2019-04-15T11:21:56Z</time>
      </trkpt>
      <trkpt lat="48.13694" lon="7.28044">
        <ele>228</ele>
        <time>2019-04-15T11:22:56Z</time>
      </trkpt>
      <trkpt lat="48.13706" lon="7.28031">
        <ele>227</ele>
        <time>2019-04-15T11:23:56Z</time>
      </trkpt>
      <trkpt lat="48.1372" lon="7.28018">
        <ele>227</ele>
        <time>2019-04-15T11:24:56Z</time>
      </trkpt>
      <trkpt lat="48.13748" lon="7.27987">
        <ele>227</ele>
        <time>2019-04-15T11:25:56Z</time>
      </trkpt>
      <trkpt lat="48.1377" lon="7.27961">
        <ele>227</ele>
        <time>2019-04-15T11:26:56Z</time>
      </trkpt>
      <trkpt lat="48.1379" lon="7.27932">
        <ele>227</ele>
        <time>2019-04-15T11:27:56Z</time>
      </trkpt>
      <trkpt lat="48.13814" lon="7.27899">
        <ele>228</ele>
        <time>2019-04-15T11:28:56Z</time>
      </trkpt>
      <trkpt lat="48.13834" lon="7.27873">
        <ele>229</ele>
        <time>2019-04-15T11:29:56Z</time>
      </trkpt>
      <trkpt lat="48.13847" lon="7.27856">
        <ele>230</ele>
        <time>2019-04-15T11:30:56Z</time>
      </trkpt>
      <trkpt lat="48.13857" lon="7.27841">
        <ele>230</ele>
        <time>2019-04-15T11:31:56Z</time>
      </trkpt>
      <trkpt lat="48.13865" lon="7.27828">
        <ele>231</ele>
        <time>2019-04-15T11:32:56Z</time>
      </trkpt>
      <trkpt lat="48.13872" lon="7.27812">
        <ele>232</ele>
        <time>2019-04-15T11:33:56Z</time>
      </trkpt>
      <trkpt lat="48.13877" lon="7.27796">
        <ele>232</ele>
        <time>2019-04-15T11:34:56Z</time>
      </trkpt>
      <trkpt lat="48.13881" lon="7.27781">
        <ele>233</ele>
        <time>2019-04-15T11:35:56Z</time>
      </trkpt>
      <trkpt lat="48.13885" lon="7.27768">
        <ele>233</ele>
        <time>2019-04-15T11:36:56Z</time>
      </trkpt>
      <trkpt lat="48.13892" lon="7.27753">
        <ele>234</ele>
        <time>2019-04-15T11:37:56Z</time>
      </trkpt>
      <trkpt lat="48.13904" lon="7.27732">
        <ele>235</ele>
        <time>2019-04-15T11:38:56Z</time>
      </trkpt>
      <trkpt lat="48.13915" lon="7.27713">
        <ele>236</ele>
        <time>2019-04-15T11:39:56Z</time>
      </trkpt>
      <trkpt lat="48.13925" lon="7.27696">
        <ele>238</ele>
        <time>2019-04-15T11:40:56Z</time>
      </trkpt>
      <trkpt lat="48.13936" lon="7.27675">
        <ele>241</ele>
        <time>2019-04-15T11:41:56Z</time>
      </trkpt>
      <trkpt lat="48.13949" lon="7.27649">
        <ele>243</ele>
        <time>2019-04-15T11:42:56Z</time>
      </trkpt>
      <trkpt lat="48.1396" lon="7.27627">
        <ele>245</ele>
        <time>2019-04-15T11:43:56Z</time>
      </trkpt>
      <trkpt lat="48.13968" lon="7.27613">
        <ele>247</ele>
        <time>2019-04-15T11:44:56Z</time>
      </trkpt>
      <trkpt lat="48.13975" lon="7.276">
        <ele>248</ele>
        <time>2019-04-15T11:45:56Z</time>
      </trkpt>
      <trkpt lat="48.13982" lon="7.27586">
        <ele>248</ele>
        <time>2019-04-15T11:46:56Z</time>
      </trkpt>
      <trkpt lat="48.13987" lon="7.27573">
        <ele>249</ele>
        <time>2019-04-15T11:47:56Z</time>
      </trkpt>
      <trkpt lat="48.13992" lon="7.27562">
        <ele>250</ele>
        <time>2019-04-15T11:48:56Z</time>
      </trkpt>
      <trkpt lat="48.14001" lon="7.27554">
        <ele>252</ele>
        <time>2019-04-15T11:49:56Z</time>
      </trkpt>
      <trkpt lat="48.14008" lon="7.27547">
        <ele>253</ele>
        <time>2019-04-15T11:50:56Z</time>
      </trkpt>
      <trkpt lat="48.14011" lon="7.27541">
        <ele>254</ele>
        <time>2019-04-15T11:51:56Z</time>
      </trkpt>
      <trkpt lat="48.14012" lon="7.27535">
        <ele>254</ele>
        <time>2019-04-15T11:52:56Z</time>
      </trkpt>
      <trkpt lat="48.14012" lon="7.27528">
        <ele>254</ele>
        <time>2019-04-15T11:53:56Z</time>
      </trkpt>
      <trkpt lat="48.1401" lon="7.27512">
        <ele>254</ele>
        <time>2019-04-15T11:54:56Z</time>
      </trkpt>
      <trkpt lat="48.14007" lon="7.27479">
        <ele>254</ele>
        <time>2019-04-15T11:55:56Z</time>
      </trkpt>
      <trkpt lat="48.14006" lon="7.27455">
        <ele>254</ele>
        <time>2019-04-15T11:56:56Z</time>
      </trkpt>
      <trkpt lat="48.14005" lon="7.27432">
        <ele>254</ele>
        <time>2019-04-15T11:57:56Z</time>
      </trkpt>
      <trkpt lat="48.14004" lon="7.27415">
        <ele>254</ele>
        <time>2019-04-15T11:58:56Z</time>
      </trkpt>
      <trkpt lat="48.14004" lon="7.27401">
        <ele>254</ele>
        <time>2019-04-15T11:59:56Z</time>
      </trkpt>
      <trkpt lat="48.14004" lon="7.27387">
        <ele>254</ele>
        <time>2019-04-15T12:00:56Z</time>
      </trkpt>
      <trkpt lat="48.14005" lon="7.27356">
        <ele>254</ele>
        <time>2019-04-15T12:01:56Z</time>
      </trkpt>
      <trkpt lat="48.14005" lon="7.27327">
        <ele>254</ele>
        <time>2019-04-15T12:02:56Z</time>
      </trkpt>
      <trkpt lat="48.14006" lon="7.27307">
        <ele>254</ele>
        <time>2019-04-15T12:03:56Z</time>
      </trkpt>
      <trkpt lat="48.14006" lon="7.27286">
        <ele>254</ele>
        <time>2019-04-15T12:04:56Z</time>
      </trkpt>
      <trkpt lat="48.14004" lon="7.27263">
        <ele>253</ele>
        <time>2019-04-15T12:05:56Z</time>
      </trkpt>
      <trkpt lat="48.14002" lon="7.27242">
        <ele>253</ele>
        <time>2019-04-15T12:06:56Z</time>
      </trkpt>
      <trkpt lat="48.13999" lon="7.27212">
        <ele>253</ele>
        <time>2019-04-15T12:07:56Z</time>
      </trkpt>
      <trkpt lat="48.13995" lon="7.27186">
        <ele>253</ele>
        <time>2019-04-15T12:08:56Z</time>
      </trkpt>
      <trkpt lat="48.13994" lon="7.2717">
        <ele>253</ele>
        <time>2019-04-15T12:09:56Z</time>
      </trkpt>
      <trkpt lat="48.13993" lon="7.27154">
        <ele>253</ele>
        <time>2019-04-15T12:10:56Z</time>
      </trkpt>
      <trkpt lat="48.13992" lon="7.27134">
        <ele>254</ele>
        <time>2019-04-15T12:11:56Z</time>
      </trkpt>
      <trkpt lat="48.13994" lon="7.27117">
        <ele>255</ele>
        <time>2019-04-15T12:12:56Z</time>
      </trkpt>
      <trkpt lat="48.13998" lon="7.27084">
        <ele>258</ele>
        <time>2019-04-15T12:13:56Z</time>
      </trkpt>
      <trkpt lat="48.14004" lon="7.27032">
        <ele>257</ele>
        <time>2019-04-15T12:14:56Z</time>
      </trkpt>
      <trkpt lat="48.14009" lon="7.26991">
        <ele>257</ele>
        <time>2019-04-15T12:15:56Z</time>
      </trkpt>
      <trkpt lat="48.14012" lon="7.26961">
        <ele>257</ele>
        <time>2019-04-15T12:16:56Z</time>
      </trkpt>
      <trkpt lat="48.14013" lon="7.26948">
        <ele>257</ele>
        <time>2019-04-15T12:17:56Z</time>
      </trkpt>
      <trkpt lat="48.14013" lon="7.26939">
        <ele>256</ele>
        <time>2019-04-15T12:18:56Z</time>
      </trkpt>
      <trkpt lat="48.14013" lon="7.26933">
        <ele>256</ele>
        <time>2019-04-15T12:19:56Z</time>
      </trkpt>
      <trkpt lat="48.14011" lon="7.26926">
        <ele>256</ele>
        <time>2019-04-15T12:20:56Z</time>
      </trkpt>
      <trkpt lat="48.14008" lon="7.26919">
        <ele>255</ele>
        <time>2019-04-15T12:21:56Z</time>
      </trkpt>
      <trkpt lat="48.14001" lon="7.26908">
        <ele>253</ele>
        <time>2019-04-15T12:22:56Z</time>
      </trkpt>
      <trkpt lat="48.13992" lon="7.269">
        <ele>252</ele>
        <time>2019-04-15T12:23:56Z</time>
      </trkpt>
      <trkpt lat="48.1398" lon="7.2689">
        <ele>251</ele>
        <time>2019-04-15T12:24:56Z</time>
      </trkpt>
      <trkpt lat="48.13973" lon="7.26884">
        <ele>250</ele>
        <time>2019-04-15T12:25:56Z</time>
      </trkpt>
      <trkpt lat="48.13972" lon="7.26881">
        <ele>250</ele>
        <time>2019-04-15T12:26:56Z</time>
      </trkpt>
      <trkpt lat="48.13969" lon="7.26875">
        <ele>249</ele>
        <time>2019-04-15T12:27:56Z</time>
      </trkpt>
      <trkpt lat="48.13968" lon="7.26866">
        <ele>249</ele>
        <time>2019-04-15T12:28:56Z</time>
      </trkpt>
      <trkpt lat="48.13968" lon="7.26846">
        <ele>249</ele>
        <time>2019-04-15T12:29:56Z</time>
      </trkpt>
      <trkpt lat="48.13969" lon="7.26833">
        <ele>250</ele>
        <time>2019-04-15T12:30:56Z</time>
      </trkpt>
      <trkpt lat="48.13969" lon="7.26833">
        <ele>250</ele>
        <time>2019-04-15T12:31:56Z</time>
      </trkpt>
      <trkpt lat="48.13969" lon="7.2682">
        <ele>249</ele>
        <time>2019-04-15T12:32:56Z</time>
      </trkpt>
      <trkpt lat="48.13971" lon="7.26803">
        <ele>249</ele>
        <time>2019-04-15T12:33:56Z</time>
      </trkpt>
      <trkpt lat="48.13976" lon="7.26749">
        <ele>249</ele>
        <time>2019-04-15T12:34:56Z</time>
      </trkpt>
      <trkpt lat="48.13977" lon="7.26711">
        <ele>249</ele>
        <time>2019-04-15T12:35:56Z</time>
      </trkpt>
      <trkpt lat="48.13977" lon="7.26702">
        <ele>249</ele>
        <time>2019-04-15T12:36:56Z</time>
      </trkpt>
      <trkpt lat="48.13977" lon="7.26691">
        <ele>248</ele>
        <time>2019-04-15T12:37:56Z</time>
      </trkpt>
      <trkpt lat="48.13976" lon="7.26679">
        <ele>248</ele>
        <time>2019-04-15T12:38:56Z</time>
      </trkpt>
      <trkpt lat="48.1397" lon="7.26643">
        <ele>249</ele>
        <time>2019-04-15T12:39:56Z</time>
      </trkpt>
      <trkpt lat="48.13962" lon="7.266">
        <ele>250</ele>
        <time>2019-04-15T12:40:56Z</time>
      </trkpt>
      <trkpt lat="48.13962" lon="7.26595">
        <ele>250</ele>
        <time>2019-04-15T12:41:56Z</time>
      </trkpt>
      <trkpt lat="48.13961" lon="7.26591">
        <ele>250</ele>
        <time>2019-04-15T12:42:56Z</time>
      </trkpt>
      <trkpt lat="48.13961" lon="7.26584">
        <ele>250</ele>
        <time>2019-04-15T12:43:56Z</time>
      </trkpt>
      <trkpt lat="48.1396" lon="7.26575">
        <ele>250</ele>
        <time>2019-04-15T12:44:56Z</time>
      </trkpt>
      <trkpt lat="48.1396" lon="7.26565">
        <ele>250</ele>
        <time>2019-04-15T12:45:56Z</time>
      </trkpt>
      <trkpt lat="48.13959" lon="7.26559">
        <ele>251</ele>
        <time>2019-04-15T12:46:56Z</time>
      </trkpt>
      <trkpt lat="48.13958" lon="7.2655">
        <ele>251</ele>
        <time>2019-04-15T12:47:56Z</time>
      </trkpt>
      <trkpt lat="48.13957" lon="7.26536">
        <ele>251</ele>
        <time>2019-04-15T12:48:56Z</time>
      </trkpt>
      <trkpt lat="48.13955" lon="7.26524">
        <ele>251</ele>
        <time>2019-04-15T12:49:56Z</time>
      </trkpt>
      <trkpt lat="48.13953" lon="7.26512">
        <ele>251</ele>
        <time>2019-04-15T12:50:56Z</time>
      </trkpt>
      <trkpt lat="48.13952" lon="7.26503">
        <ele>251</ele>
        <time>2019-04-15T12:51:56Z</time>
      </trkpt>
      <trkpt lat="48.13951" lon="7.26498">
        <ele>251</ele>
        <time>2019-04-15T12:52:56Z</time>
      </trkpt>
      <trkpt lat="48.13951" lon="7.26497">
        <ele>251</ele>
        <time>2019-04-15T12:53:56Z</time>
      </trkpt>
      <trkpt lat="48.1395" lon="7.26496">
        <ele>251</ele>
        <time>2019-04-15T12:54:56Z</time>
      </trkpt>
      <trkpt lat="48.13948" lon="7.26494">
        <ele>251</ele>
        <time>2019-04-15T12:55:56Z</time>
      </trkpt>
      <trkpt lat="48.13945" lon="7.2649">
        <ele>250</ele>
        <time>2019-04-15T12:56:56Z</time>
      </trkpt>
      <trkpt lat="48.1394" lon="7.26487">
        <ele>250</ele>
        <time>2019-04-15T12:57:56Z</time>
      </trkpt>
      <trkpt lat="48.13938" lon="7.26485">
        <ele>250</ele>
        <time>2019-04-15T12:58:56Z</time>
      </trkpt>
      <trkpt lat="48.13938" lon="7.26484">
        <ele>250</ele>
        <time>2019-04-15T12:59:56Z</time>
      </trkpt>
      <trkpt lat="48.13937" lon="7.2648">
        <ele>250</ele>
        <time>2019-04-15T13:00:56Z</time>
      </trkpt>
      <trkpt lat="48.13937" lon="7.26479">
        <ele>250</ele>
        <time>2019-04-15T13:01:56Z</time>
      </trkpt>
      <trkpt lat="48.13936" lon="7.26478">
        <ele>250</ele>
        <time>2019-04-15T13:02:56Z</time>
      </trkpt>
      <trkpt lat="48.13937" lon="7.26471">
        <ele>250</ele>
        <time>2019-04-15T13:03:56Z</time>
      </trkpt>
      <trkpt lat="48.13937" lon="7.26464">
        <ele>250</ele>
        <time>2019-04-15T13:04:56Z</time>
      </trkpt>
      <trkpt lat="48.13937" lon="7.26462">
        <ele>250</ele>
        <time>2019-04-15T13:05:56Z</time>
      </trkpt>
      <trkpt lat="48.13937" lon="7.2646">
        <ele>250</ele>
        <time>2019-04-15T13:06:56Z</time>
      </trkpt>
      <trkpt lat="48.13936" lon="7.26459">
        <ele>250</ele>
        <time>2019-04-15T13:07:56Z</time>
      </trkpt>
      <trkpt lat="48.13935" lon="7.26458">
        <ele>250</ele>
        <time>2019-04-15T13:08:56Z</time>
      </trkpt>
      <trkpt lat="48.13928" lon="7.26459">
        <ele>249</ele>
        <time>2019-04-15T13:09:56Z</time>
      </trkpt>
      <trkpt lat="48.13928" lon="7.26459">
        <ele>249</ele>
        <time>2019-04-15T13:10:56Z</time>
      </trkpt>
      <trkpt lat="48.13928" lon="7.26441">
        <ele>250</ele>
        <time>2019-04-15T13:11:56Z</time>
      </trkpt>
      <trkpt lat="48.13929" lon="7.26422">
        <ele>250</ele>
        <time>2019-04-15T13:12:56Z</time>
      </trkpt>
      <trkpt lat="48.13929" lon="7.2642">
        <ele>250</ele>
        <time>2019-04-15T13:13:56Z</time>
      </trkpt>
      <trkpt lat="48.13927" lon="7.26418">
        <ele>250</ele>
        <time>2019-04-15T13:14:56Z</time>
      </trkpt>
      <trkpt lat="48.13925" lon="7.26418">
        <ele>250</ele>
        <time>2019-04-15T13:15:56Z</time>
      </trkpt>
      <trkpt lat="48.13875" lon="7.26416">
        <ele>250</ele>
        <time>2019-04-15T13:16:56Z</time>
      </trkpt>
      <trkpt lat="48.13875" lon="7.26416">
        <ele>250</ele>
        <time>2019-04-15T13:17:56Z</time>
      </trkpt>
      <trkpt lat="48.13875" lon="7.26396">
        <ele>250</ele>
        <time>2019-04-15T13:18:56Z</time>
      </trkpt>
      <trkpt lat="48.13875" lon="7.26391">
        <ele>250</ele>
        <time>2019-04-15T13:19:56Z</time>
      </trkpt>
      <trkpt lat="48.13876" lon="7.26356">
        <ele>251</ele>
        <time>2019-04-15T13:20:56Z</time>
      </trkpt>
      <trkpt lat="48.13878" lon="7.26321">
        <ele>252</ele>
        <time>2019-04-15T13:21:56Z</time>
      </trkpt>
      <trkpt lat="48.13881" lon="7.26294">
        <ele>252</ele>
        <time>2019-04-15T13:22:56Z</time>
      </trkpt>
      <trkpt lat="48.13883" lon="7.26271">
        <ele>253</ele>
        <time>2019-04-15T13:23:56Z</time>
      </trkpt>
      <trkpt lat="48.13884" lon="7.26253">
        <ele>253</ele>
        <time>2019-04-15T13:24:56Z</time>
      </trkpt>
      <trkpt lat="48.13886" lon="7.26248">
        <ele>253</ele>
        <time>2019-04-15T13:25:56Z</time>
      </trkpt>
      <trkpt lat="48.13889" lon="7.26232">
        <ele>253</ele>
        <time>2019-04-15T13:26:56Z</time>
      </trkpt>
      <trkpt lat="48.13893" lon="7.26213">
        <ele>253</ele>
        <time>2019-04-15T13:27:56Z</time>
      </trkpt>
      <trkpt lat="48.13895" lon="7.26206">
        <ele>253</ele>
        <time>2019-04-15T13:28:56Z</time>
      </trkpt>
      <trkpt lat="48.13903" lon="7.2618">
        <ele>253</ele>
        <time>2019-04-15T13:29:56Z</time>
      </trkpt>
      <trkpt lat="48.13909" lon="7.26167">
        <ele>254</ele>
        <time>2019-04-15T13:30:56Z</time>
      </trkpt>
      <trkpt lat="48.13917" lon="7.26154">
        <ele>254</ele>
        <time>2019-04-15T13:31:56Z</time>
      </trkpt>
      <trkpt lat="48.13926" lon="7.26144">
        <ele>255</ele>
        <time>2019-04-15T13:32:56Z</time>
      </trkpt>
      <trkpt lat="48.13936" lon="7.26136">
        <ele>255</ele>
        <time>2019-04-15T13:33:56Z</time>
      </trkpt>
      <trkpt lat="48.13962" lon="7.26124">
        <ele>256</ele>
        <time>2019-04-15T13:34:56Z</time>
      </trkpt>
      <trkpt lat="48.13978" lon="7.26118">
        <ele>256</ele>
        <time>2019-04-15T13:35:56Z</time>
      </trkpt>
      <trkpt lat="48.13991" lon="7.26114">
        <ele>257</ele>
        <time>2019-04-15T13:36:56Z</time>
      </trkpt>
      <trkpt lat="48.13993" lon="7.26111">
        <ele>256</ele>
        <time>2019-04-15T13:37:56Z</time>
      </trkpt>
      <trkpt lat="48.13995" lon="7.26108">
        <ele>256</ele>
        <time>2019-04-15T13:38:56Z</time>
      </trkpt>
      <trkpt lat="48.13995" lon="7.26108">
        <ele>256</ele>
        <time>2019-04-15T13:39:56Z</time>
      </trkpt>
      <trkpt lat="48.13998" lon="7.26115">
        <ele>257</ele>
        <time>2019-04-15T13:40:56Z</time>
      </trkpt>
      <trkpt lat="48.14" lon="7.26118">
        <ele>258</ele>
        <time>2019-04-15T13:41:56Z</time>
      </trkpt>
      <trkpt lat="48.14001" lon="7.2612">
        <ele>258</ele>
        <time>2019-04-15T13:42:56Z</time>
      </trkpt>
      <trkpt lat="48.14004" lon="7.26121">
        <ele>258</ele>
        <time>2019-04-15T13:43:56Z</time>
      </trkpt>
      <trkpt lat="48.14011" lon="7.26122">
        <ele>259</ele>
        <time>2019-04-15T13:44:56Z</time>
      </trkpt>
      <trkpt lat="48.14019" lon="7.26122">
        <ele>259</ele>
        <time>2019-04-15T13:45:56Z</time>
      </trkpt>
      <trkpt lat="48.14033" lon="7.26123">
        <ele>260</ele>
        <time>2019-04-15T13:46:56Z</time>
      </trkpt>
      <trkpt lat="48.14042" lon="7.26123">
        <ele>261</ele>
        <time>2019-04-15T13:47:56Z</time>
      </trkpt>
      <trkpt lat="48.14063" lon="7.26123">
        <ele>262</ele>
        <time>2019-04-15T13:48:56Z</time>
      </trkpt>
      <trkpt lat="48.14077" lon="7.2612">
        <ele>262</ele>
        <time>2019-04-15T13:49:56Z</time>
      </trkpt>
      <trkpt lat="48.14096" lon="7.26118">
        <ele>263</ele>
        <time>2019-04-15T13:50:56Z</time>
      </trkpt>
      <trkpt lat="48.14103" lon="7.26116">
        <ele>263</ele>
        <time>2019-04-15T13:51:56Z</time>
      </trkpt>
      <trkpt lat="48.14109" lon="7.26114">
        <ele>263</ele>
        <time>2019-04-15T13:52:56Z</time>
      </trkpt>
      <trkpt lat="48.1413" lon="7.26108">
        <ele>262</ele>
        <time>2019-04-15T13:53:56Z</time>
      </trkpt>
      <trkpt lat="48.14146" lon="7.26105">
        <ele>263</ele>
        <time>2019-04-15T13:54:56Z</time>
      </trkpt>
      <trkpt lat="48.14146" lon="7.26105">
        <ele>263</ele>
        <time>2019-04-15T13:55:56Z</time>
      </trkpt>
      <trkpt lat="48.14148" lon="7.26104">
        <ele>262</ele>
        <time>2019-04-15T13:56:56Z</time>
      </trkpt>
      <trkpt lat="48.14165" lon="7.26103">
        <ele>263</ele>
        <time>2019-04-15T13:57:56Z</time>
      </trkpt>
      <trkpt lat="48.14172" lon="7.26103">
        <ele>263</ele>
        <time>2019-04-15T13:58:56Z</time>
      </trkpt>
      <trkpt lat="48.14178" lon="7.26102">
        <ele>263</ele>
        <time>2019-04-15T13:59:56Z</time>
      </trkpt>
      <trkpt lat="48.14187" lon="7.261">
        <ele>263</ele>
        <time>2019-04-15T14:00:56Z</time>
      </trkpt>
      <trkpt lat="48.14195" lon="7.26097">
        <ele>262</ele>
        <time>2019-04-15T14:01:56Z</time>
      </trkpt>
      <trkpt lat="48.14206" lon="7.26088">
        <ele>260</ele>
        <time>2019-04-15T14:02:56Z</time>
      </trkpt>
      <trkpt lat="48.1422" lon="7.26077">
        <ele>259</ele>
        <time>2019-04-15T14:03:56Z</time>
      </trkpt>
      <trkpt lat="48.1423" lon="7.26065">
        <ele>258</ele>
        <time>2019-04-15T14:04:56Z</time>
      </trkpt>
      <trkpt lat="48.1423" lon="7.26065">
        <ele>258</ele>
        <time>2019-04-15T14:05:56Z</time>
      </trkpt>
      <trkpt lat="48.14243" lon="7.26053">
        <ele>258</ele>
        <time>2019-04-15T14:06:56Z</time>
      </trkpt>
      <trkpt lat="48.14264" lon="7.26039">
        <ele>257</ele>
        <time>2019-04-15T14:07:56Z</time>
      </trkpt>
      <trkpt lat="48.14279" lon="7.26026">
        <ele>256</ele>
        <time>2019-04-15T14:08:56Z</time>
      </trkpt>
      <trkpt lat="48.14291" lon="7.26017">
        <ele>256</ele>
        <time>2019-04-15T14:09:56Z</time>
      </trkpt>
      <trkpt lat="48.14302" lon="7.26006">
        <ele>255</ele>
        <time>2019-04-15T14:10:56Z</time>
      </trkpt>
      <trkpt lat="48.14317" lon="7.25992">
        <ele>255</ele>
        <time>2019-04-15T14:11:56Z</time>
      </trkpt>
      <trkpt lat="48.14321" lon="7.25988">
        <ele>255</ele>
        <time>2019-04-15T14:12:56Z</time>
      </trkpt>
      <trkpt lat="48.14336" lon="7.25973">
        <ele>255</ele>
        <time>2019-04-15T14:13:56Z</time>
      </trkpt>
      <trkpt lat="48.14343" lon="7.25964">
        <ele>256</ele>
        <time>2019-04-15T14:14:56Z</time>
      </trkpt>
      <trkpt lat="48.14356" lon="7.2595">
        <ele>256</ele>
        <time>2019-04-15T14:15:56Z</time>
      </trkpt>
      <trkpt lat="48.14372" lon="7.25929">
        <ele>256</ele>
        <time>2019-04-15T14:16:56Z</time>
      </trkpt>
      <trkpt lat="48.14391" lon="7.25904">
        <ele>255</ele>
        <time>2019-04-15T14:17:56Z</time>
      </trkpt>
      <trkpt lat="48.14402" lon="7.25891">
        <ele>255</ele>
        <time>2019-04-15T14:18:56Z</time>
      </trkpt>
      <trkpt lat="48.14412" lon="7.25879">
        <ele>256</ele>
        <time>2019-04-15T14:19:56Z</time>
      </trkpt>
      <trkpt lat="48.14427" lon="7.25864">
        <ele>256</ele>
        <time>2019-04-15T14:20:56Z</time>
      </trkpt>
      <trkpt lat="48.14438" lon="7.25854">
        <ele>256</ele>
        <time>2019-04-15T14:21:56Z</time>
      </trkpt>
      <trkpt lat="48.14444" lon="7.25848">
        <ele>256</ele>
        <time>2019-04-15T14:22:56Z</time>
      </trkpt>
      <trkpt lat="48.1447" lon="7.25824">
        <ele>257</ele>
        <time>2019-04-15T14:23:56Z</time>
      </trkpt>
      <trkpt lat="48.1448" lon="7.25814">
        <ele>257</ele>
        <time>2019-04-15T14:24:56Z</time>
      </trkpt>
      <trkpt lat="48.14483" lon="7.25811">
        <ele>257</ele>
        <time>2019-04-15T14:25:56Z</time>
      </trkpt>
      <trkpt lat="48.14493" lon="7.25802">
        <ele>257</ele>
        <time>2019-04-15T14:26:56Z</time>
      </trkpt>
      <trkpt lat="48.1452" lon="7.25778">
        <ele>258</ele>
        <time>2019-04-15T14:27:56Z</time>
      </trkpt>
      <trkpt lat="48.14536" lon="7.25764">
        <ele>258</ele>
        <time>2019-04-15T14:28:56Z</time>
      </trkpt>
      <trkpt lat="48.14542" lon="7.25758">
        <ele>258</ele>
        <time>2019-04-15T14:29:56Z</time>
      </trkpt>
      <trkpt lat="48.14552" lon="7.25752">
        <ele>258</ele>
        <time>2019-04-15T14:30:56Z</time>
      </trkpt>
      <trkpt lat="48.1456" lon="7.25746">
        <ele>259</ele>
        <time>2019-04-15T14:31:56Z</time>
      </trkpt>
      <trkpt lat="48.14576" lon="7.25737">
        <ele>259</ele>
        <time>2019-04-15T14:32:56Z</time>
      </trkpt>
      <trkpt lat="48.14595" lon="7.25728">
        <ele>260</ele>
        <time>2019-04-15T14:33:56Z</time>
      </trkpt>
      <trkpt lat="48.14606" lon="7.25723">
        <ele>261</ele>
        <time>2019-04-15T14:34:56Z</time>
      </trkpt>
      <trkpt lat="48.14614" lon="7.25719">
        <ele>262</ele>
        <time>2019-04-15T14:35:56Z</time>
      </trkpt>
      <trkpt lat="48.1464" lon="7.25704">
        <ele>263</ele>
        <time>2019-04-15T14:36:56Z</time>
      </trkpt>
      <trkpt lat="48.14663" lon="7.25685">
        <ele>264</ele>
        <time>2019-04-15T14:37:56Z</time>
      </trkpt>
      <trkpt lat="48.14663" lon="7.25685">
        <ele>264</ele>
        <time>2019-04-15T14:38:56Z</time>
      </trkpt>
      <trkpt lat="48.14661" lon="7.25678">
        <ele>264</ele>
        <time>2019-04-15T14:39:56Z</time>
      </trkpt>
      <trkpt lat="48.14661" lon="7.25678">
        <ele>264</ele>
        <time>2019-04-15T14:40:56Z</time>
      </trkpt>
      <trkpt lat="48.14673" lon="7.25665">
        <ele>265</ele>
        <time>2019-04-15T14:41:56Z</time>
      </trkpt>
      <trkpt lat="48.14684" lon="7.25653">
        <ele>265</ele>
        <time>2019-04-15T14:42:56Z</time>
      </trkpt>
      <trkpt lat="48.14693" lon="7.25644">
        <ele>265</ele>
        <time>2019-04-15T14:43:56Z</time>
      </trkpt>
      <trkpt lat="48.14698" lon="7.25638">
        <ele>265</ele>
        <time>2019-04-15T14:44:56Z</time>
      </trkpt>
      <trkpt lat="48.147" lon="7.25635">
        <ele>265</ele>
        <time>2019-04-15T14:45:56Z</time>
      </trkpt>
      <trkpt lat="48.14702" lon="7.2563">
        <ele>265</ele>
        <time>2019-04-15T14:46:56Z</time>
      </trkpt>
      <trkpt lat="48.14706" lon="7.25625">
        <ele>264</ele>
        <time>2019-04-15T14:47:56Z</time>
      </trkpt>
      <trkpt lat="48.14714" lon="7.25618">
        <ele>264</ele>
        <time>2019-04-15T14:48:56Z</time>
      </trkpt>
      <trkpt lat="48.14726" lon="7.25612">
        <ele>264</ele>
        <time>2019-04-15T14:49:56Z</time>
      </trkpt>
      <trkpt lat="48.14734" lon="7.25607">
        <ele>264</ele>
        <time>2019-04-15T14:50:56Z</time>
      </trkpt>
      <trkpt lat="48.14744" lon="7.25603">
        <ele>263</ele>
        <time>2019-04-15T14:51:56Z</time>
      </trkpt>
      <trkpt lat="48.14751" lon="7.25601">
        <ele>263</ele>
        <time>2019-04-15T14:52:56Z</time>
      </trkpt>
      <trkpt lat="48.14762" lon="7.256">
        <ele>264</ele>
        <time>2019-04-15T14:53:56Z</time>
      </trkpt>
      <trkpt lat="48.14778" lon="7.256">
        <ele>266</ele>
        <time>2019-04-15T14:54:56Z</time>
      </trkpt>
      <trkpt lat="48.1479" lon="7.25601">
        <ele>267</ele>
        <time>2019-04-15T14:55:56Z</time>
      </trkpt>
      <trkpt lat="48.14804" lon="7.25601">
        <ele>268</ele>
        <time>2019-04-15T14:56:56Z</time>
      </trkpt>
      <trkpt lat="48.14813" lon="7.25599">
        <ele>268</ele>
        <time>2019-04-15T14:57:56Z</time>
      </trkpt>
      <trkpt lat="48.14825" lon="7.25594">
        <ele>269</ele>
        <time>2019-04-15T14:58:56Z</time>
      </trkpt>
      <trkpt lat="48.14833" lon="7.25585">
        <ele>268</ele>
        <time>2019-04-15T14:59:56Z</time>
      </trkpt>
      <trkpt lat="48.1484" lon="7.25576">
        <ele>268</ele>
        <time>2019-04-15T15:00:56Z</time>
      </trkpt>
      <trkpt lat="48.14848" lon="7.25566">
        <ele>269</ele>
        <time>2019-04-15T15:01:56Z</time>
      </trkpt>
      <trkpt lat="48.14856" lon="7.25553">
        <ele>269</ele>
        <time>2019-04-15T15:02:56Z</time>
      </trkpt>
      <trkpt lat="48.14862" lon="7.25543">
        <ele>269</ele>
        <time>2019-04-15T15:03:56Z</time>
      </trkpt>
      <trkpt lat="48.1487" lon="7.2553">
        <ele>269</ele>
        <time>2019-04-15T15:04:56Z</time>
      </trkpt>
      <trkpt lat="48.14877" lon="7.25517">
        <ele>268</ele>
        <time>2019-04-15T15:05:56Z</time>
      </trkpt>
      <trkpt lat="48.14884" lon="7.25506">
        <ele>268</ele>
        <time>2019-04-15T15:06:56Z</time>
      </trkpt>
      <trkpt lat="48.14892" lon="7.25493">
        <ele>268</ele>
        <time>2019-04-15T15:07:56Z</time>
      </trkpt>
      <trkpt lat="48.149" lon="7.25481">
        <ele>268</ele>
        <time>2019-04-15T15:08:56Z</time>
      </trkpt>
      <trkpt lat="48.14907" lon="7.25469">
        <ele>269</ele>
        <time>2019-04-15T15:09:56Z</time>
      </trkpt>
      <trkpt lat="48.14917" lon="7.25452">
        <ele>269</ele>
        <time>2019-04-15T15:10:56Z</time>
      </trkpt>
      <trkpt lat="48.14925" lon="7.25442">
        <ele>270</ele>
        <time>2019-04-15T15:11:56Z</time>
      </trkpt>
      <trkpt lat="48.14935" lon="7.25428">
        <ele>271</ele>
        <time>2019-04-15T15:12:56Z</time>
      </trkpt>
      <trkpt lat="48.14945" lon="7.25415">
        <ele>272</ele>
        <time>2019-04-15T15:13:56Z</time>
      </trkpt>
      <trkpt lat="48.14954" lon="7.25405">
        <ele>272</ele>
        <time>2019-04-15T15:14:56Z</time>
      </trkpt>
      <trkpt lat="48.1496" lon="7.25393">
        <ele>272</ele>
        <time>2019-04-15T15:15:56Z</time>
      </trkpt>
      <trkpt lat="48.14966" lon="7.25381">
        <ele>272</ele>
        <time>2019-04-15T15:16:56Z</time>
      </trkpt>
      <trkpt lat="48.14972" lon="7.25368">
        <ele>271</ele>
        <time>2019-04-15T15:17:56Z</time>
      </trkpt>
      <trkpt lat="48.14974" lon="7.25358">
        <ele>271</ele>
        <time>2019-04-15T15:18:56Z</time>
      </trkpt>
      <trkpt lat="48.14978" lon="7.25344">
        <ele>270</ele>
        <time>2019-04-15T15:19:56Z</time>
      </trkpt>
      <trkpt lat="48.14981" lon="7.25333">
        <ele>269</ele>
        <time>2019-04-15T15:20:56Z</time>
      </trkpt>
      <trkpt lat="48.14983" lon="7.25322">
        <ele>269</ele>
        <time>2019-04-15T15:21:56Z</time>
      </trkpt>
      <trkpt lat="48.14985" lon="7.25315">
        <ele>269</ele>
        <time>2019-04-15T15:22:56Z</time>
      </trkpt>
      <trkpt lat="48.14988" lon="7.25297">
        <ele>268</ele>
        <time>2019-04-15T15:23:56Z</time>
      </trkpt>
      <trkpt lat="48.1499" lon="7.25283">
        <ele>268</ele>
        <time>2019-04-15T15:24:56Z</time>
      </trkpt>
      <trkpt lat="48.14992" lon="7.25273">
        <ele>268</ele>
        <time>2019-04-15T15:25:56Z</time>
      </trkpt>
      <trkpt lat="48.14992" lon="7.25272">
        <ele>268</ele>
        <time>2019-04-15T15:26:56Z</time>
      </trkpt>
      <trkpt lat="48.14994" lon="7.25256">
        <ele>267</ele>
        <time>2019-04-15T15:27:56Z</time>
      </trkpt>
      <trkpt lat="48.14997" lon="7.2523">
        <ele>267</ele>
        <time>2019-04-15T15:28:56Z</time>
      </trkpt>
      <trkpt lat="48.15001" lon="7.25198">
        <ele>268</ele>
        <time>2019-04-15T15:29:56Z</time>
      </trkpt>
      <trkpt lat="48.15004" lon="7.25174">
        <ele>268</ele>
        <time>2019-04-15T15:30:56Z</time>
      </trkpt>
      <trkpt lat="48.15008" lon="7.25152">
        <ele>268</ele>
        <time>2019-04-15T15:31:56Z</time>
      </trkpt>
      <trkpt lat="48.15012" lon="7.2513">
        <ele>268</ele>
        <time>2019-04-15T15:32:56Z</time>
      </trkpt>
      <trkpt lat="48.1502" lon="7.25102">
        <ele>268</ele>
        <time>2019-04-15T15:33:56Z</time>
      </trkpt>
      <trkpt lat="48.1503" lon="7.25078">
        <ele>269</ele>
        <time>2019-04-15T15:34:56Z</time>
      </trkpt>
      <trkpt lat="48.15039" lon="7.25052">
        <ele>269</ele>
        <time>2019-04-15T15:35:56Z</time>
      </trkpt>
      <trkpt lat="48.15046" lon="7.25027">
        <ele>269</ele>
        <time>2019-04-15T15:36:56Z</time>
      </trkpt>
      <trkpt lat="48.1505" lon="7.25008">
        <ele>269</ele>
        <time>2019-04-15T15:37:56Z</time>
      </trkpt>
      <trkpt lat="48.15051" lon="7.24986">
        <ele>269</ele>
        <time>2019-04-15T15:38:56Z</time>
      </trkpt>
      <trkpt lat="48.1505" lon="7.24955">
        <ele>270</ele>
        <time>2019-04-15T15:39:56Z</time>
      </trkpt>
      <trkpt lat="48.15051" lon="7.24927">
        <ele>270</ele>
        <time>2019-04-15T15:40:56Z</time>
      </trkpt>
      <trkpt lat="48.1505" lon="7.249">
        <ele>271</ele>
        <time>2019-04-15T15:41:56Z</time>
      </trkpt>
      <trkpt lat="48.15052" lon="7.24869">
        <ele>272</ele>
        <time>2019-04-15T15:42:56Z</time>
      </trkpt>
      <trkpt lat="48.15064" lon="7.24818">
        <ele>273</ele>
        <time>2019-04-15T15:43:56Z</time>
      </trkpt>
      <trkpt lat="48.15077" lon="7.24777">
        <ele>273</ele>
        <time>2019-04-15T15:44:56Z</time>
      </trkpt>
      <trkpt lat="48.15099" lon="7.24695">
        <ele>273</ele>
        <time>2019-04-15T15:45:56Z</time>
      </trkpt>
      <trkpt lat="48.15117" lon="7.24643">
        <ele>275</ele>
        <time>2019-04-15T15:46:56Z</time>
      </trkpt>
      <trkpt lat="48.15145" lon="7.24596">
        <ele>277</ele>
        <time>2019-04-15T15:47:56Z</time>
      </trkpt>
      <trkpt lat="48.15167" lon="7.24566">
        <ele>277</ele>
        <time>2019-04-15T15:48:56Z</time>
      </trkpt>
      <trkpt lat="48.15175" lon="7.24559">
        <ele>278</ele>
        <time>2019-04-15T15:49:56Z</time>
      </trkpt>
      <trkpt lat="48.1519" lon="7.24551">
        <ele>278</ele>
        <time>2019-04-15T15:50:56Z</time>
      </trkpt>
      <trkpt lat="48.15204" lon="7.24551">
        <ele>277</ele>
        <time>2019-04-15T15:51:56Z</time>
      </trkpt>
      <trkpt lat="48.15218" lon="7.24555">
        <ele>277</ele>
        <time>2019-04-15T15:52:56Z</time>
      </trkpt>
      <trkpt lat="48.15234" lon="7.24559">
        <ele>276</ele>
        <time>2019-04-15T15:53:56Z</time>
      </trkpt>
      <trkpt lat="48.1526" lon="7.24567">
        <ele>276</ele>
        <time>2019-04-15T15:54:56Z</time>
      </trkpt>
      <trkpt lat="48.15276" lon="7.24572">
        <ele>276</ele>
        <time>2019-04-15T15:55:56Z</time>
      </trkpt>
      <trkpt lat="48.15299" lon="7.24579">
        <ele>277</ele>
        <time>2019-04-15T15:56:56Z</time>
      </trkpt>
      <trkpt lat="48.15311" lon="7.24582">
        <ele>277</ele>
        <time>2019-04-15T15:57:56Z</time>
      </trkpt>
      <trkpt lat="48.15315" lon="7.24583">
        <ele>277</ele>
        <time>2019-04-15T15:58:56Z</time>
      </trkpt>
      <trkpt lat="48.15324" lon="7.24586">
        <ele>278</ele>
        <time>2019-04-15T15:59:56Z</time>
      </trkpt>
      <trkpt lat="48.15327" lon="7.24586">
        <ele>278</ele>
        <time>2019-04-15T16:00:56Z</time>
      </trkpt>
      <trkpt lat="48.1533" lon="7.24583">
        <ele>278</ele>
        <time>2019-04-15T16:01:56Z</time>
      </trkpt>
      <trkpt lat="48.15335" lon="7.2458">
        <ele>278</ele>
        <time>2019-04-15T16:02:56Z</time>
      </trkpt>
      <trkpt lat="48.1534" lon="7.24576">
        <ele>280</ele>
        <time>2019-04-15T16:03:56Z</time>
      </trkpt>
      <trkpt lat="48.15345" lon="7.24575">
        <ele>281</ele>
        <time>2019-04-15T16:04:56Z</time>
      </trkpt>
      <trkpt lat="48.15353" lon="7.24575">
        <ele>283</ele>
        <time>2019-04-15T16:05:56Z</time>
      </trkpt>
      <trkpt lat="48.1536" lon="7.24575">
        <ele>285</ele>
        <time>2019-04-15T16:06:56Z</time>
      </trkpt>
      <trkpt lat="48.15364" lon="7.24573">
        <ele>286</ele>
        <time>2019-04-15T16:07:56Z</time>
      </trkpt>
      <trkpt lat="48.15371" lon="7.24564">
        <ele>287</ele>
        <time>2019-04-15T16:08:56Z</time>
      </trkpt>
      <trkpt lat="48.15371" lon="7.24564">
        <ele>287</ele>
        <time>2019-04-15T16:09:56Z</time>
      </trkpt>
      <trkpt lat="48.15373" lon="7.24561">
        <ele>287</ele>
        <time>2019-04-15T16:10:56Z</time>
      </trkpt>
      <trkpt lat="48.15389" lon="7.24527">
        <ele>287</ele>
        <time>2019-04-15T16:11:56Z</time>
      </trkpt>
      <trkpt lat="48.1539" lon="7.24525">
        <ele>287</ele>
        <time>2019-04-15T16:12:56Z</time>
      </trkpt>
      <trkpt lat="48.15405" lon="7.24498">
        <ele>286</ele>
        <time>2019-04-15T16:13:56Z</time>
      </trkpt>
      <trkpt lat="48.15413" lon="7.24474">
        <ele>286</ele>
        <time>2019-04-15T16:14:56Z</time>
      </trkpt>
      <trkpt lat="48.15418" lon="7.24453">
        <ele>286</ele>
        <time>2019-04-15T16:15:56Z</time>
      </trkpt>
      <trkpt lat="48.1542" lon="7.24431">
        <ele>286</ele>
        <time>2019-04-15T16:16:56Z</time>
      </trkpt>
      <trkpt lat="48.15422" lon="7.24331">
        <ele>292</ele>
        <time>2019-04-15T16:17:56Z</time>
      </trkpt>
      <trkpt lat="48.15423" lon="7.2424">
        <ele>293</ele>
        <time>2019-04-15T16:18:56Z</time>
      </trkpt>
      <trkpt lat="48.15423" lon="7.24202">
        <ele>292</ele>
        <time>2019-04-15T16:19:56Z</time>
      </trkpt>
      <trkpt lat="48.15423" lon="7.24202">
        <ele>292</ele>
        <time>2019-04-15T16:20:56Z</time>
      </trkpt>
      <trkpt lat="48.15423" lon="7.24174">
        <ele>291</ele>
        <time>2019-04-15T16:21:56Z</time>
      </trkpt>
      <trkpt lat="48.15423" lon="7.24154">
        <ele>291</ele>
        <time>2019-04-15T16:22:56Z</time>
      </trkpt>
      <trkpt lat="48.15423" lon="7.24116">
        <ele>293</ele>
        <time>2019-04-15T16:23:56Z</time>
      </trkpt>
      <trkpt lat="48.15419" lon="7.24063">
        <ele>294</ele>
        <time>2019-04-15T16:24:56Z</time>
      </trkpt>
      <trkpt lat="48.15414" lon="7.24009">
        <ele>296</ele>
        <time>2019-04-15T16:25:56Z</time>
      </trkpt>
      <trkpt lat="48.15405" lon="7.23936">
        <ele>298</ele>
        <time>2019-04-15T16:26:56Z</time>
      </trkpt>
      <trkpt lat="48.15395" lon="7.23872">
        <ele>299</ele>
        <time>2019-04-15T16:27:56Z</time>
      </trkpt>
      <trkpt lat="48.15387" lon="7.23816">
        <ele>299</ele>
        <time>2019-04-15T16:28:56Z</time>
      </trkpt>
      <trkpt lat="48.15381" lon="7.23766">
        <ele>299</ele>
        <time>2019-04-15T16:29:56Z</time>
      </trkpt>
      <trkpt lat="48.15378" lon="7.23711">
        <ele>300</ele>
        <time>2019-04-15T16:30:56Z</time>
      </trkpt>
      <trkpt lat="48.15378" lon="7.23664">
        <ele>301</ele>
        <time>2019-04-15T16:31:56Z</time>
      </trkpt>
      <trkpt lat="48.15379" lon="7.23635">
        <ele>301</ele>
        <time>2019-04-15T16:32:56Z</time>
      </trkpt>
      <trkpt lat="48.15382" lon="7.23621">
        <ele>301</ele>
        <time>2019-04-15T16:33:56Z</time>
      </trkpt>
      <trkpt lat="48.15384" lon="7.23608">
        <ele>302</ele>
        <time>2019-04-15T16:34:56Z</time>
      </trkpt>
      <trkpt lat="48.15394" lon="7.23584">
        <ele>304</ele>
        <time>2019-04-15T16:35:56Z</time>
      </trkpt>
      <trkpt lat="48.15409" lon="7.23551">
        <ele>305</ele>
        <time>2019-04-15T16:36:56Z</time>
      </trkpt>
      <trkpt lat="48.15428" lon="7.23521">
        <ele>308</ele>
        <time>2019-04-15T16:37:56Z</time>
      </trkpt>
      <trkpt lat="48.15456" lon="7.23475">
        <ele>312</ele>
        <time>2019-04-15T16:38:56Z</time>
      </trkpt>
      <trkpt lat="48.15478" lon="7.23433">
        <ele>313</ele>
        <time>2019-04-15T16:39:56Z</time>
      </trkpt>
      <trkpt lat="48.15478" lon="7.23433">
        <ele>313</ele>
        <time>2019-04-15T16:40:56Z</time>
      </trkpt>
      <trkpt lat="48.15492" lon="7.23397">
        <ele>312</ele>
        <time>2019-04-15T16:41:56Z</time>
      </trkpt>
      <trkpt lat="48.15504" lon="7.23361">
        <ele>310</ele>
        <time>2019-04-15T16:42:56Z</time>
      </trkpt>
      <trkpt lat="48.15512" lon="7.23326">
        <ele>308</ele>
        <time>2019-04-15T16:43:56Z</time>
      </trkpt>
      <trkpt lat="48.15521" lon="7.23298">
        <ele>309</ele>
        <time>2019-04-15T16:44:56Z</time>
      </trkpt>
      <trkpt lat="48.15526" lon="7.23278">
        <ele>309</ele>
        <time>2019-04-15T16:45:56Z</time>
      </trkpt>
      <trkpt lat="48.15542" lon="7.23266">
        <ele>310</ele>
        <time>2019-04-15T16:46:56Z</time>
      </trkpt>
      <trkpt lat="48.1556" lon="7.23249">
        <ele>311</ele>
        <time>2019-04-15T16:47:56Z</time>
      </trkpt>
      <trkpt lat="48.1558" lon="7.23233">
        <ele>312</ele>
        <time>2019-04-15T16:48:56Z</time>
      </trkpt>
      <trkpt lat="48.15594" lon="7.23223">
        <ele>313</ele>
        <time>2019-04-15T16:49:56Z</time>
      </trkpt>
      <trkpt lat="48.15604" lon="7.23213">
        <ele>314</ele>
        <time>2019-04-15T16:50:56Z</time>
      </trkpt>
      <trkpt lat="48.15611" lon="7.23199">
        <ele>314</ele>
        <time>2019-04-15T16:51:56Z</time>
      </trkpt>
      <trkpt lat="48.15619" lon="7.23177">
        <ele>315</ele>
        <time>2019-04-15T16:52:56Z</time>
      </trkpt>
      <trkpt lat="48.15619" lon="7.23177">
        <ele>315</ele>
        <time>2019-04-15T16:53:56Z</time>
      </trkpt>
      <trkpt lat="48.15621" lon="7.23171">
        <ele>315</ele>
        <time>2019-04-15T16:54:56Z</time>
      </trkpt>
      <trkpt lat="48.15631" lon="7.23142">
        <ele>316</ele>
        <time>2019-04-15T16:55:56Z</time>
      </trkpt>
      <trkpt lat="48.15641" lon="7.23117">
        <ele>316</ele>
        <time>2019-04-15T16:56:56Z</time>
      </trkpt>
      <trkpt lat="48.15657" lon="7.23088">
        <ele>318</ele>
        <time>2019-04-15T16:57:56Z</time>
      </trkpt>
      <trkpt lat="48.15673" lon="7.23054">
        <ele>320</ele>
        <time>2019-04-15T16:58:56Z</time>
      </trkpt>
      <trkpt lat="48.15684" lon="7.23022">
        <ele>322</ele>
        <time>2019-04-15T16:59:56Z</time>
      </trkpt>
      <trkpt lat="48.15692" lon="7.22985">
        <ele>323</ele>
        <time>2019-04-15T17:00:56Z</time>
      </trkpt>
      <trkpt lat="48.15695" lon="7.22959">
        <ele>322</ele>
        <time>2019-04-15T17:01:56Z</time>
      </trkpt>
      <trkpt lat="48.15696" lon="7.22926">
        <ele>321</ele>
        <time>2019-04-15T17:02:56Z</time>
      </trkpt>
      <trkpt lat="48.15695" lon="7.22888">
        <ele>319</ele>
        <time>2019-04-15T17:03:56Z</time>
      </trkpt>
      <trkpt lat="48.15697" lon="7.22849">
        <ele>319</ele>
        <time>2019-04-15T17:04:56Z</time>
      </trkpt>
      <trkpt lat="48.15699" lon="7.22827">
        <ele>318</ele>
        <time>2019-04-15T17:05:56Z</time>
      </trkpt>
      <trkpt lat="48.15701" lon="7.22812">
        <ele>318</ele>
        <time>2019-04-15T17:06:56Z</time>
      </trkpt>
      <trkpt lat="48.15702" lon="7.22807">
        <ele>319</ele>
        <time>2019-04-15T17:07:56Z</time>
      </trkpt>
      <trkpt lat="48.15703" lon="7.22802">
        <ele>319</ele>
        <time>2019-04-15T17:08:56Z</time>
      </trkpt>
      <trkpt lat="48.15713" lon="7.22786">
        <ele>321</ele>
        <time>2019-04-15T17:09:56Z</time>
      </trkpt>
      <trkpt lat="48.15723" lon="7.22766">
        <ele>322</ele>
        <time>2019-04-15T17:10:56Z</time>
      </trkpt>
      <trkpt lat="48.1573" lon="7.22746">
        <ele>322</ele>
        <time>2019-04-15T17:11:56Z</time>
      </trkpt>
      <trkpt lat="48.15736" lon="7.22722">
        <ele>322</ele>
        <time>2019-04-15T17:12:56Z</time>
      </trkpt>
      <trkpt lat="48.15748" lon="7.22685">
        <ele>321</ele>
        <time>2019-04-15T17:13:56Z</time>
      </trkpt>
      <trkpt lat="48.15754" lon="7.22654">
        <ele>322</ele>
        <time>2019-04-15T17:14:56Z</time>
      </trkpt>
      <trkpt lat="48.15757" lon="7.22614">
        <ele>324</ele>
        <time>2019-04-15T17:15:56Z</time>
      </trkpt>
      <trkpt lat="48.15759" lon="7.22571">
        <ele>326</ele>
        <time>2019-04-15T17:16:56Z</time>
      </trkpt>
      <trkpt lat="48.1576" lon="7.22498">
        <ele>330</ele>
        <time>2019-04-15T17:17:56Z</time>
      </trkpt>
      <trkpt lat="48.15756" lon="7.2242">
        <ele>326</ele>
        <time>2019-04-15T17:18:56Z</time>
      </trkpt>
      <trkpt lat="48.15734" lon="7.22287">
        <ele>326</ele>
        <time>2019-04-15T17:19:56Z</time>
      </trkpt>
      <trkpt lat="48.15723" lon="7.22218">
        <ele>326</ele>
        <time>2019-04-15T17:20:56Z</time>
      </trkpt>
      <trkpt lat="48.15719" lon="7.2214">
        <ele>328</ele>
        <time>2019-04-15T17:21:56Z</time>
      </trkpt>
      <trkpt lat="48.15713" lon="7.21934">
        <ele>340</ele>
        <time>2019-04-15T17:22:56Z</time>
      </trkpt>
      <trkpt lat="48.15712" lon="7.21751">
        <ele>337</ele>
        <time>2019-04-15T17:23:56Z</time>
      </trkpt>
      <trkpt lat="48.15712" lon="7.21751">
        <ele>337</ele>
        <time>2019-04-15T17:24:56Z</time>
      </trkpt>
      <trkpt lat="48.15707" lon="7.21754">
        <ele>335</ele>
        <time>2019-04-15T17:25:56Z</time>
      </trkpt>
      <trkpt lat="48.15696" lon="7.21758">
        <ele>331</ele>
        <time>2019-04-15T17:26:56Z</time>
      </trkpt>
      <trkpt lat="48.15683" lon="7.21761">
        <ele>326</ele>
        <time>2019-04-15T17:27:56Z</time>
      </trkpt>
      <trkpt lat="48.15679" lon="7.21762">
        <ele>324</ele>
        <time>2019-04-15T17:28:56Z</time>
      </trkpt>
      <trkpt lat="48.15674" lon="7.21763">
        <ele>322</ele>
        <time>2019-04-15T17:29:56Z</time>
      </trkpt>
      <trkpt lat="48.15647" lon="7.2177">
        <ele>322</ele>
        <time>2019-04-15T17:30:56Z</time>
      </trkpt>
      <trkpt lat="48.1563" lon="7.21767">
        <ele>324</ele>
        <time>2019-04-15T17:31:56Z</time>
      </trkpt>
      <trkpt lat="48.1563" lon="7.21767">
        <ele>324</ele>
        <time>2019-04-15T17:32:56Z</time>
      </trkpt>
      <trkpt lat="48.15616" lon="7.21753">
        <ele>326</ele>
        <time>2019-04-15T17:33:56Z</time>
      </trkpt>
      <trkpt lat="48.15615" lon="7.21737">
        <ele>327</ele>
        <time>2019-04-15T17:34:56Z</time>
      </trkpt>
      <trkpt lat="48.15615" lon="7.21721">
        <ele>327</ele>
        <time>2019-04-15T17:35:56Z</time>
      </trkpt>
      <trkpt lat="48.15613" lon="7.21704">
        <ele>328</ele>
        <time>2019-04-15T17:36:56Z</time>
      </trkpt>
      <trkpt lat="48.15611" lon="7.21683">
        <ele>329</ele>
        <time>2019-04-15T17:37:56Z</time>
      </trkpt>
      <trkpt lat="48.15608" lon="7.21657">
        <ele>330</ele>
        <time>2019-04-15T17:38:56Z</time>
      </trkpt>
      <trkpt lat="48.15605" lon="7.21639">
        <ele>331</ele>
        <time>2019-04-15T17:39:56Z</time>
      </trkpt>
      <trkpt lat="48.15602" lon="7.21621">
        <ele>332</ele>
        <time>2019-04-15T17:40:56Z</time>
      </trkpt>
      <trkpt lat="48.15597" lon="7.21602">
        <ele>333</ele>
        <time>2019-04-15T17:41:56Z</time>
      </trkpt>
      <trkpt lat="48.15593" lon="7.21586">
        <ele>334</ele>
        <time>2019-04-15T17:42:56Z</time>
      </trkpt>
      <trkpt lat="48.15588" lon="7.21565">
        <ele>334</ele>
        <time>2019-04-15T17:43:56Z</time>
      </trkpt>
      <trkpt lat="48.1558" lon="7.21538">
        <ele>335</ele>
        <time>2019-04-15T17:44:56Z</time>
      </trkpt>
      <trkpt lat="48.15546" lon="7.21421">
        <ele>341</ele>
        <time>2019-04-15T17:45:56Z</time>
      </trkpt>
      <trkpt lat="48.15536" lon="7.21386">
        <ele>341</ele>
        <time>2019-04-15T17:46:56Z</time>
      </trkpt>
      <trkpt lat="48.15522" lon="7.2134">
        <ele>341</ele>
        <time>2019-04-15T17:47:56Z</time>
      </trkpt>
      <trkpt lat="48.15517" lon="7.21321">
        <ele>340</ele>
        <time>2019-04-15T17:48:56Z</time>
      </trkpt>
      <trkpt lat="48.15508" lon="7.21296">
        <ele>340</ele>
        <time>2019-04-15T17:49:56Z</time>
      </trkpt>
      <trkpt lat="48.15502" lon="7.21278">
        <ele>339</ele>
        <time>2019-04-15T17:50:56Z</time>
      </trkpt>
      <trkpt lat="48.15497" lon="7.21268">
        <ele>340</ele>
        <time>2019-04-15T17:51:56Z</time>
      </trkpt>
      <trkpt lat="48.15493" lon="7.21257">
        <ele>340</ele>
        <time>2019-04-15T17:52:56Z</time>
      </trkpt>
      <trkpt lat="48.15486" lon="7.2124">
        <ele>342</ele>
        <time>2019-04-15T17:53:56Z</time>
      </trkpt>
      <trkpt lat="48.15475" lon="7.21215">
        <ele>344</ele>
        <time>2019-04-15T17:54:56Z</time>
      </trkpt>
      <trkpt lat="48.15442" lon="7.21137">
        <ele>344</ele>
        <time>2019-04-15T17:55:56Z</time>
      </trkpt>
      <trkpt lat="48.15433" lon="7.21116">
        <ele>343</ele>
        <time>2019-04-15T17:56:56Z</time>
      </trkpt>
      <trkpt lat="48.1538" lon="7.20994">
        <ele>347</ele>
        <time>2019-04-15T17:57:56Z</time>
      </trkpt>
      <trkpt lat="48.15363" lon="7.20955">
        <ele>346</ele>
        <time>2019-04-15T17:58:56Z</time>
      </trkpt>
      <trkpt lat="48.15359" lon="7.20945">
        <ele>345</ele>
        <time>2019-04-15T17:59:56Z</time>
      </trkpt>
      <trkpt lat="48.15356" lon="7.20936">
        <ele>344</ele>
        <time>2019-04-15T18:00:56Z</time>
      </trkpt>
      <trkpt lat="48.15353" lon="7.20928">
        <ele>343</ele>
        <time>2019-04-15T18:01:56Z</time>
      </trkpt>
      <trkpt lat="48.1535" lon="7.20919">
        <ele>342</ele>
        <time>2019-04-15T18:02:56Z</time>
      </trkpt>
      <trkpt lat="48.15348" lon="7.20913">
        <ele>341</ele>
        <time>2019-04-15T18:03:56Z</time>
      </trkpt>
      <trkpt lat="48.15346" lon="7.20907">
        <ele>341</ele>
        <time>2019-04-15T18:04:56Z</time>
      </trkpt>
      <trkpt lat="48.15344" lon="7.20898">
        <ele>341</ele>
        <time>2019-04-15T18:05:56Z</time>
      </trkpt>
      <trkpt lat="48.15341" lon="7.20886">
        <ele>341</ele>
        <time>2019-04-15T18:06:56Z</time>
      </trkpt>
      <trkpt lat="48.15339" lon="7.20876">
        <ele>340</ele>
        <time>2019-04-15T18:07:56Z</time>
      </trkpt>
      <trkpt lat="48.15337" lon="7.20866">
        <ele>340</ele>
        <time>2019-04-15T18:08:56Z</time>
      </trkpt>
      <trkpt lat="48.15336" lon="7.20858">
        <ele>339</ele>
        <time>2019-04-15T18:09:56Z</time>
      </trkpt>
      <trkpt lat="48.15335" lon="7.20849">
        <ele>339</ele>
        <time>2019-04-15T18:10:56Z</time>
      </trkpt>
      <trkpt lat="48.15334" lon="7.20839">
        <ele>338</ele>
        <time>2019-04-15T18:11:56Z</time>
      </trkpt>
      <trkpt lat="48.15333" lon="7.20832">
        <ele>338</ele>
        <time>2019-04-15T18:12:56Z</time>
      </trkpt>
      <trkpt lat="48.15332" lon="7.20822">
        <ele>339</ele>
        <time>2019-04-15T18:13:56Z</time>
      </trkpt>
      <trkpt lat="48.15332" lon="7.20813">
        <ele>340</ele>
        <time>2019-04-15T18:14:56Z</time>
      </trkpt>
      <trkpt lat="48.15331" lon="7.20805">
        <ele>340</ele>
        <time>2019-04-15T18:15:56Z</time>
      </trkpt>
      <trkpt lat="48.15331" lon="7.20786">
        <ele>342</ele>
        <time>2019-04-15T18:16:56Z</time>
      </trkpt>
      <trkpt lat="48.15331" lon="7.2078">
        <ele>342</ele>
        <time>2019-04-15T18:17:56Z</time>
      </trkpt>
      <trkpt lat="48.15331" lon="7.20772">
        <ele>343</ele>
        <time>2019-04-15T18:18:56Z</time>
      </trkpt>
      <trkpt lat="48.15332" lon="7.20764">
        <ele>343</ele>
        <time>2019-04-15T18:19:56Z</time>
      </trkpt>
      <trkpt lat="48.15333" lon="7.20754">
        <ele>344</ele>
        <time>2019-04-15T18:20:56Z</time>
      </trkpt>
      <trkpt lat="48.15334" lon="7.20745">
        <ele>345</ele>
        <time>2019-04-15T18:21:56Z</time>
      </trkpt>
      <trkpt lat="48.15335" lon="7.20738">
        <ele>346</ele>
        <time>2019-04-15T18:22:56Z</time>
      </trkpt>
      <trkpt lat="48.15336" lon="7.20731">
        <ele>347</ele>
        <time>2019-04-15T18:23:56Z</time>
      </trkpt>
      <trkpt lat="48.15337" lon="7.20723">
        <ele>348</ele>
        <time>2019-04-15T18:24:56Z</time>
      </trkpt>
      <trkpt lat="48.15339" lon="7.20714">
        <ele>350</ele>
        <time>2019-04-15T18:25:56Z</time>
      </trkpt>
      <trkpt lat="48.15341" lon="7.20705">
        <ele>351</ele>
        <time>2019-04-15T18:26:56Z</time>
      </trkpt>
      <trkpt lat="48.15343" lon="7.20696">
        <ele>352</ele>
        <time>2019-04-15T18:27:56Z</time>
      </trkpt>
      <trkpt lat="48.15345" lon="7.20689">
        <ele>353</ele>
        <time>2019-04-15T18:28:56Z</time>
      </trkpt>
      <trkpt lat="48.15347" lon="7.20682">
        <ele>353</ele>
        <time>2019-04-15T18:29:56Z</time>
      </trkpt>
      <trkpt lat="48.15355" lon="7.20657">
        <ele>355</ele>
        <time>2019-04-15T18:30:56Z</time>
      </trkpt>
      <trkpt lat="48.15375" lon="7.20589">
        <ele>360</ele>
        <time>2019-04-15T18:31:56Z</time>
      </trkpt>
      <trkpt lat="48.15398" lon="7.20514">
        <ele>356</ele>
        <time>2019-04-15T18:32:56Z</time>
      </trkpt>
      <trkpt lat="48.15407" lon="7.20481">
        <ele>355</ele>
        <time>2019-04-15T18:33:56Z</time>
      </trkpt>
      <trkpt lat="48.15415" lon="7.20455">
        <ele>354</ele>
        <time>2019-04-15T18:34:56Z</time>
      </trkpt>
      <trkpt lat="48.15418" lon="7.20443">
        <ele>354</ele>
        <time>2019-04-15T18:35:56Z</time>
      </trkpt>
      <trkpt lat="48.1542" lon="7.20434">
        <ele>355</ele>
        <time>2019-04-15T18:36:56Z</time>
      </trkpt>
      <trkpt lat="48.15422" lon="7.20428">
        <ele>355</ele>
        <time>2019-04-15T18:37:56Z</time>
      </trkpt>
      <trkpt lat="48.15423" lon="7.2042">
        <ele>356</ele>
        <time>2019-04-15T18:38:56Z</time>
      </trkpt>
      <trkpt lat="48.15425" lon="7.20413">
        <ele>356</ele>
        <time>2019-04-15T18:39:56Z</time>
      </trkpt>
      <trkpt lat="48.15426" lon="7.20406">
        <ele>356</ele>
        <time>2019-04-15T18:40:56Z</time>
      </trkpt>
      <trkpt lat="48.15428" lon="7.20395">
        <ele>355</ele>
        <time>2019-04-15T18:41:56Z</time>
      </trkpt>
      <trkpt lat="48.1543" lon="7.20375">
        <ele>355</ele>
        <time>2019-04-15T18:42:56Z</time>
      </trkpt>
      <trkpt lat="48.15431" lon="7.2036">
        <ele>355</ele>
        <time>2019-04-15T18:43:56Z</time>
      </trkpt>
      <trkpt lat="48.15432" lon="7.20345">
        <ele>355</ele>
        <time>2019-04-15T18:44:56Z</time>
      </trkpt>
      <trkpt lat="48.15432" lon="7.20333">
        <ele>355</ele>
        <time>2019-04-15T18:45:56Z</time>
      </trkpt>
      <trkpt lat="48.15431" lon="7.2032">
        <ele>354</ele>
        <time>2019-04-15T18:46:56Z</time>
      </trkpt>
      <trkpt lat="48.1543" lon="7.20307">
        <ele>354</ele>
        <time>2019-04-15T18:47:56Z</time>
      </trkpt>
      <trkpt lat="48.15429" lon="7.20294">
        <ele>353</ele>
        <time>2019-04-15T18:48:56Z</time>
      </trkpt>
      <trkpt lat="48.15427" lon="7.20283">
        <ele>353</ele>
        <time>2019-04-15T18:49:56Z</time>
      </trkpt>
      <trkpt lat="48.15424" lon="7.20268">
        <ele>352</ele>
        <time>2019-04-15T18:50:56Z</time>
      </trkpt>
      <trkpt lat="48.15421" lon="7.20255">
        <ele>352</ele>
        <time>2019-04-15T18:51:56Z</time>
      </trkpt>
      <trkpt lat="48.15418" lon="7.20245">
        <ele>351</ele>
        <time>2019-04-15T18:52:56Z</time>
      </trkpt>
      <trkpt lat="48.15415" lon="7.20235">
        <ele>352</ele>
        <time>2019-04-15T18:53:56Z</time>
      </trkpt>
      <trkpt lat="48.15409" lon="7.20214">
        <ele>353</ele>
        <time>2019-04-15T18:54:56Z</time>
      </trkpt>
      <trkpt lat="48.1539" lon="7.20161">
        <ele>358</ele>
        <time>2019-04-15T18:55:56Z</time>
      </trkpt>
      <trkpt lat="48.15371" lon="7.20107">
        <ele>359</ele>
        <time>2019-04-15T18:56:56Z</time>
      </trkpt>
      <trkpt lat="48.15369" lon="7.201">
        <ele>359</ele>
        <time>2019-04-15T18:57:56Z</time>
      </trkpt>
      <trkpt lat="48.15356" lon="7.20064">
        <ele>358</ele>
        <time>2019-04-15T18:58:56Z</time>
      </trkpt>
      <trkpt lat="48.15348" lon="7.20042">
        <ele>357</ele>
        <time>2019-04-15T18:59:56Z</time>
      </trkpt>
      <trkpt lat="48.15343" lon="7.20029">
        <ele>356</ele>
        <time>2019-04-15T19:00:56Z</time>
      </trkpt>
      <trkpt lat="48.15338" lon="7.20019">
        <ele>355</ele>
        <time>2019-04-15T19:01:56Z</time>
      </trkpt>
      <trkpt lat="48.15333" lon="7.20009">
        <ele>354</ele>
        <time>2019-04-15T19:02:56Z</time>
      </trkpt>
      <trkpt lat="48.15326" lon="7.19995">
        <ele>354</ele>
        <time>2019-04-15T19:03:56Z</time>
      </trkpt>
      <trkpt lat="48.15316" lon="7.19978">
        <ele>356</ele>
        <time>2019-04-15T19:04:56Z</time>
      </trkpt>
      <trkpt lat="48.15296" lon="7.19947">
        <ele>358</ele>
        <time>2019-04-15T19:05:56Z</time>
      </trkpt>
      <trkpt lat="48.15274" lon="7.19915">
        <ele>358</ele>
        <time>2019-04-15T19:06:56Z</time>
      </trkpt>
      <trkpt lat="48.15228" lon="7.19847">
        <ele>361</ele>
        <time>2019-04-15T19:07:56Z</time>
      </trkpt>
      <trkpt lat="48.15195" lon="7.19802">
        <ele>363</ele>
        <time>2019-04-15T19:08:56Z</time>
      </trkpt>
      <trkpt lat="48.15157" lon="7.19748">
        <ele>361</ele>
        <time>2019-04-15T19:09:56Z</time>
      </trkpt>
      <trkpt lat="48.15141" lon="7.19726">
        <ele>363</ele>
        <time>2019-04-15T19:10:56Z</time>
      </trkpt>
      <trkpt lat="48.15123" lon="7.19703">
        <ele>364</ele>
        <time>2019-04-15T19:11:56Z</time>
      </trkpt>
      <trkpt lat="48.15117" lon="7.19696">
        <ele>364</ele>
        <time>2019-04-15T19:12:56Z</time>
      </trkpt>
      <trkpt lat="48.15099" lon="7.19673">
        <ele>364</ele>
        <time>2019-04-15T19:13:56Z</time>
      </trkpt>
      <trkpt lat="48.15087" lon="7.19659">
        <ele>364</ele>
        <time>2019-04-15T19:14:56Z</time>
      </trkpt>
      <trkpt lat="48.15052" lon="7.19616">
        <ele>368</ele>
        <time>2019-04-15T19:15:56Z</time>
      </trkpt>
      <trkpt lat="48.15042" lon="7.19605">
        <ele>369</ele>
        <time>2019-04-15T19:16:56Z</time>
      </trkpt>
      <trkpt lat="48.1503" lon="7.19589">
        <ele>368</ele>
        <time>2019-04-15T19:17:56Z</time>
      </trkpt>
      <trkpt lat="48.15027" lon="7.19585">
        <ele>367</ele>
        <time>2019-04-15T19:18:56Z</time>
      </trkpt>
      <trkpt lat="48.15024" lon="7.19581">
        <ele>367</ele>
        <time>2019-04-15T19:19:56Z</time>
      </trkpt>
      <trkpt lat="48.1502" lon="7.19574">
        <ele>367</ele>
        <time>2019-04-15T19:20:56Z</time>
      </trkpt>
      <trkpt lat="48.15007" lon="7.19554">
        <ele>366</ele>
        <time>2019-04-15T19:21:56Z</time>
      </trkpt>
      <trkpt lat="48.14987" lon="7.19514">
        <ele>366</ele>
        <time>2019-04-15T19:22:56Z</time>
      </trkpt>
      <trkpt lat="48.14977" lon="7.19497">
        <ele>366</ele>
        <time>2019-04-15T19:23:56Z</time>
      </trkpt>
      <trkpt lat="48.14963" lon="7.1947">
        <ele>368</ele>
        <time>2019-04-15T19:24:56Z</time>
      </trkpt>
      <trkpt lat="48.14953" lon="7.19451">
        <ele>369</ele>
        <time>2019-04-15T19:25:56Z</time>
      </trkpt>
      <trkpt lat="48.14945" lon="7.19438">
        <ele>369</ele>
        <time>2019-04-15T19:26:56Z</time>
      </trkpt>
      <trkpt lat="48.14936" lon="7.19421">
        <ele>370</ele>
        <time>2019-04-15T19:27:56Z</time>
      </trkpt>
      <trkpt lat="48.14916" lon="7.19384">
        <ele>369</ele>
        <time>2019-04-15T19:28:56Z</time>
      </trkpt>
      <trkpt lat="48.14893" lon="7.19336">
        <ele>370</ele>
        <time>2019-04-15T19:29:56Z</time>
      </trkpt>
      <trkpt lat="48.1488" lon="7.19306">
        <ele>373</ele>
        <time>2019-04-15T19:30:56Z</time>
      </trkpt>
      <trkpt lat="48.14874" lon="7.1929">
        <ele>374</ele>
        <time>2019-04-15T19:31:56Z</time>
      </trkpt>
      <trkpt lat="48.14868" lon="7.19274">
        <ele>374</ele>
        <time>2019-04-15T19:32:56Z</time>
      </trkpt>
      <trkpt lat="48.14863" lon="7.19256">
        <ele>375</ele>
        <time>2019-04-15T19:33:56Z</time>
      </trkpt>
      <trkpt lat="48.14859" lon="7.19244">
        <ele>375</ele>
        <time>2019-04-15T19:34:56Z</time>
      </trkpt>
      <trkpt lat="48.14856" lon="7.19229">
        <ele>375</ele>
        <time>2019-04-15T19:35:56Z</time>
      </trkpt>
      <trkpt lat="48.14852" lon="7.19212">
        <ele>376</ele>
        <time>2019-04-15T19:36:56Z</time>
      </trkpt>
      <trkpt lat="48.14846" lon="7.19186">
        <ele>376</ele>
        <time>2019-04-15T19:37:56Z</time>
      </trkpt>
      <trkpt lat="48.14841" lon="7.19158">
        <ele>376</ele>
        <time>2019-04-15T19:38:56Z</time>
      </trkpt>
      <trkpt lat="48.14838" lon="7.19143">
        <ele>376</ele>
        <time>2019-04-15T19:39:56Z</time>
      </trkpt>
      <trkpt lat="48.14838" lon="7.19141">
        <ele>376</ele>
        <time>2019-04-15T19:40:56Z</time>
      </trkpt>
      <trkpt lat="48.14834" lon="7.19126">
        <ele>375</ele>
        <time>2019-04-15T19:41:56Z</time>
      </trkpt>
      <trkpt lat="48.14831" lon="7.19112">
        <ele>375</ele>
        <time>2019-04-15T19:42:56Z</time>
      </trkpt>
      <trkpt lat="48.14825" lon="7.19091">
        <ele>375</ele>
        <time>2019-04-15T19:43:56Z</time>
      </trkpt>
      <trkpt lat="48.14813" lon="7.19049">
        <ele>377</ele>
        <time>2019-04-15T19:44:56Z</time>
      </trkpt>
      <trkpt lat="48.14801" lon="7.19008">
        <ele>377</ele>
        <time>2019-04-15T19:45:56Z</time>
      </trkpt>
      <trkpt lat="48.14798" lon="7.18998">
        <ele>377</ele>
        <time>2019-04-15T19:46:56Z</time>
      </trkpt>
      <trkpt lat="48.14794" lon="7.18981">
        <ele>377</ele>
        <time>2019-04-15T19:47:56Z</time>
      </trkpt>
      <trkpt lat="48.14791" lon="7.18969">
        <ele>376</ele>
        <time>2019-04-15T19:48:56Z</time>
      </trkpt>
      <trkpt lat="48.14784" lon="7.1894">
        <ele>376</ele>
        <time>2019-04-15T19:49:56Z</time>
      </trkpt>
      <trkpt lat="48.14779" lon="7.1892">
        <ele>375</ele>
        <time>2019-04-15T19:50:56Z</time>
      </trkpt>
      <trkpt lat="48.14776" lon="7.18912">
        <ele>375</ele>
        <time>2019-04-15T19:51:56Z</time>
      </trkpt>
      <trkpt lat="48.14774" lon="7.18906">
        <ele>375</ele>
        <time>2019-04-15T19:52:56Z</time>
      </trkpt>
      <trkpt lat="48.14771" lon="7.18899">
        <ele>375</ele>
        <time>2019-04-15T19:53:56Z</time>
      </trkpt>
      <trkpt lat="48.14769" lon="7.18893">
        <ele>375</ele>
        <time>2019-04-15T19:54:56Z</time>
      </trkpt>
      <trkpt lat="48.14765" lon="7.18887">
        <ele>375</ele>
        <time>2019-04-15T19:55:56Z</time>
      </trkpt>
      <trkpt lat="48.14762" lon="7.18881">
        <ele>375</ele>
        <time>2019-04-15T19:56:56Z</time>
      </trkpt>
      <trkpt lat="48.14756" lon="7.18874">
        <ele>376</ele>
        <time>2019-04-15T19:57:56Z</time>
      </trkpt>
      <trkpt lat="48.14751" lon="7.18868">
        <ele>376</ele>
        <time>2019-04-15T19:58:56Z</time>
      </trkpt>
      <trkpt lat="48.14747" lon="7.18864">
        <ele>376</ele>
        <time>2019-04-15T19:59:56Z</time>
      </trkpt>
      <trkpt lat="48.1474" lon="7.18859">
        <ele>376</ele>
        <time>2019-04-15T20:00:56Z</time>
      </trkpt>
      <trkpt lat="48.14729" lon="7.18851">
        <ele>376</ele>
        <time>2019-04-15T20:01:56Z</time>
      </trkpt>
      <trkpt lat="48.1472" lon="7.18841">
        <ele>376</ele>
        <time>2019-04-15T20:02:56Z</time>
      </trkpt>
      <trkpt lat="48.14711" lon="7.18831">
        <ele>375</ele>
        <time>2019-04-15T20:03:56Z</time>
      </trkpt>
      <trkpt lat="48.14701" lon="7.18817">
        <ele>376</ele>
        <time>2019-04-15T20:04:56Z</time>
      </trkpt>
      <trkpt lat="48.14691" lon="7.18803">
        <ele>376</ele>
        <time>2019-04-15T20:05:56Z</time>
      </trkpt>
      <trkpt lat="48.14687" lon="7.18796">
        <ele>376</ele>
        <time>2019-04-15T20:06:56Z</time>
      </trkpt>
      <trkpt lat="48.14682" lon="7.18788">
        <ele>376</ele>
        <time>2019-04-15T20:07:56Z</time>
      </trkpt>
      <trkpt lat="48.14678" lon="7.18778">
        <ele>376</ele>
        <time>2019-04-15T20:08:56Z</time>
      </trkpt>
      <trkpt lat="48.14674" lon="7.18769">
        <ele>376</ele>
        <time>2019-04-15T20:09:56Z</time>
      </trkpt>
      <trkpt lat="48.1467" lon="7.18757">
        <ele>376</ele>
        <time>2019-04-15T20:10:56Z</time>
      </trkpt>
      <trkpt lat="48.14665" lon="7.18742">
        <ele>376</ele>
        <time>2019-04-15T20:11:56Z</time>
      </trkpt>
      <trkpt lat="48.1466" lon="7.18724">
        <ele>376</ele>
        <time>2019-04-15T20:12:56Z</time>
      </trkpt>
      <trkpt lat="48.14649" lon="7.18683">
        <ele>377</ele>
        <time>2019-04-15T20:13:56Z</time>
      </trkpt>
      <trkpt lat="48.14636" lon="7.18634">
        <ele>378</ele>
        <time>2019-04-15T20:14:56Z</time>
      </trkpt>
      <trkpt lat="48.14607" lon="7.1852">
        <ele>381</ele>
        <time>2019-04-15T20:15:56Z</time>
      </trkpt>
      <trkpt lat="48.14591" lon="7.18456">
        <ele>381</ele>
        <time>2019-04-15T20:16:56Z</time>
      </trkpt>
      <trkpt lat="48.14587" lon="7.18442">
        <ele>381</ele>
        <time>2019-04-15T20:17:56Z</time>
      </trkpt>
      <trkpt lat="48.14583" lon="7.18427">
        <ele>381</ele>
        <time>2019-04-15T20:18:56Z</time>
      </trkpt>
      <trkpt lat="48.14578" lon="7.18411">
        <ele>381</ele>
        <time>2019-04-15T20:19:56Z</time>
      </trkpt>
      <trkpt lat="48.14575" lon="7.18402">
        <ele>381</ele>
        <time>2019-04-15T20:20:56Z</time>
      </trkpt>
      <trkpt lat="48.14568" lon="7.18385">
        <ele>382</ele>
        <time>2019-04-15T20:21:56Z</time>
      </trkpt>
      <trkpt lat="48.1456" lon="7.18366">
        <ele>382</ele>
        <time>2019-04-15T20:22:56Z</time>
      </trkpt>
      <trkpt lat="48.14558" lon="7.18353">
        <ele>382</ele>
        <time>2019-04-15T20:23:56Z</time>
      </trkpt>
      <trkpt lat="48.14543" lon="7.18306">
        <ele>383</ele>
        <time>2019-04-15T20:24:56Z</time>
      </trkpt>
      <trkpt lat="48.14539" lon="7.18292">
        <ele>383</ele>
        <time>2019-04-15T20:25:56Z</time>
      </trkpt>
      <trkpt lat="48.14539" lon="7.18292">
        <ele>383</ele>
        <time>2019-04-15T20:26:56Z</time>
      </trkpt>
      <trkpt lat="48.14541" lon="7.18288">
        <ele>384</ele>
        <time>2019-04-15T20:27:56Z</time>
      </trkpt>
      <trkpt lat="48.14542" lon="7.18284">
        <ele>384</ele>
        <time>2019-04-15T20:28:56Z</time>
      </trkpt>
      <trkpt lat="48.14543" lon="7.1828">
        <ele>384</ele>
        <time>2019-04-15T20:29:56Z</time>
      </trkpt>
      <trkpt lat="48.14544" lon="7.18278">
        <ele>384</ele>
        <time>2019-04-15T20:30:56Z</time>
      </trkpt>
      <trkpt lat="48.14544" lon="7.18278">
        <ele>384</ele>
        <time>2019-04-15T20:31:56Z</time>
      </trkpt>
      <trkpt lat="48.14544" lon="7.18276">
        <ele>384</ele>
        <time>2019-04-15T20:32:56Z</time>
      </trkpt>
      <trkpt lat="48.14545" lon="7.18272">
        <ele>384</ele>
        <time>2019-04-15T20:33:56Z</time>
      </trkpt>
      <trkpt lat="48.14545" lon="7.18267">
        <ele>385</ele>
        <time>2019-04-15T20:34:56Z</time>
      </trkpt>
      <trkpt lat="48.14545" lon="7.18263">
        <ele>385</ele>
        <time>2019-04-15T20:35:56Z</time>
      </trkpt>
      <trkpt lat="48.14544" lon="7.18259">
        <ele>385</ele>
        <time>2019-04-15T20:36:56Z</time>
      </trkpt>
      <trkpt lat="48.14543" lon="7.18255">
        <ele>385</ele>
        <time>2019-04-15T20:37:56Z</time>
      </trkpt>
      <trkpt lat="48.14542" lon="7.18251">
        <ele>385</ele>
        <time>2019-04-15T20:38:56Z</time>
      </trkpt>
      <trkpt lat="48.14541" lon="7.18247">
        <ele>385</ele>
        <time>2019-04-15T20:39:56Z</time>
      </trkpt>
      <trkpt lat="48.14539" lon="7.18243">
        <ele>386</ele>
        <time>2019-04-15T20:40:56Z</time>
      </trkpt>
      <trkpt lat="48.14537" lon="7.1824">
        <ele>386</ele>
        <time>2019-04-15T20:41:56Z</time>
      </trkpt>
      <trkpt lat="48.14536" lon="7.18238">
        <ele>386</ele>
        <time>2019-04-15T20:42:56Z</time>
      </trkpt>
      <trkpt lat="48.14536" lon="7.18238">
        <ele>386</ele>
        <time>2019-04-15T20:43:56Z</time>
      </trkpt>
      <trkpt lat="48.14539" lon="7.18227">
        <ele>387</ele>
        <time>2019-04-15T20:44:56Z</time>
      </trkpt>
      <trkpt lat="48.14544" lon="7.18215">
        <ele>388</ele>
        <time>2019-04-15T20:45:56Z</time>
      </trkpt>
      <trkpt lat="48.14569" lon="7.18146">
        <ele>392</ele>
        <time>2019-04-15T20:46:56Z</time>
      </trkpt>
      <trkpt lat="48.14574" lon="7.18126">
        <ele>392</ele>
        <time>2019-04-15T20:47:56Z</time>
      </trkpt>
      <trkpt lat="48.1458" lon="7.18107">
        <ele>392</ele>
        <time>2019-04-15T20:48:56Z</time>
      </trkpt>
      <trkpt lat="48.1459" lon="7.18077">
        <ele>393</ele>
        <time>2019-04-15T20:49:56Z</time>
      </trkpt>
      <trkpt lat="48.14603" lon="7.18036">
        <ele>393</ele>
        <time>2019-04-15T20:50:56Z</time>
      </trkpt>
      <trkpt lat="48.14615" lon="7.17995">
        <ele>392</ele>
        <time>2019-04-15T20:51:56Z</time>
      </trkpt>
      <trkpt lat="48.14619" lon="7.17982">
        <ele>392</ele>
        <time>2019-04-15T20:52:56Z</time>
      </trkpt>
      <trkpt lat="48.14622" lon="7.17962">
        <ele>392</ele>
        <time>2019-04-15T20:53:56Z</time>
      </trkpt>
      <trkpt lat="48.14623" lon="7.17958">
        <ele>392</ele>
        <time>2019-04-15T20:54:56Z</time>
      </trkpt>
      <trkpt lat="48.14626" lon="7.17933">
        <ele>392</ele>
        <time>2019-04-15T20:55:56Z</time>
      </trkpt>
      <trkpt lat="48.14628" lon="7.1792">
        <ele>392</ele>
        <time>2019-04-15T20:56:56Z</time>
      </trkpt>
      <trkpt lat="48.14629" lon="7.17905">
        <ele>392</ele>
        <time>2019-04-15T20:57:56Z</time>
      </trkpt>
      <trkpt lat="48.1463" lon="7.1789">
        <ele>392</ele>
        <time>2019-04-15T20:58:56Z</time>
      </trkpt>
      <trkpt lat="48.14633" lon="7.17869">
        <ele>393</ele>
        <time>2019-04-15T20:59:56Z</time>
      </trkpt>
      <trkpt lat="48.14635" lon="7.17854">
        <ele>393</ele>
        <time>2019-04-15T21:00:56Z</time>
      </trkpt>
      <trkpt lat="48.14637" lon="7.17844">
        <ele>393</ele>
        <time>2019-04-15T21:01:56Z</time>
      </trkpt>
      <trkpt lat="48.14638" lon="7.17836">
        <ele>394</ele>
        <time>2019-04-15T21:02:56Z</time>
      </trkpt>
      <trkpt lat="48.14641" lon="7.17826">
        <ele>394</ele>
        <time>2019-04-15T21:03:56Z</time>
      </trkpt>
      <trkpt lat="48.14645" lon="7.1781">
        <ele>394</ele>
        <time>2019-04-15T21:04:56Z</time>
      </trkpt>
      <trkpt lat="48.14645" lon="7.17809">
        <ele>394</ele>
        <time>2019-04-15T21:05:56Z</time>
      </trkpt>
      <trkpt lat="48.14649" lon="7.17796">
        <ele>395</ele>
        <time>2019-04-15T21:06:56Z</time>
      </trkpt>
      <trkpt lat="48.14651" lon="7.17793">
        <ele>395</ele>
        <time>2019-04-15T21:07:56Z</time>
      </trkpt>
      <trkpt lat="48.14654" lon="7.17785">
        <ele>395</ele>
        <time>2019-04-15T21:08:56Z</time>
      </trkpt>
      <trkpt lat="48.14657" lon="7.17778">
        <ele>395</ele>
        <time>2019-04-15T21:09:56Z</time>
      </trkpt>
      <trkpt lat="48.14661" lon="7.1777">
        <ele>394</ele>
        <time>2019-04-15T21:10:56Z</time>
      </trkpt>
      <trkpt lat="48.1467" lon="7.17751">
        <ele>394</ele>
        <time>2019-04-15T21:11:56Z</time>
      </trkpt>
      <trkpt lat="48.14672" lon="7.17749">
        <ele>395</ele>
        <time>2019-04-15T21:12:56Z</time>
      </trkpt>
      <trkpt lat="48.14685" lon="7.17725">
        <ele>396</ele>
        <time>2019-04-15T21:13:56Z</time>
      </trkpt>
      <trkpt lat="48.14685" lon="7.17724">
        <ele>396</ele>
        <time>2019-04-15T21:14:56Z</time>
      </trkpt>
      <trkpt lat="48.14714" lon="7.17676">
        <ele>396</ele>
        <time>2019-04-15T21:15:56Z</time>
      </trkpt>
      <trkpt lat="48.14718" lon="7.17672">
        <ele>396</ele>
        <time>2019-04-15T21:16:56Z</time>
      </trkpt>
      <trkpt lat="48.14747" lon="7.17634">
        <ele>398</ele>
        <time>2019-04-15T21:17:56Z</time>
      </trkpt>
      <trkpt lat="48.14754" lon="7.17626">
        <ele>398</ele>
        <time>2019-04-15T21:18:56Z</time>
      </trkpt>
      <trkpt lat="48.14783" lon="7.17597">
        <ele>401</ele>
        <time>2019-04-15T21:19:56Z</time>
      </trkpt>
      <trkpt lat="48.14798" lon="7.17585">
        <ele>401</ele>
        <time>2019-04-15T21:20:56Z</time>
      </trkpt>
      <trkpt lat="48.14813" lon="7.17573">
        <ele>402</ele>
        <time>2019-04-15T21:21:56Z</time>
      </trkpt>
      <trkpt lat="48.14813" lon="7.17573">
        <ele>402</ele>
        <time>2019-04-15T21:22:56Z</time>
      </trkpt>
      <trkpt lat="48.14811" lon="7.17561">
        <ele>403</ele>
        <time>2019-04-15T21:23:56Z</time>
      </trkpt>
      <trkpt lat="48.14811" lon="7.17548">
        <ele>404</ele>
        <time>2019-04-15T21:24:56Z</time>
      </trkpt>
      <trkpt lat="48.1481" lon="7.17537">
        <ele>404</ele>
        <time>2019-04-15T21:25:56Z</time>
      </trkpt>
      <trkpt lat="48.1481" lon="7.17507">
        <ele>406</ele>
        <time>2019-04-15T21:26:56Z</time>
      </trkpt>
      <trkpt lat="48.14818" lon="7.17488">
        <ele>406</ele>
        <time>2019-04-15T21:27:56Z</time>
      </trkpt>
      <trkpt lat="48.14824" lon="7.17477">
        <ele>406</ele>
        <time>2019-04-15T21:28:56Z</time>
      </trkpt>
      <trkpt lat="48.14839" lon="7.17447">
        <ele>406</ele>
        <time>2019-04-15T21:29:56Z</time>
      </trkpt>
      <trkpt lat="48.14904" lon="7.17335">
        <ele>410</ele>
        <time>2019-04-15T21:30:56Z</time>
      </trkpt>
      <trkpt lat="48.14922" lon="7.17303">
        <ele>412</ele>
        <time>2019-04-15T21:31:56Z</time>
      </trkpt>
      <trkpt lat="48.14938" lon="7.17277">
        <ele>414</ele>
        <time>2019-04-15T21:32:56Z</time>
      </trkpt>
      <trkpt lat="48.14952" lon="7.17255">
        <ele>415</ele>
        <time>2019-04-15T21:33:56Z</time>
      </trkpt>
      <trkpt lat="48.14963" lon="7.17239">
        <ele>415</ele>
        <time>2019-04-15T21:34:56Z</time>
      </trkpt>
      <trkpt lat="48.14967" lon="7.17234">
        <ele>415</ele>
        <time>2019-04-15T21:35:56Z</time>
      </trkpt>
      <trkpt lat="48.14991" lon="7.17202">
        <ele>413</ele>
        <time>2019-04-15T21:36:56Z</time>
      </trkpt>
      <trkpt lat="48.15005" lon="7.17186">
        <ele>412</ele>
        <time>2019-04-15T21:37:56Z</time>
      </trkpt>
      <trkpt lat="48.1502" lon="7.1717">
        <ele>413</ele>
        <time>2019-04-15T21:38:56Z</time>
      </trkpt>
      <trkpt lat="48.15054" lon="7.17138">
        <ele>414</ele>
        <time>2019-04-15T21:39:56Z</time>
      </trkpt>
      <trkpt lat="48.15059" lon="7.17133">
        <ele>414</ele>
        <time>2019-04-15T21:40:56Z</time>
      </trkpt>
      <trkpt lat="48.151" lon="7.17089">
        <ele>415</ele>
        <time>2019-04-15T21:41:56Z</time>
      </trkpt>
      <trkpt lat="48.15106" lon="7.17082">
        <ele>415</ele>
        <time>2019-04-15T21:42:56Z</time>
      </trkpt>
      <trkpt lat="48.15131" lon="7.17053">
        <ele>416</ele>
        <time>2019-04-15T21:43:56Z</time>
      </trkpt>
      <trkpt lat="48.1514" lon="7.17042">
        <ele>416</ele>
        <time>2019-04-15T21:44:56Z</time>
      </trkpt>
      <trkpt lat="48.15159" lon="7.17016">
        <ele>415</ele>
        <time>2019-04-15T21:45:56Z</time>
      </trkpt>
      <trkpt lat="48.15171" lon="7.16999">
        <ele>415</ele>
        <time>2019-04-15T21:46:56Z</time>
      </trkpt>
      <trkpt lat="48.1518" lon="7.16983">
        <ele>416</ele>
        <time>2019-04-15T21:47:56Z</time>
      </trkpt>
      <trkpt lat="48.1519" lon="7.16965">
        <ele>417</ele>
        <time>2019-04-15T21:48:56Z</time>
      </trkpt>
      <trkpt lat="48.15201" lon="7.16941">
        <ele>418</ele>
        <time>2019-04-15T21:49:56Z</time>
      </trkpt>
      <trkpt lat="48.15206" lon="7.1693">
        <ele>419</ele>
        <time>2019-04-15T21:50:56Z</time>
      </trkpt>
      <trkpt lat="48.15208" lon="7.16925">
        <ele>419</ele>
        <time>2019-04-15T21:51:56Z</time>
      </trkpt>
      <trkpt lat="48.15211" lon="7.1692">
        <ele>419</ele>
        <time>2019-04-15T21:52:56Z</time>
      </trkpt>
      <trkpt lat="48.15238" lon="7.16902">
        <ele>420</ele>
        <time>2019-04-15T21:53:56Z</time>
      </trkpt>
      <trkpt lat="48.15246" lon="7.16898">
        <ele>420</ele>
        <time>2019-04-15T21:54:56Z</time>
      </trkpt>
      <trkpt lat="48.15252" lon="7.16894">
        <ele>420</ele>
        <time>2019-04-15T21:55:56Z</time>
      </trkpt>
      <trkpt lat="48.15256" lon="7.16891">
        <ele>420</ele>
        <time>2019-04-15T21:56:56Z</time>
      </trkpt>
      <trkpt lat="48.15259" lon="7.16887">
        <ele>420</ele>
        <time>2019-04-15T21:57:56Z</time>
      </trkpt>
      <trkpt lat="48.15262" lon="7.16883">
        <ele>421</ele>
        <time>2019-04-15T21:58:56Z</time>
      </trkpt>
      <trkpt lat="48.15266" lon="7.16878">
        <ele>421</ele>
        <time>2019-04-15T21:59:56Z</time>
      </trkpt>
      <trkpt lat="48.15283" lon="7.16853">
        <ele>422</ele>
        <time>2019-04-15T22:00:56Z</time>
      </trkpt>
      <trkpt lat="48.15294" lon="7.16838">
        <ele>422</ele>
        <time>2019-04-15T22:01:56Z</time>
      </trkpt>
      <trkpt lat="48.15307" lon="7.16824">
        <ele>423</ele>
        <time>2019-04-15T22:02:56Z</time>
      </trkpt>
      <trkpt lat="48.1532" lon="7.16814">
        <ele>423</ele>
        <time>2019-04-15T22:03:56Z</time>
      </trkpt>
      <trkpt lat="48.15333" lon="7.16804">
        <ele>423</ele>
        <time>2019-04-15T22:04:56Z</time>
      </trkpt>
      <trkpt lat="48.1536" lon="7.16792">
        <ele>424</ele>
        <time>2019-04-15T22:05:56Z</time>
      </trkpt>
      <trkpt lat="48.1538" lon="7.16784">
        <ele>425</ele>
        <time>2019-04-15T22:06:56Z</time>
      </trkpt>
      <trkpt lat="48.15393" lon="7.1678">
        <ele>426</ele>
        <time>2019-04-15T22:07:56Z</time>
      </trkpt>
      <trkpt lat="48.154" lon="7.1678">
        <ele>426</ele>
        <time>2019-04-15T22:08:56Z</time>
      </trkpt>
      <trkpt lat="48.15405" lon="7.16779">
        <ele>426</ele>
        <time>2019-04-15T22:09:56Z</time>
      </trkpt>
      <trkpt lat="48.1541" lon="7.1678">
        <ele>426</ele>
        <time>2019-04-15T22:10:56Z</time>
      </trkpt>
      <trkpt lat="48.15419" lon="7.16781">
        <ele>427</ele>
        <time>2019-04-15T22:11:56Z</time>
      </trkpt>
      <trkpt lat="48.15443" lon="7.16783">
        <ele>428</ele>
        <time>2019-04-15T22:12:56Z</time>
      </trkpt>
      <trkpt lat="48.15449" lon="7.16782">
        <ele>428</ele>
        <time>2019-04-15T22:13:56Z</time>
      </trkpt>
      <trkpt lat="48.15453" lon="7.16779">
        <ele>428</ele>
        <time>2019-04-15T22:14:56Z</time>
      </trkpt>
      <trkpt lat="48.15457" lon="7.16776">
        <ele>428</ele>
        <time>2019-04-15T22:15:56Z</time>
      </trkpt>
      <trkpt lat="48.15463" lon="7.1677">
        <ele>428</ele>
        <time>2019-04-15T22:16:56Z</time>
      </trkpt>
      <trkpt lat="48.1547" lon="7.1676">
        <ele>429</ele>
        <time>2019-04-15T22:17:56Z</time>
      </trkpt>
      <trkpt lat="48.15479" lon="7.16747">
        <ele>429</ele>
        <time>2019-04-15T22:18:56Z</time>
      </trkpt>
      <trkpt lat="48.15491" lon="7.1673">
        <ele>430</ele>
        <time>2019-04-15T22:19:56Z</time>
      </trkpt>
      <trkpt lat="48.155" lon="7.16719">
        <ele>431</ele>
        <time>2019-04-15T22:20:56Z</time>
      </trkpt>
      <trkpt lat="48.15524" lon="7.16696">
        <ele>432</ele>
        <time>2019-04-15T22:21:56Z</time>
      </trkpt>
      <trkpt lat="48.15546" lon="7.16679">
        <ele>433</ele>
        <time>2019-04-15T22:22:56Z</time>
      </trkpt>
      <trkpt lat="48.15556" lon="7.16674">
        <ele>434</ele>
        <time>2019-04-15T22:23:56Z</time>
      </trkpt>
      <trkpt lat="48.15562" lon="7.16671">
        <ele>434</ele>
        <time>2019-04-15T22:24:56Z</time>
      </trkpt>
      <trkpt lat="48.15576" lon="7.16666">
        <ele>435</ele>
        <time>2019-04-15T22:25:56Z</time>
      </trkpt>
      <trkpt lat="48.1559" lon="7.1666">
        <ele>436</ele>
        <time>2019-04-15T22:26:56Z</time>
      </trkpt>
      <trkpt lat="48.15613" lon="7.16651">
        <ele>437</ele>
        <time>2019-04-15T22:27:56Z</time>
      </trkpt>
      <trkpt lat="48.15623" lon="7.16646">
        <ele>438</ele>
        <time>2019-04-15T22:28:56Z</time>
      </trkpt>
      <trkpt lat="48.15635" lon="7.16639">
        <ele>438</ele>
        <time>2019-04-15T22:29:56Z</time>
      </trkpt>
      <trkpt lat="48.1565" lon="7.16626">
        <ele>440</ele>
        <time>2019-04-15T22:30:56Z</time>
      </trkpt>
      <trkpt lat="48.15663" lon="7.16614">
        <ele>441</ele>
        <time>2019-04-15T22:31:56Z</time>
      </trkpt>
      <trkpt lat="48.1567" lon="7.16608">
        <ele>441</ele>
        <time>2019-04-15T22:32:56Z</time>
      </trkpt>
      <trkpt lat="48.15685" lon="7.16598">
        <ele>442</ele>
        <time>2019-04-15T22:33:56Z</time>
      </trkpt>
      <trkpt lat="48.157" lon="7.16592">
        <ele>443</ele>
        <time>2019-04-15T22:34:56Z</time>
      </trkpt>
      <trkpt lat="48.15717" lon="7.16588">
        <ele>444</ele>
        <time>2019-04-15T22:35:56Z</time>
      </trkpt>
      <trkpt lat="48.15728" lon="7.16586">
        <ele>444</ele>
        <time>2019-04-15T22:36:56Z</time>
      </trkpt>
      <trkpt lat="48.15749" lon="7.16585">
        <ele>445</ele>
        <time>2019-04-15T22:37:56Z</time>
      </trkpt>
      <trkpt lat="48.15768" lon="7.16585">
        <ele>446</ele>
        <time>2019-04-15T22:38:56Z</time>
      </trkpt>
      <trkpt lat="48.15781" lon="7.16586">
        <ele>447</ele>
        <time>2019-04-15T22:39:56Z</time>
      </trkpt>
      <trkpt lat="48.15791" lon="7.16587">
        <ele>448</ele>
        <time>2019-04-15T22:40:56Z</time>
      </trkpt>
      <trkpt lat="48.15811" lon="7.16589">
        <ele>449</ele>
        <time>2019-04-15T22:41:56Z</time>
      </trkpt>
      <trkpt lat="48.15835" lon="7.1659">
        <ele>451</ele>
        <time>2019-04-15T22:42:56Z</time>
      </trkpt>
      <trkpt lat="48.15889" lon="7.16587">
        <ele>455</ele>
        <time>2019-04-15T22:43:56Z</time>
      </trkpt>
      <trkpt lat="48.15944" lon="7.16585">
        <ele>459</ele>
        <time>2019-04-15T22:44:56Z</time>
      </trkpt>
      <trkpt lat="48.15963" lon="7.16584">
        <ele>461</ele>
        <time>2019-04-15T22:45:56Z</time>
      </trkpt>
      <trkpt lat="48.16008" lon="7.16581">
        <ele>465</ele>
        <time>2019-04-15T22:46:56Z</time>
      </trkpt>
      <trkpt lat="48.16028" lon="7.1658">
        <ele>465</ele>
        <time>2019-04-15T22:47:56Z</time>
      </trkpt>
      <trkpt lat="48.16065" lon="7.16578">
        <ele>466</ele>
        <time>2019-04-15T22:48:56Z</time>
      </trkpt>
      <trkpt lat="48.16083" lon="7.16576">
        <ele>467</ele>
        <time>2019-04-15T22:49:56Z</time>
      </trkpt>
      <trkpt lat="48.16091" lon="7.16576">
        <ele>467</ele>
        <time>2019-04-15T22:50:56Z</time>
      </trkpt>
      <trkpt lat="48.16094" lon="7.16575">
        <ele>467</ele>
        <time>2019-04-15T22:51:56Z</time>
      </trkpt>
      <trkpt lat="48.1611" lon="7.16574">
        <ele>468</ele>
        <time>2019-04-15T22:52:56Z</time>
      </trkpt>
      <trkpt lat="48.16123" lon="7.16577">
        <ele>469</ele>
        <time>2019-04-15T22:53:56Z</time>
      </trkpt>
      <trkpt lat="48.16133" lon="7.16582">
        <ele>470</ele>
        <time>2019-04-15T22:54:56Z</time>
      </trkpt>
      <trkpt lat="48.1614" lon="7.16586">
        <ele>470</ele>
        <time>2019-04-15T22:55:56Z</time>
      </trkpt>
      <trkpt lat="48.16148" lon="7.16591">
        <ele>471</ele>
        <time>2019-04-15T22:56:56Z</time>
      </trkpt>
      <trkpt lat="48.16148" lon="7.16591">
        <ele>471</ele>
        <time>2019-04-15T22:57:56Z</time>
      </trkpt>
      <trkpt lat="48.16155" lon="7.16581">
        <ele>471</ele>
        <time>2019-04-15T22:58:56Z</time>
      </trkpt>
      <trkpt lat="48.16158" lon="7.16576">
        <ele>472</ele>
        <time>2019-04-15T22:59:56Z</time>
      </trkpt>
      <trkpt lat="48.16167" lon="7.1656">
        <ele>472</ele>
        <time>2019-04-15T23:00:56Z</time>
      </trkpt>
      <trkpt lat="48.16167" lon="7.1656">
        <ele>472</ele>
        <time>2019-04-15T23:01:56Z</time>
      </trkpt>
      <trkpt lat="48.16173" lon="7.16558">
        <ele>474</ele>
        <time>2019-04-15T23:02:56Z</time>
      </trkpt>
      <trkpt lat="48.1618" lon="7.16552">
        <ele>475</ele>
        <time>2019-04-15T23:03:56Z</time>
      </trkpt>
      <trkpt lat="48.16189" lon="7.16542">
        <ele>477</ele>
        <time>2019-04-15T23:04:56Z</time>
      </trkpt>
      <trkpt lat="48.162" lon="7.16529">
        <ele>480</ele>
        <time>2019-04-15T23:05:56Z</time>
      </trkpt>
      <trkpt lat="48.1621" lon="7.16512">
        <ele>481</ele>
        <time>2019-04-15T23:06:56Z</time>
      </trkpt>
      <trkpt lat="48.16218" lon="7.16492">
        <ele>482</ele>
        <time>2019-04-15T23:07:56Z</time>
      </trkpt>
      <trkpt lat="48.16226" lon="7.1647">
        <ele>484</ele>
        <time>2019-04-15T23:08:56Z</time>
      </trkpt>
      <trkpt lat="48.16229" lon="7.16448">
        <ele>484</ele>
        <time>2019-04-15T23:09:56Z</time>
      </trkpt>
      <trkpt lat="48.16229" lon="7.16448">
        <ele>484</ele>
        <time>2019-04-15T23:10:56Z</time>
      </trkpt>
      <trkpt lat="48.1624" lon="7.16427">
        <ele>484</ele>
        <time>2019-04-15T23:11:56Z</time>
      </trkpt>
      <trkpt lat="48.16244" lon="7.16417">
        <ele>484</ele>
        <time>2019-04-15T23:12:56Z</time>
      </trkpt>
      <trkpt lat="48.1626" lon="7.16396">
        <ele>488</ele>
        <time>2019-04-15T23:13:56Z</time>
      </trkpt>
      <trkpt lat="48.16265" lon="7.16391">
        <ele>489</ele>
        <time>2019-04-15T23:14:56Z</time>
      </trkpt>
      <trkpt lat="48.16277" lon="7.16378">
        <ele>491</ele>
        <time>2019-04-15T23:15:56Z</time>
      </trkpt>
      <trkpt lat="48.16287" lon="7.16367">
        <ele>493</ele>
        <time>2019-04-15T23:16:56Z</time>
      </trkpt>
      <trkpt lat="48.16296" lon="7.16357">
        <ele>494</ele>
        <time>2019-04-15T23:17:56Z</time>
      </trkpt>
      <trkpt lat="48.16297" lon="7.16355">
        <ele>494</ele>
        <time>2019-04-15T23:18:56Z</time>
      </trkpt>
      <trkpt lat="48.16308" lon="7.16341">
        <ele>495</ele>
        <time>2019-04-15T23:19:56Z</time>
      </trkpt>
      <trkpt lat="48.16312" lon="7.16335">
        <ele>495</ele>
        <time>2019-04-15T23:20:56Z</time>
      </trkpt>
      <trkpt lat="48.16315" lon="7.16328">
        <ele>496</ele>
        <time>2019-04-15T23:21:56Z</time>
      </trkpt>
      <trkpt lat="48.16318" lon="7.16323">
        <ele>496</ele>
        <time>2019-04-15T23:22:56Z</time>
      </trkpt>
      <trkpt lat="48.16323" lon="7.16313">
        <ele>497</ele>
        <time>2019-04-15T23:23:56Z</time>
      </trkpt>
      <trkpt lat="48.16323" lon="7.16313">
        <ele>497</ele>
        <time>2019-04-15T23:24:56Z</time>
      </trkpt>
      <trkpt lat="48.16334" lon="7.16327">
        <ele>497</ele>
        <time>2019-04-15T23:25:56Z</time>
      </trkpt>
      <trkpt lat="48.16339" lon="7.16336">
        <ele>499</ele>
        <time>2019-04-15T23:26:56Z</time>
      </trkpt>
      <trkpt lat="48.16343" lon="7.16347">
        <ele>502</ele>
        <time>2019-04-15T23:27:56Z</time>
      </trkpt>
      <trkpt lat="48.16347" lon="7.16359">
        <ele>504</ele>
        <time>2019-04-15T23:28:56Z</time>
      </trkpt>
      <trkpt lat="48.16351" lon="7.16372">
        <ele>506</ele>
        <time>2019-04-15T23:29:56Z</time>
      </trkpt>
      <trkpt lat="48.16355" lon="7.16397">
        <ele>509</ele>
        <time>2019-04-15T23:30:56Z</time>
      </trkpt>
      <trkpt lat="48.16357" lon="7.1642">
        <ele>510</ele>
        <time>2019-04-15T23:31:56Z</time>
      </trkpt>
      <trkpt lat="48.16358" lon="7.16458">
        <ele>512</ele>
        <time>2019-04-15T23:32:56Z</time>
      </trkpt>
      <trkpt lat="48.16361" lon="7.16483">
        <ele>514</ele>
        <time>2019-04-15T23:33:56Z</time>
      </trkpt>
      <trkpt lat="48.16366" lon="7.16499">
        <ele>515</ele>
        <time>2019-04-15T23:34:56Z</time>
      </trkpt>
      <trkpt lat="48.16373" lon="7.16507">
        <ele>517</ele>
        <time>2019-04-15T23:35:56Z</time>
      </trkpt>
      <trkpt lat="48.16384" lon="7.16514">
        <ele>520</ele>
        <time>2019-04-15T23:36:56Z</time>
      </trkpt>
      <trkpt lat="48.16392" lon="7.16519">
        <ele>521</ele>
        <time>2019-04-15T23:37:56Z</time>
      </trkpt>
      <trkpt lat="48.16408" lon="7.16541">
        <ele>524</ele>
        <time>2019-04-15T23:38:56Z</time>
      </trkpt>
      <trkpt lat="48.16417" lon="7.16548">
        <ele>526</ele>
        <time>2019-04-15T23:39:56Z</time>
      </trkpt>
      <trkpt lat="48.1643" lon="7.16551">
        <ele>528</ele>
        <time>2019-04-15T23:40:56Z</time>
      </trkpt>
      <trkpt lat="48.16437" lon="7.1655">
        <ele>529</ele>
        <time>2019-04-15T23:41:56Z</time>
      </trkpt>
      <trkpt lat="48.1645" lon="7.16551">
        <ele>531</ele>
        <time>2019-04-15T23:42:56Z</time>
      </trkpt>
      <trkpt lat="48.1646" lon="7.16554">
        <ele>532</ele>
        <time>2019-04-15T23:43:56Z</time>
      </trkpt>
      <trkpt lat="48.16462" lon="7.16557">
        <ele>532</ele>
        <time>2019-04-15T23:44:56Z</time>
      </trkpt>
      <trkpt lat="48.16463" lon="7.16561">
        <ele>532</ele>
        <time>2019-04-15T23:45:56Z</time>
      </trkpt>
      <trkpt lat="48.16462" lon="7.16565">
        <ele>532</ele>
        <time>2019-04-15T23:46:56Z</time>
      </trkpt>
      <trkpt lat="48.1646" lon="7.16569">
        <ele>531</ele>
        <time>2019-04-15T23:47:56Z</time>
      </trkpt>
      <trkpt lat="48.16455" lon="7.16574">
        <ele>530</ele>
        <time>2019-04-15T23:48:56Z</time>
      </trkpt>
      <trkpt lat="48.16442" lon="7.16581">
        <ele>528</ele>
        <time>2019-04-15T23:49:56Z</time>
      </trkpt>
      <trkpt lat="48.1644" lon="7.16588">
        <ele>529</ele>
        <time>2019-04-15T23:50:56Z</time>
      </trkpt>
      <trkpt lat="48.16437" lon="7.16592">
        <ele>529</ele>
        <time>2019-04-15T23:51:56Z</time>
      </trkpt>
      <trkpt lat="48.16434" lon="7.16596">
        <ele>529</ele>
        <time>2019-04-15T23:52:56Z</time>
      </trkpt>
      <trkpt lat="48.16428" lon="7.16598">
        <ele>529</ele>
        <time>2019-04-15T23:53:56Z</time>
      </trkpt>
      <trkpt lat="48.1642" lon="7.166">
        <ele>528</ele>
        <time>2019-04-15T23:54:56Z</time>
      </trkpt>
      <trkpt lat="48.16409" lon="7.166">
        <ele>526</ele>
        <time>2019-04-15T23:55:56Z</time>
      </trkpt>
      <trkpt lat="48.16402" lon="7.16599">
        <ele>525</ele>
        <time>2019-04-15T23:56:56Z</time>
      </trkpt>
      <trkpt lat="48.16396" lon="7.16597">
        <ele>524</ele>
        <time>2019-04-15T23:57:56Z</time>
      </trkpt>
      <trkpt lat="48.16392" lon="7.16597">
        <ele>523</ele>
        <time>2019-04-15T23:58:56Z</time>
      </trkpt>
      <trkpt lat="48.16387" lon="7.16598">
        <ele>522</ele>
        <time>2019-04-15T23:59:56Z</time>
      </trkpt>
      <trkpt lat="48.16384" lon="7.16601">
        <ele>522</ele>
        <time>2019-04-16T00:00:56Z</time>
      </trkpt>
      <trkpt lat="48.16382" lon="7.16606">
        <ele>523</ele>
        <time>2019-04-16T00:01:56Z</time>
      </trkpt>
      <trkpt lat="48.16382" lon="7.16606">
        <ele>523</ele>
        <time>2019-04-16T00:02:56Z</time>
      </trkpt>
      <trkpt lat="48.16385" lon="7.16611">
        <ele>524</ele>
        <time>2019-04-16T00:03:56Z</time>
      </trkpt>
      <trkpt lat="48.16388" lon="7.16614">
        <ele>525</ele>
        <time>2019-04-16T00:04:56Z</time>
      </trkpt>
      <trkpt lat="48.16402" lon="7.16616">
        <ele>528</ele>
        <time>2019-04-16T00:05:56Z</time>
      </trkpt>
      <trkpt lat="48.16427" lon="7.16621">
        <ele>533</ele>
        <time>2019-04-16T00:06:56Z</time>
      </trkpt>
      <trkpt lat="48.16452" lon="7.16625">
        <ele>536</ele>
        <time>2019-04-16T00:07:56Z</time>
      </trkpt>
      <trkpt lat="48.16476" lon="7.1663">
        <ele>540</ele>
        <time>2019-04-16T00:08:56Z</time>
      </trkpt>
      <trkpt lat="48.16502" lon="7.16636">
        <ele>543</ele>
        <time>2019-04-16T00:09:56Z</time>
      </trkpt>
      <trkpt lat="48.16523" lon="7.16648">
        <ele>547</ele>
        <time>2019-04-16T00:10:56Z</time>
      </trkpt>
      <trkpt lat="48.16547" lon="7.16668">
        <ele>549</ele>
        <time>2019-04-16T00:11:56Z</time>
      </trkpt>
      <trkpt lat="48.1658" lon="7.16696">
        <ele>554</ele>
        <time>2019-04-16T00:12:56Z</time>
      </trkpt>
      <trkpt lat="48.16606" lon="7.16722">
        <ele>557</ele>
        <time>2019-04-16T00:13:56Z</time>
      </trkpt>
      <trkpt lat="48.16615" lon="7.16732">
        <ele>558</ele>
        <time>2019-04-16T00:14:56Z</time>
      </trkpt>
      <trkpt lat="48.16621" lon="7.16741">
        <ele>559</ele>
        <time>2019-04-16T00:15:56Z</time>
      </trkpt>
      <trkpt lat="48.16626" lon="7.16746">
        <ele>559</ele>
        <time>2019-04-16T00:16:56Z</time>
      </trkpt>
      <trkpt lat="48.16632" lon="7.16748">
        <ele>559</ele>
        <time>2019-04-16T00:17:56Z</time>
      </trkpt>
      <trkpt lat="48.1664" lon="7.16748">
        <ele>559</ele>
        <time>2019-04-16T00:18:56Z</time>
      </trkpt>
      <trkpt lat="48.1665" lon="7.16747">
        <ele>558</ele>
        <time>2019-04-16T00:19:56Z</time>
      </trkpt>
      <trkpt lat="48.1666" lon="7.16743">
        <ele>558</ele>
        <time>2019-04-16T00:20:56Z</time>
      </trkpt>
      <trkpt lat="48.16711" lon="7.16701">
        <ele>565</ele>
        <time>2019-04-16T00:21:56Z</time>
      </trkpt>
      <trkpt lat="48.16711" lon="7.16701">
        <ele>565</ele>
        <time>2019-04-16T00:22:56Z</time>
      </trkpt>
      <trkpt lat="48.16709" lon="7.16695">
        <ele>565</ele>
        <time>2019-04-16T00:23:56Z</time>
      </trkpt>
      <trkpt lat="48.16707" lon="7.16692">
        <ele>565</ele>
        <time>2019-04-16T00:24:56Z</time>
      </trkpt>
      <trkpt lat="48.16703" lon="7.16687">
        <ele>564</ele>
        <time>2019-04-16T00:25:56Z</time>
      </trkpt>
      <trkpt lat="48.167" lon="7.16683">
        <ele>564</ele>
        <time>2019-04-16T00:26:56Z</time>
      </trkpt>
      <trkpt lat="48.16696" lon="7.1668">
        <ele>563</ele>
        <time>2019-04-16T00:27:56Z</time>
      </trkpt>
      <trkpt lat="48.16688" lon="7.16673">
        <ele>562</ele>
        <time>2019-04-16T00:28:56Z</time>
      </trkpt>
      <trkpt lat="48.16672" lon="7.16663">
        <ele>560</ele>
        <time>2019-04-16T00:29:56Z</time>
      </trkpt>
      <trkpt lat="48.16666" lon="7.16658">
        <ele>560</ele>
        <time>2019-04-16T00:30:56Z</time>
      </trkpt>
      <trkpt lat="48.16661" lon="7.16653">
        <ele>560</ele>
        <time>2019-04-16T00:31:56Z</time>
      </trkpt>
      <trkpt lat="48.16657" lon="7.16649">
        <ele>560</ele>
        <time>2019-04-16T00:32:56Z</time>
      </trkpt>
      <trkpt lat="48.16654" lon="7.16645">
        <ele>559</ele>
        <time>2019-04-16T00:33:56Z</time>
      </trkpt>
      <trkpt lat="48.16651" lon="7.1664">
        <ele>560</ele>
        <time>2019-04-16T00:34:56Z</time>
      </trkpt>
      <trkpt lat="48.16645" lon="7.16631">
        <ele>559</ele>
        <time>2019-04-16T00:35:56Z</time>
      </trkpt>
      <trkpt lat="48.16642" lon="7.16626">
        <ele>559</ele>
        <time>2019-04-16T00:36:56Z</time>
      </trkpt>
    </trkseg>
  </trk>
</gpx>